# Wetter Temperatur Luftdruck Luftfeuchtigkeit Sichtweite Windgeschwindigkeit Windrichtung Zeit
1 Clouds 13 1026 71 10000 2.57 60 12:45 22.04.2021
2 Clouds 13 1026 71 10000 2.57 60 12:23 22.04.2021
3 Clouds 14 1026 67 10000 2.06 90 11:47 22.04.2021
4 Clouds 14 1026 67 10000 2.06 90 11:23 22.04.2021
5 Clouds 14 1026 67 10000 3.6 80 10:46 22.04.2021
6 Clouds 14 1026 67 10000 3.6 80 10:26 22.04.2021
7 Clouds 16 1027 55 10000 1.03 190 09:49 22.04.2021
8 Clouds 16 1027 55 10000 1.03 190 09:30 22.04.2021
9 Clouds 17 1027 51 10000 2.06 260 08:41 22.04.2021
10 Clouds 17 1027 51 10000 2.06 260 08:22 22.04.2021
11 Clouds 18 1027 52 10000 2.57 300 07:45 22.04.2021
12 Clouds 18 1027 52 10000 2.57 300 07:24 22.04.2021
13 Clear 19 1026 48 10000 1.03 320 06:32 22.04.2021
14 Clouds 20 1025 42 10000 4.12 310 05:26 22.04.2021
15 Clouds 22 1024 37 8047 5.14 220 04:56 22.04.2021
16 Clouds 27 1022 14 6437 5.66 110 01:23 22.04.2021
17 Clear 27 1024 12 8047 3.6 60 23:53 21.04.2021
18 Clear 27 1024 12 8047 3.6 60 23:32 21.04.2021
19 Clear 26 1025 14 8047 1.54 160 22:44 21.04.2021
20 Clear 26 1025 14 8047 1.54 160 22:24 21.04.2021
21 Clear 27 1025 12 8047 1.54 330 21:50 21.04.2021
22 Clear 27 1025 12 8047 1.54 330 21:25 21.04.2021
23 Clear 24 1027 16 8047 3.09 90 20:59 21.04.2021
24 Clear 24 1027 16 8047 3.09 90 20:21 21.04.2021
25 Clear 22 1028 23 8047 1.54 310 19:45 21.04.2021
26 Clear 22 1028 23 8047 1.54 310 19:25 21.04.2021
27 Clear 20 1029 26 8047 2.57 100 18:49 21.04.2021
28 Clear 20 1029 26 8047 2.57 100 18:30 21.04.2021
29 Clear 19 1029 32 8047 1.54 110 17:49 21.04.2021
30 Clear 18 1029 32 8047 1.54 110 17:25 21.04.2021
31 Clear 14 1028 41 9656 2.57 60 16:55 21.04.2021
32 Clear 14 1028 41 9656 2.57 60 16:30 21.04.2021
33 Clear 13 1027 44 9656 1.54 50 15:42 21.04.2021
34 Clear 13 1027 44 9656 1.54 50 15:42 21.04.2021
35 Clear 13 1027 44 9656 1.54 50 15:18 21.04.2021
36 Clear 12 1027 47 10000 2.57 120 14:42 21.04.2021
37 Clear 12 1027 47 10000 2.57 120 14:22 21.04.2021
38 Clear 12 1026 43 10000 3.09 60 13:44 21.04.2021
39 Clear 12 1026 43 10000 3.09 60 13:21 21.04.2021
40 Clear 13 1026 41 10000 2.57 90 12:32 21.04.2021
41 Clear 14 1026 41 10000 3.09 50 11:50 21.04.2021
42 Clear 15 1026 41 10000 3.09 50 11:32 21.04.2021
43 Clear 15 1026 36 10000 2.57 50 10:57 21.04.2021
44 Clear 15 1026 36 10000 2.57 50 10:36 21.04.2021
45 Clear 18 1027 24 10000 2.57 290 09:54 21.04.2021
46 Clear 18 1027 24 10000 2.57 290 09:19 21.04.2021
47 Clear 19 1027 27 10000 0.75 307 08:41 21.04.2021
48 Clear 19 1027 27 10000 0.04 311 08:20 21.04.2021
49 Clear 20 1027 30 10000 4.63 320 07:32 21.04.2021
50 Clear 20 1027 30 10000 4.63 320 06:57 21.04.2021
51 Clear 22 1026 12 10000 3.6 230 05:26 21.04.2021
52 Clouds 28 1021 9 9656 5.14 220 01:33 21.04.2021
53 Clouds 28 1022 6 10000 4.12 130 23:51 20.04.2021
54 Clouds 28 1022 6 10000 4.12 130 23:31 20.04.2021
55 Clouds 27 1023 7 10000 2.06 20 22:41 20.04.2021
56 Clouds 27 1023 7 10000 2.06 20 22:22 20.04.2021
57 Clouds 27 1024 7 10000 4.12 120 21:47 20.04.2021
58 Clouds 27 1024 7 10000 4.12 120 21:26 20.04.2021
59 Clouds 26 1025 7 10000 3.09 120 20:45 20.04.2021
60 Clouds 26 1025 7 10000 3.09 120 20:24 20.04.2021
61 Clouds 25 1025 6 10000 2.06 50 19:57 20.04.2021
62 Clouds 25 1025 6 10000 2.06 50 19:39 20.04.2021
63 Clouds 25 1025 6 10000 2.06 50 19:39 20.04.2021
64 Clouds 25 1025 6 10000 2.06 50 19:39 20.04.2021
65 Clouds 25 1025 6 10000 2.06 50 19:21 20.04.2021
66 Clear 22 1026 9 10000 2.06 30 18:36 20.04.2021
67 Clear 20 1026 10 10000 2.06 30 17:46 20.04.2021
68 Clear 19 1026 14 10000 1.17 178 17:28 20.04.2021
69 Clear 14 1026 23 10000 1.17 178 16:49 20.04.2021
70 Clear 10 1025 27 10000 2.06 60 15:53 20.04.2021
71 Clear 10 1025 27 10000 2.06 60 15:29 20.04.2021
72 Clear 14 1025 19 10000 1.03 230 14:58 20.04.2021
73 Clear 14 1025 19 10000 1.03 230 14:33 20.04.2021
74 Clear 14 1024 21 10000 1.03 210 13:52 20.04.2021
75 Clear 14 1024 21 10000 1.03 210 13:22 20.04.2021
76 Clear 15 1024 23 10000 1.03 260 12:41 20.04.2021
77 Clear 15 1024 23 10000 1.03 260 12:20 20.04.2021
78 Clear 17 1024 16 10000 1.03 220 11:44 20.04.2021
79 Clear 17 1024 16 10000 1.03 220 11:44 20.04.2021
80 Clear 17 1024 16 10000 1.03 220 11:21 20.04.2021
81 Clear 17 1024 16 10000 1.38 213 10:43 20.04.2021
82 Clear 17 1024 16 10000 1.38 213 10:43 20.04.2021
83 Clear 17 1024 16 10000 1.34 208 10:23 20.04.2021
84 Clear 18 1024 15 10000 1.03 90 09:28 20.04.2021
85 Clear 19 1025 14 10000 1.54 100 08:55 20.04.2021
86 Clear 19 1025 14 10000 1.54 100 08:21 20.04.2021
87 Clear 20 1025 15 10000 1.03 150 07:47 20.04.2021
88 Clear 21 1024 14 10000 4.12 130 06:45 20.04.2021
89 Clear 22 1023 13 10000 3.09 180 05:38 20.04.2021
90 Clouds 23 1023 14 10000 4.12 180 04:41 20.04.2021
91 Clouds 28 1020 8 10000 5.66 230 01:26 20.04.2021
92 Clouds 28 1020 7 10000 7.72 250 00:34 20.04.2021
93 Clouds 29 1020 6 10000 7.2 210 23:36 19.04.2021
94 Clear 29 1021 6 10000 5.14 250 22:56 19.04.2021
95 Clear 29 1021 6 10000 5.14 250 22:32 19.04.2021
96 Clear 29 1021 6 10000 7.72 240 21:50 19.04.2021
97 Clear 30 1021 8 10000 4.12 180 21:28 19.04.2021
98 Clouds 27 1023 9 10000 2.57 150 20:46 19.04.2021
99 Clouds 27 1023 9 10000 2.57 150 20:24 19.04.2021
100 Clouds 27 1023 10 10000 4.12 150 19:58 19.04.2021
101 Clouds 27 1023 10 10000 4.12 150 19:39 19.04.2021
102 Clouds 26 1023 10 10000 4.12 150 19:18 19.04.2021
103 Clear 24 1024 14 9656 1.54 130 18:44 19.04.2021
104 Clear 22 1014 8 10000 2.32 182 18:21 19.04.2021
105 Clear 22 1014 8 10000 2.32 182 18:21 19.04.2021
106 Clear 19 1025 18 10000 1.54 70 17:50 19.04.2021
107 Clear 19 1025 18 10000 1.54 70 17:26 19.04.2021
108 Clear 19 1025 18 10000 1.54 70 16:49 19.04.2021
109 Clear 16 1025 23 10000 2.06 70 16:31 19.04.2021
110 Clouds 12 1024 28 10000 3.6 60 15:44 19.04.2021
111 Clouds 12 1024 28 10000 3.6 60 15:24 19.04.2021
112 Clouds 12 1024 28 10000 3.6 60 14:52 19.04.2021
113 Clouds 12 1024 28 10000 3.6 60 14:33 19.04.2021
114 Clear 15 1023 25 10000 1.73 203 13:53 19.04.2021
115 Clear 15 1023 25 10000 1.74 208 13:29 19.04.2021
116 Clear 15 1023 20 10000 1.74 208 12:49 19.04.2021
117 Clear 15 1023 20 10000 1.58 209 12:29 19.04.2021
118 Clear 16 1023 20 10000 1.58 209 11:59 19.04.2021
119 Clear 16 1023 20 10000 1.58 209 11:39 19.04.2021
120 Clear 16 1023 20 10000 1.34 218 11:19 19.04.2021
121 Clear 17 1024 20 10000 1.34 218 10:43 19.04.2021
122 Clear 17 1024 20 10000 1.23 224 10:19 19.04.2021
123 Clear 18 1024 17 10000 2.57 120 09:42 19.04.2021
124 Clear 18 1024 17 10000 2.57 120 09:23 19.04.2021
125 Clear 19 1024 15 10000 2.57 100 08:34 19.04.2021
126 Clear 20 1025 10 10000 2.57 160 07:50 19.04.2021
127 Clear 20 1025 10 10000 2.57 160 07:21 19.04.2021
128 Clear 21 1024 11 10000 3.6 230 06:47 19.04.2021
129 Clear 23 1022 13 10000 6.17 210 04:40 19.04.2021
130 Clear 27 1020 17 9656 7.72 200 01:49 19.04.2021
131 Clear 29 1019 10 9656 7.2 240 00:34 19.04.2021
132 Clear 30 1020 8 9656 5.66 250 23:21 18.04.2021
133 Clear 29 1021 8 9656 5.66 270 22:57 18.04.2021
134 Clear 29 1021 8 9656 5.66 270 22:31 18.04.2021
135 Clear 28 1021 9 10000 5.14 280 21:51 18.04.2021
136 Clear 28 1021 9 10000 5.14 280 21:28 18.04.2021
137 Clear 28 1023 10 10000 2.06 180 20:43 18.04.2021
138 Clear 28 1023 10 10000 2.06 180 20:25 18.04.2021
139 Clear 28 1023 10 10000 3.6 150 19:56 18.04.2021
140 Clear 28 1023 10 10000 3.6 150 19:37 18.04.2021
141 Clear 26 1024 13 9656 1.54 270 19:18 18.04.2021
142 Clear 24 1024 22 8047 2.57 80 18:39 18.04.2021
143 Clear 22 1024 22 8047 2.57 80 18:21 18.04.2021
144 Clear 21 1024 30 8047 1.54 50 17:45 18.04.2021
145 Clear 21 1024 30 8047 1.54 50 17:26 18.04.2021
146 Clear 17 1025 42 9656 1.43 192 16:45 18.04.2021
147 Clear 17 1025 42 9656 1.25 197 16:23 18.04.2021
148 Clear 16 1024 41 10000 1.25 197 15:43 18.04.2021
149 Clear 15 1024 41 10000 1.46 205 15:24 18.04.2021
150 Clear 15 1023 33 9656 1.03 50 14:45 18.04.2021
151 Clear 15 1023 33 9656 1.03 50 14:21 18.04.2021
152 Clear 15 1023 51 9656 1.03 40 13:55 18.04.2021
153 Clear 15 1023 51 9656 1.03 40 13:33 18.04.2021
154 Clear 15 1022 51 9656 1.03 90 12:50 18.04.2021
155 Clear 15 1022 51 9656 1.03 90 12:24 18.04.2021
156 Clear 15 1023 63 9656 2.06 40 11:42 18.04.2021
157 Clear 15 1023 63 9656 2.06 40 11:20 18.04.2021
158 Clear 16 1023 63 10000 2.06 90 10:47 18.04.2021
159 Clear 16 1023 63 10000 2.06 90 10:22 18.04.2021
160 Clear 17 1024 59 10000 1.03 90 09:52 18.04.2021
161 Clear 17 1024 59 10000 1.03 90 09:34 18.04.2021
162 Clear 19 1024 48 10000 1.54 70 08:56 18.04.2021
163 Clear 19 1024 48 10000 1.54 70 08:35 18.04.2021
164 Clear 21 1024 18 10000 2.06 220 07:55 18.04.2021
165 Clear 21 1024 18 10000 2.06 220 07:37 18.04.2021
166 Clear 23 1023 16 10000 6.17 260 05:41 18.04.2021
167 Clear 23 1023 16 10000 6.17 260 05:22 18.04.2021
168 Clouds 27 1019 17 10000 6.17 180 02:27 18.04.2021
169 Clouds 28 1019 15 10000 7.2 180 01:48 18.04.2021
170 Clouds 28 1019 15 10000 8.75 230 00:36 18.04.2021
171 Clouds 28 1019 15 10000 7.2 230 23:31 17.04.2021
172 Clouds 30 1020 12 10000 5.14 130 22:51 17.04.2021
173 Clouds 30 1020 12 10000 5.14 130 22:30 17.04.2021
174 Clouds 30 1020 12 10000 5.14 130 22:30 17.04.2021
175 Clouds 29 1021 13 10000 4.12 160 21:46 17.04.2021
176 Clouds 29 1021 13 10000 4.12 160 21:28 17.04.2021
177 Clouds 28 1022 14 10000 3.09 130 20:43 17.04.2021
178 Clouds 27 1022 14 10000 3.09 130 20:24 17.04.2021
179 Clear 26 1023 17 9656 2.06 90 19:43 17.04.2021
180 Clear 26 1023 17 9656 2.06 90 19:20 17.04.2021
181 Clear 26 1023 17 9656 2.06 90 19:20 17.04.2021
182 Clear 24 1023 19 9656 2.06 90 18:53 17.04.2021
183 Clear 23 1024 23 9656 0.53 191 18:25 17.04.2021
184 Clouds 21 1024 28 9656 2.06 50 17:48 17.04.2021
185 Clouds 21 1024 28 9656 2.06 50 17:29 17.04.2021
186 Clouds 19 1024 34 10000 0.84 205 16:41 17.04.2021
187 Clouds 19 1024 34 10000 0.99 213 16:23 17.04.2021
188 Clouds 17 1023 36 9656 1.54 70 15:23 17.04.2021
189 Clouds 15 1023 44 10000 2.57 60 14:44 17.04.2021
190 Clouds 15 1023 44 10000 2.57 60 14:20 17.04.2021
191 Clouds 16 1023 39 10000 2.57 60 13:44 17.04.2021
192 Clouds 18 1022 32 10000 1.59 207 12:55 17.04.2021
193 Clouds 18 1022 32 10000 1.59 207 12:33 17.04.2021
194 Clouds 19 1022 27 10000 1.54 130 11:52 17.04.2021
195 Clouds 19 1022 27 10000 1.54 130 11:33 17.04.2021
196 Clouds 19 1022 27 10000 1.54 130 11:33 17.04.2021
197 Clouds 19 1023 30 10000 1.85 224 10:56 17.04.2021
198 Clouds 19 1023 30 10000 1.85 224 10:38 17.04.2021
199 Clear 20 1023 28 10000 1.78 213 09:51 17.04.2021
200 Clear 20 1024 26 10000 1.99 206 08:54 17.04.2021
201 Clear 20 1024 26 10000 2.09 202 08:33 17.04.2021
202 Clear 21 1024 24 10000 4.63 230 07:46 17.04.2021
203 Clouds 23 1022 23 10000 3.09 210 05:43 17.04.2021
204 Clouds 25 1021 22 10000 5.14 160 03:46 17.04.2021
205 Clouds 29 1019 17 9656 5.66 210 00:56 17.04.2021
206 Clouds 29 1019 17 9656 5.66 210 00:30 17.04.2021
207 Clouds 29 1019 17 9656 5.66 210 00:30 17.04.2021
208 Clouds 28 1020 15 9656 4.12 110 23:59 16.04.2021
209 Clouds 28 1020 15 9656 4.12 110 23:34 16.04.2021
210 Clouds 28 1021 13 9656 4.12 240 22:51 16.04.2021
211 Clouds 28 1021 13 9656 4.12 240 22:24 16.04.2021
212 Clouds 29 1021 13 9656 5.14 240 21:57 16.04.2021
213 Clouds 27 1022 14 9656 5.14 280 21:39 16.04.2021
214 Clouds 26 1023 18 9656 3.09 90 20:56 16.04.2021
215 Clouds 26 1023 18 9656 3.09 90 20:37 16.04.2021
216 Clouds 25 1024 18 9656 3.09 60 19:58 16.04.2021
217 Clear 24 1025 22 10000 2.06 220 19:40 16.04.2021
218 Clear 23 1025 22 10000 2.06 220 19:18 16.04.2021
219 Clear 23 1025 27 9656 2.57 60 18:25 16.04.2021
220 Clear 20 1025 34 9656 1.54 50 17:48 16.04.2021
221 Clear 20 1025 34 9656 1.54 50 17:19 16.04.2021
222 Clouds 19 1025 39 10000 1.54 120 16:44 16.04.2021
223 Clouds 19 1025 39 10000 1.54 120 16:26 16.04.2021
224 Clouds 16 1024 44 10000 0.74 259 15:55 16.04.2021
225 Clouds 16 1024 44 10000 1.31 229 15:29 16.04.2021
226 Clouds 16 1024 44 10000 1.03 240 14:43 16.04.2021
227 Clouds 16 1024 44 10000 1.03 240 14:23 16.04.2021
228 Clouds 17 1023 39 10000 1.54 221 13:55 16.04.2021
229 Clouds 17 1023 39 10000 1.54 220 13:22 16.04.2021
230 Clouds 17 1023 42 10000 1.03 140 12:53 16.04.2021
231 Clouds 17 1023 42 10000 1.03 140 12:33 16.04.2021
232 Clouds 18 1023 39 10000 1.03 220 11:59 16.04.2021
233 Clouds 18 1023 39 10000 1.03 220 11:38 16.04.2021
234 Clouds 18 1023 39 10000 1.03 220 11:19 16.04.2021
235 Clouds 19 1024 37 10000 2.57 140 10:40 16.04.2021
236 Clouds 19 1024 37 10000 2.57 140 10:20 16.04.2021
237 Clouds 20 1024 32 10000 3.6 140 09:44 16.04.2021
238 Clouds 20 1024 32 10000 3.6 140 09:21 16.04.2021
239 Clouds 21 1025 30 10000 1.54 190 08:42 16.04.2021
240 Clouds 21 1025 30 10000 1.54 190 08:18 16.04.2021
241 Clouds 22 1025 26 10000 1.03 100 07:41 16.04.2021
242 Clouds 22 1024 28 10000 3.09 160 06:59 16.04.2021
243 Clouds 22 1024 28 10000 3.09 160 06:28 16.04.2021
244 Clouds 25 1022 20 10000 2.06 190 04:23 16.04.2021
245 Clouds 27 1021 16 9656 3.6 200 01:40 16.04.2021
246 Clouds 27 1022 16 9656 2.06 350 00:44 16.04.2021
247 Clouds 27 1022 16 9656 2.06 350 00:20 16.04.2021
248 Clouds 28 1022 15 9656 2.57 360 23:45 15.04.2021
249 Clouds 28 1022 15 9656 2.57 360 23:25 15.04.2021
250 Clouds 27 1024 18 8047 2.06 150 22:47 15.04.2021
251 Clouds 27 1024 18 8047 2.06 150 22:23 15.04.2021
252 Clouds 26 1025 21 8047 3.6 100 21:43 15.04.2021
253 Clouds 26 1025 21 8047 3.6 100 21:24 15.04.2021
254 Clouds 26 1025 22 9656 4.12 80 20:47 15.04.2021
255 Clouds 24 1026 25 9656 3.09 250 20:25 15.04.2021
256 Clouds 25 1026 23 9656 2.57 250 19:47 15.04.2021
257 Clouds 23 1027 31 9656 2.57 100 19:28 15.04.2021
258 Clouds 22 1027 33 9656 2.06 90 18:45 15.04.2021
259 Clouds 22 1027 33 9656 2.06 90 18:22 15.04.2021
260 Clouds 20 1027 42 9656 1.54 100 17:58 15.04.2021
261 Clouds 20 1027 42 9656 1.54 100 17:39 15.04.2021
262 Clouds 20 1027 42 9656 1.54 100 17:21 15.04.2021
263 Clouds 18 1027 48 9656 0.97 247 16:43 15.04.2021
264 Clouds 18 1027 48 9656 0.99 216 16:23 15.04.2021
265 Clouds 15 1027 58 10000 0.99 216 15:46 15.04.2021
266 Clouds 14 1027 62 10000 0.69 189 15:26 15.04.2021
267 Clouds 13 1026 67 10000 2.57 70 14:41 15.04.2021
268 Clouds 13 1026 67 10000 2.57 70 14:23 15.04.2021
269 Clouds 13 1025 67 10000 2.06 70 13:46 15.04.2021
270 Clouds 13 1025 67 10000 2.06 70 13:46 15.04.2021
271 Clouds 13 1025 67 10000 2.06 70 13:19 15.04.2021
272 Clouds 14 1025 58 10000 2.06 60 12:46 15.04.2021
273 Clouds 14 1025 58 10000 2.06 60 12:24 15.04.2021
274 Clouds 15 1026 55 10000 0.54 200 11:47 15.04.2021
275 Clouds 15 1026 55 10000 1.49 177 11:25 15.04.2021
276 Clouds 15 1026 55 10000 1.49 177 10:55 15.04.2021
277 Clouds 15 1027 58 10000 5.14 220 10:28 15.04.2021
278 Clouds 16 1029 55 10000 3.09 240 09:50 15.04.2021
279 Clouds 16 1029 55 10000 3.09 240 09:28 15.04.2021
280 Clouds 16 1030 51 10000 3.09 350 08:49 15.04.2021
281 Clouds 16 1030 51 10000 3.09 350 08:24 15.04.2021
282 Clouds 15 1030 58 10000 5.01 2 07:26 15.04.2021
283 Clouds 15 1030 58 10000 5.14 70 06:55 15.04.2021
284 Clouds 15 1030 58 10000 5.14 70 06:33 15.04.2021
285 Rain 20 1027 37 10000 5.14 320 04:53 15.04.2021
286 Clouds 22 1023 26 10000 4.12 220 02:51 15.04.2021
287 Rain 26 1023 21 10000 4.12 270 23:47 14.04.2021
288 Clouds 26 1023 21 10000 4.12 270 23:28 14.04.2021
289 Clouds 26 1025 19 10000 3.09 60 22:47 14.04.2021
290 Clouds 26 1025 19 10000 3.09 60 22:27 14.04.2021
291 Clouds 25 1025 22 8047 4.12 360 21:53 14.04.2021
292 Clouds 25 1025 22 8047 4.12 360 21:32 14.04.2021
293 Clouds 24 1027 27 8047 3.6 20 20:58 14.04.2021
294 Clouds 24 1027 27 8047 3.6 20 20:35 14.04.2021
295 Clouds 23 1028 33 8047 2.06 40 19:55 14.04.2021
296 Clouds 23 1028 33 8047 2.06 40 19:37 14.04.2021
297 Clouds 23 1028 33 8047 2.06 40 19:18 14.04.2021
298 Clouds 22 1028 35 8047 2.06 40 18:47 14.04.2021
299 Clouds 20 1028 42 8047 0.48 168 18:18 14.04.2021
300 Clouds 19 1028 48 8047 2.06 50 17:51 14.04.2021
301 Clouds 19 1028 48 8047 2.06 50 17:23 14.04.2021
302 Clouds 17 1028 59 8047 1.25 172 16:42 14.04.2021
303 Clouds 17 1028 59 8047 1.31 184 16:21 14.04.2021
304 Mist 13 1027 71 4828 2.06 60 15:39 14.04.2021
305 Mist 13 1027 71 4828 2.06 60 15:18 14.04.2021
306 Clouds 13 1026 76 10000 1.03 30 14:41 14.04.2021
307 Clouds 13 1026 76 10000 1.03 30 14:21 14.04.2021
308 Clear 12 1026 82 10000 1.44 195 13:46 14.04.2021
309 Clear 12 1026 82 10000 1.03 160 12:45 14.04.2021
310 Clear 12 1026 82 10000 1.03 160 12:24 14.04.2021
311 Clear 12 1026 82 10000 3.6 50 11:42 14.04.2021
312 Clear 12 1026 82 10000 3.6 50 11:23 14.04.2021
313 Clouds 14 1027 72 10000 3.09 60 10:34 14.04.2021
314 Clouds 15 1027 58 10000 1.75 205 09:43 14.04.2021
315 Clouds 15 1027 58 10000 0.47 203 09:25 14.04.2021
316 Clouds 16 1027 59 10000 2.57 220 08:56 14.04.2021
317 Clouds 16 1027 59 10000 2.57 220 08:30 14.04.2021
318 Clouds 16 1028 59 10000 3.09 300 07:42 14.04.2021
319 Clouds 15 1028 67 10000 2.57 50 06:35 14.04.2021
320 Clouds 16 1027 63 10000 8.23 60 05:36 14.04.2021
321 Clouds 19 1025 45 9656 5.14 30 02:40 14.04.2021
322 Rain 24 1022 31 10000 5.66 300 00:57 14.04.2021
323 Rain 25 1021 25 10000 7.72 240 00:32 14.04.2021
324 Clouds 28 1022 20 10000 4.63 120 23:34 13.04.2021
325 Clouds 27 1023 22 10000 3.09 30 22:45 13.04.2021
326 Clouds 27 1023 22 10000 3.09 30 22:22 13.04.2021
327 Clouds 25 1024 25 9656 4.12 360 21:49 13.04.2021
328 Clouds 25 1024 25 9656 4.12 360 21:31 13.04.2021
329 Clouds 25 1025 25 6437 4.12 80 20:52 13.04.2021
330 Clouds 25 1025 25 6437 4.12 80 20:25 13.04.2021
331 Clouds 24 1026 29 6437 3.09 110 19:59 13.04.2021
332 Clouds 24 1026 29 6437 3.09 110 19:26 13.04.2021
333 Clouds 24 1026 31 6437 3.09 100 18:57 13.04.2021
334 Clouds 22 1026 33 8047 1.54 60 18:31 13.04.2021
335 Clouds 21 1026 37 8047 1.54 320 17:41 13.04.2021
336 Clouds 21 1026 37 8047 1.54 320 17:21 13.04.2021
337 Clouds 21 1026 37 8047 1.54 320 17:21 13.04.2021
338 Clouds 17 1025 45 9656 2.57 100 16:49 13.04.2021
339 Clouds 17 1025 45 9656 2.57 100 16:31 13.04.2021
340 Clouds 16 1025 55 9656 1.03 30 15:56 13.04.2021
341 Clouds 16 1025 55 9656 1.03 30 15:37 13.04.2021
342 Clouds 15 1024 51 10000 0.6 184 14:58 13.04.2021
343 Clouds 15 1024 51 10000 0.51 183 14:25 13.04.2021
344 Clouds 15 1024 55 10000 0.52 181 13:55 13.04.2021
345 Clouds 15 1024 55 10000 0.52 181 13:36 13.04.2021
346 Clouds 15 1024 55 10000 0.04 295 13:18 13.04.2021
347 Clouds 16 1023 51 10000 0.04 295 12:44 13.04.2021
348 Clouds 16 1023 51 10000 0.99 340 12:22 13.04.2021
349 Clear 17 1024 45 10000 0.99 340 11:37 13.04.2021
350 Clear 18 1024 42 10000 1.32 4 10:58 13.04.2021
351 Clear 18 1024 42 10000 1.32 4 10:39 13.04.2021
352 Clear 18 1024 42 10000 1.09 28 10:18 13.04.2021
353 Clear 19 1025 42 10000 3.09 270 09:46 13.04.2021
354 Clear 19 1025 42 10000 3.09 270 09:19 13.04.2021
355 Clouds 19 1025 42 10000 3.6 280 08:43 13.04.2021
356 Clouds 19 1025 42 10000 3.6 280 08:21 13.04.2021
357 Clouds 20 1025 40 10000 3.09 320 07:38 13.04.2021
358 Clouds 20 1025 40 10000 3.09 320 07:19 13.04.2021
359 Clouds 21 1024 37 10000 4.63 20 06:18 13.04.2021
360 Clouds 23 1021 28 10000 3.6 130 03:41 13.04.2021
361 Clouds 26 1020 21 8047 6.17 200 01:28 13.04.2021
362 Clouds 28 1020 17 9656 1.54 220 23:50 12.04.2021
363 Clouds 28 1020 17 9656 1.54 220 23:29 12.04.2021
364 Clouds 28 1021 17 9656 3.6 120 22:46 12.04.2021
365 Clouds 28 1021 17 9656 3.6 120 22:28 12.04.2021
366 Clouds 27 1022 17 9656 5.14 110 21:48 12.04.2021
367 Clouds 27 1022 17 9656 5.14 110 21:24 12.04.2021
368 Clouds 27 1023 17 9656 2.57 150 20:46 12.04.2021
369 Clouds 27 1023 17 9656 2.57 150 20:26 12.04.2021
370 Clear 27 1023 17 9656 2.57 50 19:58 12.04.2021
371 Clear 26 1023 19 9656 1.54 100 19:39 12.04.2021
372 Clear 25 1023 19 9656 1.54 100 19:20 12.04.2021
373 Clear 24 1024 22 9656 2.57 50 18:47 12.04.2021
374 Clear 24 1024 22 9656 2.57 50 18:29 12.04.2021
375 Clear 22 1024 24 9656 2.06 70 17:46 12.04.2021
376 Clear 22 1024 24 9656 2.06 70 17:24 12.04.2021
377 Clear 19 1023 30 9656 1.03 200 16:49 12.04.2021
378 Clear 19 1023 30 9656 1.03 200 16:28 12.04.2021
379 Clear 19 1023 30 9656 1.03 200 16:28 12.04.2021
380 Clear 18 1023 34 9656 1.54 140 15:54 12.04.2021
381 Clear 18 1023 34 9656 1.54 140 15:33 12.04.2021
382 Clouds 15 1022 41 9656 1.54 50 14:55 12.04.2021
383 Clouds 17 1022 36 10000 2.57 60 14:37 12.04.2021
384 Clouds 17 1022 39 10000 3.09 100 13:56 12.04.2021
385 Clouds 17 1022 39 10000 3.09 100 13:33 12.04.2021
386 Clouds 18 1021 34 10000 2.06 300 12:59 12.04.2021
387 Clouds 18 1021 34 10000 2.06 300 12:38 12.04.2021
388 Clouds 18 1021 34 10000 2.06 300 12:19 12.04.2021
389 Clouds 18 1021 34 10000 1.56 230 11:26 12.04.2021
390 Clouds 19 1022 32 10000 1.54 220 10:51 12.04.2021
391 Clouds 19 1022 32 10000 1.54 220 10:27 12.04.2021
392 Clouds 20 1022 28 10000 1.75 232 09:51 12.04.2021
393 Clouds 20 1022 28 10000 1.68 196 09:23 12.04.2021
394 Clouds 21 1023 24 10000 1.54 220 08:44 12.04.2021
395 Clouds 21 1023 24 10000 2.06 220 07:45 12.04.2021
396 Clouds 21 1023 24 10000 2.06 220 07:22 12.04.2021
397 Clouds 23 1022 21 10000 3.6 250 06:28 12.04.2021
398 Clouds 24 1022 23 10000 3.09 170 05:45 12.04.2021
399 Clouds 26 1019 21 10000 7.2 260 01:42 12.04.2021
400 Clouds 27 1019 21 10000 7.2 230 00:26 12.04.2021
401 Clouds 28 1019 16 10000 5.14 180 23:49 11.04.2021
402 Clouds 28 1019 16 10000 5.14 180 23:31 11.04.2021
403 Clouds 29 1020 15 10000 5.14 240 22:48 11.04.2021
404 Clouds 29 1020 15 10000 5.14 240 22:26 11.04.2021
405 Clouds 28 1020 15 10000 4.12 260 21:52 11.04.2021
406 Clouds 27 1021 17 10000 3.09 360 21:31 11.04.2021
407 Clouds 26 1023 18 10000 3.09 340 20:59 11.04.2021
408 Clouds 26 1023 18 10000 3.09 340 20:37 11.04.2021
409 Clouds 26 1023 18 10000 3.09 340 20:18 11.04.2021
410 Clouds 24 1023 20 10000 0.74 38 19:39 11.04.2021
411 Clouds 24 1023 20 10000 0.87 14 19:19 11.04.2021
412 Clear 23 1024 25 10000 2.06 30 18:46 11.04.2021
413 Clear 23 1024 25 10000 2.06 30 18:26 11.04.2021
414 Clear 21 1024 30 10000 2.06 120 17:50 11.04.2021
415 Clear 21 1024 30 10000 2.06 120 17:29 11.04.2021
416 Clouds 18 1023 36 10000 0.12 249 16:54 11.04.2021
417 Clouds 18 1023 36 10000 0.89 195 16:28 11.04.2021
418 Clouds 18 1023 36 10000 0.89 195 16:28 11.04.2021
419 Clouds 16 1022 39 10000 0.9 195 15:59 11.04.2021
420 Clouds 16 1022 39 10000 0.89 195 15:40 11.04.2021
421 Clouds 16 1022 39 10000 1.25 198 15:22 11.04.2021
422 Clear 16 1022 39 10000 1.54 240 14:48 11.04.2021
423 Clear 16 1022 39 10000 1.54 240 14:19 11.04.2021
424 Clear 17 1021 36 10000 1.59 201 13:39 11.04.2021
425 Clear 17 1021 36 10000 1.86 204 13:21 11.04.2021
426 Clear 17 1021 34 10000 2.02 206 12:25 11.04.2021
427 Clear 18 1021 32 10000 2.02 206 11:53 11.04.2021
428 Clear 18 1021 32 10000 2.02 206 11:33 11.04.2021
429 Clear 18 1022 29 10000 2.28 203 10:56 11.04.2021
430 Clear 18 1022 29 10000 2.29 201 10:38 11.04.2021
431 Clear 18 1022 29 10000 2.64 193 10:20 11.04.2021
432 Clear 19 1022 30 10000 3.09 130 09:38 11.04.2021
433 Clear 19 1022 30 10000 3.09 130 09:20 11.04.2021
434 Clear 20 1023 28 10000 4.12 140 08:38 11.04.2021
435 Clouds 21 1023 24 10000 3.6 140 07:38 11.04.2021
436 Clouds 21 1023 24 10000 3.6 140 07:19 11.04.2021
437 Clouds 23 1022 23 10000 3.6 100 05:46 11.04.2021
438 Clouds 23 1022 23 10000 3.6 100 05:22 11.04.2021
439 Clouds 24 1021 20 10000 2.06 280 04:35 11.04.2021
440 Clouds 25 1020 19 10000 2.06 170 03:20 11.04.2021
441 Clouds 28 1020 15 9656 7.2 170 00:49 11.04.2021
442 Clouds 28 1020 15 9656 7.2 170 00:25 11.04.2021
443 Clouds 29 1020 12 9656 6.17 150 23:33 10.04.2021
444 Clouds 28 1022 13 9656 3.09 80 22:54 10.04.2021
445 Clouds 28 1022 13 9656 3.09 80 22:26 10.04.2021
446 Clouds 27 1023 13 10000 3.09 340 21:52 10.04.2021
447 Clouds 27 1023 13 10000 3.09 340 21:24 10.04.2021
448 Clouds 26 1024 17 10000 2.06 160 20:53 10.04.2021
449 Clouds 26 1024 17 10000 2.06 160 20:32 10.04.2021
450 Clouds 26 1024 17 10000 2.06 160 20:32 10.04.2021
451 Clear 26 1024 17 10000 2.06 290 19:48 10.04.2021
452 Clear 26 1024 17 10000 2.06 290 19:28 10.04.2021
453 Clear 23 1025 25 10000 0.67 73 18:57 10.04.2021
454 Clear 23 1025 25 10000 0.67 73 18:39 10.04.2021
455 Clear 23 1025 25 10000 0.48 87 18:20 10.04.2021
456 Clear 22 1025 30 10000 2.06 130 17:34 10.04.2021
457 Clear 19 1025 42 10000 0.13 73 16:32 10.04.2021
458 Clear 17 1025 48 10000 0.34 275 15:56 10.04.2021
459 Clear 14 1024 58 10000 2.06 260 15:36 10.04.2021
460 Clear 14 1024 58 10000 0.68 218 14:51 10.04.2021
461 Clear 14 1024 58 10000 1.15 204 14:28 10.04.2021
462 Clouds 14 1023 62 10000 2.06 200 13:49 10.04.2021
463 Clouds 14 1023 62 10000 2.06 200 13:28 10.04.2021
464 Clouds 15 1023 55 10000 1.86 211 12:38 10.04.2021
465 Clouds 16 1023 51 10000 4.12 110 11:59 10.04.2021
466 Clouds 16 1023 51 10000 4.12 110 11:41 10.04.2021
467 Clouds 16 1023 51 10000 4.12 110 11:18 10.04.2021
468 Clouds 17 1024 45 10000 4.12 120 10:42 10.04.2021
469 Clouds 17 1024 45 10000 4.12 120 10:23 10.04.2021
470 Clouds 17 1025 42 10000 1.03 200 09:30 10.04.2021
471 Clouds 17 1025 42 10000 1.03 200 09:30 10.04.2021
472 Clouds 18 1025 42 10000 1.54 190 08:59 10.04.2021
473 Clouds 18 1025 42 10000 1.54 190 08:31 10.04.2021
474 Clouds 18 1025 42 10000 2.57 180 07:54 10.04.2021
475 Clouds 18 1025 42 10000 2.57 180 07:25 10.04.2021
476 Clouds 19 1024 39 10000 3.6 200 06:27 10.04.2021
477 Clouds 20 1024 37 10000 4.63 200 04:49 10.04.2021
478 Clouds 20 1022 40 10000 6.17 150 02:58 10.04.2021
479 Clouds 20 1022 40 10000 6.17 150 02:37 10.04.2021
480 Clouds 25 1020 27 10000 7.72 200 00:55 10.04.2021
481 Clouds 25 1020 27 10000 7.72 200 00:30 10.04.2021
482 Clouds 27 1021 16 10000 2.57 100 23:45 09.04.2021
483 Clouds 27 1021 16 10000 2.57 100 23:20 09.04.2021
484 Clouds 28 1022 15 10000 1.54 200 22:44 09.04.2021
485 Clouds 28 1022 15 10000 1.54 200 22:25 09.04.2021
486 Clouds 28 1023 14 10000 1.54 260 21:39 09.04.2021
487 Clouds 26 1023 17 10000 4.12 120 21:19 09.04.2021
488 Clouds 27 1024 18 10000 1.54 200 20:45 09.04.2021
489 Clear 25 1025 22 10000 2.57 310 20:23 09.04.2021
490 Clear 26 1025 21 9656 2.06 320 19:57 09.04.2021
491 Clear 24 1026 25 9656 2.06 40 19:39 09.04.2021
492 Clear 24 1026 25 9656 2.06 40 19:20 09.04.2021
493 Clear 23 1026 27 9656 2.06 110 18:41 09.04.2021
494 Clear 21 1026 32 9656 0.84 208 18:21 09.04.2021
495 Clear 19 1026 39 9656 2.57 120 17:43 09.04.2021
496 Clear 19 1026 39 9656 2.57 120 17:22 09.04.2021
497 Clear 18 1026 48 10000 0.91 212 16:41 09.04.2021
498 Clear 16 1026 48 10000 0.58 214 16:19 09.04.2021
499 Clear 15 1025 51 10000 0.58 214 15:40 09.04.2021
500 Clear 15 1025 51 10000 0.78 205 15:20 09.04.2021
501 Clouds 14 1024 51 10000 0.78 205 14:46 09.04.2021
502 Clouds 14 1024 54 10000 0.94 191 13:57 09.04.2021
503 Clouds 14 1024 54 10000 0.94 191 13:39 09.04.2021
504 Clouds 14 1024 54 10000 1.33 191 13:20 09.04.2021
505 Clouds 15 1024 55 10000 1.33 191 12:46 09.04.2021
506 Clouds 16 1025 51 10000 2.06 290 11:48 09.04.2021
507 Clouds 16 1025 51 10000 2.06 290 11:23 09.04.2021
508 Clouds 16 1025 48 10000 2.57 250 10:50 09.04.2021
509 Clouds 16 1025 48 10000 2.57 250 10:30 09.04.2021
510 Clouds 16 1026 48 10000 2.57 10 09:51 09.04.2021
511 Clouds 16 1026 48 10000 2.57 10 09:26 09.04.2021
512 Clouds 17 1027 48 10000 6.17 10 08:54 09.04.2021
513 Clouds 17 1027 48 10000 6.17 10 08:22 09.04.2021
514 Clouds 18 1027 42 10000 6.69 30 07:21 09.04.2021
515 Clouds 21 1026 32 10000 5.14 30 06:21 09.04.2021
516 Clouds 22 1022 28 10000 4.12 230 03:54 09.04.2021
517 Clouds 23 1022 31 10000 3.6 180 02:27 09.04.2021
518 Clouds 25 1021 29 10000 5.14 160 00:38 09.04.2021
519 Clouds 25 1021 29 10000 5.14 160 00:20 09.04.2021
520 Clouds 27 1022 13 10000 2.06 320 23:30 08.04.2021
521 Clouds 28 1023 13 10000 1.44 345 22:46 08.04.2021
522 Clouds 28 1023 13 10000 2.36 355 22:27 08.04.2021
523 Clouds 27 1024 12 10000 3.09 80 21:58 08.04.2021
524 Clouds 27 1024 12 10000 3.09 80 21:38 08.04.2021
525 Clouds 27 1024 12 10000 3.09 80 21:19 08.04.2021
526 Clouds 26 1025 17 10000 2.06 40 20:53 08.04.2021
527 Clouds 26 1025 17 10000 2.06 40 20:32 08.04.2021
528 Clouds 25 1026 20 10000 3.09 40 19:55 08.04.2021
529 Clouds 25 1026 20 10000 3.09 40 19:24 08.04.2021
530 Clouds 24 1026 27 10000 2.06 60 18:52 08.04.2021
531 Clear 22 1026 30 10000 2.06 30 18:23 08.04.2021
532 Clear 19 1026 37 10000 2.06 60 17:50 08.04.2021
533 Clear 19 1026 37 10000 2.06 60 17:26 08.04.2021
534 Clear 17 1026 39 10000 2.06 70 16:55 08.04.2021
535 Clear 17 1026 39 10000 2.06 70 16:35 08.04.2021
536 Clear 16 1025 44 10000 2.06 310 15:50 08.04.2021
537 Clear 16 1025 44 10000 2.06 310 15:32 08.04.2021
538 Clear 15 1025 47 10000 2.06 70 14:58 08.04.2021
539 Clear 15 1025 47 10000 2.06 70 14:37 08.04.2021
540 Clear 15 1025 47 10000 2.06 70 14:19 08.04.2021
541 Clear 15 1024 47 10000 2.06 80 13:43 08.04.2021
542 Clear 15 1024 47 10000 2.06 80 13:23 08.04.2021
543 Clear 16 1024 48 10000 2.06 110 12:45 08.04.2021
544 Clear 16 1024 48 10000 2.06 110 12:26 08.04.2021
545 Clear 17 1024 42 10000 1.03 150 11:47 08.04.2021
546 Clear 17 1024 42 10000 1.03 150 11:20 08.04.2021
547 Clear 18 1025 39 10000 2.06 220 10:43 08.04.2021
548 Clear 18 1025 39 10000 2.06 220 10:24 08.04.2021
549 Clear 18 1025 34 10000 2.06 100 09:43 08.04.2021
550 Clouds 19 1026 34 10000 2.57 70 08:51 08.04.2021
551 Clouds 19 1026 34 10000 2.57 70 08:30 08.04.2021
552 Clouds 21 1026 32 10000 2.57 90 07:59 08.04.2021
553 Clouds 21 1026 32 10000 2.57 90 07:39 08.04.2021
554 Clouds 23 1023 17 10000 3.6 20 04:44 08.04.2021
555 Clouds 26 1022 15 10000 6.17 10 01:21 08.04.2021
556 Clouds 26 1022 13 10000 5.66 10 00:29 08.04.2021
557 Clouds 26 1023 15 10000 5.66 30 23:45 07.04.2021
558 Clouds 26 1023 15 10000 5.66 30 23:22 07.04.2021
559 Clouds 25 1024 18 10000 3.09 70 22:54 07.04.2021
560 Clouds 25 1024 18 10000 3.09 70 22:35 07.04.2021
561 Clouds 24 1025 22 10000 6.17 50 21:48 07.04.2021
562 Clouds 24 1025 22 10000 6.17 50 21:26 07.04.2021
563 Clouds 23 1026 27 10000 2.06 360 20:47 07.04.2021
564 Clouds 23 1026 27 10000 2.06 360 20:27 07.04.2021
565 Clouds 23 1026 27 10000 4.12 80 19:46 07.04.2021
566 Clouds 21 1027 30 10000 2.06 140 19:28 07.04.2021
567 Clouds 20 1027 34 10000 2.24 6 18:53 07.04.2021
568 Clouds 20 1027 34 10000 1.53 2 18:21 07.04.2021
569 Clouds 16 1027 51 10000 2.06 40 17:57 07.04.2021
570 Clouds 16 1027 51 10000 2.06 40 17:39 07.04.2021
571 Clouds 15 1027 55 10000 1.54 50 16:58 07.04.2021
572 Clouds 12 1027 66 10000 2.57 70 16:39 07.04.2021
573 Clouds 12 1027 66 10000 2.57 70 16:20 07.04.2021
574 Clouds 11 1026 71 10000 1.54 60 15:40 07.04.2021
575 Clouds 10 1026 76 10000 2.57 60 14:58 07.04.2021
576 Clouds 10 1026 76 10000 2.57 60 14:32 07.04.2021
577 Clouds 10 1026 76 10000 2.06 60 13:53 07.04.2021
578 Clouds 10 1026 76 10000 2.06 60 13:27 07.04.2021
579 Clouds 11 1026 66 10000 0.07 259 12:57 07.04.2021
580 Clouds 11 1026 66 10000 0.74 189 12:25 07.04.2021
581 Clouds 11 1026 66 10000 0.74 189 12:25 07.04.2021
582 Clouds 12 1026 62 10000 0.74 189 11:57 07.04.2021
583 Clouds 12 1026 62 10000 1.34 207 11:28 07.04.2021
584 Clouds 13 1027 62 10000 1.34 207 10:59 07.04.2021
585 Clouds 13 1027 62 10000 2.12 197 10:27 07.04.2021
586 Clouds 13 1028 62 10000 3.09 200 09:44 07.04.2021
587 Clouds 13 1028 62 10000 3.09 200 09:25 07.04.2021
588 Clouds 13 1029 62 10000 1.81 290 08:47 07.04.2021
589 Clouds 13 1029 62 10000 2.89 325 08:22 07.04.2021
590 Clouds 13 1029 62 10000 2.89 325 08:22 07.04.2021
591 Clouds 13 1030 62 10000 3.6 80 07:43 07.04.2021
592 Clouds 13 1030 62 10000 3.6 80 07:24 07.04.2021
593 Clouds 13 1030 67 10000 5.14 40 06:32 07.04.2021
594 Clouds 17 1026 42 10000 4.63 340 04:23 07.04.2021
595 Rain 22 1021 21 10000 5.14 180 00:22 07.04.2021
596 Clouds 22 1022 28 9656 7.2 180 23:47 06.04.2021
597 Clouds 22 1022 28 9656 7.2 180 23:21 06.04.2021
598 Clouds 25 1022 19 10000 3.09 190 22:48 06.04.2021
599 Clouds 23 1022 21 10000 3.09 220 22:19 06.04.2021
600 Clouds 23 1022 21 10000 4.12 280 21:42 06.04.2021
601 Clouds 25 1023 16 10000 4.63 260 21:22 06.04.2021
602 Clouds 25 1024 18 10000 2.06 100 20:54 06.04.2021
603 Clouds 23 1025 21 10000 3.6 330 20:25 06.04.2021
604 Clouds 22 1025 26 10000 2.06 90 19:58 06.04.2021
605 Clouds 22 1025 26 10000 2.06 90 19:58 06.04.2021
606 Clouds 22 1025 26 10000 2.06 90 19:35 06.04.2021
607 Clouds 22 1026 26 10000 0.52 85 18:57 06.04.2021
608 Clouds 22 1026 26 10000 0.52 85 18:57 06.04.2021
609 Clear 20 1026 32 10000 2.06 130 18:39 06.04.2021
610 Clear 20 1026 32 10000 2.06 130 18:19 06.04.2021
611 Clear 18 1026 36 9656 0.53 142 17:41 06.04.2021
612 Clear 18 1026 36 9656 0.72 168 17:18 06.04.2021
613 Clear 17 1025 44 10000 2.57 100 16:43 06.04.2021
614 Clear 14 1025 47 10000 3.09 90 15:59 06.04.2021
615 Clear 14 1025 47 10000 3.09 90 15:25 06.04.2021
616 Clouds 12 1025 50 10000 2.57 80 14:43 06.04.2021
617 Clouds 12 1025 50 10000 2.57 80 14:24 06.04.2021
618 Clouds 13 1024 44 10000 2.06 70 13:46 06.04.2021
619 Clouds 13 1024 44 10000 2.06 70 13:25 06.04.2021
620 Clouds 13 1024 44 10000 2.06 40 12:45 06.04.2021
621 Clouds 13 1024 44 10000 2.06 40 12:27 06.04.2021
622 Clouds 15 1024 38 10000 2.06 350 11:55 06.04.2021
623 Clouds 15 1024 38 10000 2.06 350 11:36 06.04.2021
624 Clouds 15 1024 38 10000 2.06 350 11:18 06.04.2021
625 Clouds 15 1024 38 10000 2.57 50 10:39 06.04.2021
626 Clouds 15 1024 38 10000 2.57 50 10:21 06.04.2021
627 Clouds 17 1024 31 10000 0.91 327 09:43 06.04.2021
628 Clouds 18 1024 29 10000 1.54 280 08:57 06.04.2021
629 Clouds 18 1024 29 10000 1.54 280 08:19 06.04.2021
630 Clouds 19 1023 27 10000 3.6 310 07:22 06.04.2021
631 Clouds 20 1023 24 10000 1.54 60 06:47 06.04.2021
632 Clouds 20 1021 24 10000 6.17 250 03:54 06.04.2021
633 Clouds 22 1020 18 10000 6.17 280 00:49 06.04.2021
634 Clouds 24 1020 11 10000 4.12 30 00:22 06.04.2021
635 Clouds 24 1021 11 10000 2.06 360 23:50 05.04.2021
636 Clouds 24 1021 11 10000 2.06 360 23:28 05.04.2021
637 Clouds 25 1022 14 10000 1.6 291 22:54 05.04.2021
638 Clouds 25 1022 14 10000 1.6 291 22:35 05.04.2021
639 Clouds 24 1023 14 10000 2.06 320 21:48 05.04.2021
640 Clouds 24 1023 14 10000 2.06 320 21:27 05.04.2021
641 Clouds 23 1024 20 10000 2.06 80 20:49 05.04.2021
642 Clouds 23 1024 20 10000 2.06 80 20:30 05.04.2021
643 Clouds 22 1025 24 10000 2.06 200 19:45 05.04.2021
644 Clouds 20 1025 32 10000 2.06 80 19:26 05.04.2021
645 Clouds 18 1026 34 10000 3.09 70 18:58 05.04.2021
646 Clouds 18 1026 34 10000 3.09 70 18:39 05.04.2021
647 Clouds 16 1026 39 10000 0.29 93 18:19 05.04.2021
648 Clouds 15 1026 38 10000 2.06 90 17:46 05.04.2021
649 Clouds 13 1026 50 10000 0.28 139 17:21 05.04.2021
650 Clouds 9 1026 57 10000 3.09 70 16:45 05.04.2021
651 Clouds 9 1026 57 10000 3.09 70 16:22 05.04.2021
652 Clouds 8 1025 61 10000 3.09 80 15:56 05.04.2021
653 Clouds 8 1025 61 10000 3.09 80 15:30 05.04.2021
654 Clouds 8 1025 61 10000 3.09 60 14:58 05.04.2021
655 Clouds 8 1025 61 10000 3.09 60 14:35 05.04.2021
656 Clouds 7 1024 65 10000 2.57 80 13:41 05.04.2021
657 Clouds 7 1024 65 10000 2.57 80 13:22 05.04.2021
658 Clouds 8 1025 61 10000 2.57 90 12:45 05.04.2021
659 Clouds 8 1025 61 10000 2.57 90 12:23 05.04.2021
660 Clouds 9 1025 61 10000 4.12 70 11:46 05.04.2021
661 Clouds 9 1025 61 10000 4.12 70 11:27 05.04.2021
662 Clouds 10 1025 57 10000 3.09 70 10:46 05.04.2021
663 Clouds 10 1025 57 10000 3.09 70 10:28 05.04.2021
664 Clouds 10 1026 50 10000 3.6 60 09:48 05.04.2021
665 Clouds 10 1026 50 10000 3.6 60 09:25 05.04.2021
666 Clouds 15 1026 38 10000 4.12 310 08:45 05.04.2021
667 Clouds 15 1026 38 10000 4.12 310 08:26 05.04.2021
668 Clear 16 1026 29 10000 3.09 360 07:38 05.04.2021
669 Clouds 17 1026 20 10000 3.6 360 06:40 05.04.2021
670 Clouds 24 1022 9 10000 5.14 10 02:32 05.04.2021
671 Clouds 26 1022 4 10000 4.63 20 00:52 05.04.2021
672 Clouds 25 1023 4 10000 4.12 310 23:52 04.04.2021
673 Clouds 25 1023 4 10000 4.12 310 23:29 04.04.2021
674 Clear 24 1024 9 10000 3.6 240 22:53 04.04.2021
675 Clear 24 1024 9 10000 3.6 240 22:30 04.04.2021
676 Clear 23 1025 14 10000 4.12 330 21:43 04.04.2021
677 Clear 23 1025 14 10000 4.12 330 21:19 04.04.2021
678 Clear 21 1027 23 10000 2.57 60 20:31 04.04.2021
679 Clear 21 1027 23 10000 2.64 30 19:58 04.04.2021
680 Clear 19 1028 34 10000 2.57 30 19:38 04.04.2021
681 Clear 19 1028 34 10000 2.57 30 19:19 04.04.2021
682 Clear 18 1028 36 10000 2.15 27 18:45 04.04.2021
683 Clear 16 1028 44 10000 1.54 120 18:24 04.04.2021
684 Clear 15 1028 47 10000 2.06 60 17:55 04.04.2021
685 Clear 12 1028 54 10000 2.06 80 17:24 04.04.2021
686 Clear 10 1028 57 10000 2.06 70 16:52 04.04.2021
687 Clear 10 1028 57 10000 2.06 70 16:21 04.04.2021
688 Clear 6 1027 70 10000 3.09 70 15:36 04.04.2021
689 Clear 6 1027 75 10000 3.6 70 14:51 04.04.2021
690 Clear 6 1027 75 10000 3.6 70 14:28 04.04.2021
691 Clear 7 1026 76 10000 4.12 70 13:53 04.04.2021
692 Clear 7 1026 76 10000 4.12 70 13:25 04.04.2021
693 Clear 8 1027 71 10000 1.54 60 12:50 04.04.2021
694 Clear 8 1027 71 10000 1.54 60 12:27 04.04.2021
695 Clear 9 1028 61 10000 2.57 80 11:43 04.04.2021
696 Clear 9 1028 61 10000 2.57 80 11:25 04.04.2021
697 Clear 10 1029 57 10000 2.06 60 10:46 04.04.2021
698 Clear 11 1029 58 10000 3.09 40 09:59 04.04.2021
699 Clear 11 1029 58 10000 3.09 40 09:27 04.04.2021
700 Clear 12 1029 50 10000 3.09 60 08:55 04.04.2021
701 Clear 12 1029 50 10000 3.09 60 08:37 04.04.2021
702 Clear 12 1029 50 10000 3.09 60 08:19 04.04.2021
703 Clouds 16 1028 39 10000 4.12 10 06:39 04.04.2021
704 Clouds 17 1028 34 10000 5.14 20 05:34 04.04.2021
705 Clear 25 1024 12 10000 4.12 30 01:47 04.04.2021
706 Clear 25 1024 10 10000 4.63 60 00:25 04.04.2021
707 Clear 25 1025 11 10000 5.14 30 23:52 03.04.2021
708 Clear 25 1025 11 10000 5.14 30 23:33 03.04.2021
709 Clear 25 1026 13 10000 5.14 360 22:53 03.04.2021
710 Clear 25 1026 13 10000 5.14 360 22:23 03.04.2021
711 Clouds 23 1027 21 10000 4.12 290 21:56 03.04.2021
712 Clouds 23 1027 21 10000 4.12 290 21:38 03.04.2021
713 Clouds 23 1027 21 10000 4.12 290 21:18 03.04.2021
714 Clouds 21 1028 23 10000 3.09 330 20:30 03.04.2021
715 Clouds 20 1028 24 10000 2.57 330 19:52 03.04.2021
716 Clear 18 1029 42 9656 2.57 80 19:34 03.04.2021
717 Clear 17 1030 48 9656 2.57 100 18:57 03.04.2021
718 Clear 17 1030 48 9656 2.57 100 18:36 03.04.2021
719 Clear 14 1030 58 9656 1.8 19 17:57 03.04.2021
720 Clear 14 1030 58 9656 1.23 28 17:27 03.04.2021
721 Clear 11 1030 71 9656 2.57 60 16:58 03.04.2021
722 Clear 11 1030 71 9656 2.57 60 16:31 03.04.2021
723 Clear 8 1029 81 10000 3.6 60 15:53 03.04.2021
724 Clear 8 1029 81 10000 3.6 60 15:53 03.04.2021
725 Clear 8 1029 81 10000 3.6 60 15:32 03.04.2021
726 Clouds 8 1029 81 10000 2.57 60 14:54 03.04.2021
727 Clouds 8 1029 81 10000 2.57 60 14:27 03.04.2021
728 Clouds 9 1029 81 10000 4.12 90 13:59 03.04.2021
729 Clouds 9 1029 81 10000 4.12 90 13:36 03.04.2021
730 Clouds 9 1029 81 10000 4.12 90 13:18 03.04.2021
731 Clouds 10 1028 71 10000 2.06 80 12:35 03.04.2021
732 Clear 11 1029 66 10000 2.57 60 11:57 03.04.2021
733 Clear 11 1029 66 10000 2.57 60 11:32 03.04.2021
734 Clear 12 1029 66 10000 2.57 310 10:49 03.04.2021
735 Clear 12 1029 66 10000 2.57 310 10:27 03.04.2021
736 Clear 12 1029 66 10000 2.57 310 09:42 03.04.2021
737 Clear 12 1029 66 10000 2.57 310 09:23 03.04.2021
738 Clear 12 1030 66 10000 4.12 300 08:38 03.04.2021
739 Clear 13 1030 58 10000 4.63 290 07:47 03.04.2021
740 Clear 13 1030 58 10000 4.63 290 07:26 03.04.2021
741 Clouds 18 1028 42 10000 4.12 360 04:24 03.04.2021
742 Clouds 20 1026 40 10000 6.17 360 02:56 03.04.2021
743 Clouds 22 1026 33 10000 6.17 20 02:31 03.04.2021
744 Clouds 22 1026 28 10000 2.06 260 00:45 03.04.2021
745 Clouds 22 1026 28 10000 2.06 260 00:18 03.04.2021
746 Clouds 23 1026 28 10000 7.2 360 23:44 02.04.2021
747 Clouds 23 1026 28 10000 7.2 360 23:44 02.04.2021
748 Clouds 23 1026 28 10000 7.2 360 23:18 02.04.2021
749 Clouds 22 1028 30 10000 6.17 320 22:44 02.04.2021
750 Clouds 22 1028 30 10000 6.17 320 22:25 02.04.2021
751 Clouds 21 1028 35 10000 5.14 320 21:41 02.04.2021
752 Clouds 19 1029 39 10000 5.14 260 21:19 02.04.2021
753 Clouds 18 1030 42 10000 3.09 260 20:43 02.04.2021
754 Clouds 18 1030 42 10000 3.09 260 20:21 02.04.2021
755 Clouds 17 1031 48 10000 4.12 300 19:42 02.04.2021
756 Clouds 17 1031 48 10000 4.12 300 19:23 02.04.2021
757 Clouds 16 1032 48 10000 3.09 30 18:48 02.04.2021
758 Clouds 16 1032 48 10000 3.09 30 18:30 02.04.2021
759 Clouds 14 1032 58 10000 4.12 340 17:56 02.04.2021
760 Clouds 14 1032 58 10000 4.12 340 17:32 02.04.2021
761 Clouds 13 1031 62 10000 3.09 360 16:37 02.04.2021
762 Clouds 12 1031 66 10000 3.6 30 15:47 02.04.2021
763 Clouds 12 1031 66 10000 3.6 30 15:25 02.04.2021
764 Clouds 12 1030 66 10000 3.6 40 14:33 02.04.2021
765 Clouds 12 1030 66 10000 2.06 250 13:50 02.04.2021
766 Clouds 12 1030 66 10000 2.06 250 13:28 02.04.2021
767 Clouds 12 1030 62 10000 2.06 50 12:58 02.04.2021
768 Clouds 12 1030 62 10000 2.06 50 12:37 02.04.2021
769 Clouds 12 1030 62 10000 2.06 50 12:19 02.04.2021
770 Clouds 12 1030 62 10000 2.06 250 11:44 02.04.2021
771 Clouds 12 1030 62 10000 2.06 250 11:18 02.04.2021
772 Clouds 12 1031 62 10000 3.09 360 10:42 02.04.2021
773 Clouds 12 1031 62 10000 3.09 360 10:23 02.04.2021
774 Clouds 12 1031 62 10000 2.57 340 09:39 02.04.2021
775 Clouds 12 1031 62 10000 2.57 340 09:21 02.04.2021
776 Clouds 13 1031 58 10000 3.6 350 08:45 02.04.2021
777 Clouds 13 1031 58 10000 3.6 350 08:26 02.04.2021
778 Clouds 13 1031 58 10000 4.63 340 07:20 02.04.2021
779 Clouds 13 1031 58 10000 6.69 360 06:34 02.04.2021
780 Clouds 15 1029 55 10000 7.72 20 03:39 02.04.2021
781 Clouds 21 1027 35 10000 9.26 30 01:37 02.04.2021
782 Clouds 22 1027 30 10000 9.26 360 00:41 02.04.2021
783 Clouds 22 1027 30 10000 6.69 20 23:44 01.04.2021
784 Clouds 22 1027 30 10000 6.69 20 23:26 01.04.2021
785 Clouds 21 1029 32 10000 8.23 20 22:22 01.04.2021
786 Clouds 21 1030 28 10000 9.26 360 21:59 01.04.2021
787 Clouds 21 1030 28 10000 9.26 360 21:40 01.04.2021
788 Clouds 21 1030 28 10000 9.26 360 21:20 01.04.2021
789 Clouds 20 1031 32 10000 5.14 20 20:39 01.04.2021
790 Clouds 18 1031 39 10000 6.69 360 20:21 01.04.2021
791 Clouds 17 1033 39 10000 5.66 30 19:40 01.04.2021
792 Clouds 16 1032 44 10000 5.14 340 18:59 01.04.2021
793 Clouds 16 1032 44 10000 5.14 340 18:41 01.04.2021
794 Clouds 16 1032 44 10000 5.14 340 18:18 01.04.2021
795 Clouds 15 1032 44 10000 5.66 40 17:39 01.04.2021
796 Clouds 15 1032 44 10000 5.66 40 17:20 01.04.2021
797 Clouds 14 1031 51 10000 5.14 30 16:47 01.04.2021
798 Clouds 13 1031 58 9656 4.12 10 15:59 01.04.2021
799 Clouds 13 1031 58 9656 4.12 10 15:24 01.04.2021
800 Clouds 14 1030 58 10000 3.09 20 14:57 01.04.2021
801 Clouds 14 1030 58 10000 3.09 20 14:38 01.04.2021
802 Clouds 14 1030 58 10000 3.09 20 14:19 01.04.2021
803 Clouds 14 1030 58 10000 5.14 10 13:47 01.04.2021
804 Clouds 14 1030 58 10000 5.14 10 13:27 01.04.2021
805 Clouds 14 1029 58 10000 3.6 300 12:46 01.04.2021
806 Clouds 14 1029 58 10000 3.6 300 12:28 01.04.2021
807 Clouds 14 1030 62 10000 5.14 20 11:44 01.04.2021
808 Clouds 14 1030 62 10000 5.14 20 11:19 01.04.2021
809 Clouds 14 1030 62 10000 6.17 360 10:47 01.04.2021
810 Clouds 14 1030 62 10000 3.09 20 10:28 01.04.2021
811 Clouds 15 1031 55 10000 5.14 320 09:36 01.04.2021
812 Clear 15 1031 51 10000 5.14 330 08:58 01.04.2021
813 Clear 15 1031 51 10000 5.14 330 08:32 01.04.2021
814 Clear 15 1030 47 10000 7.72 350 07:22 01.04.2021
815 Clear 15 1030 47 10000 7.2 20 06:58 01.04.2021
816 Clear 17 1029 42 10000 8.23 20 06:24 01.04.2021
817 Clouds 24 1025 7 10000 6.69 20 03:23 01.04.2021
818 Clouds 28 1023 6 10000 8.23 40 00:28 01.04.2021
819 Clouds 28 1023 7 10000 8.23 40 23:44 31.03.2021
820 Clouds 28 1023 7 10000 8.23 40 23:44 31.03.2021
821 Clouds 27 1024 9 10000 5.14 20 22:56 31.03.2021
822 Clouds 27 1024 9 10000 5.14 20 22:38 31.03.2021
823 Clouds 27 1024 9 10000 5.14 20 22:19 31.03.2021
824 Clouds 27 1025 9 10000 7.2 10 21:43 31.03.2021
825 Clouds 27 1025 9 10000 7.2 10 21:20 31.03.2021
826 Clouds 26 1026 13 9656 6.17 10 20:42 31.03.2021
827 Clouds 26 1026 13 9656 6.17 10 20:22 31.03.2021
828 Clouds 25 1027 15 9656 2.57 360 19:43 31.03.2021
829 Clouds 23 1027 17 9656 3.09 20 19:21 31.03.2021
830 Clouds 23 1027 18 9656 2.23 12 18:58 31.03.2021
831 Clouds 21 1027 28 8047 1.54 260 18:40 31.03.2021
832 Clouds 21 1027 28 8047 1.54 260 18:40 31.03.2021
833 Clouds 19 1027 32 6437 1.97 21 17:51 31.03.2021
834 Clouds 19 1027 32 6437 1.97 21 17:30 31.03.2021
835 Clouds 19 1027 32 8047 1.88 24 16:56 31.03.2021
836 Clouds 17 1027 34 9656 2.06 80 16:36 31.03.2021
837 Clouds 14 1027 41 9656 1.54 80 15:59 31.03.2021
838 Clouds 14 1027 41 9656 1.54 80 15:41 31.03.2021
839 Clouds 12 1026 43 9656 2.06 50 15:19 31.03.2021
840 Clouds 13 1026 38 10000 3.6 70 14:42 31.03.2021
841 Clouds 13 1026 38 10000 3.6 70 14:19 31.03.2021
842 Clouds 15 1025 38 10000 0.95 47 13:35 31.03.2021
843 Clouds 15 1025 38 10000 1.03 80 12:41 31.03.2021
844 Clouds 15 1025 38 10000 1.03 80 12:19 31.03.2021
845 Clouds 16 1025 36 10000 1.03 60 11:39 31.03.2021
846 Clouds 16 1025 36 10000 1.03 60 11:19 31.03.2021
847 Clouds 18 1026 34 10000 2.06 280 10:44 31.03.2021
848 Clouds 18 1026 34 10000 2.06 280 10:22 31.03.2021
849 Clouds 19 1026 30 10000 1.54 350 09:33 31.03.2021
850 Clouds 20 1027 28 10000 2.57 360 08:51 31.03.2021
851 Clouds 20 1027 28 10000 2.57 360 08:32 31.03.2021
852 Clear 20 1027 30 10000 4.12 360 07:42 31.03.2021
853 Clear 21 1025 23 10000 7.2 60 05:55 31.03.2021
854 Clouds 25 1022 14 10000 7.2 360 02:44 31.03.2021
855 Clouds 28 1021 16 10000 6.17 300 00:54 31.03.2021
856 Clouds 28 1021 16 10000 6.17 300 00:26 31.03.2021
857 Clouds 27 1022 17 10000 3.09 50 23:58 30.03.2021
858 Clouds 27 1022 17 10000 3.09 50 23:27 30.03.2021
859 Clouds 26 1023 19 10000 2.06 40 22:55 30.03.2021
860 Clouds 26 1023 19 10000 2.06 40 22:37 30.03.2021
861 Clouds 26 1023 19 10000 2.06 40 22:19 30.03.2021
862 Clear 26 1025 18 10000 5.14 20 21:38 30.03.2021
863 Clear 26 1025 18 10000 5.14 20 21:18 30.03.2021
864 Clear 25 1025 16 10000 5.14 40 20:45 30.03.2021
865 Clear 23 1026 28 9656 4.12 290 20:26 30.03.2021
866 Clear 22 1027 35 9656 2.06 330 19:43 30.03.2021
867 Clear 21 1027 35 9656 2.06 330 19:18 30.03.2021
868 Clear 21 1027 37 10000 2.06 40 18:33 30.03.2021
869 Clear 18 1027 45 10000 2.06 50 17:49 30.03.2021
870 Clear 18 1027 45 10000 2.06 50 17:49 30.03.2021
871 Clear 18 1027 45 10000 2.06 50 17:31 30.03.2021
872 Clear 15 1026 55 10000 2.06 70 16:47 30.03.2021
873 Clear 15 1026 55 10000 2.06 70 16:28 30.03.2021
874 Clouds 15 1025 62 10000 0.52 209 15:39 30.03.2021
875 Clouds 15 1025 62 10000 0.95 187 15:19 30.03.2021
876 Clouds 13 1025 54 10000 2.06 70 14:45 30.03.2021
877 Clouds 13 1025 54 10000 2.06 70 14:21 30.03.2021
878 Clouds 14 1024 54 10000 2.06 50 13:51 30.03.2021
879 Clouds 14 1024 54 10000 2.06 50 13:29 30.03.2021
880 Clouds 15 1025 51 10000 2.06 40 12:42 30.03.2021
881 Clouds 15 1025 51 10000 2.06 40 12:42 30.03.2021
882 Clouds 15 1025 51 10000 2.06 40 12:22 30.03.2021
883 Clouds 16 1025 55 10000 2.57 80 11:48 30.03.2021
884 Clouds 16 1025 55 10000 2.57 80 11:20 30.03.2021
885 Clouds 16 1025 55 10000 3.09 70 10:42 30.03.2021
886 Clouds 17 1025 48 10000 0.19 28 10:19 30.03.2021
887 Clouds 18 1025 45 10000 3.09 340 09:43 30.03.2021
888 Clouds 18 1025 45 10000 3.09 340 09:23 30.03.2021
889 Clouds 18 1026 45 10000 2.57 60 08:44 30.03.2021
890 Clouds 18 1026 45 10000 2.57 60 08:21 30.03.2021
891 Clouds 19 1026 39 10000 3.6 70 07:42 30.03.2021
892 Clouds 20 1025 34 10000 3.6 70 06:53 30.03.2021
893 Clouds 20 1025 34 10000 3.09 50 05:25 30.03.2021
894 Clouds 24 1022 31 9656 2.06 120 02:32 30.03.2021
895 Clouds 24 1023 29 9656 3.6 140 23:56 29.03.2021
896 Clouds 24 1023 29 9656 3.6 140 23:27 29.03.2021
897 Clouds 23 1025 31 9656 1.54 90 22:43 29.03.2021
898 Clouds 22 1026 35 10000 2.06 30 21:58 29.03.2021
899 Clouds 22 1026 35 10000 2.06 30 21:37 29.03.2021
900 Clouds 21 1027 40 10000 1.54 290 20:57 29.03.2021
901 Clouds 21 1027 40 10000 1.54 290 20:37 29.03.2021
902 Clouds 20 1028 42 10000 3.09 340 19:56 29.03.2021
903 Clouds 20 1028 42 10000 3.09 340 19:32 29.03.2021
904 Clouds 20 1028 42 10000 1.54 200 18:57 29.03.2021
905 Clouds 18 1028 48 10000 3.09 240 18:38 29.03.2021
906 Clouds 18 1028 48 10000 3.09 240 18:20 29.03.2021
907 Clouds 17 1028 55 10000 2.57 30 17:37 29.03.2021
908 Clouds 15 1027 58 10000 3.09 10 16:55 29.03.2021
909 Clouds 15 1027 58 10000 3.09 10 16:34 29.03.2021
910 Clouds 14 1027 67 10000 2.57 30 15:47 29.03.2021
911 Clouds 14 1027 67 10000 2.57 30 15:28 29.03.2021
912 Clouds 14 1026 67 10000 4.12 350 14:49 29.03.2021
913 Clouds 14 1026 67 10000 4.12 350 14:28 29.03.2021
914 Clouds 15 1026 63 10000 7.2 10 13:47 29.03.2021
915 Clouds 15 1026 63 10000 7.2 10 13:22 29.03.2021
916 Clouds 15 1026 67 10000 4.12 20 12:49 29.03.2021
917 Clouds 16 1027 59 10000 4.12 330 11:49 29.03.2021
918 Clouds 16 1027 59 10000 4.12 330 11:30 29.03.2021
919 Clouds 15 1027 63 10000 2.57 40 10:52 29.03.2021
920 Clouds 15 1027 63 10000 2.57 40 10:34 29.03.2021
921 Clear 16 1028 55 9656 3.6 340 09:37 29.03.2021
922 Clear 17 1028 48 9656 4.12 320 08:51 29.03.2021
923 Clear 17 1028 48 9656 4.12 320 08:28 29.03.2021
924 Clear 17 1029 48 8047 4.63 340 07:28 29.03.2021
925 Clear 17 1028 51 9656 3.6 350 06:26 29.03.2021
926 Clouds 19 1026 42 8047 8.23 20 03:43 29.03.2021
927 Dust 23 1023 33 4828 11.83 30 01:41 29.03.2021
928 Dust 28 1021 17 4828 8.23 30 00:21 29.03.2021
929 Clouds 30 1021 11 8047 8.23 20 23:36 28.03.2021
930 Clouds 31 1021 10 9656 4.12 160 23:18 28.03.2021
931 Clouds 29 1023 12 9656 3.09 250 22:39 28.03.2021
932 Clouds 29 1023 12 9656 3.09 250 22:20 28.03.2021
933 Clouds 29 1023 12 9656 3.09 250 22:20 28.03.2021
934 Clouds 28 1024 14 9656 4.12 360 21:40 28.03.2021
935 Clouds 27 1024 14 9656 4.12 360 21:22 28.03.2021
936 Clouds 26 1025 15 9656 2.57 270 20:47 28.03.2021
937 Clouds 26 1025 15 9656 2.57 270 20:29 28.03.2021
938 Clouds 24 1027 20 8047 1.54 280 19:43 28.03.2021
939 Clouds 24 1027 20 8047 1.54 280 19:22 28.03.2021
940 Clouds 23 1027 21 8047 2.39 16 18:58 28.03.2021
941 Clouds 22 1027 21 8047 2 21 18:26 28.03.2021
942 Clouds 21 1027 26 8047 2.01 22 17:47 28.03.2021
943 Clouds 21 1027 26 8047 1.08 30 17:23 28.03.2021
944 Clouds 17 1027 31 9656 1.54 60 16:46 28.03.2021
945 Clouds 17 1027 31 9656 1.54 60 16:23 28.03.2021
946 Clouds 18 1025 30 10000 2.24 70 15:26 28.03.2021
947 Clouds 18 1025 30 10000 2.24 70 14:57 28.03.2021
948 Clouds 18 1025 30 10000 2.24 70 14:31 28.03.2021
949 Clouds 18 1025 33 10000 2.24 70 13:46 28.03.2021
950 Clouds 18 1025 33 10000 2.24 70 13:21 28.03.2021
951 Clouds 18 1025 33 10000 2.24 70 12:50 28.03.2021
952 Clouds 18 1025 33 10000 2.24 70 12:31 28.03.2021
953 Clouds 18 1025 33 10000 2.24 70 11:43 28.03.2021
954 Clouds 18 1025 32 10000 2.24 70 11:24 28.03.2021
955 Clear 18 1025 29 10000 2.57 70 10:44 28.03.2021
956 Clear 18 1025 29 10000 2.57 70 10:24 28.03.2021
957 Clear 19 1025 29 10000 2.57 70 09:46 28.03.2021
958 Clouds 20 1025 32 10000 3.58 60 09:24 28.03.2021
959 Clouds 20 1025 32 10000 3.58 60 08:45 28.03.2021
960 Clouds 20 1025 32 10000 3.6 60 07:49 28.03.2021
961 Clouds 21 1014 27 10000 0.75 209 06:30 28.03.2021
962 Clouds 25 1021 25 10000 4.12 130 03:55 28.03.2021
963 Clouds 29 1020 13 10000 2.06 80 00:53 28.03.2021
964 Clouds 29 1020 13 10000 2.06 80 00:20 28.03.2021
965 Clouds 29 1021 14 10000 2.06 240 23:40 27.03.2021
966 Clear 29 1022 13 10000 4.12 360 22:57 27.03.2021
967 Clear 29 1022 13 10000 4.12 360 22:36 27.03.2021
968 Clear 28 1023 14 9656 1.18 72 21:55 27.03.2021
969 Clear 28 1023 14 9656 1.18 72 21:36 27.03.2021
970 Clear 28 1023 14 9656 0.76 32 21:18 27.03.2021
971 Clear 27 1024 14 9656 2.06 240 20:38 27.03.2021
972 Clear 25 1025 15 9656 2.06 70 20:19 27.03.2021
973 Clear 24 1026 17 9656 3.09 40 19:42 27.03.2021
974 Clear 24 1026 17 9656 3.09 40 19:23 27.03.2021
975 Clear 23 1027 17 8047 0.68 71 18:48 27.03.2021
976 Clear 23 1027 17 8047 0.88 110 18:27 27.03.2021
977 Clear 23 1027 17 8047 2.06 50 17:45 27.03.2021
978 Clear 21 1027 21 8047 0.86 130 17:23 27.03.2021
979 Clear 18 1027 27 9656 0.86 130 16:48 27.03.2021
980 Clear 18 1027 27 9656 0.97 140 16:28 27.03.2021
981 Clear 14 1027 35 9656 3.09 80 15:46 27.03.2021
982 Clear 14 1027 35 9656 3.09 80 15:21 27.03.2021
983 Clear 14 1026 33 8047 0.85 162 14:45 27.03.2021
984 Clear 15 1025 31 9656 2.06 200 13:42 27.03.2021
985 Clear 15 1025 31 9656 2.06 200 13:22 27.03.2021
986 Clear 15 1025 26 9656 1.19 187 12:50 27.03.2021
987 Clear 16 1025 25 9656 1.19 179 11:59 27.03.2021
988 Clear 16 1025 25 9656 1.19 179 11:39 27.03.2021
989 Clear 16 1025 25 9656 1.05 185 11:19 27.03.2021
990 Clear 17 1025 23 9656 1.54 100 10:42 27.03.2021
991 Clear 17 1025 23 9656 1.54 100 10:22 27.03.2021
992 Clear 17 1025 25 9656 1.54 80 09:28 27.03.2021
993 Clear 17 1025 23 9656 2.06 60 08:43 27.03.2021
994 Clear 19 1025 22 10000 2.06 310 08:20 27.03.2021
995 Clear 18 1026 24 10000 1.54 50 07:32 27.03.2021
996 Clear 19 1026 24 10000 4.12 40 06:43 27.03.2021
997 Clear 20 1025 19 10000 4.63 60 04:57 27.03.2021
998 Clear 20 1025 19 10000 4.63 60 04:39 27.03.2021
999 Clouds 26 1021 18 10000 5.66 140 00:48 27.03.2021
1000 Clouds 26 1021 18 10000 5.66 140 00:48 27.03.2021
1001 Clouds 27 1021 18 10000 5.66 140 00:26 27.03.2021
1002 Clouds 29 1021 11 10000 4.63 210 23:43 26.03.2021
1003 Clouds 28 1022 11 10000 5.14 130 22:45 26.03.2021
1004 Clouds 28 1022 11 10000 5.14 130 22:25 26.03.2021
1005 Clouds 27 1023 11 10000 2.57 170 21:25 26.03.2021
1006 Clouds 27 1023 11 10000 2.57 170 21:25 26.03.2021
1007 Clouds 26 1025 12 10000 2.06 90 20:58 26.03.2021
1008 Clouds 26 1025 12 10000 2.06 90 20:32 26.03.2021
1009 Clouds 25 1025 12 10000 2.57 200 19:54 26.03.2021
1010 Clouds 25 1025 12 10000 2.57 200 19:35 26.03.2021
1011 Clouds 25 1026 14 9656 1.54 110 18:59 26.03.2021
1012 Clouds 25 1026 14 9656 1.54 110 18:41 26.03.2021
1013 Clouds 23 1026 17 9656 1.54 20 18:18 26.03.2021
1014 Clouds 23 1026 17 9656 3.6 90 17:44 26.03.2021
1015 Clouds 21 1026 19 9656 2.06 110 16:54 26.03.2021
1016 Clouds 18 1026 24 10000 0.83 126 16:31 26.03.2021
1017 Clouds 17 1026 25 10000 1.2 126 15:43 26.03.2021
1018 Clear 12 1025 32 10000 2.57 90 14:58 26.03.2021
1019 Clear 12 1025 32 10000 2.57 90 14:23 26.03.2021
1020 Clear 12 1024 40 10000 2.57 60 13:34 26.03.2021
1021 Clear 12 1024 32 10000 2.57 70 12:49 26.03.2021
1022 Clear 16 1024 23 10000 0.64 184 11:50 26.03.2021
1023 Clear 16 1024 23 10000 0.64 184 11:31 26.03.2021
1024 Clear 16 1024 23 10000 0.64 184 11:31 26.03.2021
1025 Clear 16 1024 23 10000 0.59 210 10:46 26.03.2021
1026 Clear 16 1024 23 10000 0.76 203 10:27 26.03.2021
1027 Clear 16 1024 23 10000 0.76 203 09:42 26.03.2021
1028 Clear 16 1024 23 10000 0.84 212 09:18 26.03.2021
1029 Clear 18 1024 19 10000 0.86 208 08:37 26.03.2021
1030 Clear 18 1024 19 10000 1.18 197 07:59 26.03.2021
1031 Clear 20 1025 19 10000 2.06 210 07:23 26.03.2021
1032 Clear 20 1025 17 10000 1.22 194 06:57 26.03.2021
1033 Clear 20 1025 17 10000 0.72 222 06:27 26.03.2021
1034 Clear 20 1024 15 10000 2.57 130 05:26 26.03.2021
1035 Clouds 24 1021 11 9656 4.63 190 01:57 26.03.2021
1036 Clouds 28 1020 7 9656 2.57 100 00:27 26.03.2021
1037 Clouds 29 1020 4 10000 3.6 120 23:44 25.03.2021
1038 Clouds 28 1021 3 10000 3.6 40 22:56 25.03.2021
1039 Clouds 28 1021 3 10000 3.6 40 22:28 25.03.2021
1040 Clouds 28 1022 3 10000 3.09 90 21:50 25.03.2021
1041 Clouds 28 1022 3 10000 3.09 90 21:31 25.03.2021
1042 Clouds 28 1023 4 10000 2.57 240 20:43 25.03.2021
1043 Clouds 28 1023 4 10000 2.57 240 20:25 25.03.2021
1044 Clouds 26 1025 5 10000 2.06 340 19:45 25.03.2021
1045 Clouds 26 1025 5 10000 2.06 340 19:45 25.03.2021
1046 Clouds 26 1025 5 10000 2.06 340 19:26 25.03.2021
1047 Clouds 25 1025 9 9656 2.57 220 18:47 25.03.2021
1048 Clouds 25 1025 9 9656 2.57 220 18:26 25.03.2021
1049 Clouds 25 1025 9 9656 2.57 220 18:26 25.03.2021
1050 Clouds 25 1025 9 9656 2.57 220 18:26 25.03.2021
1051 Clouds 22 1025 15 9656 2.57 80 17:45 25.03.2021
1052 Clouds 24 1025 14 8047 2.06 110 17:27 25.03.2021
1053 Clear 19 1026 20 9656 2.57 80 16:50 25.03.2021
1054 Clear 17 1026 23 9656 0.39 94 16:29 25.03.2021
1055 Clouds 17 1025 23 10000 0.39 94 15:43 25.03.2021
1056 Clouds 15 1025 25 10000 1.54 180 15:20 25.03.2021
1057 Clouds 14 1024 28 10000 0.42 198 14:46 25.03.2021
1058 Clear 13 1023 30 10000 2.06 220 13:49 25.03.2021
1059 Clear 13 1023 30 10000 2.06 220 13:24 25.03.2021
1060 Clear 13 1022 33 10000 0.93 208 12:44 25.03.2021
1061 Clear 13 1022 33 10000 1.01 203 12:20 25.03.2021
1062 Clear 13 1022 33 10000 1.54 80 11:52 25.03.2021
1063 Clear 13 1022 33 10000 1.54 80 11:30 25.03.2021
1064 Clear 16 1022 25 10000 1 204 10:54 25.03.2021
1065 Clear 16 1022 25 10000 0.94 217 10:25 25.03.2021
1066 Clear 17 1023 23 10000 1.54 160 09:57 25.03.2021
1067 Clear 17 1023 23 10000 1.54 160 09:38 25.03.2021
1068 Clear 17 1023 23 10000 1.54 120 08:57 25.03.2021
1069 Clear 17 1023 23 10000 1.54 120 08:28 25.03.2021
1070 Clear 18 1023 24 10000 2.06 210 07:19 25.03.2021
1071 Clear 19 1024 22 10000 1.54 210 06:26 25.03.2021
1072 Clear 20 1023 19 10000 3.09 200 05:49 25.03.2021
1073 Clear 22 1021 18 10000 5.14 200 03:55 25.03.2021
1074 Clear 28 1018 12 10000 3.09 220 00:35 25.03.2021
1075 Clear 28 1018 11 10000 6.17 180 23:53 24.03.2021
1076 Clear 28 1018 11 10000 6.17 180 23:30 24.03.2021
1077 Clear 28 1019 8 10000 8.23 140 22:50 24.03.2021
1078 Clear 28 1019 8 10000 8.23 140 22:30 24.03.2021
1079 Clear 28 1019 8 10000 7.72 130 21:47 24.03.2021
1080 Clear 28 1020 7 10000 3.09 70 21:25 24.03.2021
1081 Clear 27 1021 7 10000 3.09 60 20:45 24.03.2021
1082 Clear 27 1021 7 10000 3.09 60 20:20 24.03.2021
1083 Clear 26 1022 11 10000 1.71 188 19:52 24.03.2021
1084 Clear 26 1022 11 10000 1.35 199 19:29 24.03.2021
1085 Clear 25 1023 12 10000 2.06 190 18:51 24.03.2021
1086 Clear 25 1023 12 10000 2.06 190 18:51 24.03.2021
1087 Clear 23 1024 14 10000 3.09 40 18:24 24.03.2021
1088 Clear 22 1024 15 10000 2.06 100 17:52 24.03.2021
1089 Clear 20 1024 21 10000 1.26 189 17:32 24.03.2021
1090 Clear 19 1025 24 10000 1.19 196 16:53 24.03.2021
1091 Clear 19 1025 24 10000 1.29 184 16:31 24.03.2021
1092 Clear 15 1024 31 10000 2.06 80 15:50 24.03.2021
1093 Clear 15 1024 31 10000 2.06 80 15:32 24.03.2021
1094 Clear 11 1023 37 10000 2.57 60 14:48 24.03.2021
1095 Clear 11 1023 37 10000 2.57 60 14:27 24.03.2021
1096 Clear 10 1022 43 10000 2.57 60 13:55 24.03.2021
1097 Clear 10 1022 43 10000 2.57 60 13:28 24.03.2021
1098 Clear 13 1021 33 10000 1.46 206 12:44 24.03.2021
1099 Clear 13 1021 33 10000 1.7 197 12:23 24.03.2021
1100 Clear 14 1021 33 10000 1.7 197 11:49 24.03.2021
1101 Clear 15 1022 31 10000 1.92 196 10:59 24.03.2021
1102 Clear 15 1022 31 10000 1.92 198 10:40 24.03.2021
1103 Clear 15 1022 31 10000 1.77 198 10:21 24.03.2021
1104 Clear 16 1022 29 10000 1.77 198 09:52 24.03.2021
1105 Clear 16 1022 29 10000 1.68 204 09:22 24.03.2021
1106 Clear 18 1023 24 10000 1.68 204 08:51 24.03.2021
1107 Clear 18 1023 24 10000 1.89 201 08:26 24.03.2021
1108 Clear 19 1023 20 10000 3.09 200 07:41 24.03.2021
1109 Clear 19 1023 22 10000 1.98 201 06:54 24.03.2021
1110 Clear 22 1020 19 10000 4.92 180 05:35 24.03.2021
1111 Clouds 26 1019 22 10000 6.69 120 00:55 24.03.2021
1112 Clouds 26 1019 22 10000 6.69 120 00:25 24.03.2021
1113 Clouds 27 1019 17 10000 4.63 120 23:22 23.03.2021
1114 Clouds 28 1020 12 10000 3.09 270 22:58 23.03.2021
1115 Clouds 28 1020 12 10000 3.09 270 22:40 23.03.2021
1116 Clear 27 1021 11 10000 3.09 270 21:58 23.03.2021
1117 Clear 27 1021 11 10000 3.09 270 21:39 23.03.2021
1118 Clear 27 1021 11 10000 3.09 270 21:19 23.03.2021
1119 Clear 26 1022 10 10000 3.6 230 20:39 23.03.2021
1120 Clear 26 1022 10 10000 3.6 230 20:21 23.03.2021
1121 Clear 25 1023 15 10000 3.09 260 19:44 23.03.2021
1122 Clear 25 1023 15 10000 3.09 260 19:23 23.03.2021
1123 Clear 24 1024 17 10000 2.57 140 18:41 23.03.2021
1124 Clear 24 1024 17 10000 2.57 140 18:20 23.03.2021
1125 Clear 23 1025 18 10000 0.11 209 17:44 23.03.2021
1126 Clear 21 1025 24 10000 2.06 40 17:21 23.03.2021
1127 Clear 20 1025 26 10000 1.54 190 16:26 23.03.2021
1128 Clear 16 1025 39 10000 1.54 30 15:52 23.03.2021
1129 Clear 16 1025 39 10000 1.54 30 15:25 23.03.2021
1130 Clear 13 1024 44 10000 2.57 70 14:49 23.03.2021
1131 Clear 13 1024 44 10000 2.57 70 14:20 23.03.2021
1132 Clear 14 1023 41 10000 1.54 160 13:48 23.03.2021
1133 Clear 14 1023 41 10000 1.54 160 13:25 23.03.2021
1134 Clear 15 1023 41 10000 0.91 218 12:46 23.03.2021
1135 Clear 15 1023 41 10000 1.01 217 12:26 23.03.2021
1136 Clear 15 1022 38 10000 1.01 217 11:49 23.03.2021
1137 Clear 15 1022 38 10000 1.21 214 11:26 23.03.2021
1138 Clear 16 1022 31 10000 1.21 214 10:43 23.03.2021
1139 Clear 16 1022 31 10000 1.44 209 10:21 23.03.2021
1140 Clear 17 1023 34 10000 1.44 209 09:54 23.03.2021
1141 Clear 17 1023 34 10000 1.89 213 09:24 23.03.2021
1142 Clear 18 1023 34 10000 1.54 120 08:56 23.03.2021
1143 Clear 18 1023 34 10000 1.54 120 08:38 23.03.2021
1144 Clear 18 1023 34 10000 1.54 120 08:19 23.03.2021
1145 Clear 19 1024 34 10000 3.09 120 07:28 23.03.2021
1146 Clear 20 1024 24 10000 4.12 240 06:54 23.03.2021
1147 Clouds 21 1023 28 10000 4.12 210 04:58 23.03.2021
1148 Clouds 22 1022 28 10000 4.63 180 03:20 23.03.2021
1149 Clouds 28 1019 21 10000 6.17 210 23:57 22.03.2021
1150 Clouds 28 1020 14 10000 1.54 180 23:21 22.03.2021
1151 Clouds 27 1021 12 10000 5.14 250 22:44 22.03.2021
1152 Clouds 27 1021 12 10000 5.14 250 22:44 22.03.2021
1153 Clouds 27 1021 12 10000 5.14 250 22:21 22.03.2021
1154 Clouds 28 1022 12 10000 3.6 210 21:51 22.03.2021
1155 Clouds 28 1022 12 10000 3.6 210 21:27 22.03.2021
1156 Clouds 28 1022 12 10000 2.06 170 20:49 22.03.2021
1157 Clear 26 1023 18 10000 2.06 210 20:29 22.03.2021
1158 Clear 26 1024 18 10000 2.06 160 19:58 22.03.2021
1159 Clear 24 1025 23 10000 2.57 50 19:40 22.03.2021
1160 Clear 24 1025 23 10000 2.57 50 19:21 22.03.2021
1161 Clear 24 1025 25 10000 2.06 170 18:42 22.03.2021
1162 Clear 24 1025 25 10000 2.06 170 18:22 22.03.2021
1163 Clear 23 1026 27 10000 1.54 150 17:50 22.03.2021
1164 Clear 21 1026 32 9656 0.78 215 17:22 22.03.2021
1165 Clear 19 1026 37 10000 1.03 30 16:57 22.03.2021
1166 Clear 19 1026 37 10000 1.03 30 16:39 22.03.2021
1167 Clear 17 1026 42 10000 0.8 205 15:43 22.03.2021
1168 Clear 17 1026 42 10000 0.9 202 15:23 22.03.2021
1169 Clear 14 1025 51 10000 0.9 202 14:59 22.03.2021
1170 Clear 14 1025 51 10000 0.9 202 14:34 22.03.2021
1171 Clear 13 1025 54 10000 2.06 190 13:52 22.03.2021
1172 Clear 13 1025 54 10000 2.06 190 13:34 22.03.2021
1173 Clear 14 1025 54 10000 1.51 194 12:59 22.03.2021
1174 Clear 14 1025 54 10000 1.45 195 12:38 22.03.2021
1175 Clear 14 1025 54 10000 1.5 200 12:18 22.03.2021
1176 Clear 15 1025 51 10000 1.5 200 11:40 22.03.2021
1177 Clear 15 1025 51 10000 1.58 192 11:20 22.03.2021
1178 Clear 16 1025 44 10000 1.58 192 10:42 22.03.2021
1179 Clear 16 1025 44 10000 1.58 196 10:20 22.03.2021
1180 Clear 16 1025 44 10000 1.58 196 09:37 22.03.2021
1181 Clear 17 1026 42 10000 1.68 193 08:59 22.03.2021
1182 Clear 17 1026 42 10000 1.68 193 08:40 22.03.2021
1183 Clear 17 1026 42 10000 1.74 191 08:21 22.03.2021
1184 Clear 17 1026 42 10000 1.74 191 07:43 22.03.2021
1185 Clear 17 1026 42 10000 2.57 60 06:52 22.03.2021
1186 Clouds 19 1026 37 10000 4.12 90 05:19 22.03.2021
1187 Clouds 24 1022 20 10000 2.06 80 00:55 22.03.2021
1188 Clouds 24 1022 20 10000 2.06 80 00:21 22.03.2021
1189 Clouds 25 1023 19 10000 2.06 170 23:48 21.03.2021
1190 Clouds 25 1023 19 10000 2.06 170 23:19 21.03.2021
1191 Clouds 24 1024 22 10000 4.12 320 22:54 21.03.2021
1192 Clouds 24 1025 22 10000 2.06 140 21:45 21.03.2021
1193 Clouds 24 1025 22 10000 2.06 140 21:27 21.03.2021
1194 Clouds 23 1026 25 10000 4.12 70 20:58 21.03.2021
1195 Clouds 23 1026 25 10000 4.12 70 20:39 21.03.2021
1196 Clouds 23 1026 25 10000 4.12 70 20:21 21.03.2021
1197 Clouds 22 1027 26 10000 2.06 250 19:49 21.03.2021
1198 Clouds 22 1027 26 10000 2.06 250 19:20 21.03.2021
1199 Clouds 21 1028 32 10000 2.06 120 18:45 21.03.2021
1200 Clouds 19 1028 37 9656 2.06 130 18:26 21.03.2021
1201 Clouds 18 1029 42 9656 1 346 17:44 21.03.2021
1202 Clouds 18 1029 42 9656 0.92 325 17:19 21.03.2021
1203 Clouds 16 1029 48 9656 0.92 324 16:51 21.03.2021
1204 Clouds 16 1029 48 9656 0.52 321 16:28 21.03.2021
1205 Clouds 14 1028 54 8047 2.06 280 15:49 21.03.2021
1206 Clouds 14 1028 54 8047 2.06 280 15:23 21.03.2021
1207 Clouds 11 1027 66 9656 0.14 58 14:58 21.03.2021
1208 Clouds 11 1027 66 9656 0.14 58 14:39 21.03.2021
1209 Clouds 11 1027 66 9656 0.5 98 14:20 21.03.2021
1210 Clear 12 1026 58 10000 1.54 110 13:51 21.03.2021
1211 Clear 12 1026 62 10000 2.06 50 12:46 21.03.2021
1212 Clear 12 1026 62 10000 2.06 50 12:26 21.03.2021
1213 Clear 13 1026 58 10000 2.57 80 11:47 21.03.2021
1214 Clear 13 1026 58 10000 2.57 80 11:27 21.03.2021
1215 Clear 13 1026 54 10000 4.12 80 10:50 21.03.2021
1216 Clear 13 1026 54 10000 4.12 80 10:32 21.03.2021
1217 Clear 13 1026 54 10000 4.12 80 09:55 21.03.2021
1218 Clear 15 1027 51 10000 0.2 18 09:37 21.03.2021
1219 Clear 15 1027 51 10000 0.17 314 09:18 21.03.2021
1220 Clouds 16 1027 48 10000 1.54 290 08:37 21.03.2021
1221 Clouds 16 1027 48 10000 1.54 290 08:19 21.03.2021
1222 Clouds 16 1027 44 10000 2.57 290 07:29 21.03.2021
1223 Rain 17 1027 42 10000 1.54 360 06:21 21.03.2021
1224 Clouds 17 1027 48 10000 3.6 80 04:57 21.03.2021
1225 Clouds 23 1023 27 10000 7.2 120 00:58 21.03.2021
1226 Clouds 23 1023 27 10000 7.2 120 00:39 21.03.2021
1227 Clouds 24 1023 19 10000 4.12 360 00:20 21.03.2021
1228 Clouds 24 1024 22 10000 2.57 340 23:46 20.03.2021
1229 Clouds 24 1024 22 10000 2.57 340 23:20 20.03.2021
1230 Clouds 24 1024 17 10000 7.72 20 22:25 20.03.2021
1231 Clouds 24 1025 20 10000 3.6 30 21:58 20.03.2021
1232 Clouds 24 1025 20 10000 3.6 30 21:40 20.03.2021
1233 Clouds 24 1025 20 10000 3.6 30 21:21 20.03.2021
1234 Clouds 24 1027 22 9656 2.06 360 20:41 20.03.2021
1235 Clouds 24 1027 22 9656 2.06 360 20:21 20.03.2021
1236 Clouds 23 1027 27 9656 3.09 290 19:42 20.03.2021
1237 Clear 21 1028 32 9656 2.06 80 19:23 20.03.2021
1238 Clear 20 1029 34 9656 1.95 18 18:46 20.03.2021
1239 Clear 18 1029 39 9656 2.06 10 18:24 20.03.2021
1240 Clear 17 1029 42 9656 2.06 10 17:48 20.03.2021
1241 Clear 17 1029 42 9656 2.06 10 17:26 20.03.2021
1242 Clear 13 1030 54 9656 2.06 90 16:44 20.03.2021
1243 Clear 13 1030 54 9656 2.06 90 16:44 20.03.2021
1244 Clear 13 1030 54 9656 2.06 90 16:20 20.03.2021
1245 Clear 12 1030 54 9656 1.54 70 15:54 20.03.2021
1246 Clear 12 1030 54 9656 1.54 70 15:33 20.03.2021
1247 Clouds 9 1029 66 10000 3.6 70 14:42 20.03.2021
1248 Clouds 9 1029 66 10000 3.6 70 14:22 20.03.2021
1249 Clouds 9 1028 61 10000 3.09 70 13:32 20.03.2021
1250 Clear 9 1028 66 10000 3.09 60 12:45 20.03.2021
1251 Clear 9 1028 66 10000 3.09 60 12:25 20.03.2021
1252 Clear 10 1028 62 10000 2.06 80 11:44 20.03.2021
1253 Clear 10 1028 62 10000 2.06 80 11:24 20.03.2021
1254 Clear 11 1028 58 10000 3.09 80 10:47 20.03.2021
1255 Clear 11 1028 58 10000 3.09 80 10:27 20.03.2021
1256 Clear 12 1028 58 10000 4.12 70 09:54 20.03.2021
1257 Clear 12 1028 58 10000 4.12 70 09:27 20.03.2021
1258 Clear 15 1029 44 10000 2.57 290 08:56 20.03.2021
1259 Clear 15 1029 44 10000 2.57 290 08:28 20.03.2021
1260 Clear 15 1029 44 10000 2.57 290 07:49 20.03.2021
1261 Clear 15 1029 44 10000 2.57 290 07:30 20.03.2021
1262 Clear 16 1029 41 10000 4.12 300 06:46 20.03.2021
1263 Clouds 18 1029 36 10000 7.2 350 05:30 20.03.2021
1264 Clouds 19 1027 39 10000 4.12 50 03:46 20.03.2021
1265 Clouds 21 1026 28 10000 5.14 350 02:40 20.03.2021
1266 Clouds 23 1025 20 10000 4.12 300 23:56 19.03.2021
1267 Clouds 23 1025 20 10000 4.12 300 23:22 19.03.2021
1268 Clouds 23 1025 16 10000 2.57 320 22:45 19.03.2021
1269 Clouds 23 1025 16 10000 2.57 320 22:25 19.03.2021
1270 Clouds 23 1026 23 9656 3.09 120 21:52 19.03.2021
1271 Clouds 23 1026 23 9656 3.09 120 21:21 19.03.2021
1272 Clouds 23 1027 27 9656 4.12 20 20:46 19.03.2021
1273 Clouds 23 1027 27 9656 4.12 20 20:27 19.03.2021
1274 Clouds 23 1027 27 9656 4.12 20 20:27 19.03.2021
1275 Clouds 23 1028 31 9656 2.06 80 19:52 19.03.2021
1276 Clear 21 1029 32 9656 1.54 110 19:26 19.03.2021
1277 Clear 20 1029 34 9656 2.26 15 18:58 19.03.2021
1278 Clear 20 1029 34 9656 2.26 15 18:36 19.03.2021
1279 Clear 18 1030 39 8047 1.87 22 18:18 19.03.2021
1280 Clear 17 1030 42 8047 1.87 22 17:48 19.03.2021
1281 Clear 17 1030 42 8047 1.82 20 17:23 19.03.2021
1282 Clear 14 1030 51 8047 1.82 20 16:44 19.03.2021
1283 Clear 14 1030 51 8047 1.83 18 16:26 19.03.2021
1284 Clear 10 1030 66 9656 3.09 80 15:34 19.03.2021
1285 Clear 8 1029 71 9656 2.57 60 14:56 19.03.2021
1286 Clear 8 1029 71 9656 2.57 60 14:35 19.03.2021
1287 Clear 8 1029 71 9656 2.57 60 13:59 19.03.2021
1288 Clear 8 1029 71 9656 2.57 60 13:24 19.03.2021
1289 Clear 9 1028 66 9656 2.57 90 12:48 19.03.2021
1290 Clear 9 1028 66 9656 2.57 90 12:29 19.03.2021
1291 Clear 9 1028 66 10000 1.54 90 11:36 19.03.2021
1292 Clear 10 1028 66 10000 1.54 80 10:53 19.03.2021
1293 Clear 11 1028 58 10000 3.09 80 10:26 19.03.2021
1294 Clear 12 1028 54 10000 2.57 290 09:47 19.03.2021
1295 Clear 12 1028 54 10000 2.57 290 09:27 19.03.2021
1296 Clouds 13 1029 50 10000 4.63 280 08:53 19.03.2021
1297 Clouds 13 1029 50 10000 4.63 280 08:30 19.03.2021
1298 Clouds 13 1029 50 10000 3.09 280 07:51 19.03.2021
1299 Clouds 13 1029 50 10000 3.09 280 07:32 19.03.2021
1300 Clouds 14 1029 47 10000 2.57 10 06:36 19.03.2021
1301 Rain 17 1026 51 10000 5.14 280 02:37 19.03.2021
1302 Rain 23 1024 23 10000 5.14 50 23:57 18.03.2021
1303 Clouds 23 1024 23 10000 5.14 50 23:30 18.03.2021
1304 Clouds 22 1025 24 10000 3.09 240 22:58 18.03.2021
1305 Clouds 22 1025 24 10000 3.09 240 22:27 18.03.2021
1306 Clouds 22 1027 26 9656 2.06 290 21:59 18.03.2021
1307 Clouds 22 1027 26 9656 2.06 290 21:38 18.03.2021
1308 Clear 21 1028 28 10000 2.06 340 20:43 18.03.2021
1309 Clear 21 1028 28 10000 2.06 340 20:23 18.03.2021
1310 Clear 19 1029 32 10000 4.12 340 19:45 18.03.2021
1311 Clear 19 1029 32 10000 4.12 340 19:24 18.03.2021
1312 Clouds 18 1029 34 10000 2.16 13 18:54 18.03.2021
1313 Clouds 16 1030 41 10000 3.09 10 18:27 18.03.2021
1314 Clouds 15 1030 41 10000 4.12 40 17:47 18.03.2021
1315 Clouds 15 1030 41 10000 4.12 40 17:25 18.03.2021
1316 Clouds 14 1030 44 10000 5.14 40 16:44 18.03.2021
1317 Clouds 14 1030 44 10000 5.14 40 16:23 18.03.2021
1318 Clouds 13 1029 54 9656 3.09 20 15:45 18.03.2021
1319 Clouds 13 1029 54 9656 3.09 20 15:23 18.03.2021
1320 Clouds 13 1028 62 9656 2.57 10 14:53 18.03.2021
1321 Clouds 13 1028 62 9656 2.57 10 14:30 18.03.2021
1322 Clear 13 1027 67 9656 2.57 300 13:49 18.03.2021
1323 Clear 13 1027 67 9656 2.57 300 13:26 18.03.2021
1324 Clear 13 1026 62 9656 2.06 10 12:42 18.03.2021
1325 Clear 13 1026 62 9656 2.06 10 12:24 18.03.2021
1326 Clear 13 1026 62 10000 2.06 330 11:51 18.03.2021
1327 Clear 13 1026 62 10000 2.06 330 11:32 18.03.2021
1328 Clear 13 1025 67 10000 2.06 60 10:45 18.03.2021
1329 Clear 13 1025 67 10000 2.06 60 10:27 18.03.2021
1330 Clear 14 1025 62 10000 2.57 80 09:54 18.03.2021
1331 Clear 14 1025 62 10000 2.57 80 09:28 18.03.2021
1332 Clear 17 1025 48 10000 2.57 350 08:50 18.03.2021
1333 Clear 17 1025 48 10000 2.57 350 08:30 18.03.2021
1334 Clear 17 1026 48 10000 3.09 300 07:52 18.03.2021
1335 Clear 17 1026 48 10000 3.09 300 07:24 18.03.2021
1336 Clouds 17 1026 45 10000 2.57 360 06:28 18.03.2021
1337 Clouds 17 1025 48 10000 6.17 80 05:53 18.03.2021
1338 Clouds 24 1021 22 10000 5.66 180 01:24 18.03.2021
1339 Clouds 27 1020 17 10000 2.57 210 23:59 17.03.2021
1340 Clouds 27 1021 17 10000 2.06 280 22:47 17.03.2021
1341 Clouds 27 1021 17 10000 2.06 280 22:26 17.03.2021
1342 Clouds 26 1022 14 10000 2.57 70 21:56 17.03.2021
1343 Clouds 26 1022 14 10000 2.57 70 21:34 17.03.2021
1344 Clouds 26 1023 17 10000 3.09 60 20:59 17.03.2021
1345 Clouds 26 1023 17 10000 3.09 60 20:40 17.03.2021
1346 Clouds 26 1023 17 10000 3.09 60 20:40 17.03.2021
1347 Clouds 26 1023 17 10000 3.09 60 20:40 17.03.2021
1348 Clouds 26 1023 17 10000 3.09 60 20:40 17.03.2021
1349 Clouds 26 1023 17 10000 3.09 60 20:22 17.03.2021
1350 Clouds 26 1023 15 10000 2.06 220 19:44 17.03.2021
1351 Clear 24 1024 23 10000 1.54 170 19:21 17.03.2021
1352 Clear 23 1025 27 10000 2.06 200 18:54 17.03.2021
1353 Clear 21 1025 27 10000 2.06 200 18:36 17.03.2021
1354 Clear 20 1025 37 10000 3.09 110 17:48 17.03.2021
1355 Clear 20 1025 37 10000 3.09 110 17:26 17.03.2021
1356 Clear 18 1025 42 10000 2.06 90 16:46 17.03.2021
1357 Clear 18 1025 42 10000 2.06 90 16:25 17.03.2021
1358 Clear 18 1025 42 10000 1.54 70 15:53 17.03.2021
1359 Clear 15 1025 47 10000 2.06 90 15:35 17.03.2021
1360 Clear 13 1024 58 10000 2.06 40 14:45 17.03.2021
1361 Clear 13 1024 58 10000 2.06 40 14:27 17.03.2021
1362 Clear 14 1023 54 10000 2.57 80 13:55 17.03.2021
1363 Clear 14 1023 54 10000 2.57 80 13:30 17.03.2021
1364 Clear 14 1023 54 10000 3.09 70 12:51 17.03.2021
1365 Clear 16 1022 48 10000 1.38 196 12:33 17.03.2021
1366 Clear 16 1022 48 10000 1.54 240 11:51 17.03.2021
1367 Clear 16 1022 48 10000 1.54 240 11:23 17.03.2021
1368 Clear 16 1022 51 10000 1.54 230 10:55 17.03.2021
1369 Clear 16 1022 51 10000 1.54 230 10:28 17.03.2021
1370 Clear 17 1023 48 10000 3.09 130 09:48 17.03.2021
1371 Clear 17 1023 48 10000 3.09 130 09:25 17.03.2021
1372 Clear 18 1023 45 10000 1.54 120 08:58 17.03.2021
1373 Clear 18 1023 45 10000 1.54 120 08:38 17.03.2021
1374 Clear 18 1023 45 10000 2.57 130 07:49 17.03.2021
1375 Clear 18 1023 45 10000 2.57 130 07:30 17.03.2021
1376 Clear 20 1023 32 10000 2.57 130 06:42 17.03.2021
1377 Clear 21 1023 32 10000 3.09 180 04:23 17.03.2021
1378 Clear 22 1022 26 10000 5.66 200 03:24 17.03.2021
1379 Clouds 27 1020 11 10000 6.69 210 00:40 17.03.2021
1380 Clouds 28 1020 11 10000 4.63 170 23:33 16.03.2021
1381 Clouds 28 1020 9 10000 3.6 200 22:51 16.03.2021
1382 Clouds 28 1020 9 10000 3.6 200 22:33 16.03.2021
1383 Clouds 27 1021 12 10000 2.06 140 21:51 16.03.2021
1384 Clouds 27 1021 12 10000 2.06 140 21:32 16.03.2021
1385 Clear 26 1023 18 10000 5.14 150 20:59 16.03.2021
1386 Clear 26 1023 18 10000 5.14 150 20:38 16.03.2021
1387 Clear 26 1023 18 10000 5.14 150 20:18 16.03.2021
1388 Clear 24 1024 20 10000 1.54 100 19:42 16.03.2021
1389 Clear 24 1024 20 10000 1.54 100 19:23 16.03.2021
1390 Clear 24 1025 23 9656 3.09 70 18:44 16.03.2021
1391 Clear 24 1025 23 9656 3.09 70 18:26 16.03.2021
1392 Clear 21 1026 32 9656 1.54 60 17:50 16.03.2021
1393 Clear 21 1026 32 9656 1.54 60 17:30 16.03.2021
1394 Clear 21 1026 32 9656 1.54 30 16:53 16.03.2021
1395 Clear 18 1025 36 9656 1.54 50 16:30 16.03.2021
1396 Clear 18 1025 36 9656 0.38 158 15:47 16.03.2021
1397 Clear 16 1025 41 9656 0.58 178 15:21 16.03.2021
1398 Clear 13 1025 50 10000 1.03 60 14:58 16.03.2021
1399 Clear 13 1025 50 10000 1.03 60 14:40 16.03.2021
1400 Clear 11 1024 62 10000 2.57 50 14:21 16.03.2021
1401 Clear 13 1024 47 10000 0.55 188 13:54 16.03.2021
1402 Clear 13 1024 47 10000 0.53 189 13:26 16.03.2021
1403 Clear 14 1023 41 10000 2.06 280 12:53 16.03.2021
1404 Clear 14 1023 41 10000 2.06 280 12:34 16.03.2021
1405 Clear 14 1023 44 10000 0.61 201 11:54 16.03.2021
1406 Clear 14 1023 44 10000 0.71 215 11:27 16.03.2021
1407 Clear 15 1023 47 10000 0.71 215 10:44 16.03.2021
1408 Clear 15 1023 47 10000 0.58 236 10:20 16.03.2021
1409 Clear 15 1023 47 10000 0.58 236 10:20 16.03.2021
1410 Clear 17 1024 42 10000 0.58 236 09:39 16.03.2021
1411 Clear 17 1024 42 10000 0.32 240 09:18 16.03.2021
1412 Clear 18 1024 39 10000 2.57 290 08:49 16.03.2021
1413 Clear 18 1024 39 10000 2.57 290 08:31 16.03.2021
1414 Clear 18 1025 36 10000 2.57 310 07:38 16.03.2021
1415 Clear 19 1025 37 10000 0.74 288 06:57 16.03.2021
1416 Clear 19 1025 37 10000 0.21 307 06:37 16.03.2021
1417 Clouds 21 1024 30 10000 5.14 320 05:35 16.03.2021
1418 Clouds 22 1022 28 10000 4.12 330 02:46 16.03.2021
1419 Clouds 23 1022 28 10000 4.12 330 02:25 16.03.2021
1420 Rain 25 1021 27 10000 5.14 100 00:25 16.03.2021
1421 Rain 25 1021 27 10000 5.14 100 00:25 16.03.2021
1422 Rain 25 1021 27 10000 5.14 100 00:25 16.03.2021
1423 Rain 26 1021 22 10000 3.09 120 23:29 15.03.2021
1424 Clouds 26 1022 21 10000 4.12 140 22:57 15.03.2021
1425 Clouds 26 1022 21 10000 4.12 140 22:38 15.03.2021
1426 Clouds 26 1022 21 10000 4.12 140 22:20 15.03.2021
1427 Clouds 26 1023 21 10000 1.54 330 21:44 15.03.2021
1428 Clouds 26 1023 21 10000 1.54 330 21:26 15.03.2021
1429 Clouds 26 1024 21 10000 4.12 160 20:45 15.03.2021
1430 Clouds 26 1024 21 10000 4.12 160 20:26 15.03.2021
1431 Clouds 25 1025 23 10000 2.06 70 19:57 15.03.2021
1432 Clouds 25 1025 23 10000 2.06 70 19:38 15.03.2021
1433 Clouds 25 1025 23 10000 2.06 70 19:19 15.03.2021
1434 Clear 22 1026 30 10000 0.87 31 18:40 15.03.2021
1435 Clear 22 1026 30 10000 0.97 42 18:22 15.03.2021
1436 Clear 21 1027 32 10000 0.97 42 17:43 15.03.2021
1437 Clear 19 1027 39 10000 0.91 69 17:22 15.03.2021
1438 Clear 17 1026 45 10000 2.06 50 16:43 15.03.2021
1439 Clear 14 1026 51 10000 3.09 60 15:56 15.03.2021
1440 Clear 14 1026 51 10000 3.09 60 15:28 15.03.2021
1441 Clear 13 1025 58 9656 2.06 80 14:55 15.03.2021
1442 Clear 13 1025 58 9656 2.06 80 14:36 15.03.2021
1443 Clear 13 1025 58 9656 2.06 80 14:18 15.03.2021
1444 Clear 15 1024 47 10000 0.38 143 13:41 15.03.2021
1445 Clear 15 1024 47 10000 0.29 122 13:23 15.03.2021
1446 Clear 14 1024 58 10000 0.29 172 12:45 15.03.2021
1447 Clear 14 1024 58 10000 0.24 172 12:18 15.03.2021
1448 Clear 14 1024 58 10000 1.54 40 11:41 15.03.2021
1449 Clear 14 1024 58 10000 1.54 40 11:21 15.03.2021
1450 Clear 14 1025 54 10000 2.06 60 10:43 15.03.2021
1451 Clear 14 1025 54 10000 2.06 60 10:24 15.03.2021
1452 Clear 16 1025 47 10000 2.57 50 09:44 15.03.2021
1453 Clear 17 1025 42 10000 0.21 155 09:22 15.03.2021
1454 Clouds 18 1025 42 10000 2.57 290 08:45 15.03.2021
1455 Clouds 18 1025 42 10000 2.57 290 08:25 15.03.2021
1456 Clouds 18 1026 42 10000 2.57 300 07:40 15.03.2021
1457 Clouds 18 1026 42 10000 2.57 300 07:22 15.03.2021
1458 Clouds 20 1026 32 10000 7.2 40 05:37 15.03.2021
1459 Clouds 23 1024 33 10000 4.12 170 03:20 15.03.2021
1460 Rain 25 1022 27 10000 5.66 220 00:42 15.03.2021
1461 Clouds 27 1022 17 10000 3.09 210 23:24 14.03.2021
1462 Clouds 28 1023 17 10000 2.57 110 22:50 14.03.2021
1463 Clouds 28 1023 17 10000 2.57 110 22:28 14.03.2021
1464 Clouds 27 1025 18 10000 2.06 100 21:56 14.03.2021
1465 Clouds 27 1025 18 10000 2.06 100 21:24 14.03.2021
1466 Clouds 26 1026 19 10000 3.09 70 20:59 14.03.2021
1467 Clouds 26 1026 19 10000 3.09 70 20:40 14.03.2021
1468 Clouds 25 1026 19 10000 3.09 70 20:22 14.03.2021
1469 Clear 25 1027 22 10000 1.54 230 19:41 14.03.2021
1470 Clear 24 1027 22 10000 1.54 230 19:19 14.03.2021
1471 Clear 24 1027 23 10000 2.57 60 18:37 14.03.2021
1472 Clear 21 1028 32 9656 1.54 70 17:54 14.03.2021
1473 Clear 21 1028 32 9656 1.54 70 17:36 14.03.2021
1474 Clear 21 1028 32 9656 1.54 70 17:18 14.03.2021
1475 Clear 17 1028 45 10000 2.06 80 16:40 14.03.2021
1476 Clear 17 1028 45 10000 2.06 80 16:20 14.03.2021
1477 Clear 15 1027 38 10000 2.06 90 15:45 14.03.2021
1478 -273 0 0 0 0 0 14:54 14.03.2021
1479 Clear 11 1026 46 10000 2.06 70 14:31 14.03.2021
1480 Clear 11 1026 46 10000 3.09 60 13:55 14.03.2021
1481 Clear 11 1026 46 10000 3.09 60 13:36 14.03.2021
1482 Clear 14 1025 44 10000 0.76 191 12:59 14.03.2021
1483 Clear 14 1025 44 10000 0.74 192 12:41 14.03.2021
1484 Clear 14 1025 44 10000 0.63 192 12:22 14.03.2021
1485 Clear 14 1025 41 10000 2.06 70 11:39 14.03.2021
1486 Clear 14 1025 41 10000 2.06 70 11:19 14.03.2021
1487 Clear 16 1026 36 10000 0.44 194 10:38 14.03.2021
1488 Clear 16 1026 36 10000 0.55 197 10:19 14.03.2021
1489 Clear 16 1027 39 10000 0.55 197 09:56 14.03.2021
1490 Clear 16 1027 39 10000 0.55 197 09:38 14.03.2021
1491 Clear 16 1027 39 10000 1.05 169 09:20 14.03.2021
1492 Clear 17 1027 36 10000 2.06 60 08:36 14.03.2021
1493 Clouds 19 1028 36 10000 2.57 80 07:58 14.03.2021
1494 Clouds 20 1028 30 10000 2.57 20 07:27 14.03.2021
1495 Clouds 22 1027 23 10000 2.06 180 05:34 14.03.2021
1496 Clear 27 1024 12 9656 6.17 130 01:25 14.03.2021
1497 Clear 28 1024 13 9656 1.03 290 00:20 14.03.2021
1498 Clear 29 1024 12 9656 3.09 70 23:59 13.03.2021
1499 Clear 29 1024 12 9656 3.09 70 23:38 13.03.2021
1500 Clear 28 1024 12 9656 3.09 70 23:18 13.03.2021
1501 Clear 28 1025 13 9656 5.14 90 22:44 13.03.2021
1502 Clear 27 1026 12 9656 4.12 130 21:55 13.03.2021
1503 Clear 27 1026 12 9656 4.12 130 21:55 13.03.2021
1504 Clear 27 1026 12 9656 4.12 130 21:35 13.03.2021
1505 Clear 27 1027 12 9656 3.6 160 20:57 13.03.2021
1506 Clear 27 1027 12 9656 3.6 160 20:37 13.03.2021
1507 Clear 25 1028 15 8047 2.06 70 20:19 13.03.2021
1508 Clear 24 1029 25 8047 3.09 30 19:38 13.03.2021
1509 Clear 24 1029 25 8047 3.09 30 19:19 13.03.2021
1510 Clear 22 1030 30 8047 1.54 160 18:42 13.03.2021
1511 Clear 22 1030 30 8047 1.54 160 18:20 13.03.2021
1512 Clear 21 1030 35 8047 0.61 42 17:47 13.03.2021
1513 Clear 19 1030 39 8047 1.54 90 17:28 13.03.2021
1514 Clear 16 1030 55 8047 0.51 44 16:51 13.03.2021
1515 Clear 16 1030 55 8047 0.49 42 16:33 13.03.2021
1516 Clear 16 1030 55 8047 2.06 70 15:54 13.03.2021
1517 Clear 10 1029 81 6437 3.6 60 14:58 13.03.2021
1518 Clear 10 1029 81 6437 3.6 60 14:40 13.03.2021
1519 Clear 10 1029 81 6437 3.6 60 14:18 13.03.2021
1520 Clear 12 1028 71 8047 2.06 80 13:26 13.03.2021
1521 Clear 12 1028 50 9656 2.06 50 12:48 13.03.2021
1522 Clear 12 1028 50 9656 2.06 50 12:29 13.03.2021
1523 Clear 12 1028 71 9656 3.09 60 11:52 13.03.2021
1524 Clear 12 1028 71 9656 3.09 60 11:31 13.03.2021
1525 Clear 13 1028 71 9656 4.12 80 10:55 13.03.2021
1526 Clear 14 1028 51 10000 2.57 60 10:30 13.03.2021
1527 Clear 15 1029 41 10000 2.06 60 09:57 13.03.2021
1528 Clear 15 1029 41 10000 2.06 60 09:31 13.03.2021
1529 Clear 18 1029 39 10000 2.06 290 08:53 13.03.2021
1530 Clear 18 1029 39 10000 2.06 290 08:20 13.03.2021
1531 Clouds 20 1029 34 10000 4.63 270 07:56 13.03.2021
1532 Clouds 20 1029 34 10000 4.63 270 07:20 13.03.2021
1533 Clouds 22 1027 20 10000 7.2 60 03:33 13.03.2021
1534 Clouds 26 1025 25 10000 5.14 120 01:21 13.03.2021
1535 Clouds 26 1025 25 10000 5.14 120 01:21 13.03.2021
1536 Clouds 27 1025 12 10000 2.06 60 00:20 13.03.2021
1537 Clouds 28 1025 13 10000 2.06 280 23:33 12.03.2021
1538 Clouds 27 1026 13 10000 2.06 130 22:50 12.03.2021
1539 Clouds 27 1026 13 10000 2.06 130 22:29 12.03.2021
1540 Clouds 27 1027 14 10000 4.12 40 21:46 12.03.2021
1541 Clouds 26 1027 14 10000 4.12 40 21:27 12.03.2021
1542 Clear 26 1028 13 10000 2.06 10 21:00 12.03.2021
1543 Clear 26 1028 13 10000 2.06 10 20:40 12.03.2021
1544 Clear 26 1028 13 10000 2.06 10 20:18 12.03.2021
1545 Clear 25 1029 19 10000 3.09 220 19:42 12.03.2021
1546 Clear 25 1029 19 10000 3.09 220 19:24 12.03.2021
1547 Clear 22 1030 24 10000 2.06 80 18:38 12.03.2021
1548 Clear 22 1030 24 10000 2.06 80 18:19 12.03.2021
1549 Clear 21 1031 24 10000 0.87 37 17:40 12.03.2021
1550 Clear 19 1031 27 10000 2.06 130 17:22 12.03.2021
1551 Clear 18 1031 27 10000 2.06 10 16:42 12.03.2021
1552 Clear 16 1031 23 10000 2.06 60 16:18 12.03.2021
1553 Clear 14 1030 24 10000 2.06 80 15:37 12.03.2021
1554 Clear 11 1029 35 10000 2.06 60 14:49 12.03.2021
1555 Clear 11 1029 35 10000 2.06 60 14:22 12.03.2021
1556 Clear 11 1028 35 10000 2.06 90 13:54 12.03.2021
1557 Clear 11 1028 35 10000 2.06 90 13:36 12.03.2021
1558 Clear 11 1028 35 10000 2.06 90 13:18 12.03.2021
1559 Clear 12 1028 37 10000 0.48 113 12:41 12.03.2021
1560 Clear 12 1028 37 10000 0.43 83 12:20 12.03.2021
1561 Clear 13 1028 33 10000 0.43 83 11:51 12.03.2021
1562 Clear 13 1028 33 10000 0.55 75 11:23 12.03.2021
1563 Clear 14 1028 26 10000 1.54 100 10:54 12.03.2021
1564 Clear 14 1028 26 10000 1.54 100 10:26 12.03.2021
1565 Clear 14 1029 26 10000 2.06 70 09:56 12.03.2021
1566 Clear 14 1029 26 10000 2.06 70 09:25 12.03.2021
1567 Clear 15 1029 23 10000 2.06 70 08:45 12.03.2021
1568 Clear 19 1029 13 10000 2.06 250 07:58 12.03.2021
1569 Clear 19 1029 13 10000 2.06 250 07:33 12.03.2021
1570 Clear 20 1029 11 10000 2.57 360 06:52 12.03.2021
1571 Clear 20 1029 11 10000 2.57 360 06:28 12.03.2021
1572 Clear 24 1025 10 10000 9.26 40 02:41 12.03.2021
1573 Clear 28 1023 6 10000 2.57 270 00:42 12.03.2021
1574 Clear 28 1024 6 10000 3.6 220 23:30 11.03.2021
1575 Clear 28 1025 7 10000 4.12 330 22:49 11.03.2021
1576 Clear 28 1025 7 10000 4.12 330 22:29 11.03.2021
1577 Clear 27 1026 8 10000 4.63 50 21:51 11.03.2021
1578 Clear 27 1026 8 10000 4.63 50 21:30 11.03.2021
1579 Clear 26 1027 8 10000 6.17 20 20:53 11.03.2021
1580 Clear 26 1027 8 10000 6.17 20 20:35 11.03.2021
1581 Clear 25 1028 11 9656 3.6 330 19:59 11.03.2021
1582 Clear 25 1028 11 9656 3.6 330 19:41 11.03.2021
1583 Clear 23 1029 16 9656 2.57 350 19:19 11.03.2021
1584 Clouds 21 1030 20 9656 2.06 140 18:43 11.03.2021
1585 Clouds 21 1030 20 9656 2.06 140 18:24 11.03.2021
1586 Clouds 21 1030 26 9656 1.54 40 17:42 11.03.2021
1587 Clear 19 1029 30 9656 2.06 80 16:43 11.03.2021
1588 Clear 16 1029 23 9656 1.54 60 16:25 11.03.2021
1589 Clear 15 1029 23 9656 2.06 50 15:45 11.03.2021
1590 Clouds 12 1029 24 10000 1.54 70 15:21 11.03.2021
1591 Clouds 12 1029 24 10000 1.54 70 15:21 11.03.2021
1592 Clouds 12 1029 24 10000 1.54 70 15:21 11.03.2021
1593 Clear 10 1028 25 10000 2.57 80 14:46 11.03.2021
1594 Clear 10 1028 25 10000 2.57 80 14:19 11.03.2021
1595 Clear 10 1027 27 10000 0.39 182 13:46 11.03.2021
1596 Clear 10 1027 27 10000 0.61 176 13:24 11.03.2021
1597 Clear 10 1027 27 10000 2.57 70 12:57 11.03.2021
1598 Clear 10 1027 27 10000 2.57 70 12:36 11.03.2021
1599 Clear 10 1027 27 10000 2.57 70 12:18 11.03.2021
1600 Clear 12 1027 25 10000 2.57 70 11:42 11.03.2021
1601 Clear 13 1027 21 10000 0.23 79 11:20 11.03.2021
1602 Clear 13 1028 21 10000 2.57 50 10:28 11.03.2021
1603 Clear 14 1028 21 10000 2.57 70 09:54 11.03.2021
1604 Clear 14 1028 21 10000 2.57 70 09:35 11.03.2021
1605 Clear 15 1028 18 10000 2.06 70 08:59 11.03.2021
1606 Clear 17 1028 15 10000 0.42 2 08:41 11.03.2021
1607 Clear 17 1028 15 10000 0.74 329 08:18 11.03.2021
1608 Clear 18 1028 14 10000 1.01 355 07:22 11.03.2021
1609 Clear 18 1028 14 10000 2.57 260 06:49 11.03.2021
1610 Clear 20 1028 11 10000 2.57 320 06:23 11.03.2021
1611 Clear 23 1025 8 10000 6.69 70 02:48 11.03.2021
1612 Clear 27 1023 4 10000 4.63 40 00:49 11.03.2021
1613 Clear 27 1023 4 10000 4.63 40 00:49 11.03.2021
1614 Clear 28 1023 4 10000 6.17 20 23:27 10.03.2021
1615 Clear 27 1024 4 10000 3.6 40 22:47 10.03.2021
1616 Clear 27 1024 4 10000 3.6 40 22:47 10.03.2021
1617 Clear 27 1024 4 10000 3.6 40 22:47 10.03.2021
1618 Clear 27 1024 4 10000 3.6 40 22:27 10.03.2021
1619 Clear 27 1026 5 10000 3.09 360 21:47 10.03.2021
1620 Clear 27 1026 5 10000 3.09 360 21:24 10.03.2021
1621 Clear 26 1027 6 10000 7.2 20 20:46 10.03.2021
1622 Clear 26 1027 6 10000 7.2 20 20:28 10.03.2021
1623 Clear 25 1029 9 10000 3.6 30 19:50 10.03.2021
1624 Clear 25 1029 9 10000 3.6 30 19:50 10.03.2021
1625 Clear 24 1029 9 10000 3.6 30 19:28 10.03.2021
1626 Clear 23 1029 10 9656 4.12 350 18:47 10.03.2021
1627 Clear 22 1030 17 9656 1.54 320 18:28 10.03.2021
1628 Clear 20 1030 19 9656 2.06 280 17:57 10.03.2021
1629 Clear 18 1030 25 9656 2.06 70 17:37 10.03.2021
1630 Clear 18 1030 25 9656 2.06 70 17:19 10.03.2021
1631 Clear 15 1030 26 10000 2.57 80 16:44 10.03.2021
1632 Clear 15 1030 26 10000 2.57 80 16:24 10.03.2021
1633 Clear 11 1030 28 10000 2.57 80 15:47 10.03.2021
1634 Clear 11 1030 28 10000 2.57 80 15:25 10.03.2021
1635 Clear 11 1030 28 10000 2.57 80 15:25 10.03.2021
1636 Clear 7 1029 39 10000 2.57 80 14:56 10.03.2021
1637 Clear 7 1029 39 10000 2.57 80 14:21 10.03.2021
1638 Clear 8 1029 34 10000 1.54 60 13:52 10.03.2021
1639 Clear 8 1029 34 10000 1.54 60 13:30 10.03.2021
1640 Clear 9 1028 31 10000 0.3 20 12:46 10.03.2021
1641 Clear 9 1028 31 10000 0.3 20 12:46 10.03.2021
1642 Clear 9 1028 31 10000 0.7 5 12:21 10.03.2021
1643 Clear 9 1028 31 10000 2.06 70 11:44 10.03.2021
1644 Clear 9 1028 31 10000 2.06 70 11:21 10.03.2021
1645 Clear 10 1028 40 10000 2.06 80 10:49 10.03.2021
1646 Clear 10 1028 40 10000 2.06 80 10:30 10.03.2021
1647 Clear 11 1029 43 10000 2.57 70 09:46 10.03.2021
1648 Clear 11 1029 43 10000 2.57 70 09:27 10.03.2021
1649 Clear 14 1029 35 10000 3.09 60 08:58 10.03.2021
1650 Clear 14 1029 35 10000 3.09 60 08:40 10.03.2021
1651 Clear 16 1030 31 10000 2.57 50 08:21 10.03.2021
1652 Clear 17 1030 29 10000 1.54 330 07:40 10.03.2021
1653 Clear 17 1030 29 10000 1.54 330 07:18 10.03.2021
1654 Clear 16 1030 33 10000 1.54 20 06:44 10.03.2021
1655 Clouds 22 1027 24 10000 7.2 10 02:42 10.03.2021
1656 Clear 26 1026 7 10000 4.12 320 23:53 09.03.2021
1657 Clear 26 1026 7 10000 4.12 320 23:26 09.03.2021
1658 Clear 25 1027 5 10000 5.14 90 22:47 09.03.2021
1659 Clear 25 1027 5 10000 5.14 90 22:28 09.03.2021
1660 Clear 25 1028 9 10000 5.14 10 21:56 09.03.2021
1661 Clear 25 1028 9 10000 5.14 10 21:37 09.03.2021
1662 Clear 24 1028 9 10000 5.14 10 21:18 09.03.2021
1663 Clear 22 1030 24 8047 3.09 20 20:43 09.03.2021
1664 Clear 21 1030 24 8047 3.09 20 20:21 09.03.2021
1665 Clear 21 1031 28 8047 2.06 10 19:53 09.03.2021
1666 Clear 21 1031 28 8047 2.06 10 19:28 09.03.2021
1667 Clear 20 1031 30 8047 2.06 10 18:51 09.03.2021
1668 Clear 18 1032 39 9656 1.63 25 18:29 09.03.2021
1669 Clear 15 1033 51 9656 1.62 25 17:54 09.03.2021
1670 Clear 15 1033 51 9656 1.63 25 17:34 09.03.2021
1671 Clear 11 1033 62 9656 2.06 90 16:55 09.03.2021
1672 Clear 11 1033 62 9656 2.06 90 16:37 09.03.2021
1673 Clear 11 1033 62 9656 2.06 90 16:18 09.03.2021
1674 Clear 8 1033 71 9656 2.06 90 15:43 09.03.2021
1675 Clear 8 1033 71 9656 2.06 90 15:21 09.03.2021
1676 Clouds 6 1032 75 8047 3.09 70 14:32 09.03.2021
1677 Clouds 6 1031 87 10000 3.09 60 13:59 09.03.2021
1678 Clouds 6 1031 87 10000 3.09 60 13:38 09.03.2021
1679 Clouds 6 1031 87 10000 3.09 60 13:19 09.03.2021
1680 Clear 7 1031 87 10000 2.57 60 12:39 09.03.2021
1681 Clear 7 1031 87 10000 2.57 60 12:19 09.03.2021
1682 Clouds 8 1031 81 10000 2.06 70 11:42 09.03.2021
1683 Clouds 8 1031 81 10000 2.06 70 11:21 09.03.2021
1684 Clear 10 1032 71 10000 1.54 90 10:55 09.03.2021
1685 Clear 10 1032 71 10000 1.54 90 10:55 09.03.2021
1686 Clear 10 1032 71 10000 1.54 90 10:36 09.03.2021
1687 Clear 10 1032 71 10000 1.54 90 10:18 09.03.2021
1688 Clear 11 1033 71 10000 2.57 300 09:42 09.03.2021
1689 Clear 11 1033 71 10000 2.57 300 09:23 09.03.2021
1690 Clear 12 1033 66 10000 3.09 300 08:46 09.03.2021
1691 Clear 12 1033 66 10000 3.09 300 08:21 09.03.2021
1692 Clear 13 1033 62 10000 2.57 300 07:38 09.03.2021
1693 Clear 13 1033 62 10000 2.57 300 07:20 09.03.2021
1694 Clear 16 1032 44 10000 5.14 20 05:55 09.03.2021
1695 Clear 16 1032 44 10000 5.14 20 05:37 09.03.2021
1696 Clouds 24 1027 12 10000 4.63 350 00:29 09.03.2021
1697 Clouds 25 1027 13 10000 4.63 340 23:42 08.03.2021
1698 Clouds 25 1027 13 10000 4.63 340 23:23 08.03.2021
1699 Clouds 25 1028 14 10000 4.63 80 22:45 08.03.2021
1700 Clouds 25 1028 14 10000 4.63 80 22:27 08.03.2021
1701 Clouds 24 1029 22 9656 3.09 340 21:55 08.03.2021
1702 Clouds 24 1029 22 9656 3.09 340 21:35 08.03.2021
1703 Clouds 23 1031 28 8047 2.06 20 20:47 08.03.2021
1704 Clouds 23 1031 28 8047 2.06 20 20:26 08.03.2021
1705 Clouds 21 1031 30 8047 1.54 50 19:59 08.03.2021
1706 Clouds 20 1033 37 8047 2.19 21 19:28 08.03.2021
1707 Clouds 19 1033 39 8047 2.06 150 18:42 08.03.2021
1708 Clouds 19 1033 39 8047 2.06 150 18:42 08.03.2021
1709 Clouds 17 1034 45 8047 2.06 140 18:21 08.03.2021
1710 Clouds 15 1034 48 8047 2.06 100 17:51 08.03.2021
1711 Clouds 14 1034 54 8047 2.57 30 17:26 08.03.2021
1712 Clouds 12 1033 62 9656 3.09 100 16:48 08.03.2021
1713 Clouds 12 1033 62 9656 3.09 100 16:29 08.03.2021
1714 Clouds 8 1032 81 10000 4.63 80 15:51 08.03.2021
1715 Clouds 8 1032 81 10000 4.63 80 15:29 08.03.2021
1716 Clouds 8 1031 76 10000 3.09 80 14:46 08.03.2021
1717 Clouds 8 1031 76 10000 3.09 80 14:20 08.03.2021
1718 Clear 8 1031 76 10000 2.57 80 13:40 08.03.2021
1719 Clear 8 1031 76 10000 2.57 80 13:19 08.03.2021
1720 Clear 8 1030 76 10000 4.63 80 12:45 08.03.2021
1721 Clear 8 1030 76 10000 4.63 80 12:26 08.03.2021
1722 Clear 10 1030 66 10000 2.57 80 11:40 08.03.2021
1723 Clear 11 1030 66 10000 2.57 80 11:19 08.03.2021
1724 Clouds 12 1029 58 10000 1.54 70 10:43 08.03.2021
1725 Clouds 12 1029 58 10000 1.54 70 10:24 08.03.2021
1726 Clouds 12 1030 54 10000 2.06 70 09:41 08.03.2021
1727 Clouds 12 1030 54 10000 2.06 70 09:22 08.03.2021
1728 Clouds 16 1030 41 10000 3.09 280 08:28 08.03.2021
1729 Clouds 17 1030 42 10000 2.57 310 07:24 08.03.2021
1730 Clouds 17 1030 42 10000 2.57 310 07:24 08.03.2021
1731 Clouds 18 1030 36 10000 1.03 270 06:44 08.03.2021
1732 Clouds 21 1027 23 10000 8.75 250 03:39 08.03.2021
1733 Rain 24 1025 21 10000 7.72 300 00:45 08.03.2021
1734 Rain 25 1024 16 10000 7.72 250 23:59 07.03.2021
1735 Clouds 25 1024 16 10000 7.72 250 23:39 07.03.2021
1736 Clouds 26 1025 12 10000 2.06 60 23:19 07.03.2021
1737 Clouds 26 1025 12 10000 2.06 60 22:43 07.03.2021
1738 Clouds 26 1025 12 10000 2.06 60 22:25 07.03.2021
1739 Clouds 26 1026 15 10000 3.09 100 21:45 07.03.2021
1740 Clouds 26 1026 15 10000 3.09 100 21:25 07.03.2021
1741 Clear 26 1027 17 9656 1.54 320 20:48 07.03.2021
1742 Clear 26 1027 17 9656 1.54 320 20:30 07.03.2021
1743 Clear 26 1027 21 9656 1.54 120 19:57 07.03.2021
1744 Clear 23 1028 29 9656 1.54 170 19:38 07.03.2021
1745 Clear 23 1028 29 9656 1.54 170 19:20 07.03.2021
1746 Clear 23 1028 29 9656 1.54 170 19:20 07.03.2021
1747 Clear 22 1029 40 8047 1.54 130 18:42 07.03.2021
1748 Clear 20 1029 40 8047 1.54 130 18:19 07.03.2021
1749 Clear 19 1029 42 8047 0.2 64 17:41 07.03.2021
1750 Clear 17 1029 48 8047 0.18 204 17:21 07.03.2021
1751 Clear 17 1029 48 8047 0.16 212 16:58 07.03.2021
1752 Clear 15 1029 55 8047 0.16 212 16:38 07.03.2021
1753 Clear 11 1029 71 9656 1.54 60 16:19 07.03.2021
1754 Clear 11 1029 71 9656 1.54 60 15:43 07.03.2021
1755 Clear 9 1029 81 9656 2.57 80 15:22 07.03.2021
1756 Clear 8 1028 81 8047 3.09 80 14:37 07.03.2021
1757 Clear 8 1028 81 8047 3.09 80 14:19 07.03.2021
1758 Clear 8 1027 87 9656 2.57 80 13:41 07.03.2021
1759 Clear 8 1027 87 9656 2.57 80 13:21 07.03.2021
1760 Clear 9 1027 81 10000 3.09 70 12:46 07.03.2021
1761 Clear 9 1027 81 10000 3.09 70 12:28 07.03.2021
1762 Clear 9 1027 81 10000 4.63 80 11:45 07.03.2021
1763 Clear 9 1027 81 10000 4.63 80 11:22 07.03.2021
1764 Clear 10 1027 76 10000 2.57 80 10:43 07.03.2021
1765 Clear 10 1027 76 10000 2.57 80 10:25 07.03.2021
1766 Clear 10 1027 71 10000 3.09 80 09:43 07.03.2021
1767 Clear 10 1027 71 10000 3.09 80 09:23 07.03.2021
1768 Clear 12 1027 62 10000 2.57 90 08:45 07.03.2021
1769 Clear 14 1027 51 10000 1.54 90 08:24 07.03.2021
1770 Clear 15 1027 51 10000 1.54 110 07:34 07.03.2021
1771 Rain 12 1028 66 9656 6.17 150 02:42 07.03.2021
1772 Rain 21 1023 37 6437 8.23 270 00:51 07.03.2021
1773 Rain 24 1023 29 8047 3.09 230 23:45 06.03.2021
1774 Clouds 24 1023 29 8047 3.09 230 23:24 06.03.2021
1775 Clouds 24 1023 29 8047 0.36 303 22:48 06.03.2021
1776 Clouds 24 1023 29 8047 1.61 29 22:28 06.03.2021
1777 Clear 23 1025 31 8047 1.61 29 21:58 06.03.2021
1778 Clear 23 1025 31 8047 1.79 25 21:22 06.03.2021
1779 Clear 22 1025 33 8047 1.79 25 20:52 06.03.2021
1780 Clear 20 1026 37 8047 2.57 10 20:27 06.03.2021
1781 Clear 19 1028 39 8047 3.09 340 19:49 06.03.2021
1782 Clear 19 1028 39 8047 3.09 340 19:22 06.03.2021
1783 Clear 19 1028 42 8047 3.09 230 18:54 06.03.2021
1784 Clouds 17 1029 48 9656 2.06 50 18:36 06.03.2021
1785 Clouds 17 1029 48 9656 2.06 50 18:18 06.03.2021
1786 Clouds 15 1029 48 9656 2.06 360 17:42 06.03.2021
1787 Clouds 15 1029 51 9656 4.12 60 17:21 06.03.2021
1788 Clouds 13 1029 58 8047 6.17 40 16:42 06.03.2021
1789 Clouds 13 1029 58 8047 6.17 40 16:24 06.03.2021
1790 Clouds 13 1028 67 6437 5.14 30 15:48 06.03.2021
1791 Clouds 13 1028 67 6437 5.14 30 15:29 06.03.2021
1792 Clouds 13 1027 67 8047 5.14 30 14:53 06.03.2021
1793 Clouds 13 1027 67 8047 5.14 30 14:29 06.03.2021
1794 Clouds 13 1027 67 8047 5.14 30 14:29 06.03.2021
1795 Clouds 14 1026 67 8047 3.09 50 13:41 06.03.2021
1796 Clouds 14 1026 67 8047 3.09 50 13:20 06.03.2021
1797 Clouds 14 1026 72 8047 3.09 290 12:44 06.03.2021
1798 Clouds 14 1026 72 8047 3.09 290 12:20 06.03.2021
1799 Clear 13 1025 71 9656 2.45 13 11:54 06.03.2021
1800 Clear 13 1025 71 9656 2.71 9 11:22 06.03.2021
1801 Clear 15 1025 63 9656 2.06 310 10:48 06.03.2021
1802 Clear 15 1025 63 9656 2.06 310 10:19 06.03.2021
1803 Clear 16 1025 55 10000 3.09 280 09:46 06.03.2021
1804 Clear 16 1025 55 10000 3.09 280 09:20 06.03.2021
1805 Clear 18 1025 36 10000 2.57 360 08:40 06.03.2021
1806 Clear 19 1025 34 10000 4.12 30 07:58 06.03.2021
1807 Clear 19 1025 34 10000 4.12 30 07:39 06.03.2021
1808 Clear 20 1025 28 10000 1.03 130 07:19 06.03.2021
1809 Clouds 22 1024 24 10000 2.06 360 05:37 06.03.2021
1810 Rain 26 1022 19 10000 7.72 20 02:38 06.03.2021
1811 Clouds 28 1020 11 10000 3.6 90 00:56 06.03.2021
1812 Clouds 27 1021 12 10000 2.06 60 23:54 05.03.2021
1813 Clouds 27 1021 12 10000 2.06 60 23:29 05.03.2021
1814 Clouds 28 1022 12 10000 3.6 300 22:49 05.03.2021
1815 Clouds 28 1022 12 10000 3.6 300 22:23 05.03.2021
1816 Clear 28 1023 13 9656 4.63 40 21:54 05.03.2021
1817 Clear 28 1023 13 9656 4.63 40 21:35 05.03.2021
1818 Clear 27 1024 14 9656 3.09 350 20:58 05.03.2021
1819 Clear 25 1024 14 9656 3.09 350 20:40 05.03.2021
1820 Clear 25 1024 14 9656 3.09 350 20:21 05.03.2021
1821 Clouds 24 1026 19 9656 2.57 330 19:36 05.03.2021
1822 Clouds 24 1026 19 9656 2.57 330 19:18 05.03.2021
1823 Clouds 23 1026 21 9656 2.06 110 18:42 05.03.2021
1824 Clouds 23 1026 21 9656 2.06 110 18:42 05.03.2021
1825 Clouds 23 1026 21 9656 2.06 110 18:23 05.03.2021
1826 Clear 20 1027 26 9656 2.06 110 17:37 05.03.2021
1827 Clear 20 1027 26 9656 2.06 110 17:37 05.03.2021
1828 Clear 19 1027 27 9656 2.57 90 16:58 05.03.2021
1829 Clear 16 1027 33 10000 1.54 60 16:38 05.03.2021
1830 Clear 16 1027 33 10000 1.54 60 16:20 05.03.2021
1831 Clear 14 1026 35 10000 2.06 70 15:46 05.03.2021
1832 Clear 14 1026 35 10000 2.06 70 15:23 05.03.2021
1833 Clear 12 1026 40 10000 2.57 70 14:39 05.03.2021
1834 Clear 12 1025 43 10000 1.54 70 13:59 05.03.2021
1835 Clear 12 1025 43 10000 1.54 70 13:22 05.03.2021
1836 Clear 13 1025 38 10000 0.26 290 13:00 05.03.2021
1837 Clear 13 1025 38 10000 0.36 269 12:27 05.03.2021
1838 Clear 14 1025 24 10000 1.54 50 11:37 05.03.2021
1839 Clear 14 1025 24 10000 1.54 50 11:18 05.03.2021
1840 Clear 15 1026 29 10000 3.09 70 10:42 05.03.2021
1841 Clear 15 1026 29 10000 3.09 70 10:23 05.03.2021
1842 Clear 18 1026 24 10000 0.4 155 09:50 05.03.2021
1843 Clear 18 1026 24 10000 0.42 120 09:27 05.03.2021
1844 Clear 17 1027 22 10000 0.42 120 08:46 05.03.2021
1845 Clear 17 1027 22 10000 0.55 24 08:27 05.03.2021
1846 Clear 18 1027 17 10000 2.57 30 07:55 05.03.2021
1847 Clear 18 1027 17 10000 2.57 30 07:28 05.03.2021
1848 Clear 18 1027 19 10000 2.57 80 06:32 05.03.2021
1849 Clouds 22 1025 30 10000 5.66 60 03:34 05.03.2021
1850 Clear 28 1023 12 9656 5.14 350 00:49 05.03.2021
1851 Clear 29 1023 10 10000 6.17 50 23:37 04.03.2021
1852 Clear 28 1024 12 10000 2.06 110 22:47 04.03.2021
1853 Clear 28 1024 12 10000 2.06 110 22:25 04.03.2021
1854 Clear 27 1025 13 10000 4.12 80 21:47 04.03.2021
1855 Clear 27 1025 13 10000 4.12 80 21:28 04.03.2021
1856 Clouds 26 1026 14 10000 5.14 50 20:42 04.03.2021
1857 Clouds 26 1026 14 10000 5.14 50 20:23 04.03.2021
1858 Clouds 26 1026 14 10000 3.6 60 19:57 04.03.2021
1859 Clear 24 1028 20 9656 3.6 290 19:38 04.03.2021
1860 Clear 24 1028 20 9656 3.6 290 19:18 04.03.2021
1861 Clear 24 1029 25 8047 1.53 3 18:41 04.03.2021
1862 Clear 24 1029 25 8047 0.81 10 18:20 04.03.2021
1863 Clear 21 1029 28 8047 0.81 10 17:43 04.03.2021
1864 Clear 21 1029 28 8047 0.65 25 17:22 04.03.2021
1865 Clear 19 1029 32 9656 0.64 22 16:44 04.03.2021
1866 Clear 19 1029 32 9656 0.65 35 16:24 04.03.2021
1867 Clouds 16 1029 39 9656 1.54 70 15:49 04.03.2021
1868 Clouds 16 1029 39 9656 1.54 70 15:31 04.03.2021
1869 Clouds 13 1028 41 9656 2.57 60 14:46 04.03.2021
1870 Clouds 13 1028 41 9656 2.57 60 14:25 04.03.2021
1871 Clear 14 1028 38 10000 2.06 60 13:46 04.03.2021
1872 Clear 14 1028 38 10000 2.06 60 13:25 04.03.2021
1873 Clear 14 1028 38 10000 1.54 80 12:45 04.03.2021
1874 Clear 14 1028 38 10000 1.54 80 12:25 04.03.2021
1875 Clear 16 1028 33 10000 1.54 70 11:43 04.03.2021
1876 Clear 16 1028 33 10000 1.54 70 11:22 04.03.2021
1877 Clouds 17 1028 31 10000 0.57 21 10:47 04.03.2021
1878 Clouds 17 1028 31 10000 0.56 43 10:26 04.03.2021
1879 Clouds 17 1028 31 10000 1.54 60 09:37 04.03.2021
1880 Clouds 17 1028 31 10000 2.06 70 08:59 04.03.2021
1881 Clouds 17 1028 31 10000 2.06 70 08:34 04.03.2021
1882 Clouds 20 1028 26 10000 2.57 50 07:51 04.03.2021
1883 Clouds 20 1028 26 10000 2.57 50 07:19 04.03.2021
1884 Clouds 21 1028 26 10000 3.09 360 06:24 04.03.2021
1885 Clouds 24 1025 31 10000 5.14 60 02:49 04.03.2021
1886 Clouds 27 1024 17 10000 3.09 20 01:32 04.03.2021
1887 Clouds 26 1025 19 10000 4.12 220 22:43 03.03.2021
1888 Clouds 26 1025 19 10000 4.12 220 22:25 03.03.2021
1889 Clouds 26 1026 19 10000 3.09 320 21:43 03.03.2021
1890 Clouds 26 1026 19 10000 3.09 320 21:24 03.03.2021
1891 Clouds 25 1026 20 10000 5.14 20 20:57 03.03.2021
1892 Clouds 24 1026 20 10000 5.14 20 20:39 03.03.2021
1893 Clouds 23 1028 29 9656 4.12 360 19:59 03.03.2021
1894 Clouds 23 1028 29 9656 4.12 360 19:40 03.03.2021
1895 Clouds 23 1028 29 9656 4.12 360 19:19 03.03.2021
1896 Clear 23 1029 33 8047 2.53 11 18:45 03.03.2021
1897 Clear 23 1029 33 8047 2.06 10 18:20 03.03.2021
1898 Clear 20 1029 40 8047 2.05 11 17:42 03.03.2021
1899 Clear 20 1029 40 8047 1.56 12 17:18 03.03.2021
1900 Clear 18 1029 45 8047 1.56 12 16:40 03.03.2021
1901 Clear 18 1029 45 8047 0.98 30 16:21 03.03.2021
1902 Clear 14 1028 58 9656 3.09 70 15:33 03.03.2021
1903 Clear 14 1027 58 8047 2.06 70 14:54 03.03.2021
1904 Clear 14 1027 58 8047 2.06 70 14:29 03.03.2021
1905 Clouds 15 1026 58 10000 1.54 100 13:52 03.03.2021
1906 Clouds 15 1026 58 10000 1.54 100 13:52 03.03.2021
1907 Clouds 15 1026 58 10000 1.54 100 13:31 03.03.2021
1908 Clouds 15 1026 58 10000 1.03 50 12:44 03.03.2021
1909 Clouds 15 1026 58 10000 1.03 50 12:26 03.03.2021
1910 Clouds 15 1025 55 10000 2.06 60 11:48 03.03.2021
1911 Clouds 15 1025 55 10000 2.06 60 11:28 03.03.2021
1912 Clouds 17 1025 45 10000 1.54 180 10:50 03.03.2021
1913 Clouds 17 1025 45 10000 1.54 180 10:30 03.03.2021
1914 Clear 18 1025 42 10000 0.8 22 09:48 03.03.2021
1915 Clear 18 1025 42 10000 0.77 20 09:26 03.03.2021
1916 Clear 19 1026 39 10000 1.54 130 08:41 03.03.2021
1917 Clear 20 1026 39 10000 1.54 130 08:21 03.03.2021
1918 Clear 20 1026 40 10000 1.03 170 07:41 03.03.2021
1919 Clear 20 1026 40 10000 1.54 170 06:51 03.03.2021
1920 Clouds 21 1025 37 10000 3.6 160 05:46 03.03.2021
1921 Clouds 21 1025 40 10000 3.6 170 04:58 03.03.2021
1922 Clouds 22 1025 40 10000 3.6 170 04:26 03.03.2021
1923 Clouds 24 1022 31 9656 7.2 140 01:54 03.03.2021
1924 Clear 27 1022 19 9656 2.06 80 23:57 02.03.2021
1925 Clear 27 1022 19 9656 2.06 80 23:22 02.03.2021
1926 Clear 26 1023 21 9656 3.09 110 22:41 02.03.2021
1927 Clear 26 1023 21 9656 3.09 110 22:18 02.03.2021
1928 Clear 26 1024 21 9656 2.06 80 21:40 02.03.2021
1929 Clear 26 1024 21 9656 2.06 80 21:21 02.03.2021
1930 Clear 24 1025 29 6437 1.54 200 20:46 02.03.2021
1931 Clear 23 1025 29 6437 1.54 200 20:22 02.03.2021
1932 Clear 23 1027 33 6437 0.97 16 19:53 02.03.2021
1933 Clear 23 1027 33 6437 0.95 12 19:33 02.03.2021
1934 Clear 23 1027 35 6437 2.06 200 18:58 02.03.2021
1935 Clear 21 1027 43 6437 0.75 55 18:40 02.03.2021
1936 Clear 21 1027 43 6437 0.98 43 18:21 02.03.2021
1937 Clear 18 1027 55 6437 3.09 120 17:49 02.03.2021
1938 Clear 18 1027 55 6437 3.09 120 17:29 02.03.2021
1939 Clouds 17 1028 55 6437 1.54 140 16:49 02.03.2021
1940 Clouds 17 1028 55 6437 1.54 140 16:20 02.03.2021
1941 Clouds 17 1028 55 6437 1.54 140 16:20 02.03.2021
1942 Clouds 15 1027 67 6437 2.06 300 15:48 02.03.2021
1943 Clouds 15 1027 67 6437 2.06 300 15:22 02.03.2021
1944 Clear 14 1027 72 6437 2.57 310 14:22 02.03.2021
1945 Clear 12 1025 71 8047 2.06 80 13:49 02.03.2021
1946 Clear 12 1025 71 8047 2.06 80 13:29 02.03.2021
1947 Clear 13 1025 67 8047 2.06 360 12:51 02.03.2021
1948 Clear 13 1025 67 8047 2.06 360 12:29 02.03.2021
1949 Clear 14 1025 62 8047 2.06 30 11:53 02.03.2021
1950 Clear 15 1025 62 8047 2.06 30 11:30 02.03.2021
1951 Clear 15 1026 63 9656 2.06 300 10:57 02.03.2021
1952 Clear 15 1026 63 9656 2.06 300 10:31 02.03.2021
1953 Clear 16 1026 59 9656 2.06 290 09:44 02.03.2021
1954 Clear 16 1026 59 9656 2.06 290 09:24 02.03.2021
1955 Clear 16 1027 59 9656 3.09 330 08:56 02.03.2021
1956 Clear 17 1027 59 9656 3.09 330 08:33 02.03.2021
1957 Clear 17 1027 51 9656 5.14 340 07:51 02.03.2021
1958 Clear 18 1026 45 9656 4.12 20 06:39 02.03.2021
1959 Clouds 19 1025 42 9656 7.72 350 05:52 02.03.2021
1960 Clouds 19 1025 42 9656 7.72 350 05:33 02.03.2021
1961 Clouds 21 1024 37 9656 3.6 360 04:38 02.03.2021
1962 Clouds 27 1021 17 9656 7.72 60 01:43 02.03.2021
1963 Clouds 28 1020 13 9656 2.06 270 01:21 02.03.2021
1964 Clouds 28 1021 11 10000 1.46 54 23:37 01.03.2021
1965 Clouds 28 1021 11 10000 1.39 53 23:19 01.03.2021
1966 Clouds 29 1021 13 9656 3.6 360 22:38 01.03.2021
1967 Clouds 29 1021 13 9656 3.6 360 22:19 01.03.2021
1968 Clear 29 1023 15 9656 3.09 280 21:41 01.03.2021
1969 Clear 29 1023 15 9656 3.09 280 21:23 01.03.2021
1970 Clear 28 1023 16 9656 3.09 260 20:43 01.03.2021
1971 Clear 27 1024 22 9656 2.57 330 20:43 01.03.2021
1972 Clear 26 1024 22 9656 2.57 330 20:21 01.03.2021
1973 Clear 25 1025 23 9656 2.06 230 19:43 01.03.2021
1974 Clear 25 1025 23 9656 2.06 230 19:24 01.03.2021
1975 Clear 25 1026 25 9656 2.06 230 18:43 01.03.2021
1976 Clear 25 1026 25 9656 2.06 230 18:23 01.03.2021
1977 Clear 24 1026 27 9656 1.54 160 17:47 01.03.2021
1978 Clear 22 1026 30 9656 0.86 53 17:22 01.03.2021
1979 Clear 20 1026 34 9656 0.86 53 16:47 01.03.2021
1980 Clear 20 1026 34 9656 0.33 47 16:27 01.03.2021
1981 Clear 16 1026 44 9656 0.33 47 15:49 01.03.2021
1982 Clear 16 1026 44 9656 0.17 141 15:23 01.03.2021
1983 Clear 14 1025 47 9656 1.54 90 14:58 01.03.2021
1984 Clear 14 1025 47 9656 1.54 90 14:39 01.03.2021
1985 Clear 14 1024 47 9656 1.54 70 13:56 01.03.2021
1986 Clear 14 1024 47 9656 1.54 70 13:37 01.03.2021
1987 Clear 14 1024 47 9656 1.54 70 13:18 01.03.2021
1988 Clear 14 1024 51 9656 2.57 80 12:42 01.03.2021
1989 Clear 14 1024 51 9656 2.57 80 12:22 01.03.2021
1990 Clear 16 1024 44 10000 1.54 50 11:47 01.03.2021
1991 Clear 15 1024 51 9656 1.54 60 11:47 01.03.2021
1992 Clear 16 1024 44 10000 1.54 50 11:18 01.03.2021
1993 Clear 17 1024 42 10000 1.54 90 10:37 01.03.2021
1994 Clear 17 1024 42 10000 1.54 90 10:37 01.03.2021
1995 Clear 17 1024 42 10000 1.54 90 10:18 01.03.2021
1996 Clear 18 1025 42 10000 2.06 250 09:48 01.03.2021
1997 Clear 18 1025 42 10000 2.06 250 09:28 01.03.2021
1998 Clear 19 1025 39 10000 2.57 220 08:55 01.03.2021
1999 Clear 19 1025 39 10000 2.57 220 08:22 01.03.2021
2000 Clear 20 1025 34 10000 2.06 130 06:55 01.03.2021
2001 Clear 20 1025 34 10000 2.06 130 06:24 01.03.2021
2002 Clear 25 1021 29 10000 4.12 150 02:38 01.03.2021
2003 Clouds 29 1021 17 9656 4.12 190 23:44 28.02.2021
2004 Clouds 28 1021 20 10000 1.6 136 22:57 28.02.2021
2005 Clouds 28 1021 20 10000 1.55 102 22:28 28.02.2021
2006 Clouds 27 1023 21 10000 1.55 102 21:58 28.02.2021
2007 Clouds 27 1023 21 10000 1.49 103 21:33 28.02.2021
2008 Clouds 27 1023 21 10000 1.24 49 20:59 28.02.2021
2009 Clear 25 1024 23 10000 2.06 120 20:38 28.02.2021
2010 Clear 25 1024 23 10000 2.06 120 20:18 28.02.2021
2011 Clear 25 1024 23 10000 2.06 120 20:18 28.02.2021
2012 Clear 24 1025 25 10000 1.53 27 19:45 28.02.2021
2013 Clear 24 1025 25 10000 1.57 29 19:45 28.02.2021
2014 Clear 24 1025 25 10000 1.32 29 19:24 28.02.2021
2015 Clear 23 1026 28 10000 1.07 44 18:43 28.02.2021
2016 Clear 22 1026 28 10000 0.66 66 18:25 28.02.2021
2017 Clear 22 1026 30 10000 0.66 66 17:50 28.02.2021
2018 Clear 22 1026 30 10000 0.67 117 17:28 28.02.2021
2019 Clear 17 1026 42 10000 2.06 70 16:56 28.02.2021
2020 Clear 17 1026 42 10000 2.06 70 16:38 28.02.2021
2021 Clear 17 1026 42 10000 2.06 70 16:18 28.02.2021
2022 Clear 13 1026 54 10000 2.06 60 15:40 28.02.2021
2023 Clear 13 1026 54 10000 2.06 60 15:22 28.02.2021
2024 Clear 13 1025 50 10000 2.06 70 14:52 28.02.2021
2025 Clear 13 1025 50 10000 2.06 70 14:28 28.02.2021
2026 Clear 14 1024 47 10000 2.06 110 13:52 28.02.2021
2027 Clear 14 1024 47 10000 2.06 110 13:21 28.02.2021
2028 Clear 14 1024 47 10000 0.68 212 12:56 28.02.2021
2029 Clear 15 1024 47 10000 0.68 212 12:38 28.02.2021
2030 Clear 15 1024 47 10000 0.76 246 12:19 28.02.2021
2031 Clear 15 1024 47 10000 3.09 50 11:46 28.02.2021
2032 Clear 15 1024 47 10000 3.09 50 11:26 28.02.2021
2033 Clear 16 1024 44 10000 2.57 60 10:55 28.02.2021
2034 Clear 18 1024 34 10000 2.57 280 10:29 28.02.2021
2035 Clear 19 1024 27 10000 2.57 280 09:54 28.02.2021
2036 Clear 19 1024 27 10000 2.57 280 09:34 28.02.2021
2037 Clear 19 1025 37 10000 2.57 340 08:52 28.02.2021
2038 Clear 19 1025 37 10000 2.57 340 08:32 28.02.2021
2039 Clear 19 1025 42 10000 0.81 198 07:57 28.02.2021
2040 Clear 19 1025 42 10000 0.81 198 07:38 28.02.2021
2041 Clear 20 1025 40 10000 0.58 173 06:55 28.02.2021
2042 Clear 21 1024 37 10000 3.09 110 05:52 28.02.2021
2043 Clear 22 1022 35 9656 5.14 140 03:45 28.02.2021
2044 Clear 24 1021 33 8047 5.66 140 02:19 28.02.2021
2045 Clear 26 1020 27 8047 6.69 120 00:58 28.02.2021
2046 Clear 28 1020 15 9656 3.09 80 00:35 28.02.2021
2047 Clear 27 1021 15 10000 4.02 340 23:48 27.02.2021
2048 Clear 27 1021 16 9656 4.12 340 23:20 27.02.2021
2049 Clear 27 1021 16 9656 4.12 340 22:49 27.02.2021
2050 Clear 26 1021 16 9656 4.12 340 22:22 27.02.2021
2051 Clear 26 1023 18 9656 1.54 220 21:50 27.02.2021
2052 Clear 26 1023 18 9656 1.54 220 21:32 27.02.2021
2053 Clear 25 1024 18 9656 3.09 40 20:53 27.02.2021
2054 Clear 25 1024 18 9656 3.09 40 20:33 27.02.2021
2055 Clear 24 1025 25 9656 1.67 20 19:48 27.02.2021
2056 Clear 24 1025 25 9656 1.42 29 19:29 27.02.2021
2057 Clear 23 1025 25 9656 2.06 210 18:56 27.02.2021
2058 Clear 22 1026 30 9656 2.57 150 18:36 27.02.2021
2059 Clear 22 1026 30 9656 2.57 150 18:18 27.02.2021
2060 Clear 21 1026 32 9656 1.54 110 17:42 27.02.2021
2061 Clear 19 1026 37 9656 0.57 106 17:19 27.02.2021
2062 Clear 17 1025 39 10000 1.54 30 16:50 27.02.2021
2063 Clear 17 1025 39 10000 1.54 30 16:28 27.02.2021
2064 Clear 15 1025 44 10000 1.54 40 15:46 27.02.2021
2065 Clear 13 1025 47 10000 2.06 60 15:20 27.02.2021
2066 Clear 12 1024 47 9656 1 190 14:41 27.02.2021
2067 Clear 12 1024 47 9656 0.82 200 14:21 27.02.2021
2068 Clear 12 1023 40 10000 1.54 60 13:46 27.02.2021
2069 Clear 13 1023 40 10000 1.54 60 13:21 27.02.2021
2070 Clear 14 1023 35 10000 0.67 193 12:49 27.02.2021
2071 Clear 14 1023 35 10000 0.34 203 12:25 27.02.2021
2072 Clear 15 1023 36 10000 0.34 203 11:52 27.02.2021
2073 Clear 15 1023 36 10000 0.34 200 11:31 27.02.2021
2074 Clear 15 1024 38 10000 1.54 60 10:53 27.02.2021
2075 Clear 15 1024 38 10000 1.54 60 10:34 27.02.2021
2076 Clear 15 1024 38 10000 1.54 70 09:54 27.02.2021
2077 Clear 16 1024 39 10000 0.28 334 09:32 27.02.2021
2078 Clear 18 1024 29 10000 0.49 337 08:44 27.02.2021
2079 Clear 18 1024 29 10000 0.18 351 08:24 27.02.2021
2080 Clear 18 1025 36 9656 2.06 50 07:58 27.02.2021
2081 Clear 18 1025 36 9656 2.06 50 07:25 27.02.2021
2082 Clear 25 1021 25 9656 5.66 130 01:30 27.02.2021
2083 Clear 28 1021 9 9656 3.09 110 00:31 27.02.2021
2084 Clear 28 1021 9 9656 1.54 210 23:41 26.02.2021
2085 Clear 28 1021 9 9656 1.54 210 23:22 26.02.2021
2086 Clear 28 1022 10 9656 1.54 270 22:34 26.02.2021
2087 Clear 27 1024 12 9656 2.57 260 21:54 26.02.2021
2088 Clear 27 1024 12 9656 2.57 260 21:35 26.02.2021
2089 Clear 26 1024 15 8047 2.57 260 20:55 26.02.2021
2090 Clear 25 1025 20 8047 3.09 320 20:37 26.02.2021
2091 Clear 23 1025 20 8047 3.09 320 20:18 26.02.2021
2092 Clear 23 1026 25 8047 1.03 200 19:26 26.02.2021
2093 Clear 22 1027 28 8047 2.03 22 18:55 26.02.2021
2094 Clear 22 1027 28 8047 1.47 30 18:25 26.02.2021
2095 Clear 19 1027 34 8047 1.47 30 17:58 26.02.2021
2096 Clear 19 1027 34 8047 1.45 29 17:36 26.02.2021
2097 Clear 15 1027 47 8047 2.06 60 16:59 26.02.2021
2098 Clear 15 1027 47 8047 2.06 60 16:41 26.02.2021
2099 Clear 15 1027 47 8047 2.06 60 16:22 26.02.2021
2100 Clear 13 1027 50 9656 2.06 90 15:43 26.02.2021
2101 Clear 13 1027 50 9656 2.06 90 15:23 26.02.2021
2102 Clear 10 1026 57 10000 1.54 70 14:53 26.02.2021
2103 Clear 10 1026 57 10000 1.54 70 14:53 26.02.2021
2104 Clear 10 1026 57 10000 1.54 70 14:34 26.02.2021
2105 Clear 10 1025 57 10000 2.57 60 13:52 26.02.2021
2106 Clear 10 1025 57 10000 2.57 60 13:33 26.02.2021
2107 Clear 11 1025 62 10000 2.06 60 12:57 26.02.2021
2108 Clear 11 1025 62 10000 2.06 60 12:28 26.02.2021
2109 Clear 13 1025 66 10000 2.06 70 11:43 26.02.2021
2110 Clear 13 1025 66 10000 2.06 70 11:20 26.02.2021
2111 Clear 14 1025 58 10000 0.36 213 10:37 26.02.2021
2112 Clear 15 1026 47 10000 3.09 60 09:48 26.02.2021
2113 Clear 15 1026 47 10000 3.09 60 09:28 26.02.2021
2114 Clear 18 1026 45 10000 2.57 290 08:36 26.02.2021
2115 Clear 18 1026 45 10000 2.57 280 07:57 26.02.2021
2116 Clear 18 1026 45 10000 2.57 280 07:22 26.02.2021
2117 Clear 19 1026 32 10000 0.62 297 06:32 26.02.2021
2118 Clear 19 1026 34 10000 3.09 160 05:18 26.02.2021
2119 Clouds 24 1023 26 10000 5.14 120 02:39 26.02.2021
2120 Clear 26 1022 13 10000 2.06 30 00:33 26.02.2021
2121 Clear 27 1023 12 10000 1.36 59 23:40 25.02.2021
2122 Clear 27 1023 12 10000 1.71 45 23:19 25.02.2021
2123 Clear 26 1024 12 10000 2.06 240 22:38 25.02.2021
2124 Clear 26 1025 12 10000 4.12 140 21:53 25.02.2021
2125 Clear 26 1025 12 10000 4.12 140 21:33 25.02.2021
2126 Clouds 23 1027 20 10000 2.57 250 20:55 25.02.2021
2127 Clouds 23 1027 20 10000 2.57 250 20:37 25.02.2021
2128 Clouds 23 1027 20 10000 2.57 250 20:18 25.02.2021
2129 Clouds 22 1028 23 10000 2.06 310 19:46 25.02.2021
2130 Clouds 22 1028 23 10000 2.06 310 19:19 25.02.2021
2131 Clouds 21 1029 23 10000 3.09 80 18:40 25.02.2021
2132 Clear 18 1029 24 10000 1.06 20 18:18 25.02.2021
2133 Clear 17 1029 25 10000 1.06 20 17:35 25.02.2021
2134 Clear 12 1029 30 10000 3.09 90 16:59 25.02.2021
2135 Clear 12 1029 30 10000 3.09 90 16:33 25.02.2021
2136 Clear 10 1028 32 10000 3.09 80 15:49 25.02.2021
2137 Clear 10 1028 32 10000 3.09 80 15:28 25.02.2021
2138 Clear 9 1028 31 10000 2.57 70 14:37 25.02.2021
2139 Clear 9 1028 31 10000 2.57 70 14:18 25.02.2021
2140 Clear 10 1027 37 10000 2.06 50 13:41 25.02.2021
2141 Clear 10 1027 37 10000 2.06 50 13:20 25.02.2021
2142 Clear 10 1027 32 10000 2.57 60 12:38 25.02.2021
2143 Clear 10 1027 32 10000 2.57 60 12:20 25.02.2021
2144 Clear 10 1027 34 10000 2.06 60 11:43 25.02.2021
2145 Clear 11 1027 32 10000 2.06 60 10:53 25.02.2021
2146 Clear 11 1027 32 10000 2.06 60 10:35 25.02.2021
2147 Clear 13 1027 28 10000 1.54 50 09:45 25.02.2021
2148 Clear 14 1027 28 10000 1.54 50 09:26 25.02.2021
2149 Clear 16 1028 27 10000 2.57 300 08:40 25.02.2021
2150 Clear 16 1028 27 10000 2.57 300 08:21 25.02.2021
2151 Clear 17 1028 25 10000 4.12 300 07:39 25.02.2021
2152 Clear 18 1028 17 10000 2.57 320 06:58 25.02.2021
2153 Clouds 19 1027 9 10000 2.57 360 05:28 25.02.2021
2154 Clouds 24 1024 8 10000 8.23 30 01:50 25.02.2021
2155 Clouds 24 1024 8 10000 8.23 30 01:50 25.02.2021
2156 Clouds 26 1023 10 10000 6.17 340 00:48 25.02.2021
2157 Clouds 26 1023 10 10000 6.17 340 00:20 25.02.2021
2158 Clouds 27 1023 7 10000 5.14 350 23:36 24.02.2021
2159 Clouds 26 1023 10 10000 4.63 320 22:56 24.02.2021
2160 Clouds 26 1023 10 10000 4.63 320 22:30 24.02.2021
2161 Clouds 26 1025 9 10000 3.09 10 21:50 24.02.2021
2162 Clouds 26 1025 9 10000 3.09 10 21:31 24.02.2021
2163 Clouds 24 1026 6 10000 3.6 40 20:50 24.02.2021
2164 Clouds 24 1026 6 10000 3.6 40 20:28 24.02.2021
2165 Clouds 23 1026 14 9656 3.6 340 19:43 24.02.2021
2166 Clouds 22 1028 18 9656 3.09 360 19:20 24.02.2021
2167 Clouds 22 1028 24 9656 1.54 340 18:53 24.02.2021
2168 Clouds 20 1029 30 10000 2.06 360 18:30 24.02.2021
2169 Clouds 18 1029 30 10000 1.83 8 17:40 24.02.2021
2170 Clouds 17 1029 36 10000 2.06 40 17:22 24.02.2021
2171 Clouds 15 1029 41 10000 1.37 19 16:48 24.02.2021
2172 Clouds 15 1029 41 10000 0.96 18 16:21 24.02.2021
2173 Clouds 14 1029 44 10000 0.97 18 15:55 24.02.2021
2174 Clouds 11 1028 54 10000 0.97 18 15:31 24.02.2021
2175 Clouds 10 1028 57 10000 0.34 342 14:47 24.02.2021
2176 Clouds 10 1028 57 10000 0.41 323 14:28 24.02.2021
2177 Clear 9 1027 61 10000 2.57 70 13:43 24.02.2021
2178 Clear 9 1027 61 10000 2.57 70 13:23 24.02.2021
2179 Clear 10 1027 62 10000 3.6 60 12:57 24.02.2021
2180 Clear 10 1027 62 10000 3.6 60 12:35 24.02.2021
2181 Clear 11 1027 54 10000 1.54 50 11:53 24.02.2021
2182 Clear 11 1027 54 10000 1.54 50 11:31 24.02.2021
2183 Clear 12 1027 54 10000 1.54 70 10:41 24.02.2021
2184 Clear 12 1027 54 10000 1.54 70 10:22 24.02.2021
2185 Clear 14 1027 50 10000 2.57 50 09:26 24.02.2021
2186 Clear 16 1028 33 10000 2.57 270 08:48 24.02.2021
2187 Clear 16 1028 33 10000 2.57 270 08:24 24.02.2021
2188 Clear 17 1028 36 10000 2.57 310 07:38 24.02.2021
2189 Clear 17 1028 36 10000 2.57 310 07:18 24.02.2021
2190 Clear 19 1027 32 10000 3.09 320 05:25 24.02.2021
2191 Clear 25 1023 12 10000 3.6 350 01:25 24.02.2021
2192 Clear 26 1023 11 10000 1.54 140 23:38 23.02.2021
2193 Clear 26 1023 12 10000 2.57 40 22:45 23.02.2021
2194 Clouds 24 1024 14 10000 4.12 30 22:22 23.02.2021
2195 Clouds 24 1025 12 9656 6.17 50 21:47 23.02.2021
2196 Clouds 24 1025 12 9656 6.17 50 21:24 23.02.2021
2197 Clouds 23 1025 11 9656 6.17 30 20:56 23.02.2021
2198 Clouds 22 1026 26 6437 3.6 300 20:37 23.02.2021
2199 Clouds 22 1026 26 6437 3.6 300 20:18 23.02.2021
2200 Clouds 20 1028 32 8047 2.63 4 19:41 23.02.2021
2201 Clouds 20 1028 32 8047 1.94 12 19:22 23.02.2021
2202 Clouds 19 1029 34 8047 1.96 10 18:44 23.02.2021
2203 Clouds 17 1029 39 8047 1.54 280 18:24 23.02.2021
2204 Clouds 15 1029 47 8047 1.26 18 17:49 23.02.2021
2205 Clouds 15 1029 47 8047 1.04 22 17:27 23.02.2021
2206 Clouds 12 1029 58 8047 1.04 22 16:45 23.02.2021
2207 Clear 10 1029 66 8047 2.57 90 16:21 23.02.2021
2208 Clouds 8 1029 81 8047 2.57 70 15:46 23.02.2021
2209 Clouds 8 1029 81 8047 2.57 70 15:28 23.02.2021
2210 Clear 7 1028 81 10000 2.57 80 14:50 23.02.2021
2211 Clear 7 1028 81 10000 2.57 80 14:28 23.02.2021
2212 Clear 7 1028 81 10000 1.54 60 13:59 23.02.2021
2213 Clear 7 1028 81 10000 1.54 60 13:34 23.02.2021
2214 Clouds 7 1028 81 10000 3.09 80 12:57 23.02.2021
2215 Clouds 7 1028 81 10000 3.09 80 12:24 23.02.2021
2216 Clouds 8 1028 76 10000 3.6 80 11:55 23.02.2021
2217 Clouds 8 1028 76 10000 3.6 80 11:26 23.02.2021
2218 Clouds 9 1028 71 10000 3.09 70 10:55 23.02.2021
2219 Clouds 9 1028 71 10000 3.09 70 10:37 23.02.2021
2220 Clouds 9 1029 71 10000 3.6 70 09:57 23.02.2021
2221 Clouds 9 1029 71 10000 3.6 70 09:36 23.02.2021
2222 Clouds 9 1029 71 10000 3.6 70 09:18 23.02.2021
2223 Clouds 11 1029 62 10000 2.57 100 08:43 23.02.2021
2224 Clouds 12 1029 62 10000 2.57 100 08:20 23.02.2021
2225 Clouds 15 1029 41 10000 3.09 320 06:52 23.02.2021
2226 Clear 16 1029 39 10000 6.17 300 05:22 23.02.2021
2227 Clouds 21 1025 24 10000 6.17 350 02:37 23.02.2021
2228 Clouds 22 1025 23 10000 4.12 20 01:55 23.02.2021
2229 Clouds 24 1024 14 10000 4.12 320 00:19 23.02.2021
2230 Clouds 24 1024 12 10000 3.09 280 23:25 22.02.2021
2231 Clouds 24 1025 14 10000 4.12 360 22:42 22.02.2021
2232 Clouds 24 1025 14 10000 4.12 360 22:21 22.02.2021
2233 Clouds 25 1025 14 9656 2.12 352 21:54 22.02.2021
2234 Clouds 25 1025 14 9656 2.33 359 21:36 22.02.2021
2235 Clouds 24 1026 16 9656 4.12 100 21:18 22.02.2021
2236 Clouds 23 1027 16 9656 2.06 50 20:42 22.02.2021
2237 Clouds 23 1027 16 9656 2.06 50 20:22 22.02.2021
2238 Clouds 21 1028 21 8047 3.09 270 19:38 22.02.2021
2239 Clouds 21 1028 21 8047 3.09 270 19:19 22.02.2021
2240 Clouds 21 1028 21 8047 2.06 130 18:46 22.02.2021
2241 Haze 19 1029 27 4828 3.09 340 18:22 22.02.2021
2242 Haze 18 1029 32 4828 2.06 310 17:43 22.02.2021
2243 Haze 18 1029 32 4828 2.06 310 17:18 22.02.2021
2244 Clouds 14 1029 38 8047 2.06 70 16:46 22.02.2021
2245 Clouds 10 1028 46 8047 2.06 40 15:57 22.02.2021
2246 Clouds 10 1028 46 8047 2.06 40 15:31 22.02.2021
2247 Clear 10 1027 50 6437 2.57 70 14:48 22.02.2021
2248 Clear 10 1027 50 6437 2.57 70 14:30 22.02.2021
2249 Clear 10 1027 50 8047 2.06 70 13:48 22.02.2021
2250 Clear 10 1027 50 8047 2.06 70 13:23 22.02.2021
2251 Clear 11 1027 43 8047 2.57 70 12:42 22.02.2021
2252 Clear 11 1027 43 8047 2.57 70 12:20 22.02.2021
2253 Clear 11 1026 43 8047 2.57 60 11:45 22.02.2021
2254 Clear 13 1026 33 8047 0.38 6 11:25 22.02.2021
2255 Haze 13 1026 35 4828 0.38 6 10:50 22.02.2021
2256 Haze 13 1026 35 4828 0.47 25 10:27 22.02.2021
2257 Haze 14 1027 33 4828 0.47 25 09:45 22.02.2021
2258 Haze 14 1027 33 4828 0.61 29 09:25 22.02.2021
2259 Haze 14 1027 35 4828 0.64 28 08:51 22.02.2021
2260 Smoke 14 1027 35 4828 0.72 28 08:29 22.02.2021
2261 Clear 17 1027 36 10000 1.54 120 07:57 22.02.2021
2262 Clear 17 1027 36 10000 1.54 120 07:26 22.02.2021
2263 Clear 18 1027 36 10000 2.57 10 06:44 22.02.2021
2264 Clear 19 1027 37 10000 2.57 120 05:45 22.02.2021
2265 Clouds 20 1025 34 10000 4.12 130 03:29 22.02.2021
2266 Clouds 21 1024 30 10000 5.66 130 02:49 22.02.2021
2267 Clear 26 1023 11 9656 2.57 270 00:45 22.02.2021
2268 Clear 26 1023 11 9656 2.57 270 00:22 22.02.2021
2269 Clear 26 1023 11 10000 3.6 230 23:33 21.02.2021
2270 Clear 25 1024 10 10000 1.54 260 22:53 21.02.2021
2271 Clear 25 1024 10 10000 1.54 260 22:23 21.02.2021
2272 Clear 24 1025 11 10000 2.06 110 21:43 21.02.2021
2273 Clear 24 1025 11 10000 2.06 110 21:24 21.02.2021
2274 Clear 23 1026 14 10000 2.06 80 20:43 21.02.2021
2275 Clear 23 1026 14 10000 2.06 80 20:20 21.02.2021
2276 Clear 22 1027 16 10000 3.6 20 19:51 21.02.2021
2277 Clear 21 1027 16 10000 3.6 20 19:33 21.02.2021
2278 Clear 19 1029 24 10000 3.09 70 18:49 21.02.2021
2279 Clear 19 1029 24 10000 3.09 70 18:25 21.02.2021
2280 Clear 16 1029 25 10000 2.06 60 17:30 21.02.2021
2281 Clear 14 1029 28 10000 1.54 90 16:58 21.02.2021
2282 Clear 14 1029 28 10000 1.54 90 16:35 21.02.2021
2283 Clear 10 1028 37 10000 1.54 60 15:57 21.02.2021
2284 Clear 10 1028 37 10000 1.54 60 15:23 21.02.2021
2285 Clear 7 1028 49 10000 1.03 70 14:54 21.02.2021
2286 Clear 7 1028 49 10000 1.03 70 14:35 21.02.2021
2287 Clear 7 1027 49 10000 3.09 60 13:48 21.02.2021
2288 Clear 7 1027 49 10000 3.09 60 13:25 21.02.2021
2289 Clear 10 1027 27 10000 0.33 208 12:32 21.02.2021
2290 Clear 10 1027 27 10000 1.54 80 11:58 21.02.2021
2291 Clear 10 1027 27 10000 1.54 80 11:40 21.02.2021
2292 Clear 11 1028 28 10000 2.06 80 10:40 21.02.2021
2293 Clear 11 1028 28 10000 2.06 80 10:21 21.02.2021
2294 Clear 12 1028 24 10000 2.06 60 09:42 21.02.2021
2295 Clear 13 1028 24 10000 2.06 60 09:23 21.02.2021
2296 Clear 14 1028 23 10000 1.54 280 08:33 21.02.2021
2297 Clear 16 1028 20 10000 2.06 320 07:44 21.02.2021
2298 Clear 16 1028 20 10000 2.06 320 07:21 21.02.2021
2299 Clear 17 1028 34 10000 3.6 80 05:28 21.02.2021
2300 Clear 19 1026 27 10000 3.6 110 02:40 21.02.2021
2301 Clear 24 1024 8 10000 3.09 360 00:55 21.02.2021
2302 Clear 24 1024 8 10000 3.09 360 00:20 21.02.2021
2303 Clear 24 1024 7 10000 5.14 10 23:31 20.02.2021
2304 Clear 25 1025 9 9656 4.12 330 22:54 20.02.2021
2305 Clear 25 1025 9 9656 4.12 330 22:31 20.02.2021
2306 Clear 23 1026 9 9656 3.6 70 21:47 20.02.2021
2307 Clear 23 1026 9 9656 3.6 70 21:27 20.02.2021
2308 Clear 23 1027 13 9656 3.09 360 20:54 20.02.2021
2309 Clear 23 1027 13 9656 3.09 360 20:35 20.02.2021
2310 Clear 22 1028 18 9656 2.15 16 19:59 20.02.2021
2311 Clear 20 1029 22 9656 1.54 20 19:36 20.02.2021
2312 Clear 20 1029 22 8047 2.57 40 18:47 20.02.2021
2313 Clear 18 1030 25 8047 1.54 90 18:27 20.02.2021
2314 Clear 16 1030 27 9656 1.54 80 17:43 20.02.2021
2315 Clear 15 1030 31 9656 2.06 100 17:25 20.02.2021
2316 Clear 15 1030 31 9656 1.05 32 16:44 20.02.2021
2317 Clear 13 1030 35 9656 0.45 26 16:22 20.02.2021
2318 Clear 8 1030 46 9656 2.57 70 15:38 20.02.2021
2319 Clear 8 1029 46 10000 2.06 70 14:50 20.02.2021
2320 Clear 8 1029 46 10000 2.06 70 14:25 20.02.2021
2321 Clear 7 1029 49 10000 2.06 70 13:53 20.02.2021
2322 Clear 7 1029 49 10000 2.06 70 13:28 20.02.2021
2323 Clear 8 1028 53 10000 0.06 271 12:56 20.02.2021
2324 Clear 8 1028 53 10000 0.07 293 12:33 20.02.2021
2325 Clear 8 1028 49 10000 2.57 70 11:49 20.02.2021
2326 Clear 8 1028 49 10000 2.57 70 11:30 20.02.2021
2327 Clear 9 1028 49 10000 2.57 60 10:50 20.02.2021
2328 Clear 10 1029 46 10000 3.09 80 10:21 20.02.2021
2329 Clear 10 1029 46 10000 2.57 70 09:45 20.02.2021
2330 Clear 12 1030 37 10000 3.09 50 08:51 20.02.2021
2331 Clear 12 1030 37 10000 3.09 50 08:23 20.02.2021
2332 Clear 17 1029 25 10000 2.06 320 04:37 20.02.2021
2333 Clear 21 1027 18 10000 4.12 350 02:32 20.02.2021
2334 Clear 22 1025 18 10000 4.12 360 01:54 20.02.2021
2335 Clear 23 1025 15 10000 5.14 40 00:49 20.02.2021
2336 Clear 23 1025 15 10000 5.14 40 00:30 20.02.2021
2337 Clear 23 1025 12 9656 3.09 10 23:26 19.02.2021
2338 Clear 23 1025 13 9656 4.12 40 22:43 19.02.2021
2339 Clear 23 1025 13 9656 4.12 40 22:19 19.02.2021
2340 Clear 22 1026 16 9656 3.09 360 21:39 19.02.2021
2341 Clear 21 1026 16 9656 3.09 360 21:21 19.02.2021
2342 Clear 21 1027 23 8047 4.12 10 20:40 19.02.2021
2343 Clear 21 1027 23 8047 4.12 10 20:22 19.02.2021
2344 Clear 18 1028 27 8047 2.26 25 19:44 19.02.2021
2345 Clear 18 1028 27 8047 1.4 32 19:20 19.02.2021
2346 Clouds 17 1029 29 9656 2.06 170 18:46 19.02.2021
2347 Clouds 17 1029 29 9656 2.06 170 18:26 19.02.2021
2348 Clear 13 1030 43 9656 3.09 90 17:35 19.02.2021
2349 Clear 8 1030 61 10000 3.09 70 16:41 19.02.2021
2350 Clear 8 1030 61 10000 3.09 70 16:21 19.02.2021
2351 Clear 5 1029 70 10000 3.09 60 15:53 19.02.2021
2352 Clear 5 1029 70 10000 3.09 60 15:27 19.02.2021
2353 Clear 5 1028 70 9656 2.57 90 14:46 19.02.2021
2354 Clear 5 1028 70 9656 2.57 90 14:26 19.02.2021
2355 Clear 7 1027 49 10000 2.06 70 13:53 19.02.2021
2356 Clear 7 1027 49 10000 2.06 70 13:30 19.02.2021
2357 Clear 9 1026 31 10000 2.06 90 12:52 19.02.2021
2358 Clear 9 1026 31 10000 2.06 90 12:24 19.02.2021
2359 Clear 10 1026 37 10000 1.54 80 11:54 19.02.2021
2360 Clear 10 1026 37 10000 1.54 80 11:26 19.02.2021
2361 Clear 11 1026 35 10000 1.03 40 10:54 19.02.2021
2362 Clear 11 1026 35 10000 1.03 40 10:31 19.02.2021
2363 Clear 12 1026 30 10000 1.03 40 09:51 19.02.2021
2364 Clear 12 1026 30 10000 1.03 40 09:27 19.02.2021
2365 Clear 14 1026 26 10000 1.54 180 08:54 19.02.2021
2366 Clear 14 1026 26 10000 1.54 180 08:25 19.02.2021
2367 Clear 15 1026 25 10000 1.03 280 07:49 19.02.2021
2368 Clear 15 1026 25 10000 1.03 280 07:31 19.02.2021
2369 Clear 15 1026 25 10000 1.03 280 06:54 19.02.2021
2370 Clear 17 1026 20 10000 2.57 60 05:41 19.02.2021
2371 Clear 17 1025 20 10000 4.12 90 04:41 19.02.2021
2372 Clear 22 1022 13 10000 5.66 130 01:48 19.02.2021
2373 Clear 25 1021 8 10000 4.63 160 00:37 19.02.2021
2374 Clear 26 1021 6 10000 4.12 70 23:56 18.02.2021
2375 Clear 26 1021 6 10000 4.12 70 23:35 18.02.2021
2376 Clear 26 1021 5 10000 2.06 330 22:51 18.02.2021
2377 Clear 26 1021 5 10000 2.06 330 22:30 18.02.2021
2378 Clouds 26 1022 5 10000 2.57 140 21:55 18.02.2021
2379 Clouds 26 1022 5 10000 2.57 140 21:27 18.02.2021
2380 Clouds 26 1023 6 10000 5.14 230 20:44 18.02.2021
2381 Clear 24 1023 6 10000 2.57 330 20:24 18.02.2021
2382 Clear 23 1024 7 10000 2.57 70 19:56 18.02.2021
2383 Clear 23 1024 7 10000 2.57 70 19:37 18.02.2021
2384 Clear 23 1024 7 10000 2.57 70 19:18 18.02.2021
2385 Clear 22 1025 8 10000 1.54 160 18:42 18.02.2021
2386 Clear 19 1025 12 10000 3.09 120 18:24 18.02.2021
2387 Clear 18 1025 15 10000 2.06 110 17:42 18.02.2021
2388 Clouds 17 1026 17 10000 2.57 110 17:23 18.02.2021
2389 Clouds 11 1025 32 10000 2.06 100 16:41 18.02.2021
2390 Clouds 11 1025 32 10000 2.06 100 16:22 18.02.2021
2391 Clouds 8 1025 36 10000 3.09 50 15:39 18.02.2021
2392 Clouds 8 1025 36 10000 3.09 50 15:21 18.02.2021
2393 Clouds 10 1024 29 10000 2.57 310 14:49 18.02.2021
2394 Clouds 10 1024 29 10000 2.57 310 14:29 18.02.2021
2395 Clear 10 1023 34 10000 2.06 250 13:46 18.02.2021
2396 Clear 10 1023 34 10000 2.06 250 13:20 18.02.2021
2397 Clear 10 1023 32 10000 2.06 220 12:53 18.02.2021
2398 Clear 10 1023 32 10000 2.06 220 12:23 18.02.2021
2399 Clear 11 1023 28 10000 1.6 194 11:46 18.02.2021
2400 Clear 11 1023 28 10000 1.64 196 11:27 18.02.2021
2401 Clear 11 1023 30 10000 1.64 197 10:52 18.02.2021
2402 Clear 11 1023 30 10000 1.64 196 10:31 18.02.2021
2403 Clear 12 1023 28 10000 1.54 230 09:50 18.02.2021
2404 Clear 12 1023 28 10000 1.54 230 09:26 18.02.2021
2405 Clear 13 1024 24 10000 1.6 201 08:48 18.02.2021
2406 Clear 13 1024 24 10000 1.73 197 08:29 18.02.2021
2407 Clear 15 1024 23 10000 2.57 170 07:35 18.02.2021
2408 Clear 15 1024 23 10000 1.95 197 06:58 18.02.2021
2409 Clouds 18 1023 19 10000 6.17 130 03:52 18.02.2021
2410 Clouds 18 1023 19 10000 6.17 130 03:52 18.02.2021
2411 Clouds 22 1019 15 9656 6.17 120 23:56 17.02.2021
2412 Clouds 22 1019 15 9656 6.17 120 23:37 17.02.2021
2413 Clouds 23 1019 13 9656 7.72 120 22:56 17.02.2021
2414 Clouds 25 1020 10 10000 4.12 120 22:27 17.02.2021
2415 Clouds 24 1021 10 10000 4.12 130 21:57 17.02.2021
2416 Clouds 24 1021 10 10000 4.12 130 21:23 17.02.2021
2417 Clouds 23 1022 9 10000 4.12 130 20:53 17.02.2021
2418 Clouds 23 1022 9 10000 4.12 130 20:33 17.02.2021
2419 Clouds 22 1022 9 10000 6.69 130 19:55 17.02.2021
2420 Clouds 22 1023 10 10000 4.12 230 19:35 17.02.2021
2421 Clouds 20 1023 10 10000 1.54 190 18:50 17.02.2021
2422 Clouds 19 1024 11 10000 2.06 90 18:31 17.02.2021
2423 Clouds 19 1024 14 10000 3.09 150 17:46 17.02.2021
2424 Clouds 17 1025 17 10000 1.54 140 17:21 17.02.2021
2425 Clouds 15 1024 21 10000 4.12 140 16:50 17.02.2021
2426 Clouds 15 1024 21 10000 4.12 140 16:29 17.02.2021
2427 Clouds 12 1024 26 10000 2.06 170 15:46 17.02.2021
2428 Clouds 11 1024 26 10000 2.06 170 15:27 17.02.2021
2429 Clouds 10 1024 29 10000 1.03 230 14:51 17.02.2021
2430 Clouds 10 1024 29 10000 1.03 230 14:29 17.02.2021
2431 Clouds 10 1023 27 10000 2.06 200 13:52 17.02.2021
2432 Clouds 10 1023 27 10000 2.06 200 13:33 17.02.2021
2433 Clouds 10 1023 29 10000 2.06 170 12:58 17.02.2021
2434 Clouds 10 1023 29 10000 2.06 170 12:26 17.02.2021
2435 Clouds 10 1023 27 10000 2.06 160 11:48 17.02.2021
2436 Clouds 10 1023 27 10000 2.06 160 11:29 17.02.2021
2437 Clouds 11 1023 24 10000 2.57 100 10:56 17.02.2021
2438 Clouds 11 1023 24 10000 2.57 100 10:38 17.02.2021
2439 Clouds 11 1023 24 10000 2.57 100 10:19 17.02.2021
2440 Clouds 12 1023 22 10000 1.03 70 09:38 17.02.2021
2441 Clouds 13 1024 21 10000 1.03 150 08:56 17.02.2021
2442 Clouds 13 1024 21 10000 1.03 150 08:36 17.02.2021
2443 Clouds 13 1024 21 10000 1.03 150 08:18 17.02.2021
2444 Clouds 15 1024 17 10000 3.09 180 06:37 17.02.2021
2445 Clouds 17 1022 17 10000 6.17 180 03:53 17.02.2021
2446 Clouds 19 1022 15 10000 6.17 180 02:32 17.02.2021
2447 Clouds 21 1021 13 10000 5.14 180 01:36 17.02.2021
2448 Clouds 23 1020 10 10000 5.14 190 00:28 17.02.2021
2449 Clouds 24 1020 10 10000 5.14 130 23:39 16.02.2021
2450 Clouds 25 1020 8 10000 4.12 100 22:58 16.02.2021
2451 Clouds 25 1020 8 10000 4.12 100 22:39 16.02.2021
2452 Clouds 25 1020 8 10000 4.12 100 22:21 16.02.2021
2453 Clear 24 1022 7 10000 4.64 198 21:40 16.02.2021
2454 Clear 24 1022 7 10000 3.63 192 21:21 16.02.2021
2455 Clear 23 1023 7 10000 3.09 140 20:56 16.02.2021
2456 Clear 23 1023 7 10000 3.09 140 20:37 16.02.2021
2457 Clear 22 1023 7 10000 3.09 140 20:18 16.02.2021
2458 Clear 22 1024 8 10000 4.12 140 19:39 16.02.2021
2459 Clear 22 1024 8 10000 4.12 140 19:19 16.02.2021
2460 Clear 21 1025 8 10000 2.06 200 18:37 16.02.2021
2461 Clouds 19 1025 9 10000 2.06 70 18:18 16.02.2021
2462 Clouds 18 1025 11 10000 3.09 80 17:47 16.02.2021
2463 Clouds 18 1025 11 10000 3.09 80 17:23 16.02.2021
2464 Clouds 14 1025 18 10000 2.06 180 16:45 16.02.2021
2465 Clouds 14 1025 18 10000 2.06 180 16:22 16.02.2021
2466 Clear 10 1024 27 10000 2.16 195 15:43 16.02.2021
2467 Clear 10 1024 27 10000 1.99 200 15:24 16.02.2021
2468 Clear 9 1024 27 10000 1.99 201 14:44 16.02.2021
2469 Clear 10 1024 27 10000 2.16 201 14:25 16.02.2021
2470 Clear 10 1024 22 10000 3.6 130 13:48 16.02.2021
2471 Clear 10 1024 22 10000 3.6 130 13:24 16.02.2021
2472 Clear 10 1023 22 10000 2.06 110 12:43 16.02.2021
2473 Clear 10 1023 22 10000 2.06 110 12:20 16.02.2021
2474 Clear 10 1023 22 10000 2.3 206 11:44 16.02.2021
2475 Clear 10 1023 22 10000 2.48 201 11:22 16.02.2021
2476 Clear 10 1024 20 10000 2.57 50 10:50 16.02.2021
2477 Clear 10 1024 20 10000 2.57 50 10:31 16.02.2021
2478 Clear 12 1025 17 10000 2.71 201 09:56 16.02.2021
2479 Clear 12 1025 17 10000 2.69 206 09:29 16.02.2021
2480 Clear 13 1025 19 10000 2.69 206 08:58 16.02.2021
2481 Clear 13 1025 19 10000 2.69 206 08:38 16.02.2021
2482 Clear 13 1025 19 10000 3 203 08:18 16.02.2021
2483 Clear 14 1025 18 10000 2.57 210 07:18 16.02.2021
2484 Clear 14 1025 18 10000 2.57 210 07:18 16.02.2021
2485 Clear 17 1023 19 10000 8.75 220 03:21 16.02.2021
2486 Clear 23 1020 7 10000 4.63 210 00:43 16.02.2021
2487 Clear 23 1020 9 10000 8.75 130 23:31 15.02.2021
2488 Clear 23 1020 7 10000 8.23 130 22:52 15.02.2021
2489 Clear 23 1020 7 10000 8.23 130 22:33 15.02.2021
2490 Clear 25 1022 4 10000 4.63 230 21:56 15.02.2021
2491 Clear 25 1022 4 10000 4.63 230 21:37 15.02.2021
2492 Clear 25 1022 4 10000 4.63 230 21:19 15.02.2021
2493 Clear 24 1022 4 10000 5.14 310 20:42 15.02.2021
2494 Clouds 24 1022 4 10000 4.12 160 20:19 15.02.2021
2495 Clouds 23 1023 4 10000 2.06 160 19:43 15.02.2021
2496 Clouds 21 1023 4 10000 2.06 150 19:21 15.02.2021
2497 Clouds 20 1024 5 10000 2.57 130 18:42 15.02.2021
2498 Clouds 20 1024 5 10000 2.57 130 18:21 15.02.2021
2499 Clouds 17 1025 12 10000 1.54 210 17:41 15.02.2021
2500 Clouds 15 1025 13 10000 1.54 220 17:21 15.02.2021
2501 Clear 13 1024 18 10000 1.95 186 16:48 15.02.2021
2502 Clear 13 1024 18 10000 2.03 194 16:26 15.02.2021
2503 Clear 12 1024 17 10000 2.57 210 15:49 15.02.2021
2504 Clear 9 1024 25 10000 2.06 280 15:22 15.02.2021
2505 Clear 8 1023 25 10000 3.09 160 14:49 15.02.2021
2506 Clear 8 1023 25 10000 3.09 160 14:21 15.02.2021
2507 Clear 9 1023 25 10000 5.14 180 13:51 15.02.2021
2508 Clear 10 1022 15 10000 4.12 170 13:29 15.02.2021
2509 Clouds 10 1022 27 10000 2.06 220 12:54 15.02.2021
2510 Clouds 10 1022 27 10000 2.06 220 12:36 15.02.2021
2511 Clear 11 1021 24 10000 1.54 240 11:59 15.02.2021
2512 Clear 11 1021 24 10000 1.54 240 11:39 15.02.2021
2513 Clear 11 1021 24 10000 1.54 240 11:18 15.02.2021
2514 Clear 11 1022 24 10000 1.54 50 10:42 15.02.2021
2515 Clear 11 1022 24 10000 1.54 50 10:21 15.02.2021
2516 Clear 12 1023 22 10000 2.57 160 09:52 15.02.2021
2517 Clear 12 1023 22 10000 2.57 160 09:32 15.02.2021
2518 Clear 12 1023 22 10000 2.57 160 09:32 15.02.2021
2519 Clear 13 1023 19 10000 2.57 170 08:34 15.02.2021
2520 Clear 14 1023 18 10000 4.12 160 07:34 15.02.2021
2521 Clear 15 1023 25 10000 4.12 150 06:44 15.02.2021
2522 Clear 16 1022 27 10000 4.12 150 04:59 15.02.2021
2523 Clear 19 1020 22 10000 7.2 200 02:22 15.02.2021
2524 Clear 23 1018 10 10000 5.66 280 00:32 15.02.2021
2525 Clear 25 1019 8 10000 6.17 230 23:32 14.02.2021
2526 Clear 23 1019 17 10000 7.72 90 22:52 14.02.2021
2527 Clear 23 1019 17 10000 7.72 90 22:34 14.02.2021
2528 Clear 22 1019 17 10000 6.17 130 21:57 14.02.2021
2529 Clear 22 1019 17 10000 6.17 130 21:36 14.02.2021
2530 Clear 21 1020 13 10000 7.2 100 20:56 14.02.2021
2531 Clear 21 1020 13 10000 7.2 100 20:32 14.02.2021
2532 Clear 21 1021 12 10000 5.14 150 19:59 14.02.2021
2533 Clear 21 1021 12 10000 5.14 150 19:36 14.02.2021
2534 Clear 20 1021 13 10000 5.14 120 18:47 14.02.2021
2535 Clear 19 1021 13 10000 5.14 120 18:28 14.02.2021
2536 Clear 16 1022 25 10000 2.06 190 17:45 14.02.2021
2537 Clear 16 1022 25 10000 2.06 190 17:26 14.02.2021
2538 Clear 12 1022 32 10000 2.4 183 16:40 14.02.2021
2539 Clear 12 1022 32 10000 2.2 191 16:21 14.02.2021
2540 Clear 11 1022 35 10000 2.22 190 15:45 14.02.2021
2541 Clear 7 1021 45 10000 2.14 193 14:59 14.02.2021
2542 Clear 7 1021 45 10000 2.12 194 14:33 14.02.2021
2543 Clear 8 1020 42 10000 2.15 193 13:58 14.02.2021
2544 Clear 8 1020 42 10000 2.15 193 13:32 14.02.2021
2545 Clear 8 1020 42 10000 2.1 190 12:54 14.02.2021
2546 Clear 8 1020 42 10000 1.85 196 12:22 14.02.2021
2547 Clear 9 1020 37 10000 1.85 196 11:51 14.02.2021
2548 Clear 9 1020 37 10000 2.2 197 11:26 14.02.2021
2549 Clear 10 1020 37 10000 2.06 150 10:53 14.02.2021
2550 Clear 11 1021 35 10000 3.09 140 09:58 14.02.2021
2551 Clear 11 1021 35 10000 3.09 140 09:39 14.02.2021
2552 Clear 11 1021 35 10000 3.09 140 09:21 14.02.2021
2553 Clear 12 1021 30 10000 2.06 140 08:43 14.02.2021
2554 Clear 12 1021 28 10000 3.09 180 07:57 14.02.2021
2555 Clear 13 1021 26 10000 4.12 180 06:52 14.02.2021
2556 Clear 14 1021 23 10000 5.14 140 05:43 14.02.2021
2557 Clear 15 1019 21 10000 4.12 150 03:32 14.02.2021
2558 Clear 16 1018 21 10000 5.14 160 02:22 14.02.2021
2559 Clear 22 1017 8 10000 7.2 230 00:48 14.02.2021
2560 Clear 22 1017 8 10000 7.2 230 00:29 14.02.2021
2561 Clear 22 1017 8 10000 8.75 160 23:41 13.02.2021
2562 Clear 22 1017 8 10000 8.75 160 23:21 13.02.2021
2563 Clear 22 1018 14 10000 5.66 140 22:43 13.02.2021
2564 Clear 22 1018 14 10000 5.66 140 22:20 13.02.2021
2565 Clear 22 1018 14 10000 5.14 240 21:42 13.02.2021
2566 Clear 22 1018 14 10000 5.14 240 21:21 13.02.2021
2567 Clear 19 1020 16 10000 7.2 90 20:30 13.02.2021
2568 Clear 19 1021 13 10000 5.14 160 19:57 13.02.2021
2569 Clear 19 1021 13 10000 5.14 160 19:38 13.02.2021
2570 Clear 19 1021 13 10000 5.14 160 19:18 13.02.2021
2571 Clear 18 1021 14 10000 5.14 170 18:44 13.02.2021
2572 Clear 16 1021 14 10000 5.14 180 18:20 13.02.2021
2573 Clear 15 1021 17 10000 5.14 180 17:42 13.02.2021
2574 Clear 15 1021 17 10000 5.14 180 17:22 13.02.2021
2575 Clear 12 1021 22 10000 4.12 160 16:42 13.02.2021
2576 Clear 12 1021 22 10000 4.12 160 16:20 13.02.2021
2577 Clear 10 1020 27 10000 4.12 110 15:34 13.02.2021
2578 Clear 9 1019 27 10000 5.14 150 14:51 13.02.2021
2579 Clear 9 1019 27 10000 5.14 150 14:31 13.02.2021
2580 Clear 10 1019 27 10000 4.63 130 13:48 13.02.2021
2581 Clear 10 1019 27 10000 4.63 130 13:24 13.02.2021
2582 Clear 10 1019 27 10000 2.57 160 12:45 13.02.2021
2583 Clear 10 1019 27 10000 2.57 160 12:18 13.02.2021
2584 Clear 10 1019 29 10000 1.54 190 11:43 13.02.2021
2585 Clear 10 1019 29 10000 1.54 190 11:19 13.02.2021
2586 Clear 10 1019 34 10000 1.54 200 10:45 13.02.2021
2587 Clear 10 1019 34 10000 1.54 200 10:24 13.02.2021
2588 Clear 11 1020 37 10000 1.03 150 09:53 13.02.2021
2589 Clear 11 1020 37 10000 1.03 150 09:30 13.02.2021
2590 Clear 12 1021 35 10000 2.06 230 08:54 13.02.2021
2591 Clear 12 1021 35 10000 2.06 230 08:34 13.02.2021
2592 Clear 12 1021 35 10000 2.57 220 07:50 13.02.2021
2593 Clear 13 1021 33 10000 2.57 200 06:38 13.02.2021
2594 Clouds 13 1021 33 10000 3.09 270 05:20 13.02.2021
2595 Clouds 14 1021 28 10000 5.66 270 03:58 13.02.2021
2596 Clouds 18 1019 17 10000 7.2 210 01:43 13.02.2021
2597 Clouds 19 1018 16 10000 7.2 210 00:36 13.02.2021
2598 Clouds 20 1018 15 10000 6.17 200 23:53 12.02.2021
2599 Clouds 20 1018 15 10000 6.17 200 23:20 12.02.2021
2600 Clouds 20 1018 15 10000 7.72 220 22:40 12.02.2021
2601 Clouds 20 1018 15 10000 7.72 220 22:19 12.02.2021
2602 Clouds 20 1019 19 10000 4.63 190 21:45 12.02.2021
2603 Clouds 20 1019 19 10000 4.63 190 21:25 12.02.2021
2604 Clouds 20 1020 19 10000 9.26 170 20:46 12.02.2021
2605 Clouds 20 1020 19 10000 9.26 170 20:27 12.02.2021
2606 Clouds 19 1021 20 10000 4.63 200 19:55 12.02.2021
2607 Clouds 19 1021 20 10000 4.63 200 19:30 12.02.2021
2608 Clouds 18 1022 29 10000 3.92 195 18:54 12.02.2021
2609 Clouds 18 1022 29 10000 2.78 192 18:28 12.02.2021
2610 Clouds 17 1022 34 10000 2.76 192 17:43 12.02.2021
2611 Clouds 15 1022 38 10000 2.06 220 17:20 12.02.2021
2612 Clouds 13 1021 44 10000 3.09 160 16:25 12.02.2021
2613 Clouds 11 1021 50 10000 1.48 194 15:46 12.02.2021
2614 Clouds 11 1021 50 10000 1.27 194 15:20 12.02.2021
2615 Clouds 9 1020 57 10000 1.54 70 14:40 12.02.2021
2616 Clouds 9 1020 57 10000 2.06 40 13:58 12.02.2021
2617 Clouds 9 1020 57 10000 2.06 40 13:40 12.02.2021
2618 Clear 9 1019 57 10000 1.23 194 12:55 12.02.2021
2619 Clear 9 1019 57 10000 1.22 195 12:36 12.02.2021
2620 Clear 9 1019 61 10000 4.12 40 11:49 12.02.2021
2621 Clear 9 1019 61 10000 4.12 40 11:26 12.02.2021
2622 Clear 10 1019 57 10000 1.54 60 10:52 12.02.2021
2623 Clear 10 1019 57 10000 1.54 60 10:34 12.02.2021
2624 Clear 13 1020 47 10000 1.82 203 09:44 12.02.2021
2625 Clear 13 1020 47 10000 1.79 197 09:24 12.02.2021
2626 Clear 14 1020 44 10000 1.79 197 08:48 12.02.2021
2627 Clear 14 1020 44 10000 1.93 207 08:27 12.02.2021
2628 Clear 15 1021 41 10000 2.57 110 07:53 12.02.2021
2629 Clear 15 1021 41 10000 2.57 110 07:28 12.02.2021
2630 Clear 15 1021 44 10000 2.57 170 06:54 12.02.2021
2631 Clear 16 1021 39 10000 5.14 140 05:39 12.02.2021
2632 Clear 17 1021 36 10000 3.6 190 03:48 12.02.2021
2633 Clouds 20 1019 28 10000 6.69 170 00:47 12.02.2021
2634 Clouds 21 1019 26 10000 6.17 180 23:39 11.02.2021
2635 Clouds 21 1019 26 10000 6.17 180 23:20 11.02.2021
2636 Clouds 21 1019 23 10000 6.17 190 22:44 11.02.2021
2637 Clouds 21 1019 23 10000 6.17 190 22:23 11.02.2021
2638 Clouds 21 1020 24 10000 6.69 170 21:43 11.02.2021
2639 Clouds 21 1020 24 10000 6.69 170 21:25 11.02.2021
2640 Clouds 21 1021 26 10000 7.2 190 20:58 11.02.2021
2641 Clouds 21 1021 26 10000 7.2 190 20:39 11.02.2021
2642 Clouds 21 1021 26 10000 7.2 190 20:21 11.02.2021
2643 Clouds 21 1022 23 10000 6.17 150 19:47 11.02.2021
2644 Clouds 21 1022 23 10000 6.17 150 19:26 11.02.2021
2645 Clouds 21 1023 24 10000 6.17 150 18:43 11.02.2021
2646 Clear 19 1023 34 10000 3.6 160 18:21 11.02.2021
2647 Clear 17 1024 45 10000 2.42 174 17:48 11.02.2021
2648 Clear 17 1024 45 10000 2.14 185 17:21 11.02.2021
2649 Clouds 16 1024 51 9656 1.03 60 16:46 11.02.2021
2650 Clouds 15 1024 62 9656 2.06 60 16:27 11.02.2021
2651 Clear 14 1023 58 10000 1.03 60 15:45 11.02.2021
2652 Clear 14 1023 58 10000 1.03 60 15:26 11.02.2021
2653 Clear 12 1023 66 10000 1.83 193 14:56 11.02.2021
2654 Clear 12 1023 66 10000 1.84 192 14:31 11.02.2021
2655 Clouds 11 1022 71 10000 1.85 197 13:44 11.02.2021
2656 Clouds 11 1022 71 10000 1.66 202 13:21 11.02.2021
2657 Clouds 11 1022 71 10000 1.66 202 12:56 11.02.2021
2658 Clouds 11 1022 71 10000 1.66 202 12:35 11.02.2021
2659 Clouds 12 1022 71 10000 3.09 120 11:48 11.02.2021
2660 Clouds 12 1022 71 10000 3.09 120 11:28 11.02.2021
2661 Clouds 12 1023 76 10000 1.51 212 10:55 11.02.2021
2662 Clouds 12 1023 76 10000 1.51 210 10:37 11.02.2021
2663 Clouds 12 1023 76 10000 1.59 214 10:19 11.02.2021
2664 Rain 12 1023 76 10000 1.59 216 09:38 11.02.2021
2665 Rain 12 1023 76 10000 1.47 204 09:18 11.02.2021
2666 Rain 14 1023 62 10000 1.03 40 08:44 11.02.2021
2667 Clear 14 1024 62 10000 1.42 191 07:52 11.02.2021
2668 Clouds 14 1024 72 10000 2.06 60 06:44 11.02.2021
2669 Clouds 14 1024 72 10000 2.06 60 06:20 11.02.2021
2670 Clouds 15 1023 63 10000 2.06 30 03:45 11.02.2021
2671 Clouds 14 1022 72 10000 4.12 70 02:23 11.02.2021
2672 Rain 24 1022 23 10000 1.79 20 00:23 11.02.2021
2673 Rain 24 1022 23 10000 1.79 20 23:52 10.02.2021
2674 Clouds 24 1022 23 10000 1.79 20 23:20 10.02.2021
2675 Clouds 24 1022 23 10000 1.79 20 22:43 10.02.2021
2676 Clouds 24 1022 23 10000 2.06 20 22:23 10.02.2021
2677 Clouds 24 1022 23 10000 2.06 20 21:40 10.02.2021
2678 Clouds 24 1022 23 10000 2.06 20 21:21 10.02.2021
2679 Clouds 23 1024 25 10000 3.09 130 20:51 10.02.2021
2680 Clouds 23 1024 25 10000 3.09 130 20:28 10.02.2021
2681 Clouds 22 1025 28 10000 0.38 37 19:50 10.02.2021
2682 Clouds 22 1025 28 10000 0.26 127 19:28 10.02.2021
2683 Clouds 21 1025 30 10000 0.24 55 18:49 10.02.2021
2684 Clouds 19 1026 39 9656 2.06 120 18:27 10.02.2021
2685 Clouds 18 1026 42 9656 0.43 149 17:59 10.02.2021
2686 Clouds 18 1026 42 9656 0.43 149 17:39 10.02.2021
2687 Clouds 18 1026 42 9656 0.55 171 17:19 10.02.2021
2688 Clouds 13 1026 54 10000 3.09 70 16:41 10.02.2021
2689 Clouds 13 1026 54 10000 3.09 70 16:41 10.02.2021
2690 Clouds 13 1026 54 10000 3.09 70 16:23 10.02.2021
2691 Clouds 11 1026 58 10000 2.06 60 15:25 10.02.2021
2692 Clouds 11 1025 66 9656 0.91 169 14:54 10.02.2021
2693 Clouds 11 1025 66 9656 0.91 169 14:35 10.02.2021
2694 Clouds 11 1025 62 9656 0.98 176 13:55 10.02.2021
2695 Clouds 11 1025 62 9656 0.83 221 13:30 10.02.2021
2696 Clouds 11 1024 62 10000 3.09 50 12:54 10.02.2021
2697 Clouds 11 1024 62 10000 3.09 50 12:31 10.02.2021
2698 Clouds 11 1024 62 10000 3.6 50 11:58 10.02.2021
2699 Clouds 13 1025 54 10000 1.54 50 11:39 10.02.2021
2700 Clouds 13 1025 54 10000 1.54 50 11:21 10.02.2021
2701 Clouds 14 1025 47 10000 2.06 50 10:25 10.02.2021
2702 Clouds 15 1025 47 10000 0.66 183 09:57 10.02.2021
2703 Clouds 15 1025 47 10000 0.81 148 09:33 10.02.2021
2704 Clouds 16 1026 48 10000 2.57 300 08:56 10.02.2021
2705 Clouds 16 1026 48 10000 2.57 300 08:35 10.02.2021
2706 Clouds 16 1026 48 10000 2.57 280 07:41 10.02.2021
2707 Clouds 17 1026 48 10000 4.63 290 06:33 10.02.2021
2708 Clouds 22 1022 26 10000 3.6 190 01:56 10.02.2021
2709 Clouds 23 1022 20 10000 3.09 150 00:24 10.02.2021
2710 Clouds 23 1022 20 10000 3.09 150 00:23 10.02.2021
2711 Clouds 24 1022 19 10000 3.6 120 23:34 09.02.2021
2712 Clouds 25 1023 16 10000 1.54 190 22:53 09.02.2021
2713 Clouds 25 1023 16 10000 1.54 190 22:24 09.02.2021
2714 Clouds 24 1024 16 10000 2.06 80 21:52 09.02.2021
2715 Clouds 24 1024 16 10000 2.06 80 21:27 09.02.2021
2716 Clouds 24 1025 17 10000 1.54 160 20:46 09.02.2021
2717 Clouds 24 1025 17 10000 1.54 160 20:26 09.02.2021
2718 Clouds 23 1025 20 10000 2.06 300 19:55 09.02.2021
2719 Clear 21 1026 26 10000 2.06 320 19:31 09.02.2021
2720 Clear 20 1027 28 10000 3.09 90 18:58 09.02.2021
2721 Clear 20 1027 28 10000 3.09 90 18:36 09.02.2021
2722 Clear 19 1027 30 10000 2.57 70 17:57 09.02.2021
2723 Clear 17 1027 31 10000 2.06 70 17:36 09.02.2021
2724 Clear 17 1027 31 10000 2.06 70 17:18 09.02.2021
2725 Clear 15 1027 36 10000 2.06 60 16:39 09.02.2021
2726 Clear 15 1027 36 10000 2.06 60 16:18 09.02.2021
2727 Clear 11 1026 46 10000 0.39 85 15:47 09.02.2021
2728 Clear 11 1026 46 10000 0.26 49 15:24 09.02.2021
2729 Clear 9 1026 49 10000 1.54 40 14:49 09.02.2021
2730 Clear 9 1026 49 10000 1.54 40 14:26 09.02.2021
2731 Clear 8 1025 53 10000 2.57 60 13:45 09.02.2021
2732 Clear 10 1025 50 10000 2.06 60 13:21 09.02.2021
2733 Clear 10 1025 50 10000 0.22 47 12:48 09.02.2021
2734 Clear 10 1025 50 10000 0.22 53 12:30 09.02.2021
2735 Clear 11 1025 43 10000 0.29 349 11:45 09.02.2021
2736 Clear 11 1025 43 10000 0.29 349 11:45 09.02.2021
2737 Clear 11 1025 43 10000 0.18 352 11:24 09.02.2021
2738 Clear 12 1025 40 10000 2.06 60 10:58 09.02.2021
2739 Clear 12 1025 40 10000 2.06 60 10:38 09.02.2021
2740 Clear 12 1025 40 10000 2.06 60 10:18 09.02.2021
2741 Clear 15 1026 38 10000 1.03 320 09:41 09.02.2021
2742 Clear 15 1026 38 10000 1.03 320 09:21 09.02.2021
2743 Clear 15 1026 36 10000 0.5 223 08:34 09.02.2021
2744 Clear 15 1026 33 10000 2.06 30 07:57 09.02.2021
2745 Clear 18 1025 32 10000 4.12 160 05:40 09.02.2021
2746 Clear 20 1024 22 10000 5.14 170 03:49 09.02.2021
2747 Clear 21 1023 19 10000 5.14 180 02:26 09.02.2021
2748 Clear 25 1021 10 10000 3.6 180 00:31 09.02.2021
2749 Clear 26 1021 6 10000 6.17 190 23:44 08.02.2021
2750 Clear 26 1021 6 10000 6.17 190 23:19 08.02.2021
2751 Clear 27 1021 6 10000 5.66 210 22:43 08.02.2021
2752 Clear 26 1022 7 10000 2.57 140 22:22 08.02.2021
2753 Clear 27 1023 8 10000 5.14 160 21:49 08.02.2021
2754 Clear 27 1023 8 10000 5.14 160 21:30 08.02.2021
2755 Clear 26 1023 9 10000 1.54 180 20:55 08.02.2021
2756 Clear 26 1023 9 10000 1.54 180 20:36 08.02.2021
2757 Clear 26 1023 9 10000 1.54 180 20:36 08.02.2021
2758 Clear 24 1024 12 10000 3.09 20 20:18 08.02.2021
2759 Clear 24 1026 15 10000 0.64 150 19:41 08.02.2021
2760 Clear 24 1026 15 10000 0.87 160 19:21 08.02.2021
2761 Clear 23 1026 16 10000 1.54 50 18:44 08.02.2021
2762 Clear 21 1026 21 10000 2.06 100 18:19 08.02.2021
2763 Clear 20 1027 24 10000 0.61 178 17:43 08.02.2021
2764 Clear 18 1027 29 10000 1.54 90 17:23 08.02.2021
2765 Clear 14 1026 41 10000 2.06 60 16:42 08.02.2021
2766 Clear 14 1026 41 10000 2.06 60 16:21 08.02.2021
2767 Clear 11 1026 50 10000 2.06 80 15:42 08.02.2021
2768 Clear 9 1026 57 10000 2.06 60 15:20 08.02.2021
2769 Clear 9 1025 57 10000 2.06 60 14:51 08.02.2021
2770 Clear 9 1025 57 10000 2.06 60 14:31 08.02.2021
2771 Clear 12 1024 50 10000 1.54 220 13:56 08.02.2021
2772 Clear 12 1024 50 10000 1.54 220 13:32 08.02.2021
2773 Clear 12 1024 50 10000 1.26 211 12:53 08.02.2021
2774 Clear 12 1024 50 10000 1.25 209 12:34 08.02.2021
2775 Clear 13 1024 47 10000 1.59 213 11:44 08.02.2021
2776 Clear 13 1024 47 10000 1.74 207 11:19 08.02.2021
2777 Clear 14 1024 44 10000 1.74 207 10:44 08.02.2021
2778 Clear 14 1024 44 10000 1.71 206 10:23 08.02.2021
2779 Clear 15 1024 44 10000 2.06 150 09:50 08.02.2021
2780 Clear 15 1024 44 10000 2.06 150 09:29 08.02.2021
2781 Clear 16 1025 39 10000 2.06 120 08:32 08.02.2021
2782 Clear 17 1025 36 10000 3.6 130 07:51 08.02.2021
2783 Clear 17 1025 36 10000 3.6 130 07:22 08.02.2021
2784 Clear 18 1025 34 10000 4.12 140 05:29 08.02.2021
2785 Clouds 20 1022 28 10000 6.17 180 02:28 08.02.2021
2786 Clear 24 1021 15 10000 5.14 180 00:43 08.02.2021
2787 Clear 24 1021 15 10000 5.14 180 00:18 08.02.2021
2788 Clear 25 1021 14 10000 5.14 180 23:46 07.02.2021
2789 Clear 25 1021 14 10000 5.14 180 23:19 07.02.2021
2790 Clear 26 1021 12 10000 6.17 180 22:43 07.02.2021
2791 Clear 26 1021 12 10000 6.17 180 22:24 07.02.2021
2792 Clear 25 1022 13 10000 5.14 180 21:51 07.02.2021
2793 Clear 25 1022 13 10000 5.14 180 21:26 07.02.2021
2794 Clear 24 1024 22 10000 3.05 172 20:53 07.02.2021
2795 Clear 24 1024 22 10000 3.05 172 20:33 07.02.2021
2796 Clear 23 1024 25 10000 2.06 80 19:55 07.02.2021
2797 Clear 21 1025 28 10000 1.95 161 19:30 07.02.2021
2798 Clear 20 1025 32 10000 1.2 147 18:55 07.02.2021
2799 Clear 18 1026 36 10000 2.06 80 18:35 07.02.2021
2800 Clear 15 1026 44 10000 2.06 50 17:59 07.02.2021
2801 Clear 15 1026 44 10000 2.06 50 17:40 07.02.2021
2802 Clear 15 1026 44 10000 2.06 50 17:19 07.02.2021
2803 Clear 12 1026 58 10000 3.09 50 16:45 07.02.2021
2804 Clear 12 1026 58 10000 3.09 50 16:23 07.02.2021
2805 Clear 10 1025 66 10000 2.06 90 15:49 07.02.2021
2806 Clear 10 1025 66 10000 2.06 90 15:28 07.02.2021
2807 Clear 10 1025 62 10000 2.06 80 14:49 07.02.2021
2808 Clear 10 1025 62 10000 2.06 80 14:30 07.02.2021
2809 Clear 12 1024 54 10000 1.54 220 13:56 07.02.2021
2810 Clear 12 1024 54 10000 1.54 220 13:34 07.02.2021
2811 Clear 13 1024 44 10000 3.09 280 12:46 07.02.2021
2812 Clear 13 1024 44 10000 3.09 280 12:23 07.02.2021
2813 Clear 13 1024 41 10000 2.06 270 11:53 07.02.2021
2814 Clear 13 1024 41 10000 2.06 270 11:27 07.02.2021
2815 Clear 13 1024 47 10000 2.12 358 10:51 07.02.2021
2816 Clear 13 1024 47 10000 2.09 4 10:26 07.02.2021
2817 Clear 15 1024 33 10000 1.03 240 09:49 07.02.2021
2818 Clear 15 1024 33 10000 1.03 240 09:21 07.02.2021
2819 Clear 16 1024 48 10000 2.06 260 08:31 07.02.2021
2820 Clear 17 1025 45 10000 1.03 200 07:38 07.02.2021
2821 Clear 18 1025 42 10000 1.54 50 05:58 07.02.2021
2822 Clear 19 1024 39 10000 3.6 90 03:54 07.02.2021
2823 Clear 24 1021 33 10000 5.14 160 01:37 07.02.2021
2824 Clear 25 1020 18 10000 9.77 130 00:36 07.02.2021
2825 Clear 26 1020 18 10000 7.72 120 23:46 06.02.2021
2826 Clear 27 1020 6 10000 2.57 190 22:42 06.02.2021
2827 Clear 28 1021 5 10000 6.17 260 21:43 06.02.2021
2828 Clear 28 1021 5 10000 6.17 260 21:23 06.02.2021
2829 Clear 26 1022 8 10000 2.57 170 20:52 06.02.2021
2830 Clear 26 1022 8 10000 2.57 170 20:26 06.02.2021
2831 Clear 26 1023 11 10000 1.54 160 19:57 06.02.2021
2832 Clear 26 1023 11 10000 1.54 160 19:34 06.02.2021
2833 Clear 23 1024 18 10000 2.57 140 18:54 06.02.2021
2834 Clear 23 1024 18 10000 2.57 140 18:34 06.02.2021
2835 Clear 20 1025 28 10000 1.35 210 17:56 06.02.2021
2836 Clear 20 1025 28 10000 1.35 210 17:38 06.02.2021
2837 Clear 18 1025 32 10000 1.45 208 17:19 06.02.2021
2838 Clear 17 1025 36 10000 1.46 209 16:41 06.02.2021
2839 Clear 17 1025 36 10000 1.5 212 16:23 06.02.2021
2840 Clear 13 1024 54 10000 1.54 100 15:48 06.02.2021
2841 Clear 13 1024 54 10000 1.54 100 15:25 06.02.2021
2842 Clear 12 1023 58 10000 1.54 210 14:45 06.02.2021
2843 Clear 12 1023 58 10000 1.54 210 14:27 06.02.2021
2844 Clear 12 1023 58 10000 1.85 212 13:51 06.02.2021
2845 Clear 12 1023 58 10000 1.85 212 13:32 06.02.2021
2846 Clear 13 1022 54 10000 1.67 209 12:23 06.02.2021
2847 Clear 14 1022 54 10000 1.67 209 11:57 06.02.2021
2848 Clear 14 1022 54 10000 1.69 211 11:38 06.02.2021
2849 Clear 14 1022 54 10000 1.64 213 11:19 06.02.2021
2850 Clear 15 1022 51 9656 1.64 213 10:42 06.02.2021
2851 Clear 15 1022 51 9656 1.74 218 10:23 06.02.2021
2852 Clear 16 1023 44 9656 1.54 50 09:37 06.02.2021
2853 Clear 16 1023 44 9656 1.54 50 09:18 06.02.2021
2854 Clear 17 1023 42 9656 1.88 217 08:49 06.02.2021
2855 Clear 17 1023 42 9656 2.02 212 08:23 06.02.2021
2856 Clear 19 1023 37 10000 1.54 160 06:29 06.02.2021
2857 Clear 20 1022 40 10000 4.12 170 04:37 06.02.2021
2858 Clear 23 1021 31 9656 5.66 170 02:39 06.02.2021
2859 Clear 26 1020 17 9656 7.2 130 00:49 06.02.2021
2860 Clear 28 1019 8 9656 2.06 170 00:21 06.02.2021
2861 Clear 29 1019 8 10000 1.54 210 23:50 05.02.2021
2862 Clear 27 1020 9 10000 1.54 50 23:27 05.02.2021
2863 Clear 27 1021 8 10000 2.06 50 22:48 05.02.2021
2864 Clear 27 1021 8 10000 2.06 50 22:24 05.02.2021
2865 Clear 27 1022 8 10000 1.54 110 21:51 05.02.2021
2866 Clear 27 1022 8 10000 1.54 110 21:29 05.02.2021
2867 Clear 27 1022 10 9656 0.51 16 20:48 05.02.2021
2868 Clear 25 1024 15 8047 0.64 12 19:57 05.02.2021
2869 Clear 23 1025 20 8047 0.45 61 19:22 05.02.2021
2870 Clear 23 1025 20 8047 0.45 61 19:22 05.02.2021
2871 Clear 22 1025 23 8047 1.54 360 18:54 05.02.2021
2872 Clear 20 1026 26 6437 1.54 90 18:28 05.02.2021
2873 Clear 19 1026 27 6437 1.54 90 17:48 05.02.2021
2874 Clear 19 1026 27 6437 1.54 90 17:27 05.02.2021
2875 Clear 17 1026 31 6437 1.54 90 16:57 05.02.2021
2876 Clear 15 1026 36 6437 1.54 40 16:37 05.02.2021
2877 Clear 13 1026 41 8047 2.06 80 16:19 05.02.2021
2878 Clear 10 1025 43 9656 1.54 80 15:29 05.02.2021
2879 Clear 10 1025 50 9656 1.54 80 14:57 05.02.2021
2880 Clear 10 1025 50 9656 1.54 80 14:37 05.02.2021
2881 Clear 10 1025 50 9656 1.54 80 14:18 05.02.2021
2882 Clear 10 1024 50 10000 1.54 70 13:39 05.02.2021
2883 Clear 10 1024 50 10000 1.54 70 13:19 05.02.2021
2884 Clear 11 1024 54 10000 1.03 180 12:41 05.02.2021
2885 Clear 11 1024 54 10000 1.03 180 12:41 05.02.2021
2886 Clear 11 1024 43 10000 1.03 90 11:58 05.02.2021
2887 Clear 11 1024 43 10000 1.03 90 11:37 05.02.2021
2888 Clear 11 1024 43 10000 1.03 90 11:19 05.02.2021
2889 Clear 11 1024 50 10000 1.21 207 10:43 05.02.2021
2890 Clear 11 1024 50 10000 1.17 197 10:22 05.02.2021
2891 Clear 15 1025 41 10000 1.03 260 09:42 05.02.2021
2892 Clear 15 1025 41 10000 1.03 260 09:22 05.02.2021
2893 Clear 16 1025 39 10000 0.96 195 08:37 05.02.2021
2894 Clear 16 1026 39 10000 1.11 200 07:40 05.02.2021
2895 Clear 16 1026 39 10000 1.13 196 07:21 05.02.2021
2896 Clear 17 1026 39 10000 1.54 210 06:28 05.02.2021
2897 Clear 19 1025 32 10000 2.06 220 05:32 05.02.2021
2898 Clouds 23 1023 9 10000 3.09 30 02:25 05.02.2021
2899 Clear 25 1023 8 10000 4.12 40 00:58 05.02.2021
2900 Clear 25 1023 8 10000 4.12 40 00:36 05.02.2021
2901 Clear 25 1023 8 10000 4.12 40 00:18 05.02.2021
2902 Clear 25 1023 10 10000 1.34 32 23:40 04.02.2021
2903 Clear 25 1023 10 10000 1.55 23 23:22 04.02.2021
2904 Clear 25 1024 10 10000 2.06 230 22:54 04.02.2021
2905 Clear 25 1024 10 10000 2.06 230 22:30 04.02.2021
2906 Clear 24 1025 13 10000 1.68 19 21:55 04.02.2021
2907 Clear 24 1025 13 10000 2.01 17 21:37 04.02.2021
2908 Clear 23 1026 15 10000 3.09 330 20:56 04.02.2021
2909 Clear 23 1026 15 10000 3.09 330 20:34 04.02.2021
2910 Clear 22 1028 17 10000 2.06 70 19:51 04.02.2021
2911 Clear 22 1028 17 10000 2.06 70 19:26 04.02.2021
2912 Clear 19 1029 22 10000 2.06 80 18:41 04.02.2021
2913 Clear 19 1029 22 10000 2.06 80 18:22 04.02.2021
2914 Clear 18 1029 24 10000 0.59 26 17:45 04.02.2021
2915 Clear 16 1029 27 10000 1.54 80 17:22 04.02.2021
2916 Clear 13 1028 33 10000 2.06 80 16:49 04.02.2021
2917 Clear 13 1028 33 10000 2.06 80 16:20 04.02.2021
2918 Clear 8 1028 42 10000 2.06 70 15:41 04.02.2021
2919 Clear 8 1028 42 10000 2.06 70 15:21 04.02.2021
2920 Clear 7 1027 42 9656 2.06 70 14:57 04.02.2021
2921 Clear 7 1027 42 9656 2.06 70 14:39 04.02.2021
2922 Clear 7 1027 42 9656 2.06 70 14:19 04.02.2021
2923 Clear 8 1026 39 10000 2.57 70 13:43 04.02.2021
2924 Clear 9 1026 43 10000 1.54 70 12:57 04.02.2021
2925 Clear 9 1026 43 10000 1.54 70 12:27 04.02.2021
2926 Clear 10 1026 40 10000 0.61 212 11:53 04.02.2021
2927 Clear 10 1026 40 10000 0.39 213 11:32 04.02.2021
2928 Clear 11 1026 37 10000 0.39 213 10:45 04.02.2021
2929 Clear 11 1026 37 10000 0.26 228 10:18 04.02.2021
2930 Clear 12 1026 37 10000 2.06 50 09:43 04.02.2021
2931 Clear 12 1026 37 10000 2.06 50 09:19 04.02.2021
2932 Clear 15 1026 26 10000 0.11 273 08:46 04.02.2021
2933 Clear 15 1026 26 10000 0.43 356 08:23 04.02.2021
2934 Clear 16 1026 21 10000 2.06 310 07:42 04.02.2021
2935 Clear 16 1026 21 10000 2.06 310 07:20 04.02.2021
2936 Clear 17 1026 25 10000 0.55 335 06:41 04.02.2021
2937 Clear 19 1025 16 10000 2.06 50 03:54 04.02.2021
2938 Clear 19 1025 16 10000 2.06 50 03:54 04.02.2021
2939 Clear 24 1024 11 10000 2.57 350 02:26 04.02.2021
2940 Clear 26 1023 8 10000 3.6 360 00:48 04.02.2021
2941 Clear 25 1023 8 10000 3.6 320 23:40 03.02.2021
2942 Clear 25 1024 8 10000 2.57 350 22:50 03.02.2021
2943 Clear 25 1024 8 10000 2.57 350 22:23 03.02.2021
2944 Clear 25 1025 9 10000 4.12 20 21:59 03.02.2021
2945 Clear 25 1025 9 10000 4.12 20 21:40 03.02.2021
2946 Clear 25 1025 9 10000 4.12 20 21:20 03.02.2021
2947 Clear 24 1025 10 10000 2.06 340 20:46 03.02.2021
2948 Clear 22 1026 13 10000 2.06 40 20:26 03.02.2021
2949 Clear 22 1026 12 10000 2.06 310 19:46 03.02.2021
2950 Clear 20 1028 17 10000 1.18 358 19:23 03.02.2021
2951 Clear 19 1028 20 10000 1.18 358 18:49 03.02.2021
2952 Clear 17 1029 25 10000 0.76 13 18:21 03.02.2021
2953 Clear 16 1029 27 10000 0.76 13 17:54 03.02.2021
2954 Clear 14 1029 30 10000 1.54 90 17:33 03.02.2021
2955 Clear 10 1029 34 10000 2.06 80 16:59 03.02.2021
2956 Clear 10 1029 34 10000 2.06 80 16:35 03.02.2021
2957 Clear 6 1028 49 10000 2.06 70 15:50 03.02.2021
2958 Clear 6 1028 49 10000 2.06 70 15:30 03.02.2021
2959 Clear 5 1028 48 10000 1.54 70 14:54 03.02.2021
2960 Clear 5 1028 48 10000 1.54 70 14:30 03.02.2021
2961 Clear 6 1027 52 10000 2.06 70 13:56 03.02.2021
2962 Clear 6 1027 52 10000 2.06 70 13:29 03.02.2021
2963 Clear 7 1027 49 10000 2.06 80 12:55 03.02.2021
2964 Clear 7 1027 49 10000 2.06 80 12:36 03.02.2021
2965 Clear 7 1027 49 10000 2.06 80 12:18 03.02.2021
2966 Clear 7 1027 53 10000 2.06 70 11:38 03.02.2021
2967 Clear 7 1027 53 10000 2.57 60 10:59 03.02.2021
2968 Clear 9 1027 46 10000 2.57 50 10:23 03.02.2021
2969 Clear 11 1027 37 10000 1.54 80 09:53 03.02.2021
2970 Clear 11 1027 37 10000 1.54 80 09:34 03.02.2021
2971 Clear 13 1028 33 10000 2.06 300 08:55 03.02.2021
2972 Clear 13 1028 33 10000 2.06 300 08:36 03.02.2021
2973 Clear 15 1028 26 10000 2.57 330 07:43 03.02.2021
2974 Clear 16 1028 25 10000 2.06 280 06:42 03.02.2021
2975 Clear 16 1027 27 10000 1.54 30 04:55 03.02.2021
2976 Clear 18 1027 24 10000 4.12 10 04:34 03.02.2021
2977 Clear 19 1026 20 10000 4.12 20 03:48 03.02.2021
2978 Clear 20 1025 11 10000 4.12 340 02:37 03.02.2021
2979 Clear 23 1025 11 10000 4.12 340 01:21 03.02.2021
2980 Clear 24 1024 6 10000 3.09 10 00:23 03.02.2021
2981 Clear 23 1024 9 10000 1.03 90 23:41 02.02.2021
2982 Clear 23 1024 9 10000 1.03 90 23:41 02.02.2021
2983 Clear 23 1024 9 10000 1.03 90 23:22 02.02.2021
2984 Clear 22 1025 16 9656 1.03 90 22:37 02.02.2021
2985 Clear 22 1025 16 9656 1.03 90 22:19 02.02.2021
2986 Clear 21 1026 16 9656 2.57 140 21:44 02.02.2021
2987 Clear 21 1026 16 9656 2.57 140 21:22 02.02.2021
2988 Clear 20 1027 24 8047 2.57 240 20:48 02.02.2021
2989 Clear 20 1027 24 8047 2.57 240 20:21 02.02.2021
2990 Haze 17 1029 36 4828 1.54 200 19:49 02.02.2021
2991 Haze 17 1029 36 4828 1.54 200 19:30 02.02.2021
2992 Haze 17 1029 36 4828 1.54 200 19:30 02.02.2021
2993 Haze 17 1029 36 4828 1.54 200 19:30 02.02.2021
2994 Haze 14 1030 51 4828 1.54 30 18:46 02.02.2021
2995 Haze 12 1030 58 4828 2.57 70 18:26 02.02.2021
2996 Haze 11 1030 62 4828 3.09 60 17:52 02.02.2021
2997 Haze 7 1031 81 3219 3.6 60 17:24 02.02.2021
2998 Mist 6 1030 93 2414 3.09 60 16:58 02.02.2021
2999 Mist 4 1030 93 1609 2.57 60 16:38 02.02.2021
3000 Mist 4 1030 93 1609 2.57 60 16:38 02.02.2021
3001 Mist 4 1030 93 1609 2.57 60 16:18 02.02.2021
3002 Fog 3 1030 93 402 3.09 70 15:42 02.02.2021
3003 Fog 3 1030 93 402 3.09 70 15:21 02.02.2021
3004 Fog 2 1029 93 402 3.6 60 14:41 02.02.2021
3005 Haze 4 1029 93 4828 2.57 80 14:20 02.02.2021
3006 Clear 4 1029 93 9656 1.54 80 13:54 02.02.2021
3007 Clear 4 1029 93 9656 1.54 80 13:36 02.02.2021
3008 Clear 4 1029 93 9656 1.54 80 13:18 02.02.2021
3009 Clear 6 1029 81 10000 2.57 100 12:31 02.02.2021
3010 Clear 6 1029 81 10000 3.09 80 11:44 02.02.2021
3011 Clear 6 1029 81 10000 3.09 80 11:22 02.02.2021
3012 Clear 6 1029 81 10000 2.57 80 10:55 02.02.2021
3013 Clear 6 1029 81 10000 2.57 80 10:27 02.02.2021
3014 Clear 7 1029 76 10000 3.6 80 09:46 02.02.2021
3015 Clear 7 1029 76 10000 3.6 80 09:25 02.02.2021
3016 Clear 8 1029 71 10000 3.09 80 08:48 02.02.2021
3017 Clear 8 1029 71 10000 3.09 80 08:25 02.02.2021
3018 Clear 10 1030 62 10000 2.06 280 07:29 02.02.2021
3019 Clear 10 1030 66 10000 3.09 280 06:43 02.02.2021
3020 Clear 10 1030 66 10000 2.37 360 05:53 02.02.2021
3021 Clear 12 1029 58 10000 1.54 20 04:37 02.02.2021
3022 Clear 17 1027 48 10000 4.12 10 02:26 02.02.2021
3023 Clear 19 1027 37 10000 4.12 20 01:46 02.02.2021
3024 Clear 20 1027 37 10000 5.14 60 00:34 02.02.2021
3025 Clouds 19 1027 37 10000 5.14 60 23:19 01.02.2021
3026 Clouds 18 1028 42 10000 2.06 320 22:43 01.02.2021
3027 Clouds 18 1028 42 10000 2.06 320 22:24 01.02.2021
3028 Clouds 17 1029 45 10000 5.14 270 21:49 01.02.2021
3029 Clouds 17 1029 45 10000 5.14 270 21:27 01.02.2021
3030 Clouds 16 1030 48 10000 2.06 300 20:47 01.02.2021
3031 Clouds 16 1030 48 10000 2.06 300 20:25 01.02.2021
3032 Clouds 15 1031 51 10000 4.12 310 19:55 01.02.2021
3033 Clouds 15 1031 51 10000 4.12 310 19:37 01.02.2021
3034 Clouds 15 1031 51 10000 4.12 310 19:18 01.02.2021
3035 Clouds 14 1032 58 10000 4.12 20 18:41 01.02.2021
3036 Clouds 14 1032 58 10000 4.12 20 18:22 01.02.2021
3037 Clouds 14 1032 62 10000 7.2 360 17:45 01.02.2021
3038 Clouds 14 1032 62 10000 7.2 360 17:22 01.02.2021
3039 Clouds 14 1031 62 10000 3.09 330 16:42 01.02.2021
3040 Clouds 14 1031 62 10000 3.09 330 16:42 01.02.2021
3041 Clouds 14 1031 62 10000 3.09 330 16:22 01.02.2021
3042 Clouds 13 1031 67 10000 3.09 290 15:41 01.02.2021
3043 Clouds 13 1031 67 10000 3.09 290 15:19 01.02.2021
3044 Clouds 12 1031 71 10000 2.57 20 14:51 01.02.2021
3045 Clouds 12 1031 71 10000 2.57 20 14:23 01.02.2021
3046 Clouds 12 1031 71 10000 2.57 20 14:23 01.02.2021
3047 Drizzle 12 1031 66 10000 2.57 340 13:45 01.02.2021
3048 Drizzle 12 1031 66 10000 2.57 340 13:26 01.02.2021
3049 Clouds 12 1030 62 10000 4.12 320 12:44 01.02.2021
3050 Clouds 12 1030 62 10000 4.12 320 12:25 01.02.2021
3051 Clouds 12 1030 62 10000 3.09 320 11:43 01.02.2021
3052 Clouds 12 1030 62 10000 3.09 320 11:21 01.02.2021
3053 Clouds 12 1031 62 10000 3.09 300 10:47 01.02.2021
3054 Clouds 12 1031 62 10000 3.09 300 10:21 01.02.2021
3055 Clouds 12 1031 58 10000 4.12 310 09:51 01.02.2021
3056 Clouds 12 1031 58 10000 4.12 310 09:25 01.02.2021
3057 Clouds 12 1032 62 10000 2.57 330 08:56 01.02.2021
3058 Clouds 12 1032 62 10000 2.57 330 08:24 01.02.2021
3059 Clear 12 1031 58 10000 6.17 350 06:58 01.02.2021
3060 Clear 14 1029 47 10000 5.14 360 04:33 01.02.2021
3061 Clear 18 1027 27 10000 9.26 30 02:39 01.02.2021
3062 Clear 25 1024 13 10000 6.17 360 23:57 31.01.2021
3063 Clear 25 1025 12 10000 5.14 30 22:56 31.01.2021
3064 Clear 25 1025 12 10000 5.14 30 22:37 31.01.2021
3065 Clear 25 1025 12 10000 5.14 30 22:18 31.01.2021
3066 Clear 24 1026 14 10000 4.63 20 21:46 31.01.2021
3067 Clear 24 1026 14 10000 4.63 20 21:19 31.01.2021
3068 Clear 23 1027 17 10000 4.63 360 20:42 31.01.2021
3069 Clear 23 1027 17 10000 4.63 360 20:20 31.01.2021
3070 Clear 22 1028 18 10000 3.6 340 19:38 31.01.2021
3071 Clear 22 1028 18 10000 3.6 340 19:19 31.01.2021
3072 Clear 21 1028 23 10000 2.06 320 18:55 31.01.2021
3073 Clear 21 1028 23 10000 2.06 320 18:37 31.01.2021
3074 Clear 19 1028 34 10000 2.06 260 18:18 31.01.2021
3075 Clear 19 1028 34 10000 2.06 260 18:18 31.01.2021
3076 Clear 18 1029 36 10000 2.52 13 17:39 31.01.2021
3077 Clear 16 1029 39 10000 1.54 260 17:20 31.01.2021
3078 Clear 13 1028 47 10000 2.34 10 16:41 31.01.2021
3079 Clear 13 1028 47 10000 1.94 359 16:20 31.01.2021
3080 Clear 11 1028 58 10000 1.94 359 15:49 31.01.2021
3081 Clear 9 1028 61 10000 1.54 50 15:21 31.01.2021
3082 Clear 9 1027 61 10000 3.6 60 14:36 31.01.2021
3083 Clear 9 1027 61 10000 3.6 60 14:36 31.01.2021
3084 Clear 9 1027 61 10000 3.6 60 14:18 31.01.2021
3085 Clear 10 1026 57 10000 0.73 348 13:39 31.01.2021
3086 Clear 10 1026 57 10000 0.9 10 13:18 31.01.2021
3087 Clear 11 1026 54 10000 0.9 10 12:45 31.01.2021
3088 Clear 11 1026 54 10000 0.75 2 12:20 31.01.2021
3089 Clear 12 1026 54 10000 2.57 40 11:39 31.01.2021
3090 Clear 12 1026 54 10000 2.57 40 11:20 31.01.2021
3091 Clear 13 1025 54 10000 0.49 5 10:45 31.01.2021
3092 Clear 13 1025 54 10000 0.32 4 10:26 31.01.2021
3093 Clear 13 1026 47 10000 2.06 90 09:41 31.01.2021
3094 Clear 16 1026 39 10000 1.54 240 08:52 31.01.2021
3095 Clear 16 1026 39 10000 1.54 240 08:30 31.01.2021
3096 Clear 17 1026 45 10000 0.36 48 06:45 31.01.2021
3097 Clear 20 1025 32 10000 3.6 130 03:46 31.01.2021
3098 Clear 24 1023 20 10000 2.57 20 00:28 31.01.2021
3099 Clouds 25 1023 18 10000 4.12 360 23:52 30.01.2021
3100 Clouds 25 1023 18 10000 4.12 360 23:24 30.01.2021
3101 Clouds 24 1024 23 10000 3.09 360 22:40 30.01.2021
3102 Clouds 24 1024 23 10000 3.09 360 22:22 30.01.2021
3103 Clouds 22 1025 28 10000 3.09 300 21:39 30.01.2021
3104 Clouds 22 1025 28 10000 3.09 300 21:18 30.01.2021
3105 Clouds 21 1026 35 9656 2.57 80 20:39 30.01.2021
3106 Clouds 20 1027 37 8047 3.09 290 19:59 30.01.2021
3107 Clouds 20 1027 37 8047 3.09 290 19:40 30.01.2021
3108 Clouds 20 1027 37 8047 3.09 290 19:19 30.01.2021
3109 Clouds 19 1028 39 8047 1.54 120 18:40 30.01.2021
3110 Clouds 19 1028 39 8047 1.54 120 18:20 30.01.2021
3111 Clouds 17 1028 48 8047 1.54 70 17:47 30.01.2021
3112 Clouds 16 1028 48 8047 1.54 70 17:19 30.01.2021
3113 Clouds 12 1028 62 8047 2.57 80 16:41 30.01.2021
3114 Clouds 12 1028 62 8047 2.57 80 16:22 30.01.2021
3115 Clouds 10 1027 71 9656 3.09 80 15:49 30.01.2021
3116 Clouds 10 1027 71 9656 3.09 80 15:24 30.01.2021
3117 Clouds 11 1027 62 10000 2.57 80 14:52 30.01.2021
3118 Clouds 11 1027 62 10000 2.57 80 14:32 30.01.2021
3119 Clouds 11 1026 62 10000 2.57 70 13:57 30.01.2021
3120 Clouds 11 1026 62 10000 2.57 70 13:21 30.01.2021
3121 Clouds 12 1026 58 10000 3.09 80 12:44 30.01.2021
3122 Clouds 12 1026 58 10000 3.09 80 12:26 30.01.2021
3123 Clouds 14 1026 51 10000 1.54 270 11:46 30.01.2021
3124 Clouds 14 1027 47 10000 0.56 190 10:56 30.01.2021
3125 Clouds 14 1027 47 10000 0.38 167 10:27 30.01.2021
3126 Clouds 15 1027 44 10000 1.54 50 09:41 30.01.2021
3127 Clouds 15 1027 44 10000 1.54 50 09:22 30.01.2021
3128 Clouds 15 1027 41 10000 1.54 170 08:44 30.01.2021
3129 Clouds 16 1027 41 10000 1.03 250 07:41 30.01.2021
3130 Clouds 16 1027 39 10000 1.03 90 06:25 30.01.2021
3131 Clear 19 1025 26 10000 3.09 120 03:46 30.01.2021
3132 Clouds 20 1025 19 10000 6.17 120 02:52 30.01.2021
3133 Clouds 20 1025 19 10000 6.17 120 02:21 30.01.2021
3134 Clouds 23 1025 20 10000 4.12 140 00:53 30.01.2021
3135 Clouds 23 1025 20 10000 4.12 140 00:21 30.01.2021
3136 Clouds 23 1025 27 10000 4.12 100 23:50 29.01.2021
3137 Clouds 23 1025 27 10000 4.12 100 23:27 29.01.2021
3138 Clouds 22 1026 30 10000 1.65 102 22:45 29.01.2021
3139 Clouds 22 1026 30 10000 1.54 77 22:25 29.01.2021
3140 Clouds 20 1027 32 9656 2.06 70 21:45 29.01.2021
3141 Clouds 20 1027 32 9656 2.06 70 21:26 29.01.2021
3142 Clouds 19 1029 39 9656 1.53 54 20:43 29.01.2021
3143 Clouds 19 1029 39 9656 1.44 42 20:21 29.01.2021
3144 Clouds 18 1030 45 9656 1.49 43 19:39 29.01.2021
3145 Clouds 18 1030 45 9656 1.25 33 19:20 29.01.2021
3146 Clouds 17 1031 48 9656 2.06 220 18:49 29.01.2021
3147 Clouds 12 1031 66 9656 1.11 32 17:47 29.01.2021
3148 Clouds 12 1031 66 9656 1.04 39 17:22 29.01.2021
3149 Clouds 8 1031 81 9656 3.09 80 16:49 29.01.2021
3150 Clouds 8 1031 81 9656 3.09 80 16:24 29.01.2021
3151 Clouds 8 1031 81 9656 3.09 80 16:24 29.01.2021
3152 Clouds 7 1031 87 9656 2.06 60 15:55 29.01.2021
3153 Clouds 7 1031 87 9656 2.06 60 15:36 29.01.2021
3154 Clouds 7 1031 87 9656 2.06 60 15:18 29.01.2021
3155 Clouds 7 1030 81 9656 2.57 50 14:22 29.01.2021
3156 Clouds 8 1030 81 10000 1.54 70 13:46 29.01.2021
3157 Clouds 8 1030 81 10000 1.54 70 13:27 29.01.2021
3158 Clouds 9 1030 76 10000 2.57 120 12:36 29.01.2021
3159 Clouds 9 1030 76 10000 2.57 120 12:18 29.01.2021
3160 Clouds 9 1030 76 10000 2.57 70 11:41 29.01.2021
3161 Clouds 9 1030 76 10000 2.57 70 11:18 29.01.2021
3162 Clouds 10 1031 71 10000 2.06 250 10:46 29.01.2021
3163 Clouds 10 1031 71 10000 2.06 250 10:22 29.01.2021
3164 Clouds 10 1031 71 10000 2.06 240 09:39 29.01.2021
3165 Clouds 11 1031 66 10000 4.12 310 08:50 29.01.2021
3166 Clouds 11 1031 66 10000 4.12 310 08:26 29.01.2021
3167 Clouds 12 1031 62 10000 5.14 290 07:47 29.01.2021
3168 Clouds 12 1031 62 10000 5.14 290 07:26 29.01.2021
3169 Clouds 12 1031 62 10000 5.14 290 07:26 29.01.2021
3170 Clouds 12 1031 62 10000 4.63 290 06:48 29.01.2021
3171 Clouds 13 1031 58 10000 4.63 290 04:53 29.01.2021
3172 Clouds 21 1028 37 10000 3.09 300 00:52 29.01.2021
3173 Clouds 21 1028 37 10000 3.09 300 00:23 29.01.2021
3174 Clouds 22 1028 33 10000 2.52 30 23:57 28.01.2021
3175 Clouds 22 1028 33 10000 2.43 32 23:39 28.01.2021
3176 Clouds 22 1028 33 10000 2.43 32 23:39 28.01.2021
3177 Clouds 22 1028 33 10000 2.67 46 23:20 28.01.2021
3178 Clouds 22 1028 30 10000 3.09 260 22:41 28.01.2021
3179 Clouds 22 1028 30 10000 3.09 260 22:22 28.01.2021
3180 Clouds 21 1029 32 10000 3.27 56 21:44 28.01.2021
3181 Clouds 21 1029 32 10000 3.2 50 21:26 28.01.2021
3182 Clouds 20 1030 37 10000 2.06 10 20:46 28.01.2021
3183 Clouds 20 1030 37 10000 2.06 10 20:19 28.01.2021
3184 Clouds 20 1030 37 10000 2.06 10 20:19 28.01.2021
3185 Clouds 20 1030 37 10000 2.06 10 20:19 28.01.2021
3186 Clouds 20 1030 34 10000 2.91 35 19:54 28.01.2021
3187 Clouds 18 1031 42 10000 4.12 310 19:32 28.01.2021
3188 Clouds 17 1031 45 10000 2.06 290 18:53 28.01.2021
3189 Clouds 15 1033 51 10000 3.09 320 18:34 28.01.2021
3190 Clouds 14 1033 54 10000 4.12 300 17:58 28.01.2021
3191 Clouds 14 1033 54 10000 4.12 300 17:40 28.01.2021
3192 Clouds 14 1033 54 10000 4.12 300 17:21 28.01.2021
3193 Clouds 12 1033 62 10000 4.63 290 16:43 28.01.2021
3194 Clouds 12 1033 62 10000 4.63 290 16:21 28.01.2021
3195 Clouds 10 1032 71 10000 4.12 310 15:36 28.01.2021
3196 Clouds 10 1032 71 10000 5.14 300 14:55 28.01.2021
3197 Clouds 10 1032 71 10000 5.14 300 14:37 28.01.2021
3198 Clouds 10 1032 71 10000 5.14 300 14:18 28.01.2021
3199 Clouds 10 1031 71 10000 4.12 300 13:39 28.01.2021
3200 Clouds 10 1031 76 10000 3.6 290 12:51 28.01.2021
3201 Clouds 10 1031 76 10000 3.6 290 12:33 28.01.2021
3202 Clouds 11 1031 71 10000 4.12 300 11:58 28.01.2021
3203 Clouds 11 1031 71 10000 4.12 300 11:39 28.01.2021
3204 Clouds 11 1031 71 10000 4.12 300 11:18 28.01.2021
3205 Clouds 12 1031 62 10000 3.6 330 10:49 28.01.2021
3206 Clouds 12 1031 62 10000 3.6 330 10:26 28.01.2021
3207 Clouds 13 1031 58 10000 4.12 340 09:42 28.01.2021
3208 Clouds 13 1031 58 10000 4.12 340 09:20 28.01.2021
3209 Clouds 13 1031 62 10000 4.12 330 08:46 28.01.2021
3210 Clouds 13 1031 62 10000 4.63 330 07:51 28.01.2021
3211 Clouds 13 1031 62 10000 4.63 330 07:22 28.01.2021
3212 Clouds 14 1031 62 10000 5.14 320 06:48 28.01.2021
3213 Clouds 15 1030 58 10000 5.14 340 04:31 28.01.2021
3214 Clouds 16 1029 55 10000 5.14 350 03:42 28.01.2021
3215 Clouds 18 1026 45 8047 9.26 10 00:50 28.01.2021
3216 Clouds 24 1024 25 8047 9.77 30 23:41 27.01.2021
3217 Clouds 24 1024 25 8047 9.77 30 23:22 27.01.2021
3218 Clear 25 1025 17 10000 4.02 330 22:40 27.01.2021
3219 Clear 25 1025 17 10000 4.02 330 22:19 27.01.2021
3220 Clear 25 1025 17 10000 4.02 330 22:19 27.01.2021
3221 Clouds 25 1025 18 10000 4.12 330 21:42 27.01.2021
3222 Clouds 25 1025 18 10000 4.12 330 21:22 27.01.2021
3223 Clear 25 1014 21 10000 4.25 32 20:42 27.01.2021
3224 Clouds 22 1028 18 10000 3.6 360 20:18 27.01.2021
3225 Clouds 22 1028 18 10000 3.6 360 19:41 27.01.2021
3226 Clouds 22 1028 18 10000 3.6 360 19:41 27.01.2021
3227 Clouds 22 1028 18 10000 3.6 360 19:21 27.01.2021
3228 Clouds 21 1029 28 8047 3.42 24 18:43 27.01.2021
3229 Clouds 21 1029 28 8047 2.65 17 18:23 27.01.2021
3230 Clouds 21 1029 28 8047 2.65 16 17:51 27.01.2021
3231 Clouds 19 1029 34 8047 1.88 14 17:31 27.01.2021
3232 Clouds 19 1018 35 10000 1.88 13 16:51 27.01.2021
3233 Clouds 18 1018 36 10000 1.26 11 16:32 27.01.2021
3234 Clouds 18 1018 36 10000 1.26 11 15:52 27.01.2021
3235 Clouds 18 1018 36 10000 1.26 11 15:33 27.01.2021
3236 Clouds 16 1018 39 10000 0.68 22 14:47 27.01.2021
3237 Clouds 15 1017 39 10000 0.55 30 14:23 27.01.2021
3238 Clouds 15 1017 39 10000 0.54 30 13:48 27.01.2021
3239 Clouds 16 1016 39 10000 0.36 67 13:26 27.01.2021
3240 Clouds 16 1016 39 10000 0.36 67 12:41 27.01.2021
3241 Clouds 16 1016 38 10000 0.3 76 12:22 27.01.2021
3242 Clouds 16 1016 38 10000 0.3 76 11:46 27.01.2021
3243 Clouds 16 1015 38 10000 0.37 38 11:22 27.01.2021
3244 Clouds 16 1015 38 10000 0.37 38 10:41 27.01.2021
3245 Clouds 17 1015 37 10000 0.47 330 10:21 27.01.2021
3246 Clouds 17 1015 37 10000 0.45 329 09:49 27.01.2021
3247 Clouds 17 1015 36 10000 0.42 224 08:59 27.01.2021
3248 Clouds 17 1015 36 10000 0.42 224 08:32 27.01.2021
3249 Clouds 17 1015 35 10000 0.66 160 07:43 27.01.2021
3250 Clear 18 1015 34 10000 0.59 171 07:19 27.01.2021
3251 Clouds 18 1015 35 10000 1.2 204 06:19 27.01.2021
3252 Clouds 18 1015 35 10000 1.2 204 05:44 27.01.2021
3253 Clouds 20 1013 31 10000 1.94 199 03:35 27.01.2021
3254 Clear 21 1012 29 10000 2.83 193 02:23 27.01.2021
3255 Clear 21 1012 29 10000 2.83 193 01:50 27.01.2021
3256 Clear 25 1021 23 10000 2.68 70 00:34 27.01.2021
3257 Clear 25 1021 23 10000 2.68 70 23:49 26.01.2021
3258 Clear 25 1021 23 10000 2.68 70 23:30 26.01.2021
3259 Clear 25 1021 23 10000 2.68 70 22:51 26.01.2021
3260 Clear 25 1021 23 10000 2.68 70 22:24 26.01.2021
3261 Clouds 25 1021 23 10000 3.09 70 21:54 26.01.2021
3262 Clouds 25 1021 23 10000 3.09 70 21:34 26.01.2021
3263 Clouds 24 1023 27 10000 3.09 140 20:58 26.01.2021
3264 Clouds 24 1023 27 10000 3.09 140 20:40 26.01.2021
3265 Clouds 24 1023 27 10000 3.09 140 20:21 26.01.2021
3266 Clear 23 1024 28 10000 2.06 70 19:45 26.01.2021
3267 Clear 23 1024 28 10000 2.06 70 19:22 26.01.2021
3268 Clear 20 1025 37 10000 1.16 156 18:48 26.01.2021
3269 Clear 20 1025 37 10000 0.98 136 18:27 26.01.2021
3270 Clear 19 1025 39 10000 2.06 210 17:55 26.01.2021
3271 Clear 19 1025 39 10000 2.06 210 17:37 26.01.2021
3272 Clear 13 1025 54 10000 1.03 50 16:56 26.01.2021
3273 Clear 13 1025 54 10000 1.03 50 16:37 26.01.2021
3274 Clear 13 1025 54 10000 1.03 50 16:19 26.01.2021
3275 Clear 10 1025 62 10000 3.09 60 15:44 26.01.2021
3276 Clear 10 1025 62 10000 3.09 60 15:24 26.01.2021
3277 Clear 11 1024 58 10000 1.03 30 14:45 26.01.2021
3278 Clear 11 1024 58 10000 1.03 30 14:25 26.01.2021
3279 Clear 10 1024 66 10000 2.06 50 13:35 26.01.2021
3280 Clear 12 1023 62 10000 1.54 150 12:59 26.01.2021
3281 Clear 12 1023 62 10000 1.54 150 12:59 26.01.2021
3282 Clear 12 1023 62 10000 1.54 150 12:40 26.01.2021
3283 Clear 12 1023 62 10000 1.54 150 12:22 26.01.2021
3284 Clear 13 1023 58 10000 1.54 230 11:51 26.01.2021
3285 Clear 13 1023 58 10000 1.54 230 11:25 26.01.2021
3286 Clear 14 1023 58 10000 2.06 270 10:42 26.01.2021
3287 Clear 14 1023 58 10000 2.06 270 10:22 26.01.2021
3288 Clear 15 1024 51 10000 2.06 140 09:40 26.01.2021
3289 Clear 15 1024 51 10000 2.06 140 09:22 26.01.2021
3290 Clear 15 1024 51 10000 2.57 120 08:49 26.01.2021
3291 Clear 15 1024 51 10000 2.57 120 08:18 26.01.2021
3292 Clear 18 1022 48 10000 4.02 170 07:25 26.01.2021
3293 Clear 18 1022 48 10000 4.02 170 05:58 26.01.2021
3294 Clear 18 1022 48 10000 4.02 170 05:38 26.01.2021
3295 Clouds 18 1023 48 10000 4.12 170 03:42 26.01.2021
3296 Clouds 20 1022 40 10000 6.17 160 01:35 26.01.2021
3297 Clouds 23 1020 28 10000 7.72 130 00:36 26.01.2021
3298 Clouds 26 1020 15 10000 2.06 260 23:33 25.01.2021
3299 Clouds 25 1021 15 10000 2.06 270 22:51 25.01.2021
3300 Clouds 25 1021 15 10000 2.06 270 22:33 25.01.2021
3301 Clear 24 1022 17 10000 2.06 80 21:48 25.01.2021
3302 Clear 24 1022 17 10000 2.06 80 21:22 25.01.2021
3303 Clear 24 1022 19 10000 1.59 176 20:45 25.01.2021
3304 Clear 23 1022 19 10000 1.41 180 20:27 25.01.2021
3305 Clear 21 1024 28 10000 2.06 100 19:50 25.01.2021
3306 Clear 21 1024 28 10000 2.06 100 19:27 25.01.2021
3307 Clear 19 1025 34 10000 1.54 110 18:48 25.01.2021
3308 Clear 19 1025 34 10000 1.54 110 18:48 25.01.2021
3309 Clear 19 1025 34 10000 1.54 110 18:26 25.01.2021
3310 Clear 19 1025 37 10000 1.54 140 17:49 25.01.2021
3311 Clear 17 1025 42 10000 0.98 216 17:26 25.01.2021
3312 Clear 13 1026 50 10000 2.57 80 16:57 25.01.2021
3313 Clear 13 1026 50 10000 2.57 80 16:39 25.01.2021
3314 Clear 13 1026 50 10000 2.57 80 16:20 25.01.2021
3315 Clear 9 1025 61 10000 2.06 80 15:41 25.01.2021
3316 Clear 9 1025 61 10000 2.06 80 15:22 25.01.2021
3317 Clear 11 1024 62 10000 1.54 210 14:39 25.01.2021
3318 Clear 11 1024 62 10000 1.54 210 14:18 25.01.2021
3319 Clear 11 1024 58 10000 1.28 185 13:44 25.01.2021
3320 Clear 11 1024 58 10000 1.28 185 13:44 25.01.2021
3321 Clear 11 1024 58 10000 1.3 194 13:22 25.01.2021
3322 Clear 11 1024 58 10000 1.22 192 12:44 25.01.2021
3323 Clear 11 1024 58 10000 1.2 204 12:19 25.01.2021
3324 Clear 12 1024 58 10000 2.06 260 11:31 25.01.2021
3325 Clear 13 1024 54 10000 1.54 180 10:53 25.01.2021
3326 Clear 13 1024 54 10000 1.54 180 10:22 25.01.2021
3327 Clear 14 1025 47 10000 1.54 60 09:54 25.01.2021
3328 Clear 14 1025 47 10000 1.54 60 09:31 25.01.2021
3329 Clouds 14 1025 47 10000 1.54 120 08:48 25.01.2021
3330 Clouds 14 1025 47 10000 1.54 120 08:23 25.01.2021
3331 Clouds 15 1025 38 10000 1.54 170 07:29 25.01.2021
3332 Clouds 16 1025 36 10000 3.6 130 06:47 25.01.2021
3333 Clouds 20 1022 24 10000 5.14 140 02:59 25.01.2021
3334 Clouds 22 1023 21 10000 4.12 120 00:48 25.01.2021
3335 Clouds 22 1023 24 9656 3.09 120 23:40 24.01.2021
3336 Clouds 22 1023 24 9656 3.09 120 23:18 24.01.2021
3337 Clouds 21 1023 28 9656 1.54 90 22:41 24.01.2021
3338 Clouds 21 1023 28 9656 1.54 90 22:18 24.01.2021
3339 Clouds 21 1024 28 9656 1.03 90 21:44 24.01.2021
3340 Clouds 21 1024 28 9656 1.03 90 21:19 24.01.2021
3341 Clouds 20 1025 32 9656 2.06 70 20:41 24.01.2021
3342 Clouds 20 1025 32 9656 2.06 70 20:19 24.01.2021
3343 Clouds 19 1027 37 10000 2.57 80 19:50 24.01.2021
3344 Clouds 19 1027 37 10000 2.57 80 19:26 24.01.2021
3345 Clouds 18 1027 39 10000 2.57 100 18:56 24.01.2021
3346 Clouds 18 1027 39 10000 2.57 100 18:37 24.01.2021
3347 Clouds 18 1027 39 10000 2.57 100 18:19 24.01.2021
3348 Clouds 18 1027 39 10000 2.06 80 17:47 24.01.2021
3349 Clouds 18 1027 39 10000 2.06 80 17:20 24.01.2021
3350 Clouds 14 1027 51 10000 1.54 70 16:42 24.01.2021
3351 Clouds 14 1027 51 10000 1.54 70 16:23 24.01.2021
3352 Clouds 14 1027 47 10000 1.03 60 15:49 24.01.2021
3353 Clouds 11 1026 58 10000 1.54 80 15:22 24.01.2021
3354 Clouds 11 1026 66 10000 3.09 60 14:58 24.01.2021
3355 Clouds 11 1026 66 10000 3.09 60 14:36 24.01.2021
3356 Clouds 13 1025 51 10000 2.06 230 13:40 24.01.2021
3357 Clouds 13 1025 51 10000 2.06 230 13:20 24.01.2021
3358 Clouds 13 1025 51 10000 1.54 250 12:42 24.01.2021
3359 Clouds 13 1025 51 10000 1.54 250 12:19 24.01.2021
3360 Clouds 14 1025 47 10000 0.71 176 11:49 24.01.2021
3361 Clouds 14 1025 47 10000 0.93 181 11:23 24.01.2021
3362 Clouds 14 1025 47 10000 1.03 230 10:43 24.01.2021
3363 Clouds 14 1025 47 10000 1.03 230 10:18 24.01.2021
3364 Clouds 15 1026 44 10000 1.03 240 09:22 24.01.2021
3365 Clouds 15 1026 44 10000 1.54 180 08:55 24.01.2021
3366 Clouds 16 1026 42 10000 2.06 200 07:41 24.01.2021
3367 Clouds 20 1024 30 10000 4.12 180 02:39 24.01.2021
3368 Clouds 21 1024 24 10000 1.73 186 01:46 24.01.2021
3369 Clouds 23 1023 23 10000 2.06 260 00:24 24.01.2021
3370 Clouds 24 1023 22 9656 0.69 87 23:47 23.01.2021
3371 Clouds 24 1023 22 9656 0.82 33 23:26 23.01.2021
3372 Clouds 24 1023 22 9656 0.82 33 23:26 23.01.2021
3373 Clouds 24 1024 23 9656 2.06 160 22:51 23.01.2021
3374 Clouds 24 1024 23 9656 2.06 160 22:32 23.01.2021
3375 Clouds 23 1025 27 9656 2.06 60 21:51 23.01.2021
3376 Clouds 23 1025 27 9656 2.06 60 21:22 23.01.2021
3377 Clouds 22 1026 30 9656 1.22 6 20:47 23.01.2021
3378 Clouds 22 1026 30 9656 0.94 23 20:24 23.01.2021
3379 Clouds 21 1027 35 9656 2.06 60 19:46 23.01.2021
3380 Clouds 21 1027 35 9656 2.06 60 19:22 23.01.2021
3381 Clouds 21 1028 37 10000 2.06 150 18:49 23.01.2021
3382 Clouds 20 1028 37 10000 2.06 150 18:26 23.01.2021
3383 Clouds 19 1029 45 10000 0.89 43 17:48 23.01.2021
3384 Clouds 18 1029 45 10000 0.72 50 17:27 23.01.2021
3385 Clouds 17 1028 51 10000 2.06 80 16:49 23.01.2021
3386 Clouds 15 1028 51 10000 2.06 80 16:25 23.01.2021
3387 Clouds 13 1028 58 10000 2.06 20 15:40 23.01.2021
3388 Clouds 13 1028 58 10000 2.06 20 15:21 23.01.2021
3389 Clouds 11 1027 62 10000 1.54 50 14:32 23.01.2021
3390 Clouds 12 1026 62 10000 2.57 60 13:54 23.01.2021
3391 Clouds 12 1026 62 10000 2.57 60 13:35 23.01.2021
3392 Clouds 12 1026 62 10000 3.09 60 12:57 23.01.2021
3393 Clouds 13 1026 54 10000 0.77 183 12:27 23.01.2021
3394 Clouds 14 1026 47 10000 1.54 170 11:45 23.01.2021
3395 Clouds 14 1026 47 10000 1.54 170 11:25 23.01.2021
3396 Clouds 15 1026 44 10000 1.54 270 10:48 23.01.2021
3397 Clouds 15 1026 44 10000 1.54 270 10:19 23.01.2021
3398 Clouds 15 1026 44 10000 0.65 161 09:46 23.01.2021
3399 Clouds 15 1027 41 10000 1.54 150 08:54 23.01.2021
3400 Clouds 15 1027 41 10000 1.54 150 08:31 23.01.2021
3401 Clouds 16 1027 39 10000 2.57 230 07:25 23.01.2021
3402 Clouds 20 1025 32 10000 4.12 160 03:36 23.01.2021
3403 Clouds 26 1023 10 10000 1.03 110 00:41 23.01.2021
3404 Clouds 25 1023 10 10000 1.54 30 23:39 22.01.2021
3405 Clouds 25 1024 18 10000 3.09 110 22:53 22.01.2021
3406 Clouds 25 1024 18 10000 3.09 110 22:32 22.01.2021
3407 Clouds 24 1025 20 10000 2.06 290 21:46 22.01.2021
3408 Clouds 24 1025 20 10000 2.06 290 21:46 22.01.2021
3409 Clouds 24 1025 20 10000 2.06 290 21:46 22.01.2021
3410 Clouds 24 1025 20 10000 2.06 290 21:26 22.01.2021
3411 Clouds 24 1025 22 10000 1.54 250 20:56 22.01.2021
3412 Clouds 24 1025 22 10000 1.54 250 20:37 22.01.2021
3413 Clouds 21 1028 32 10000 3.09 40 19:55 22.01.2021
3414 Clouds 21 1028 32 10000 3.09 40 19:22 22.01.2021
3415 Clear 20 1029 32 10000 1.03 320 18:55 22.01.2021
3416 Clear 20 1029 32 10000 1.03 320 18:55 22.01.2021
3417 Clear 20 1029 32 10000 1.03 320 18:30 22.01.2021
3418 Clear 19 1029 34 10000 1.54 210 17:58 22.01.2021
3419 Clear 20 1029 34 10000 1.54 210 17:40 22.01.2021
3420 Clear 17 1029 41 10000 0.73 33 16:59 22.01.2021
3421 Clear 15 1029 41 10000 0.73 33 16:36 22.01.2021
3422 Clear 11 1028 54 10000 1.54 60 15:59 22.01.2021
3423 Clear 12 1028 54 10000 1.54 60 15:26 22.01.2021
3424 Clear 9 1028 61 10000 2.06 60 14:50 22.01.2021
3425 Clear 9 1028 61 10000 2.06 60 14:28 22.01.2021
3426 Clear 10 1027 57 10000 1.54 100 13:46 22.01.2021
3427 Clear 10 1027 57 10000 1.54 100 13:27 22.01.2021
3428 Clear 10 1027 57 10000 1.03 60 12:42 22.01.2021
3429 Clear 10 1027 57 10000 1.03 60 12:19 22.01.2021
3430 Clear 10 1027 57 10000 1.54 60 11:42 22.01.2021
3431 Clear 11 1027 54 10000 1.03 50 10:49 22.01.2021
3432 Clear 11 1027 54 10000 1.03 50 10:29 22.01.2021
3433 Clear 12 1027 54 10000 1.54 50 09:46 22.01.2021
3434 Clear 13 1027 44 10000 1.03 200 08:59 22.01.2021
3435 Clear 13 1027 44 10000 1.03 200 08:32 22.01.2021
3436 Clear 15 1027 39 10000 1.54 180 08:00 22.01.2021
3437 Clear 16 1027 36 10000 1.54 250 06:24 22.01.2021
3438 Clear 20 1025 23 10000 7.72 140 02:38 22.01.2021
3439 Clear 24 1024 15 10000 2.57 90 00:31 22.01.2021
3440 Clear 25 1024 14 10000 1.54 160 23:50 21.01.2021
3441 Clear 25 1024 14 10000 1.54 160 23:22 21.01.2021
3442 Clear 24 1025 14 10000 3.09 100 22:48 21.01.2021
3443 Clear 26 1025 12 10000 2.57 150 22:18 21.01.2021
3444 Clear 24 1026 14 10000 1.54 80 21:41 21.01.2021
3445 Clear 24 1026 14 10000 1.54 80 21:19 21.01.2021
3446 Clear 23 1028 14 10000 1.54 100 20:47 21.01.2021
3447 Clear 23 1028 14 10000 1.54 100 20:22 21.01.2021
3448 Clear 22 1028 23 10000 3.6 80 19:51 21.01.2021
3449 Clear 21 1029 37 9656 1.54 100 19:26 21.01.2021
3450 Clear 20 1030 42 9656 2.57 150 18:49 21.01.2021
3451 Clear 18 1030 51 9656 2.57 70 18:23 21.01.2021
3452 Clear 18 1031 59 8047 1.54 100 17:59 21.01.2021
3453 Clear 16 1031 59 8047 1.54 100 17:40 21.01.2021
3454 Clear 14 1031 67 9656 1.54 100 17:18 21.01.2021
3455 Clear 14 1031 67 9656 2.57 70 16:41 21.01.2021
3456 Clear 12 1031 76 9656 1.54 60 16:22 21.01.2021
3457 Clear 13 1031 76 9656 1.03 100 15:48 21.01.2021
3458 Clear 11 1031 76 9656 1.03 100 15:28 21.01.2021
3459 Clear 9 1030 87 9656 1.54 60 14:47 21.01.2021
3460 Clear 9 1030 87 9656 1.54 60 14:25 21.01.2021
3461 Clear 8 1030 81 10000 2.06 60 13:46 21.01.2021
3462 Clear 8 1030 81 10000 2.06 60 13:26 21.01.2021
3463 Clear 9 1030 87 10000 3.09 70 12:45 21.01.2021
3464 Clear 9 1030 87 10000 3.09 70 12:25 21.01.2021
3465 Clear 9 1029 81 10000 2.06 80 11:53 21.01.2021
3466 Clear 10 1029 81 10000 2.06 80 11:32 21.01.2021
3467 Clear 10 1030 81 10000 2.57 60 10:53 21.01.2021
3468 Clear 10 1030 81 10000 2.57 60 10:34 21.01.2021
3469 Clouds 11 1030 82 10000 2.06 320 09:50 21.01.2021
3470 Clouds 11 1030 82 10000 2.06 320 09:30 21.01.2021
3471 Clouds 13 1030 72 10000 2.06 280 08:57 21.01.2021
3472 Clouds 13 1030 72 10000 2.06 280 08:27 21.01.2021
3473 Clear 14 1030 72 10000 2.06 290 07:45 21.01.2021
3474 Clear 14 1030 72 10000 2.06 290 07:25 21.01.2021
3475 Clouds 16 1030 55 10000 1.54 170 05:59 21.01.2021
3476 Clouds 16 1029 51 10000 2.06 160 04:29 21.01.2021
3477 Clouds 19 1027 45 10000 5.14 150 01:33 21.01.2021
3478 Clouds 22 1027 33 10000 5.14 180 00:41 21.01.2021
3479 Clouds 21 1027 35 9656 4.12 150 23:44 20.01.2021
3480 Clouds 21 1027 35 9656 4.12 150 23:24 20.01.2021
3481 Clouds 22 1027 33 9656 2.06 120 22:50 20.01.2021
3482 Clouds 22 1027 33 9656 2.06 120 22:29 20.01.2021
3483 Clouds 21 1028 35 9656 0.87 134 21:49 20.01.2021
3484 Clouds 21 1028 35 9656 0.34 1 21:22 20.01.2021
3485 Clouds 20 1030 37 8047 3.09 90 20:51 20.01.2021
3486 Clouds 20 1030 37 8047 3.09 90 20:21 20.01.2021
3487 Clouds 19 1031 39 8047 1.12 5 19:47 20.01.2021
3488 Clouds 19 1031 39 8047 1.72 11 19:28 20.01.2021
3489 Clouds 16 1032 51 6437 2.06 320 18:43 20.01.2021
3490 Clouds 16 1032 51 6437 2.06 320 18:20 20.01.2021
3491 Haze 14 1032 67 4828 1.83 5 17:44 20.01.2021
3492 Haze 14 1032 67 4828 1.67 4 17:26 20.01.2021
3493 Haze 11 1031 76 4828 3.09 70 16:47 20.01.2021
3494 Haze 11 1031 76 4828 3.09 70 16:22 20.01.2021
3495 Clouds 11 1031 81 6437 3.09 90 15:38 20.01.2021
3496 Clouds 9 1030 76 9656 3.09 60 14:58 20.01.2021
3497 Clouds 9 1030 76 9656 3.09 60 14:39 20.01.2021
3498 Clouds 9 1030 76 9656 3.09 60 14:19 20.01.2021
3499 Clouds 10 1029 71 10000 2.06 250 13:37 20.01.2021
3500 Clouds 10 1029 62 10000 1.54 200 12:56 20.01.2021
3501 Clouds 10 1029 62 10000 1.54 200 12:22 20.01.2021
3502 Clouds 10 1028 66 10000 1.54 80 11:40 20.01.2021
3503 Clouds 10 1028 66 10000 1.54 80 11:20 20.01.2021
3504 Clouds 11 1029 58 10000 3.09 40 10:46 20.01.2021
3505 Clouds 11 1029 58 10000 3.09 40 10:25 20.01.2021
3506 Clouds 13 1029 54 10000 3.09 270 09:38 20.01.2021
3507 Clouds 13 1029 54 10000 3.09 270 09:19 20.01.2021
3508 Clouds 14 1029 47 10000 4.12 290 08:41 20.01.2021
3509 Clouds 14 1029 47 10000 4.12 290 08:21 20.01.2021
3510 Clouds 15 1029 44 10000 3.6 290 07:38 20.01.2021
3511 Clouds 15 1029 44 10000 3.6 290 07:18 20.01.2021
3512 Clouds 17 1027 51 10000 3.09 80 04:29 20.01.2021
3513 Clouds 21 1025 33 10000 5.14 150 01:51 20.01.2021
3514 Clouds 23 1025 27 10000 2.57 80 00:58 20.01.2021
3515 Clouds 23 1024 27 10000 2.57 10 23:54 19.01.2021
3516 Clouds 23 1024 27 10000 2.57 10 23:35 19.01.2021
3517 Clouds 23 1025 25 10000 4.12 150 22:58 19.01.2021
3518 Clouds 23 1025 25 10000 4.12 150 22:40 19.01.2021
3519 Clouds 23 1025 25 10000 4.12 150 22:21 19.01.2021
3520 Clouds 22 1026 28 10000 1.54 100 21:55 19.01.2021
3521 Clouds 22 1026 28 10000 1.54 100 21:34 19.01.2021
3522 Clouds 22 1027 30 10000 2.57 100 20:50 19.01.2021
3523 Clouds 22 1027 30 10000 2.57 100 20:29 19.01.2021
3524 Clouds 21 1028 32 10000 0.66 83 19:56 19.01.2021
3525 Clouds 21 1028 32 10000 0.61 82 19:36 19.01.2021
3526 Clouds 19 1028 39 10000 2.06 30 19:18 19.01.2021
3527 Clouds 19 1029 42 10000 0.87 82 18:38 19.01.2021
3528 Clouds 18 1029 42 10000 0.82 70 18:20 19.01.2021
3529 Clouds 17 1029 42 10000 2.06 140 17:42 19.01.2021
3530 Clear 16 1029 51 10000 2.06 110 17:20 19.01.2021
3531 Clouds 13 1029 58 10000 2.06 70 16:40 19.01.2021
3532 Clouds 13 1029 58 10000 2.06 70 16:20 19.01.2021
3533 Clouds 12 1028 76 10000 2.06 60 15:50 19.01.2021
3534 Clouds 10 1028 76 10000 2.06 60 15:30 19.01.2021
3535 Clear 9 1027 71 10000 3.09 70 14:44 19.01.2021
3536 Clear 8 1027 71 10000 3.09 70 14:26 19.01.2021
3537 Clear 9 1027 71 10000 2.06 260 13:49 19.01.2021
3538 Clear 10 1027 71 10000 2.06 260 13:23 19.01.2021
3539 Clear 9 1026 71 10000 0.75 174 12:51 19.01.2021
3540 Clear 9 1026 71 10000 0.97 176 12:30 19.01.2021
3541 Clear 10 1026 66 10000 0.97 176 11:52 19.01.2021
3542 Clear 10 1026 66 10000 1.18 183 11:29 19.01.2021
3543 Clear 10 1026 71 10000 1.2 182 10:53 19.01.2021
3544 Clear 10 1026 71 10000 1.31 186 10:33 19.01.2021
3545 Clear 10 1026 71 10000 1.33 184 09:59 19.01.2021
3546 Clear 12 1026 62 10000 1.54 210 09:41 19.01.2021
3547 Clear 12 1026 62 10000 1.54 210 09:19 19.01.2021
3548 Clouds 13 1026 58 10000 1.54 140 08:31 19.01.2021
3549 Clouds 13 1026 54 10000 1.33 188 07:51 19.01.2021
3550 Clouds 13 1026 58 10000 3.09 150 06:55 19.01.2021
3551 Clouds 16 1025 42 10000 2.57 170 03:20 19.01.2021
3552 Clouds 16 1024 42 10000 2.57 180 02:21 19.01.2021
3553 Clouds 20 1023 34 10000 2.06 200 00:18 19.01.2021
3554 Clouds 20 1023 30 10000 3.6 180 23:37 18.01.2021
3555 Clouds 20 1023 30 10000 3.6 180 23:18 18.01.2021
3556 Clouds 21 1023 32 10000 2.06 220 22:40 18.01.2021
3557 Clouds 21 1023 32 10000 2.06 220 22:19 18.01.2021
3558 Clouds 20 1024 32 10000 3.6 80 21:40 18.01.2021
3559 Clouds 20 1024 32 10000 3.6 80 21:22 18.01.2021
3560 Clouds 19 1026 39 10000 1.54 150 20:45 18.01.2021
3561 Clouds 19 1026 39 10000 1.54 150 20:26 18.01.2021
3562 Clouds 19 1027 48 8047 1.54 50 19:51 18.01.2021
3563 Clouds 18 1027 48 8047 1.54 50 19:33 18.01.2021
3564 Clear 17 1028 58 9656 2.06 110 18:47 18.01.2021
3565 Clear 16 1028 58 9656 2.06 110 18:24 18.01.2021
3566 Clear 15 1029 58 9656 1.54 150 17:46 18.01.2021
3567 Clear 14 1029 71 9656 2.06 90 17:25 18.01.2021
3568 Clear 13 1028 76 10000 1.54 70 16:48 18.01.2021
3569 Clear 10 1028 76 10000 1.54 70 16:23 18.01.2021
3570 Clear 10 1028 81 10000 1.03 60 15:49 18.01.2021
3571 Clear 8 1028 81 10000 1.03 60 15:27 18.01.2021
3572 Clear 6 1027 87 10000 3.09 60 14:46 18.01.2021
3573 Clear 6 1027 87 10000 3.09 60 14:28 18.01.2021
3574 Clear 8 1027 87 10000 1.54 70 13:54 18.01.2021
3575 Clear 8 1027 87 10000 1.54 70 13:36 18.01.2021
3576 Clear 8 1027 87 10000 1.54 70 13:18 18.01.2021
3577 Clear 7 1027 87 10000 0.51 35 12:41 18.01.2021
3578 Clear 7 1027 87 10000 0.57 33 12:18 18.01.2021
3579 Clear 8 1026 87 10000 2.06 80 11:40 18.01.2021
3580 Clear 8 1026 87 10000 2.06 80 11:21 18.01.2021
3581 Clear 8 1026 87 10000 2.06 80 11:21 18.01.2021
3582 Clouds 8 1026 93 10000 1.03 60 10:46 18.01.2021
3583 Clear 9 1026 93 10000 0.74 11 09:51 18.01.2021
3584 Clear 9 1026 93 10000 0.87 9 09:32 18.01.2021
3585 Clouds 9 1027 87 10000 1.54 60 08:56 18.01.2021
3586 Clouds 9 1027 87 10000 1.54 60 08:25 18.01.2021
3587 Clouds 10 1027 87 10000 2.06 80 07:38 18.01.2021
3588 Clouds 11 1027 71 10000 1.03 200 05:49 18.01.2021
3589 Clouds 11 1027 71 10000 3.6 220 04:40 18.01.2021
3590 Clouds 11 1027 71 10000 3.6 220 04:18 18.01.2021
3591 Clouds 11 1026 71 10000 2.57 180 03:43 18.01.2021
3592 Clouds 12 1026 71 10000 2.57 180 03:20 18.01.2021
3593 Clouds 12 1026 71 10000 3.09 170 02:40 18.01.2021
3594 Clouds 11 1026 76 10000 5.66 150 01:39 18.01.2021
3595 Rain 14 1026 54 10000 3.6 90 00:35 18.01.2021
3596 Rain 14 1026 54 10000 4.63 320 23:49 17.01.2021
3597 Clouds 15 1025 51 10000 5.66 340 23:22 17.01.2021
3598 Rain 16 1024 47 10000 6.17 320 22:46 17.01.2021
3599 Clouds 20 1023 34 10000 5.14 60 22:22 17.01.2021
3600 Clouds 20 1024 32 10000 1.54 180 21:42 17.01.2021
3601 Clouds 20 1024 32 10000 1.54 180 21:24 17.01.2021
3602 Clouds 20 1025 37 10000 1.54 130 20:49 17.01.2021
3603 Clouds 19 1025 37 10000 1.54 130 20:30 17.01.2021
3604 Clouds 18 1026 39 10000 1.54 140 19:43 17.01.2021
3605 Clouds 18 1026 39 10000 1.54 140 19:25 17.01.2021
3606 Clouds 18 1026 39 10000 1.54 140 19:25 17.01.2021
3607 Clouds 18 1027 45 10000 2.06 120 18:49 17.01.2021
3608 Clouds 18 1027 45 10000 2.06 120 18:27 17.01.2021
3609 Clouds 17 1027 48 10000 1.17 197 17:49 17.01.2021
3610 Clouds 17 1027 48 10000 1.6 192 17:28 17.01.2021
3611 Clouds 14 1027 67 10000 1.54 190 16:44 17.01.2021
3612 Clouds 14 1027 67 10000 1.54 190 16:24 17.01.2021
3613 Clouds 13 1027 67 10000 1.54 260 15:44 17.01.2021
3614 Clouds 13 1027 67 10000 1.54 260 15:25 17.01.2021
3615 Clouds 11 1026 71 10000 1.39 200 14:50 17.01.2021
3616 Clouds 11 1026 71 10000 1.37 197 14:27 17.01.2021
3617 Clouds 12 1025 67 10000 3.09 130 13:58 17.01.2021
3618 Clouds 12 1025 67 10000 3.09 130 13:36 17.01.2021
3619 Clouds 12 1025 67 10000 3.09 130 13:18 17.01.2021
3620 Clouds 13 1025 67 10000 1.3 195 12:37 17.01.2021
3621 Clouds 13 1025 67 10000 1.01 205 12:18 17.01.2021
3622 Clouds 13 1024 71 10000 1.53 212 11:25 17.01.2021
3623 Clouds 13 1024 71 10000 3.09 350 10:50 17.01.2021
3624 Clouds 13 1024 71 10000 3.09 350 10:24 17.01.2021
3625 Clouds 13 1025 76 10000 3.09 130 09:46 17.01.2021
3626 Clouds 13 1025 71 10000 2.57 180 08:47 17.01.2021
3627 Clouds 13 1026 67 10000 1.08 212 07:51 17.01.2021
3628 Clouds 14 1026 82 10000 2.06 40 04:29 17.01.2021
3629 Rain 15 1024 72 10000 30.87 40 02:49 17.01.2021
3630 Rain 17 1023 59 10000 5.14 180 00:52 17.01.2021
3631 Rain 20 1022 34 10000 7.2 150 00:20 17.01.2021
3632 Rain 21 1022 32 10000 5.14 180 23:51 16.01.2021
3633 Clouds 21 1022 32 10000 5.14 180 23:20 16.01.2021
3634 Clouds 21 1023 32 10000 5.14 140 22:45 16.01.2021
3635 Clouds 21 1024 30 10000 4.12 230 21:59 16.01.2021
3636 Clouds 21 1024 30 10000 4.12 230 21:38 16.01.2021
3637 Clouds 21 1024 30 10000 4.12 230 21:18 16.01.2021
3638 Clouds 20 1025 34 10000 3.09 200 20:44 16.01.2021
3639 Clouds 20 1025 34 10000 3.09 200 20:22 16.01.2021
3640 Clouds 20 1027 34 10000 0.5 39 19:48 16.01.2021
3641 Clouds 19 1027 34 10000 0.58 21 19:29 16.01.2021
3642 Clouds 19 1028 34 10000 0.39 27 18:43 16.01.2021
3643 Clouds 18 1028 34 10000 0.39 39 18:25 16.01.2021
3644 Clouds 16 1029 38 10000 2.06 10 17:48 16.01.2021
3645 Clouds 16 1029 38 10000 2.06 10 17:29 16.01.2021
3646 Clouds 14 1029 44 10000 2.06 90 16:47 16.01.2021
3647 Clouds 13 1029 44 10000 2.06 90 16:27 16.01.2021
3648 Clouds 11 1028 53 10000 0.93 12 15:54 16.01.2021
3649 Clouds 9 1028 53 10000 1.23 7 15:22 16.01.2021
3650 Clouds 8 1027 57 10000 1.54 100 14:25 16.01.2021
3651 Clouds 8 1027 53 10000 3.6 60 13:49 16.01.2021
3652 Clouds 9 1027 53 10000 3.6 60 13:25 16.01.2021
3653 Clouds 10 1026 53 10000 3.09 60 12:46 16.01.2021
3654 Clouds 10 1026 53 10000 3.09 60 12:20 16.01.2021
3655 Clouds 10 1026 50 10000 0.77 358 11:49 16.01.2021
3656 Clouds 10 1026 50 10000 0.5 356 11:25 16.01.2021
3657 Clouds 11 1026 43 10000 1.03 240 10:47 16.01.2021
3658 Clouds 11 1026 43 10000 1.03 240 10:24 16.01.2021
3659 Clouds 13 1026 38 10000 3.09 270 09:39 16.01.2021
3660 Clouds 13 1026 38 10000 3.09 270 09:19 16.01.2021
3661 Clouds 15 1027 33 10000 2.57 280 07:50 16.01.2021
3662 Clouds 16 1027 34 10000 2.57 330 06:44 16.01.2021
3663 Clouds 17 1026 29 10000 3.6 340 04:40 16.01.2021
3664 Clouds 18 1024 37 10000 2.06 270 02:56 16.01.2021
3665 Clouds 21 1023 30 8047 2.06 270 00:51 16.01.2021
3666 Clouds 21 1023 30 8047 2.06 270 00:29 16.01.2021
3667 Clouds 21 1023 30 8047 2.06 360 23:58 15.01.2021
3668 Clouds 21 1023 30 8047 2.06 360 23:22 15.01.2021
3669 Clouds 21 1023 26 8047 3.09 100 22:25 15.01.2021
3670 Clouds 21 1024 26 9656 4.12 100 21:46 15.01.2021
3671 Clouds 21 1024 26 9656 4.12 100 21:21 15.01.2021
3672 Clouds 19 1025 32 10000 0.49 119 20:41 15.01.2021
3673 Clouds 19 1025 32 10000 0.59 101 20:22 15.01.2021
3674 Clouds 18 1027 32 10000 2.57 80 19:41 15.01.2021
3675 Clouds 18 1027 32 10000 2.57 80 19:23 15.01.2021
3676 Clouds 18 1027 34 10000 2.57 40 18:44 15.01.2021
3677 Clouds 18 1027 34 10000 2.57 40 18:44 15.01.2021
3678 Clouds 17 1027 34 10000 2.57 40 18:19 15.01.2021
3679 Clouds 18 1027 34 10000 2.57 50 17:52 15.01.2021
3680 Clouds 16 1027 41 10000 2.57 50 17:26 15.01.2021
3681 Clouds 15 1027 41 10000 3.6 70 16:55 15.01.2021
3682 Clouds 14 1027 41 10000 3.6 70 16:26 15.01.2021
3683 Clouds 13 1026 50 10000 0.56 73 15:44 15.01.2021
3684 Clouds 12 1026 50 10000 0.2 103 15:23 15.01.2021
3685 Clouds 11 1026 47 10000 0.2 101 14:56 15.01.2021
3686 Clouds 11 1026 47 10000 0.16 149 14:37 15.01.2021
3687 Clouds 11 1026 47 10000 0.15 144 14:18 15.01.2021
3688 Clouds 10 1026 50 10000 2.57 90 13:40 15.01.2021
3689 Clouds 10 1026 50 10000 2.57 90 13:19 15.01.2021
3690 Clouds 12 1026 44 10000 0.07 163 12:37 15.01.2021
3691 Clouds 12 1026 44 10000 0.36 174 12:19 15.01.2021
3692 Clouds 13 1025 47 10000 2.57 360 11:42 15.01.2021
3693 Clouds 13 1025 44 10000 2.06 100 10:58 15.01.2021
3694 Clouds 13 1025 44 10000 2.06 100 10:39 15.01.2021
3695 Clouds 13 1025 44 10000 2.06 100 10:21 15.01.2021
3696 Clouds 14 1026 38 10000 0.77 119 09:47 15.01.2021
3697 Clouds 14 1026 38 10000 0.69 115 09:27 15.01.2021
3698 Clouds 14 1027 41 10000 0.46 61 08:27 15.01.2021
3699 Clouds 14 1027 41 10000 2.57 40 07:44 15.01.2021
3700 Clouds 14 1027 41 10000 2.57 40 07:22 15.01.2021
3701 Clouds 14 1027 44 10000 2.57 50 06:28 15.01.2021
3702 Clouds 18 1025 39 10000 4.12 80 02:28 15.01.2021
3703 Clouds 20 1024 32 10000 6.17 260 00:37 15.01.2021
3704 Clouds 21 1024 30 10000 6.17 280 23:30 14.01.2021
3705 Clouds 21 1024 30 10000 4.12 340 22:52 14.01.2021
3706 Clouds 21 1024 30 10000 4.12 340 22:28 14.01.2021
3707 Clouds 21 1024 32 10000 0.14 293 21:58 14.01.2021
3708 Clouds 21 1024 32 10000 0.14 293 21:39 14.01.2021
3709 Clouds 21 1024 32 10000 0.34 352 21:20 14.01.2021
3710 Clouds 21 1025 32 10000 3.6 270 20:43 14.01.2021
3711 Clouds 21 1026 32 10000 5.14 310 19:57 14.01.2021
3712 Clouds 21 1026 32 10000 5.14 310 19:36 14.01.2021
3713 Clouds 18 1028 42 9656 2.06 140 18:59 14.01.2021
3714 Clouds 19 1028 42 9656 2.06 140 18:39 14.01.2021
3715 Clouds 17 1028 42 8047 0.69 340 17:57 14.01.2021
3716 Clouds 17 1028 42 8047 0.29 8 17:30 14.01.2021
3717 Clouds 16 1028 44 9656 0.29 7 16:56 14.01.2021
3718 Clouds 13 1028 50 9656 1.54 100 16:31 14.01.2021
3719 Clouds 11 1027 62 9656 1.54 70 15:55 14.01.2021
3720 Clouds 10 1027 62 9656 1.54 70 15:32 14.01.2021
3721 Clouds 10 1026 62 10000 1.54 50 14:48 14.01.2021
3722 Clouds 10 1026 62 10000 1.54 50 14:30 14.01.2021
3723 Clouds 9 1026 66 10000 2.06 60 13:56 14.01.2021
3724 Clouds 9 1026 66 10000 2.06 60 13:24 14.01.2021
3725 Clouds 9 1026 61 10000 2.57 80 12:57 14.01.2021
3726 Clouds 9 1026 61 10000 2.57 80 12:22 14.01.2021
3727 Clouds 10 1026 62 10000 1.54 70 11:58 14.01.2021
3728 Clouds 10 1026 62 10000 1.54 70 11:38 14.01.2021
3729 Clouds 10 1026 62 10000 1.54 70 11:18 14.01.2021
3730 Clouds 11 1026 54 10000 1.03 100 10:40 14.01.2021
3731 Clouds 11 1026 54 10000 1.03 100 10:18 14.01.2021
3732 Clouds 11 1027 58 10000 1.54 60 09:42 14.01.2021
3733 Clouds 11 1027 58 10000 1.54 60 09:20 14.01.2021
3734 Clouds 12 1027 54 10000 1.03 280 08:33 14.01.2021
3735 Clouds 13 1027 51 10000 2.57 280 07:57 14.01.2021
3736 Clouds 13 1027 51 10000 2.57 280 07:39 14.01.2021
3737 Clouds 14 1027 47 10000 2.57 330 06:37 14.01.2021
3738 Clouds 15 1026 51 10000 3.09 100 04:57 14.01.2021
3739 Clouds 20 1025 32 10000 2.06 260 00:27 14.01.2021
3740 Clouds 20 1024 32 10000 3.09 330 23:31 13.01.2021
3741 Clouds 19 1025 34 10000 2.06 280 22:51 13.01.2021
3742 Clouds 19 1025 34 10000 2.06 280 22:23 13.01.2021
3743 Clouds 19 1025 34 10000 2.06 340 21:48 13.01.2021
3744 Clouds 19 1025 34 10000 2.06 340 21:22 13.01.2021
3745 Clouds 20 1027 32 10000 0.51 126 20:51 13.01.2021
3746 Clouds 20 1027 32 10000 0.83 36 20:26 13.01.2021
3747 Clouds 19 1027 32 10000 0.83 36 19:52 13.01.2021
3748 Clouds 18 1028 36 10000 2.06 340 19:27 13.01.2021
3749 Clouds 17 1029 42 10000 2.06 30 18:52 13.01.2021
3750 Clouds 17 1029 42 10000 2.06 30 18:33 13.01.2021
3751 Clear 15 1030 54 10000 3.6 90 17:50 13.01.2021
3752 Clear 14 1030 54 10000 3.6 90 17:18 13.01.2021
3753 Clouds 13 1029 62 10000 2.06 60 16:46 13.01.2021
3754 Clouds 12 1029 62 10000 2.06 60 16:21 13.01.2021
3755 Clouds 9 1029 66 10000 0.18 60 15:49 13.01.2021
3756 Clouds 9 1029 66 10000 0.24 272 15:29 13.01.2021
3757 Clouds 7 1028 70 10000 2.57 60 14:30 13.01.2021
3758 Clouds 8 1028 71 10000 2.57 70 13:48 13.01.2021
3759 Clouds 8 1028 71 10000 2.57 70 13:25 13.01.2021
3760 Clouds 9 1027 61 10000 3.6 60 12:46 13.01.2021
3761 Clouds 10 1027 62 10000 0.73 198 12:25 13.01.2021
3762 Clouds 10 1027 62 10000 0.73 198 11:51 13.01.2021
3763 Clouds 10 1027 62 10000 0.73 198 11:33 13.01.2021
3764 Clouds 10 1028 62 10000 1.04 205 10:49 13.01.2021
3765 Clouds 10 1028 62 10000 1.28 204 10:29 13.01.2021
3766 Clouds 11 1028 58 10000 1.28 203 09:49 13.01.2021
3767 Clouds 11 1028 58 10000 1.32 199 09:26 13.01.2021
3768 Clouds 11 1028 58 10000 1.32 199 08:46 13.01.2021
3769 Clouds 11 1028 58 10000 1.51 193 08:23 13.01.2021
3770 Clouds 12 1028 54 10000 2.06 100 07:29 13.01.2021
3771 Clouds 13 1028 51 10000 2.06 140 06:21 13.01.2021
3772 Clouds 14 1027 47 10000 2.06 160 04:19 13.01.2021
3773 Clouds 15 1026 48 10000 3.09 170 03:44 13.01.2021
3774 Clouds 15 1026 48 10000 3.09 170 03:22 13.01.2021
3775 Clouds 21 1024 32 10000 5.14 180 00:51 13.01.2021
3776 Clouds 21 1023 32 10000 5.14 160 23:44 12.01.2021
3777 Clouds 21 1023 32 10000 5.14 160 23:19 12.01.2021
3778 Clouds 21 1024 28 10000 3.09 190 22:39 12.01.2021
3779 Clouds 21 1024 28 10000 3.09 190 22:20 12.01.2021
3780 Clouds 20 1025 34 10000 7.72 90 21:44 12.01.2021
3781 Clouds 20 1025 34 10000 7.72 90 21:25 12.01.2021
3782 Clouds 20 1025 32 10000 6.17 50 20:47 12.01.2021
3783 Clouds 20 1025 32 10000 6.17 50 20:27 12.01.2021
3784 Clouds 18 1027 39 10000 4.12 90 19:44 12.01.2021
3785 Clouds 18 1028 42 10000 5.14 80 18:59 12.01.2021
3786 Clouds 18 1028 42 10000 5.14 80 18:41 12.01.2021
3787 Clouds 17 1028 42 10000 5.14 80 18:21 12.01.2021
3788 Clouds 15 1028 51 10000 3.6 140 17:34 12.01.2021
3789 Clouds 14 1028 54 10000 4.12 160 16:56 12.01.2021
3790 Clouds 14 1028 54 10000 4.12 160 16:38 12.01.2021
3791 Clouds 14 1028 54 10000 4.12 160 16:18 12.01.2021
3792 Clouds 14 1028 54 10000 4.12 160 16:18 12.01.2021
3793 Clouds 10 1028 66 10000 3.09 160 15:29 12.01.2021
3794 Clouds 9 1027 71 10000 1.54 130 14:58 12.01.2021
3795 Clouds 9 1027 71 10000 1.54 130 14:39 12.01.2021
3796 Clouds 9 1027 71 10000 1.54 130 14:19 12.01.2021
3797 Clouds 9 1027 71 10000 1.03 270 13:46 12.01.2021
3798 Clouds 10 1027 66 10000 1.03 150 12:39 12.01.2021
3799 Clouds 10 1027 71 10000 1.66 189 11:55 12.01.2021
3800 Clouds 10 1027 71 10000 1.94 196 11:36 12.01.2021
3801 Clouds 10 1027 71 10000 1.94 196 10:45 12.01.2021
3802 Clouds 10 1027 71 10000 2.11 192 10:20 12.01.2021
3803 Clouds 10 1027 71 10000 2.11 192 10:20 12.01.2021
3804 Clear 11 1027 66 10000 1.54 230 09:55 12.01.2021
3805 Clear 11 1027 66 10000 1.54 230 09:24 12.01.2021
3806 Clear 11 1027 66 10000 2.41 188 08:42 12.01.2021
3807 Clear 11 1027 66 10000 2.36 186 08:21 12.01.2021
3808 Clouds 12 1027 62 10000 4.12 130 07:34 12.01.2021
3809 Clouds 12 1028 62 10000 4.12 110 06:20 12.01.2021
3810 Clouds 12 1027 62 10000 5.14 140 05:26 12.01.2021
3811 Clouds 14 1026 51 10000 5.14 150 03:24 12.01.2021
3812 Clouds 15 1025 48 10000 5.14 170 02:18 12.01.2021
3813 Clouds 16 1025 45 10000 6.17 160 01:25 12.01.2021
3814 Clouds 18 1024 37 10000 6.17 140 23:45 11.01.2021
3815 Clouds 19 1024 37 10000 6.17 140 23:20 11.01.2021
3816 Clouds 19 1024 37 10000 6.17 190 22:50 11.01.2021
3817 Clouds 19 1024 37 10000 6.17 190 22:32 11.01.2021
3818 Clouds 19 1025 37 10000 5.66 160 21:55 11.01.2021
3819 Clouds 19 1025 37 10000 7.2 140 21:37 11.01.2021
3820 Clouds 19 1025 37 10000 7.2 140 21:18 11.01.2021
3821 Clouds 17 1026 45 10000 4.12 170 20:40 11.01.2021
3822 Clouds 17 1026 45 10000 4.12 170 20:22 11.01.2021
3823 Clouds 16 1028 44 10000 2.06 130 19:52 11.01.2021
3824 Clouds 16 1028 44 10000 2.06 130 19:23 11.01.2021
3825 Clouds 16 1028 48 8047 2.06 120 18:44 11.01.2021
3826 Clouds 15 1028 54 9656 1.54 120 18:24 11.01.2021
3827 Clouds 13 1028 58 10000 2.06 40 17:43 11.01.2021
3828 Clouds 13 1028 58 10000 2.06 40 17:25 11.01.2021
3829 Clouds 13 1028 58 10000 1.23 172 16:50 11.01.2021
3830 Clouds 11 1028 62 8047 2.06 280 16:30 11.01.2021
3831 Clouds 9 1027 76 9656 2.06 70 15:59 11.01.2021
3832 Clouds 9 1027 76 9656 2.06 70 15:37 11.01.2021
3833 Clouds 9 1026 71 10000 0.3 189 14:58 11.01.2021
3834 Clouds 9 1026 71 10000 0.3 189 14:38 11.01.2021
3835 Clouds 9 1026 71 10000 2.57 250 13:48 11.01.2021
3836 Clouds 9 1026 71 10000 2.57 250 13:24 11.01.2021
3837 Clouds 9 1026 66 10000 1.54 310 12:45 11.01.2021
3838 Clouds 9 1026 66 10000 1.54 310 12:27 11.01.2021
3839 Clouds 10 1026 58 10000 2.57 300 11:50 11.01.2021
3840 Clouds 10 1026 58 10000 2.57 300 11:21 11.01.2021
3841 Clouds 10 1026 62 10000 0.36 199 10:42 11.01.2021
3842 Clouds 10 1026 62 10000 0.7 217 10:24 11.01.2021
3843 Clouds 11 1026 58 10000 0.7 217 09:38 11.01.2021
3844 Clouds 11 1026 58 10000 0.93 212 09:19 11.01.2021
3845 Clouds 12 1026 54 10000 0.93 212 08:44 11.01.2021
3846 Clouds 13 1027 54 10000 4.12 130 07:58 11.01.2021
3847 Clouds 13 1027 54 10000 4.12 130 07:25 11.01.2021
3848 Clouds 14 1027 51 10000 2.57 160 06:57 11.01.2021
3849 Clouds 15 1025 51 10000 4.12 120 03:22 11.01.2021
3850 Clouds 17 1023 45 10000 5.14 140 01:29 11.01.2021
3851 Clouds 20 1022 26 10000 5.14 260 23:53 10.01.2021
3852 Clouds 20 1022 26 10000 5.14 260 23:26 10.01.2021
3853 Clouds 21 1022 24 10000 6.17 260 22:47 10.01.2021
3854 Clouds 21 1022 24 10000 6.17 260 22:20 10.01.2021
3855 Clouds 21 1023 23 10000 2.61 218 21:44 10.01.2021
3856 Clouds 21 1023 23 10000 2.02 215 21:20 10.01.2021
3857 Clouds 20 1025 28 10000 5.14 220 20:50 10.01.2021
3858 Clouds 20 1025 28 10000 5.14 220 20:29 10.01.2021
3859 Clouds 19 1026 32 10000 2.06 290 19:42 10.01.2021
3860 Clouds 19 1026 32 10000 2.06 290 19:24 10.01.2021
3861 Clouds 18 1027 36 10000 2.12 210 18:46 10.01.2021
3862 Clouds 18 1027 36 10000 2.28 206 18:21 10.01.2021
3863 Clouds 16 1027 42 10000 2.06 100 17:27 10.01.2021
3864 Clouds 15 1027 41 10000 2.06 80 16:58 10.01.2021
3865 Clouds 14 1027 41 10000 2.06 80 16:32 10.01.2021
3866 Clouds 10 1026 71 10000 2.06 50 15:43 10.01.2021
3867 Clouds 10 1026 71 10000 2.06 50 15:24 10.01.2021
3868 Clouds 11 1026 66 10000 1.54 310 14:43 10.01.2021
3869 Clouds 11 1026 66 10000 1.54 310 14:24 10.01.2021
3870 Clouds 10 1025 71 10000 2.06 280 13:54 10.01.2021
3871 Clouds 10 1025 71 10000 2.06 280 13:36 10.01.2021
3872 Clouds 10 1025 71 10000 2.06 280 13:18 10.01.2021
3873 Clouds 10 1024 76 10000 2.06 150 12:42 10.01.2021
3874 Clouds 11 1024 66 10000 1.73 196 11:58 10.01.2021
3875 Clouds 11 1024 66 10000 1.65 195 11:22 10.01.2021
3876 Clear 11 1025 66 10000 1.67 194 10:58 10.01.2021
3877 Clear 11 1025 66 10000 1.9 198 10:28 10.01.2021
3878 Clouds 11 1025 66 10000 1.03 200 09:57 10.01.2021
3879 Clouds 11 1025 66 10000 1.03 200 09:18 10.01.2021
3880 Clouds 12 1026 67 10000 1.54 80 08:19 10.01.2021
3881 Clouds 13 1026 58 10000 1.03 110 07:28 10.01.2021
3882 Clouds 13 1026 58 10000 2.57 150 06:19 10.01.2021
3883 Clouds 14 1026 55 10000 4.12 160 05:35 10.01.2021
3884 Clouds 15 1024 44 10000 4.63 200 02:55 10.01.2021
3885 Clouds 18 1022 32 10000 2.06 230 00:48 10.01.2021
3886 Clouds 20 1022 32 10000 3.6 140 23:43 09.01.2021
3887 Rain 20 1022 32 10000 3.6 140 23:25 09.01.2021
3888 Clouds 21 1023 28 10000 2.06 230 22:44 09.01.2021
3889 Clouds 21 1023 28 10000 2.06 230 22:18 09.01.2021
3890 Clouds 20 1024 28 10000 4.12 210 21:41 09.01.2021
3891 Clouds 20 1024 28 10000 4.12 210 21:23 09.01.2021
3892 Clouds 21 1025 30 10000 1.54 100 20:59 09.01.2021
3893 Clouds 21 1025 30 10000 1.54 100 20:38 09.01.2021
3894 Clouds 19 1027 37 10000 1.54 20 19:44 09.01.2021
3895 Clouds 19 1027 37 10000 1.54 20 19:22 09.01.2021
3896 Clouds 17 1028 42 10000 0.82 170 18:39 09.01.2021
3897 Clouds 17 1028 42 10000 0.06 30 18:20 09.01.2021
3898 Clouds 16 1028 44 10000 0.05 31 17:45 09.01.2021
3899 Clouds 15 1028 51 10000 2.57 90 17:27 09.01.2021
3900 Clouds 13 1028 54 10000 2.06 50 16:33 09.01.2021
3901 Clouds 10 1027 66 10000 2.06 60 15:48 09.01.2021
3902 Clouds 10 1027 66 10000 2.06 60 15:48 09.01.2021
3903 Clouds 9 1027 66 10000 2.06 60 15:28 09.01.2021
3904 Clouds 9 1027 66 10000 0.29 45 14:40 09.01.2021
3905 Clouds 9 1027 66 10000 0.29 65 14:20 09.01.2021
3906 Clouds 10 1026 62 10000 0.29 65 13:47 09.01.2021
3907 Clouds 10 1026 62 10000 0.22 50 13:29 09.01.2021
3908 Clouds 10 1026 66 10000 0.47 185 12:48 09.01.2021
3909 Clouds 10 1026 66 10000 0.39 183 12:22 09.01.2021
3910 Clouds 11 1026 58 10000 2.57 300 11:50 09.01.2021
3911 Clouds 11 1026 58 10000 2.57 300 11:30 09.01.2021
3912 Clouds 12 1027 54 10000 1.54 280 10:52 09.01.2021
3913 Clouds 12 1027 54 10000 1.54 280 10:30 09.01.2021
3914 Clouds 12 1027 58 10000 0.24 182 09:52 09.01.2021
3915 Clouds 12 1027 58 10000 0.2 124 09:25 09.01.2021
3916 Clouds 13 1027 58 10000 2.57 280 08:28 09.01.2021
3917 Clouds 14 1028 44 10000 0.65 89 06:57 09.01.2021
3918 Clouds 14 1028 44 10000 0.65 89 06:39 09.01.2021
3919 Clouds 14 1027 58 10000 3.09 20 04:47 09.01.2021
3920 Clouds 14 1027 58 10000 6.17 290 03:20 09.01.2021
3921 Clouds 14 1026 62 10000 6.17 310 02:29 09.01.2021
3922 Rain 17 1025 34 10000 3.09 200 01:44 09.01.2021
3923 Clouds 19 1025 34 10000 4.63 180 00:34 09.01.2021
3924 Clouds 20 1025 32 9656 5.14 200 23:50 08.01.2021
3925 Clouds 21 1025 26 10000 3.09 260 22:56 08.01.2021
3926 Clouds 21 1026 26 10000 0.5 4 21:59 08.01.2021
3927 Clouds 21 1026 26 10000 0.99 27 21:34 08.01.2021
3928 Clouds 20 1027 32 10000 2.06 10 20:42 08.01.2021
3929 Clouds 20 1027 32 10000 2.06 10 20:23 08.01.2021
3930 Clouds 19 1029 32 10000 1.54 70 19:39 08.01.2021
3931 Clouds 19 1029 32 10000 1.54 70 19:21 08.01.2021
3932 Clouds 17 1030 39 9656 1.54 80 18:34 08.01.2021
3933 Clouds 16 1030 44 10000 2.06 130 17:55 08.01.2021
3934 Clouds 16 1030 44 10000 2.06 130 17:30 08.01.2021
3935 Clouds 14 1030 54 9656 0.73 40 16:51 08.01.2021
3936 Clouds 11 1030 62 10000 1.54 60 15:57 08.01.2021
3937 Clouds 9 1029 71 10000 2.06 60 15:38 08.01.2021
3938 Clouds 7 1028 70 9656 2.57 100 14:41 08.01.2021
3939 Clouds 7 1028 70 9656 2.57 100 14:22 08.01.2021
3940 Clear 8 1028 66 10000 1.03 50 13:22 08.01.2021
3941 Clouds 9 1027 71 10000 1.54 60 12:53 08.01.2021
3942 Clouds 9 1027 71 10000 1.54 60 12:23 08.01.2021
3943 Clouds 10 1027 62 10000 2.06 50 11:59 08.01.2021
3944 Clouds 10 1027 62 10000 2.06 50 11:40 08.01.2021
3945 Clouds 10 1027 62 10000 2.06 50 11:20 08.01.2021
3946 Clouds 10 1027 58 10000 2.06 80 10:45 08.01.2021
3947 Clouds 11 1028 54 10000 0.61 14 09:57 08.01.2021
3948 Clouds 11 1028 54 10000 0.61 14 09:38 08.01.2021
3949 Clouds 11 1028 54 10000 0.43 355 09:19 08.01.2021
3950 Clouds 12 1028 50 10000 2.06 60 07:43 08.01.2021
3951 Clouds 12 1028 50 10000 2.06 60 07:25 08.01.2021
3952 Clouds 12 1028 50 10000 2.06 60 07:25 08.01.2021
3953 Clouds 15 1027 48 10000 4.12 270 04:18 08.01.2021
3954 Clouds 19 1024 34 9656 2.06 200 23:43 07.01.2021
3955 Clouds 18 1025 36 9656 4.12 100 22:55 07.01.2021
3956 Clouds 18 1025 36 9656 4.12 100 22:36 07.01.2021
3957 Clouds 18 1025 36 9656 2.06 180 21:50 07.01.2021
3958 Clouds 18 1025 36 9656 2.06 180 21:31 07.01.2021
3959 Clouds 17 1026 36 10000 4.12 70 20:55 07.01.2021
3960 Clouds 17 1026 36 10000 4.12 70 20:36 07.01.2021
3961 Clouds 17 1028 39 10000 2.06 260 19:49 07.01.2021
3962 Clouds 17 1028 39 10000 2.06 260 19:26 07.01.2021
3963 Clouds 16 1029 41 10000 1.37 29 18:47 07.01.2021
3964 Clouds 16 1029 41 10000 0.93 21 18:20 07.01.2021
3965 Clouds 13 1029 54 10000 2.06 80 17:35 07.01.2021
3966 Clouds 13 1029 54 10000 2.06 80 17:35 07.01.2021
3967 Clouds 12 1029 54 10000 1.65 10 16:57 07.01.2021
3968 Clouds 12 1029 54 10000 1.65 10 16:32 07.01.2021
3969 Clouds 11 1028 62 10000 2.06 250 15:56 07.01.2021
3970 Clouds 10 1028 62 10000 2.06 250 15:31 07.01.2021
3971 Clouds 10 1028 62 10000 2.06 250 15:31 07.01.2021
3972 Clouds 10 1027 58 10000 2.06 180 14:34 07.01.2021
3973 Clouds 10 1027 54 10000 1.54 200 13:59 07.01.2021
3974 Clouds 10 1027 54 10000 1.54 200 13:30 07.01.2021
3975 Clouds 9 1020 65 10000 0.45 259 12:56 07.01.2021
3976 Clouds 9 1019 62 10000 2.16 8 12:24 07.01.2021
3977 Clouds 10 1026 61 10000 2.6 80 11:43 07.01.2021
3978 Clouds 10 1026 61 10000 2.6 80 11:25 07.01.2021
3979 Clouds 11 1026 50 10000 1.53 9 10:38 07.01.2021
3980 Clouds 11 1026 50 10000 2.1 70 10:19 07.01.2021
3981 Clouds 12 1026 50 10000 2.1 70 09:41 07.01.2021
3982 Clouds 13 1026 44 10000 1 250 08:51 07.01.2021
3983 Clouds 13 1026 44 10000 1 250 08:23 07.01.2021
3984 Clouds 13 1027 44 10000 2.1 50 07:43 07.01.2021
3985 Clouds 13 1027 44 10000 2.1 70 06:51 07.01.2021
3986 Clouds 17 1024 42 10000 2.6 170 03:18 07.01.2021
3987 Clouds 21 1022 26 10000 2.6 210 00:25 07.01.2021
3988 Clouds 21 1022 26 10000 2.1 360 23:35 06.01.2021
3989 Clear 22 1022 26 10000 4.47 230 22:37 06.01.2021
3990 Clouds 21 1025 28 9656 5.1 310 21:42 06.01.2021
3991 Clear 21 1024 28 10000 4.92 310 21:22 06.01.2021
3992 Clouds 21 1025 26 9656 1.5 60 20:50 06.01.2021
3993 Clear 21 1025 26 10000 1.34 60 20:22 06.01.2021
3994 Clouds 20 1026 28 9656 1 280 19:49 06.01.2021
3995 Clouds 20 1026 28 9656 1 280 19:29 06.01.2021
3996 Clouds 19 1026 32 9656 1 80 18:52 06.01.2021
3997 Clouds 19 1026 32 9656 1 80 18:34 06.01.2021
3998 Clouds 17 1027 39 9656 2.1 80 17:59 06.01.2021
3999 Clouds 15 1028 50 9656 2.1 90 17:41 06.01.2021
4000 Clouds 14 1027 54 9656 3.1 80 17:21 06.01.2021
4001 Clear 13 1027 57 10000 3.1 60 16:38 06.01.2021
4002 Clear 13 1027 57 10000 3.1 60 16:38 06.01.2021
4003 Clear 12 1026 61 10000 2.1 120 16:18 06.01.2021
4004 Clear 11 1026 61 10000 2.1 120 15:46 06.01.2021
4005 Clear 10 1026 61 10000 2.1 120 15:24 06.01.2021
4006 Clear 9 1026 66 10000 0.98 204 14:36 06.01.2021
4007 Clear 8 1025 65 10000 1.3 194 13:56 06.01.2021
4008 Clear 8 1025 65 10000 1.3 194 13:36 06.01.2021
4009 Clear 8 1025 65 10000 2.6 70 13:18 06.01.2021
4010 Clear 8 1025 65 10000 2.6 70 12:42 06.01.2021
4011 Clear 9 1025 61 10000 3.1 60 11:46 06.01.2021
4012 Clear 9 1025 61 10000 3.1 60 11:23 06.01.2021
4013 Clear 10 1025 53 10000 1.42 194 10:46 06.01.2021
4014 Clear 11 1025 53 10000 1 60 09:52 06.01.2021
4015 Clear 11 1025 53 10000 1 60 09:33 06.01.2021
4016 Clear 11 1026 50 10000 0.85 180 08:54 06.01.2021
4017 Clear 11 1026 50 10000 2.6 70 08:20 06.01.2021
4018 Clear 12 1026 50 10000 2.6 70 07:53 06.01.2021
4019 Clouds 14 1026 41 10000 1.5 300 06:44 06.01.2021
4020 Clouds 15 1026 41 10000 1.5 100 05:31 06.01.2021
4021 Clouds 16 1025 36 10000 3.6 100 04:21 06.01.2021
4022 Clouds 18 1024 29 10000 7.2 160 02:44 06.01.2021
4023 Clouds 18 1024 29 10000 3.6 170 02:21 06.01.2021
4024 Clouds 22 1023 21 9656 6.2 150 23:57 05.01.2021
4025 Clouds 21 1023 24 9656 3.1 260 22:57 05.01.2021
4026 Clouds 21 1023 24 9656 3.1 260 22:39 05.01.2021
4027 Clear 21 1024 23 10000 2.1 80 22:19 05.01.2021
4028 Clear 22 1024 23 10000 2.1 80 21:34 05.01.2021
4029 Clear 21 1025 27 10000 5.1 100 20:37 05.01.2021
4030 Clear 19 1027 27 10000 1.5 30 20:18 05.01.2021
4031 Clear 19 1027 27 10000 1.5 30 19:41 05.01.2021
4032 Smoke 18 1028 27 10000 0.61 64 19:21 05.01.2021
4033 Smoke 17 1028 28 10000 1.5 60 18:42 05.01.2021
4034 Clear 15 1029 33 9656 0.49 102 18:21 05.01.2021
4035 Clear 15 1029 33 9656 0.49 102 17:47 05.01.2021
4036 Clear 14 1029 33 9656 0.51 107 17:26 05.01.2021
4037 Clear 12 1029 40 10000 2.1 70 16:51 05.01.2021
4038 Clear 10 1028 49 10000 1.5 80 16:21 05.01.2021
4039 Clear 9 1028 49 10000 1.5 80 15:49 05.01.2021
4040 Clear 8 1028 45 10000 0.61 99 14:50 05.01.2021
4041 Clear 7 1028 45 10000 0.27 95 14:25 05.01.2021
4042 Clear 7 1027 45 10000 0.27 95 13:46 05.01.2021
4043 Clear 7 1027 48 10000 0.58 56 13:22 05.01.2021
4044 Clear 7 1027 48 10000 0.58 56 12:47 05.01.2021
4045 Clear 8 1027 45 10000 0.75 38 12:24 05.01.2021
4046 -273 0 0 0 0 0 11:39 05.01.2021
4047 -273 0 0 0 0 0 11:39 05.01.2021
4048 Clear 8 1027 45 10000 0.75 38 11:36 05.01.2021
4049 Clear 9 1027 45 10000 0.93 33 10:46 05.01.2021
4050 Clear 9 1027 45 10000 1.09 13 10:26 05.01.2021
4051 Clear 11 1028 32 10000 1.09 13 09:48 05.01.2021
4052 Clear 11 1028 32 10000 1.14 13 09:28 05.01.2021
4053 Clear 12 1028 32 10000 3.1 280 08:25 05.01.2021
4054 Clear 14 1028 30 10000 2.1 300 06:46 05.01.2021
4055 Clear 16 1025 34 10000 4.02 140 03:56 05.01.2021
4056 Clear 21 1025 17 10000 2.1 310 00:48 05.01.2021
4057 Clear 22 1025 17 10000 1.46 22 23:45 04.01.2021
4058 Clear 22 1025 17 10000 2.1 330 23:25 04.01.2021
4059 Clear 22 1025 17 10000 2.1 330 22:49 04.01.2021
4060 Clear 22 1025 17 10000 2.1 330 22:27 04.01.2021
4061 Clear 22 1025 16 10000 3.1 260 21:47 04.01.2021
4062 Clear 22 1025 16 10000 3.1 260 21:29 04.01.2021
4063 Clear 21 1027 16 10000 2.1 50 20:43 04.01.2021
4064 Clear 20 1028 19 10000 3.6 70 20:23 04.01.2021
4065 Clear 20 1028 19 10000 3.6 70 19:51 04.01.2021
4066 Clear 19 1028 22 10000 3.6 70 19:24 04.01.2021
4067 Clear 18 1029 31 10000 2.1 60 18:48 04.01.2021
4068 Clear 17 1029 31 10000 2.1 80 18:23 04.01.2021
4069 Clear 15 1030 35 10000 2.1 50 17:41 04.01.2021
4070 Clear 13 1029 46 10000 2.1 100 17:22 04.01.2021
4071 Clear 12 1029 46 10000 2.1 100 16:46 04.01.2021
4072 Clear 10 1028 52 10000 2.1 60 16:26 04.01.2021
4073 Clear 7 1028 52 10000 2.1 60 15:49 04.01.2021
4074 Clear 8 1028 56 10000 2.6 70 15:25 04.01.2021
4075 Clear 7 1028 56 10000 2.6 70 14:34 04.01.2021
4076 Clear 7 1027 56 10000 2.1 70 13:44 04.01.2021
4077 Clear 8 1027 38 10000 0.71 202 13:22 04.01.2021
4078 Clear 8 1027 38 10000 0.83 204 12:36 04.01.2021
4079 Clear 9 1026 37 10000 1.5 80 11:55 04.01.2021
4080 Clear 10 1027 50 10000 0.45 225 11:21 04.01.2021
4081 Clear 10 1027 50 10000 0.45 225 10:47 04.01.2021
4082 Clear 11 1027 50 10000 0.25 232 10:25 04.01.2021
4083 Clear 10 1027 53 10000 2.1 70 09:51 04.01.2021
4084 Clear 11 1028 54 10000 2.6 60 09:19 04.01.2021
4085 Clear 12 1028 54 10000 2.6 60 08:41 04.01.2021
4086 Clear 13 1028 50 10000 0.74 352 07:54 04.01.2021
4087 Clear 13 1028 50 10000 0.7 357 07:27 04.01.2021
4088 Clear 15 1028 44 10000 1 60 05:31 04.01.2021
4089 Clear 18 1025 34 10000 1.5 170 02:35 04.01.2021
4090 Clear 24 1024 19 10000 6.2 140 00:34 04.01.2021
4091 Clear 24 1024 15 10000 2.6 110 23:47 03.01.2021
4092 Clear 24 1024 15 10000 3.1 140 23:19 03.01.2021
4093 Clear 26 1024 11 10000 3.1 230 22:49 03.01.2021
4094 Clear 26 1024 11 10000 3.1 230 22:30 03.01.2021
4095 Clear 25 1025 14 10000 3.1 130 21:47 03.01.2021
4096 Clear 25 1025 14 10000 3.1 130 21:25 03.01.2021
4097 Clear 23 1026 19 10000 0.89 214 20:43 03.01.2021
4098 Clear 22 1026 19 10000 0.79 189 20:23 03.01.2021
4099 Clear 22 1028 18 10000 1.5 170 19:54 03.01.2021
4100 Clear 22 1028 18 10000 1.5 170 19:34 03.01.2021
4101 Clear 20 1029 17 10000 0.91 175 18:52 03.01.2021
4102 Clear 19 1029 17 10000 0.91 175 18:34 03.01.2021
4103 Clear 17 1029 23 10000 1.44 168 17:53 03.01.2021
4104 Clear 17 1029 23 10000 1.39 169 17:30 03.01.2021
4105 Clear 15 1029 26 10000 1.39 169 16:57 03.01.2021
4106 Clear 15 1029 26 10000 1.39 169 16:39 03.01.2021
4107 Clear 15 1029 28 10000 1.2 181 16:19 03.01.2021
4108 Clear 9 1029 39 10000 1.2 181 15:45 03.01.2021
4109 Clear 9 1029 39 10000 1.39 192 15:19 03.01.2021
4110 Clear 7 1028 42 10000 1.39 192 14:43 03.01.2021
4111 Clear 6 1028 45 10000 1.5 70 13:57 03.01.2021
4112 Clear 6 1028 45 10000 1.5 70 13:37 03.01.2021
4113 Clear 8 1028 39 10000 1.14 198 13:19 03.01.2021
4114 Clear 10 1027 39 10000 1.05 198 11:46 03.01.2021
4115 Clear 9 1027 39 10000 1.11 194 11:27 03.01.2021
4116 Clear 9 1027 37 10000 1.11 194 10:57 03.01.2021
4117 Clear 9 1027 37 10000 1.11 194 10:32 03.01.2021
4118 Clear 10 1027 34 10000 1.03 193 09:49 03.01.2021
4119 Clear 10 1027 34 10000 1.08 193 09:25 03.01.2021
4120 Clear 11 1028 27 10000 1.15 202 08:29 03.01.2021
4121 Clear 13 1027 24 10000 1.17 192 06:54 03.01.2021
4122 Clear 16 1025 22 10000 7.2 130 03:20 03.01.2021
4123 Clear 17 1025 22 10000 6.2 130 02:23 03.01.2021
4124 Smoke 22 1024 12 10000 7.2 110 00:25 03.01.2021
4125 Clear 23 1024 11 10000 5.1 130 23:42 02.01.2021
4126 Clear 23 1024 9 10000 1.5 160 23:18 02.01.2021
4127 Clear 23 1024 9 10000 1.5 160 22:45 02.01.2021
4128 Clear 22 1025 8 10000 2.84 166 22:27 02.01.2021
4129 Clear 22 1025 8 10000 2.84 166 21:38 02.01.2021
4130 Clear 22 1026 12 10000 1.67 155 21:20 02.01.2021
4131 Clear 20 1027 14 10000 1.67 155 20:41 02.01.2021
4132 Clear 20 1028 18 10000 1.11 135 20:21 02.01.2021
4133 Clear 19 1028 18 10000 1.11 135 19:43 02.01.2021
4134 Clear 19 1028 18 10000 1.11 135 19:43 02.01.2021
4135 Clear 18 1029 26 10000 3.1 50 19:19 02.01.2021
4136 Clear 17 1029 26 10000 3.1 50 18:43 02.01.2021
4137 Clear 16 1029 26 10000 3.1 50 18:25 02.01.2021
4138 Clear 15 1029 28 10000 0.95 149 17:46 02.01.2021
4139 Clear 14 1029 32 10000 0.92 152 17:25 02.01.2021
4140 Clear 11 1029 37 10000 1.5 230 16:38 02.01.2021
4141 Clear 11 1029 39 10000 1.5 250 16:19 02.01.2021
4142 Clear 8 1029 42 10000 2.1 250 15:42 02.01.2021
4143 Clear 5 1028 48 10000 0.99 184 15:24 02.01.2021
4144 Clear 5 1028 48 10000 0.99 184 14:37 02.01.2021
4145 Clear 4 1028 55 10000 2.6 80 13:59 02.01.2021
4146 Clear 4 1028 55 10000 2.6 80 13:38 02.01.2021
4147 Clear 5 1028 52 10000 2.1 110 12:54 02.01.2021
4148 Clear 7 1027 48 10000 1 250 12:32 02.01.2021
4149 Clear 7 1026 48 10000 1.24 186 11:48 02.01.2021
4150 Clear 8 1026 45 10000 0.97 201 11:22 02.01.2021
4151 Clear 7 1026 45 10000 0.97 201 10:52 02.01.2021
4152 Clear 7 1026 45 10000 1.2 204 10:30 02.01.2021
4153 Clear 7 1026 42 10000 2.1 240 09:54 02.01.2021
4154 Clear 8 1026 42 10000 2.1 240 09:28 02.01.2021
4155 Clear 9 1027 37 10000 2.1 70 08:50 02.01.2021
4156 Clear 9 1027 37 10000 2.1 70 08:28 02.01.2021
4157 Clear 10 1026 34 10000 1.5 110 07:47 02.01.2021
4158 Clear 10 1026 34 10000 1 120 07:22 02.01.2021
4159 Clear 10 1026 34 10000 1 120 06:42 02.01.2021
4160 Clear 12 1026 32 10000 3.1 90 05:45 02.01.2021
4161 Clear 22 1022 7 10000 7.2 160 00:59 02.01.2021
4162 Clear 22 1022 7 10000 7.2 160 00:37 02.01.2021
4163 Clear 23 1022 6 10000 7.2 180 23:56 01.01.2021
4164 Clear 23 1021 5 10000 4.1 150 23:21 01.01.2021
4165 Clear 24 1021 5 10000 4.1 150 22:48 01.01.2021
4166 Clear 24 1021 5 10000 4.1 150 22:25 01.01.2021
4167 Clear 24 1022 4 10000 2.1 180 21:44 01.01.2021
4168 Clear 22 1023 8 10000 5.1 180 21:22 01.01.2021
4169 Clear 22 1023 8 10000 5.1 180 20:54 01.01.2021
4170 Clouds 21 1024 16 10000 3.93 173 20:22 01.01.2021
4171 Clouds 20 1024 16 10000 3.93 173 19:59 01.01.2021
4172 Clouds 20 1024 16 10000 3.93 173 19:40 01.01.2021
4173 Clouds 17 1025 23 10000 3.32 167 19:20 01.01.2021
4174 Clouds 17 1025 23 10000 3.32 167 18:41 01.01.2021
4175 Clouds 16 1025 26 10000 3 168 18:20 01.01.2021
4176 Clouds 13 1025 34 10000 3.1 130 17:42 01.01.2021
4177 Clouds 12 1025 53 10000 2.51 174 17:22 01.01.2021
4178 Clouds 12 1025 53 10000 2.51 174 16:45 01.01.2021
4179 Clouds 8 1024 56 10000 2.1 230 15:57 01.01.2021
4180 Clouds 6 1024 56 10000 2.1 230 15:39 01.01.2021
4181 Clouds 6 1023 56 10000 2.1 210 14:42 01.01.2021
4182 Clear 6 1023 60 10000 1 200 14:19 01.01.2021
4183 Clear 6 1023 60 10000 1 200 13:37 01.01.2021
4184 Clear 5 1022 60 10000 1.82 186 12:48 01.01.2021
4185 Clear 7 1022 56 10000 1.94 186 12:25 01.01.2021
4186 Clear 6 1022 56 10000 1.94 186 11:40 01.01.2021
4187 Clear 6 1022 52 10000 1.89 187 11:18 01.01.2021
4188 Clear 7 1022 52 10000 1.89 187 10:51 01.01.2021
4189 Clear 8 1022 47 10000 1.5 130 09:53 01.01.2021
4190 Clear 8 1022 43 10000 4.1 120 09:24 01.01.2021
4191 Clear 9 1022 43 10000 4.1 120 08:30 01.01.2021
4192 Clouds 10 1022 40 10000 2.6 110 06:24 01.01.2021
4193 Clear 12 1021 35 10000 4.1 140 04:49 01.01.2021
4194 Clear 16 1019 27 10000 4.1 170 01:40 01.01.2021
4195 Clouds 17 1018 25 10000 5.1 180 00:32 01.01.2021
4196 Clouds 19 1018 24 10000 5.1 180 23:38 31.12.2020
4197 Clear 19 1017 22 10000 6.2 200 23:20 31.12.2020
4198 Clear 20 1017 22 10000 6.2 200 22:42 31.12.2020
4199 Clear 20 1017 22 10000 6.2 200 22:21 31.12.2020
4200 Clouds 19 1018 20 10000 3.1 180 21:55 31.12.2020
4201 Clouds 19 1018 20 10000 3.1 180 21:33 31.12.2020
4202 Clouds 19 1018 17 10000 5.7 290 20:58 31.12.2020
4203 Clouds 19 1018 17 10000 5.7 290 20:27 31.12.2020
4204 Clouds 18 1019 22 10000 9.8 130 19:49 31.12.2020
4205 Clouds 18 1019 22 10000 9.8 130 19:31 31.12.2020
4206 Clouds 17 1020 18 10000 8.2 150 18:51 31.12.2020
4207 Clouds 16 1020 18 10000 3.6 180 18:25 31.12.2020
4208 Clouds 16 1020 18 10000 3.6 180 17:46 31.12.2020
4209 Clouds 16 1020 18 10000 3.6 180 17:26 31.12.2020
4210 Clouds 12 1018 30 10000 9.8 150 16:55 31.12.2020
4211 Clouds 12 1018 30 10000 9.8 150 16:37 31.12.2020
4212 Clouds 11 1018 39 10000 7.2 160 16:18 31.12.2020
4213 Clouds 10 1018 39 10000 7.2 160 15:42 31.12.2020
4214 Clouds 9 1018 37 10000 6.2 160 15:18 31.12.2020
4215 Clouds 9 1018 37 10000 6.2 160 14:40 31.12.2020
4216 Clouds 9 1018 39 10000 6.2 160 14:22 31.12.2020
4217 Clouds 10 1018 39 10000 6.2 160 13:42 31.12.2020
4218 Clouds 10 1018 39 10000 6.2 160 13:24 31.12.2020
4219 Clear 10 1017 53 10000 7.7 130 13:24 31.12.2020
4220 Clear 10 1017 53 10000 7.7 130 12:55 31.12.2020
4221 Clear 10 1017 53 10000 7.7 130 12:37 31.12.2020
4222 Clouds 10 1017 53 10000 9.3 140 11:54 31.12.2020
4223 Clouds 10 1017 53 10000 9.3 140 11:32 31.12.2020
4224 Clouds 11 1017 50 10000 12.9 150 10:52 31.12.2020
4225 Clouds 11 1017 50 10000 12.9 150 10:31 31.12.2020
4226 Clouds 11 1018 50 10000 9.3 170 09:59 31.12.2020
4227 Clouds 11 1018 50 10000 9.3 170 09:39 31.12.2020
4228 Clouds 11 1019 50 10000 7.2 170 09:21 31.12.2020
4229 Clouds 11 1019 50 10000 7.2 170 08:46 31.12.2020
4230 Clouds 11 1019 50 10000 7.2 170 08:27 31.12.2020
4231 Clouds 12 1019 50 10000 7.2 130 07:52 31.12.2020
4232 Clouds 13 1020 47 10000 7.2 150 06:49 31.12.2020
4233 Clear 13 1020 44 10000 7.2 200 05:30 31.12.2020
4234 Clear 13 1020 44 10000 7.2 200 05:30 31.12.2020
4235 Clear 15 1019 38 10000 7.7 190 03:24 31.12.2020
4236 Clear 15 1019 38 10000 7.7 190 02:26 31.12.2020
4237 Clouds 16 1019 36 10000 5.1 180 01:53 31.12.2020
4238 Clouds 16 1019 36 10000 5.1 180 01:33 31.12.2020
4239 Clouds 17 1019 36 10000 5.1 180 00:52 31.12.2020
4240 Dust 20 1018 32 10000 5.1 180 23:55 30.12.2020
4241 Dust 20 1018 30 10000 6.2 140 23:20 30.12.2020
4242 Dust 21 1018 30 10000 6.2 140 22:52 30.12.2020
4243 Dust 21 1018 30 10000 6.2 140 22:32 30.12.2020
4244 Clear 21 1019 27 10000 5.1 150 21:49 30.12.2020
4245 Clear 21 1019 26 10000 5.1 150 21:25 30.12.2020
4246 Clear 20 1021 28 10000 5.1 180 20:52 30.12.2020
4247 Clear 20 1021 28 10000 5.1 180 20:25 30.12.2020
4248 Clear 19 1022 29 10000 3.1 180 19:42 30.12.2020
4249 Clear 19 1022 29 10000 3.1 180 19:23 30.12.2020
4250 Clear 18 1023 34 10000 5.1 190 18:57 30.12.2020
4251 Clear 18 1023 34 10000 5.1 190 18:37 30.12.2020
4252 Clear 18 1023 34 10000 7.2 150 18:19 30.12.2020
4253 Clear 16 1024 41 10000 2.64 190 17:41 30.12.2020
4254 Clear 16 1024 41 10000 1.5 170 17:21 30.12.2020
4255 Clear 13 1024 50 10000 3.1 120 16:41 30.12.2020
4256 Clear 10 1023 61 10000 2.1 60 15:50 30.12.2020
4257 Clear 9 1023 61 10000 1.79 60 15:29 30.12.2020
4258 Clear 9 1023 66 10000 2.1 310 14:45 30.12.2020
4259 Clear 8 1023 66 10000 1.68 195 14:26 30.12.2020
4260 Clear 8 1023 66 10000 1.68 195 13:53 30.12.2020
4261 Clear 8 1023 61 10000 2.1 90 12:49 30.12.2020
4262 Clear 8 1023 61 10000 1.74 195 12:24 30.12.2020
4263 Clear 8 1023 61 10000 1.74 195 11:39 30.12.2020
4264 Clear 9 1023 57 10000 2.05 190 11:20 30.12.2020
4265 Clear 9 1023 57 10000 2.05 190 10:55 30.12.2020
4266 Clear 9 1023 57 10000 2.05 190 10:36 30.12.2020
4267 Clear 9 1024 61 10000 1.69 196 09:55 30.12.2020
4268 Clear 9 1024 61 10000 1.63 196 09:36 30.12.2020
4269 Clear 11 1024 54 10000 1.63 196 08:35 30.12.2020
4270 Clear 12 1025 50 10000 2.6 200 07:32 30.12.2020
4271 Clear 13 1025 44 10000 1.57 198 06:54 30.12.2020
4272 Clear 13 1025 44 10000 1.57 198 06:35 30.12.2020
4273 Clear 14 1025 41 10000 2.6 120 05:46 30.12.2020
4274 Clear 14 1025 41 10000 2.6 120 05:27 30.12.2020
4275 Clear 16 1023 33 10000 4.1 150 03:29 30.12.2020
4276 Clear 17 1022 37 10000 5.7 140 02:47 30.12.2020
4277 Clear 17 1022 29 10000 5.7 140 02:27 30.12.2020
4278 Clear 18 1022 24 10000 4.1 120 01:34 30.12.2020
4279 Clear 18 1022 24 10000 4.1 120 01:34 30.12.2020
4280 Clear 21 1022 9 10000 3.1 60 00:51 30.12.2020
4281 Clear 21 1022 9 10000 3.1 60 00:32 30.12.2020
4282 Clear 22 1022 10 9656 3.6 40 23:58 29.12.2020
4283 Clear 22 1022 10 9656 3.6 40 23:40 29.12.2020
4284 Clear 21 1023 14 10000 1.24 86 23:21 29.12.2020
4285 Clear 21 1023 14 10000 1.24 86 22:43 29.12.2020
4286 Clear 21 1023 14 10000 1.03 77 22:23 29.12.2020
4287 Clear 21 1024 16 10000 1.03 77 21:50 29.12.2020
4288 Clear 21 1024 16 10000 0.96 58 21:32 29.12.2020
4289 Clear 20 1025 19 10000 2.1 40 20:54 29.12.2020
4290 Clear 20 1025 19 10000 2.1 40 20:36 29.12.2020
4291 Clear 19 1027 23 9656 1.08 51 20:18 29.12.2020
4292 Clear 18 1027 23 9656 1.08 51 19:37 29.12.2020
4293 Clear 18 1027 25 9656 2.1 100 19:19 29.12.2020
4294 Clear 16 1028 28 9656 3.1 100 18:44 29.12.2020
4295 Clear 16 1028 28 9656 3.1 100 18:24 29.12.2020
4296 Clear 14 1029 32 10000 2.6 80 17:44 29.12.2020
4297 Clear 13 1029 34 10000 2.1 90 17:19 29.12.2020
4298 Clear 10 1028 39 10000 0.59 259 16:36 29.12.2020
4299 Clear 7 1027 44 10000 2.1 90 15:59 29.12.2020
4300 Clear 4 1027 44 10000 2.1 90 15:36 29.12.2020
4301 Clear 3 1026 44 10000 2.1 70 14:58 29.12.2020
4302 Clear 3 1026 44 10000 2.1 70 14:36 29.12.2020
4303 Clear 5 1026 41 10000 2.1 70 14:18 29.12.2020
4304 Clear 5 1026 41 10000 2.1 70 13:39 29.12.2020
4305 Clear 6 1026 41 10000 2.6 70 13:18 29.12.2020
4306 Clear 6 1026 41 10000 2.6 70 13:18 29.12.2020
4307 Clear 6 1026 41 10000 2.6 70 12:37 29.12.2020
4308 Clear 6 1026 41 10000 1 60 12:19 29.12.2020
4309 Clear 6 1026 41 10000 1 60 11:52 29.12.2020
4310 Clear 6 1026 41 10000 1 60 11:31 29.12.2020
4311 Clear 7 1026 42 10000 1.5 60 10:27 29.12.2020
4312 Clear 7 1027 45 10000 2.1 60 09:48 29.12.2020
4313 Clear 8 1027 45 10000 2.1 60 09:20 29.12.2020
4314 Clear 8 1027 45 10000 2.1 60 08:53 29.12.2020
4315 Clear 9 1027 42 10000 1.5 70 08:22 29.12.2020
4316 Clear 11 1027 27 10000 0.71 347 07:26 29.12.2020
4317 Clear 13 1027 26 10000 2.6 300 06:26 29.12.2020
4318 Clear 15 1026 16 10000 3.1 60 03:45 29.12.2020
4319 Clear 20 1024 10 10000 1.33 27 00:47 29.12.2020
4320 Clear 21 1024 10 10000 2.1 280 00:20 29.12.2020
4321 Clear 21 1024 10 10000 2.1 280 23:34 28.12.2020
4322 Clear 22 1025 11 10000 1.68 24 22:28 28.12.2020
4323 Clear 21 1026 13 10000 2.1 320 21:45 28.12.2020
4324 Clear 19 1027 14 10000 2.1 120 21:24 28.12.2020
4325 Clear 20 1027 14 10000 2.1 120 20:42 28.12.2020
4326 Clear 18 1029 13 10000 1.49 20 20:22 28.12.2020
4327 Clear 18 1029 13 10000 1.49 20 19:48 28.12.2020
4328 Clear 16 1029 13 10000 1.48 28 19:24 28.12.2020
4329 Clear 16 1029 26 10000 2.1 70 18:52 28.12.2020
4330 Clear 16 1029 26 10000 2.1 70 18:28 28.12.2020
4331 Clear 16 1029 26 10000 2.1 70 18:28 28.12.2020
4332 Clear 14 1030 34 10000 2.1 350 17:46 28.12.2020
4333 Clear 14 1030 34 10000 2.1 350 17:26 28.12.2020
4334 Clear 11 1029 39 10000 2.1 60 16:46 28.12.2020
4335 Clear 10 1029 39 10000 2.1 60 16:26 28.12.2020
4336 Clear 8 1029 48 10000 2.1 80 15:53 28.12.2020
4337 Clear 4 1028 51 10000 2.1 70 15:26 28.12.2020
4338 Clear 4 1028 51 10000 2.1 70 14:28 28.12.2020
4339 Clear 5 1027 48 10000 1.5 120 13:38 28.12.2020
4340 Clear 5 1027 48 10000 2.1 60 13:19 28.12.2020
4341 Clear 5 1027 48 10000 2.1 60 12:25 28.12.2020
4342 Clear 7 1027 48 10000 2.1 70 11:48 28.12.2020
4343 Clear 7 1027 48 10000 2.1 70 11:29 28.12.2020
4344 Clear 7 1027 45 10000 1.11 9 10:54 28.12.2020
4345 Clear 8 1027 45 10000 1.07 6 10:28 28.12.2020
4346 Clear 8 1027 42 10000 3.1 70 09:52 28.12.2020
4347 Clear 10 1027 43 10000 2.1 50 09:22 28.12.2020
4348 Clear 11 1027 43 10000 2.1 50 08:58 28.12.2020
4349 Clear 13 1027 28 10000 4.6 300 06:52 28.12.2020
4350 Clear 14 1026 25 10000 2.1 40 04:56 28.12.2020
4351 Clear 17 1024 13 10000 4.1 10 03:21 28.12.2020
4352 Clear 19 1023 12 10000 5.1 360 01:52 28.12.2020
4353 Clear 21 1023 10 10000 6.2 70 23:50 27.12.2020
4354 Clear 21 1023 11 10000 7.2 60 23:20 27.12.2020
4355 Clear 21 1024 15 10000 3.1 40 22:24 27.12.2020
4356 Clear 21 1024 15 10000 3.1 40 21:27 27.12.2020
4357 Clear 20 1026 22 10000 2.71 22 20:56 27.12.2020
4358 Clear 19 1026 22 10000 1.34 60 19:49 27.12.2020
4359 Clear 18 1028 34 10000 2.27 4 19:23 27.12.2020
4360 Clear 19 1028 34 10000 2.1 7 18:49 27.12.2020
4361 Clear 18 1028 34 10000 1.39 0 18:20 27.12.2020
4362 Clear 17 1028 34 10000 1.39 0 17:54 27.12.2020
4363 Clear 15 1028 41 10000 0.51 13 17:34 27.12.2020
4364 Clear 14 1028 46 10000 2.1 90 16:54 27.12.2020
4365 Clear 12 1028 53 10000 2.6 90 16:21 27.12.2020
4366 Clear 8 1027 61 10000 2.1 80 15:30 27.12.2020
4367 Clear 5 1026 65 10000 3.6 70 14:49 27.12.2020
4368 Clear 5 1026 65 10000 3.6 70 14:31 27.12.2020
4369 Clear 8 1025 52 10000 1.5 50 13:30 27.12.2020
4370 Clear 7 1025 53 10000 1.5 80 12:52 27.12.2020
4371 Clear 8 1025 49 10000 1.5 80 12:24 27.12.2020
4372 Clear 8 1025 49 10000 2.6 80 11:41 27.12.2020
4373 Clear 9 1025 57 10000 3.1 50 10:58 27.12.2020
4374 Clear 9 1025 57 10000 3.1 50 10:39 27.12.2020
4375 Clear 10 1025 53 10000 2.6 50 10:19 27.12.2020
4376 Clear 12 1025 48 10000 3.1 290 08:53 27.12.2020
4377 Clear 12 1025 47 10000 3.1 290 08:28 27.12.2020
4378 Clear 13 1026 44 10000 2.1 350 07:28 27.12.2020
4379 Clear 13 1026 62 10000 2.6 50 05:47 27.12.2020
4380 Clear 13 1025 58 10000 2.6 60 04:59 27.12.2020
4381 Clouds 16 1024 48 10000 3.1 140 03:23 27.12.2020
4382 Clouds 19 1022 32 10000 4.1 120 01:47 27.12.2020
4383 Clouds 22 1021 17 10000 4.6 360 00:26 27.12.2020
4384 Clouds 22 1022 21 10000 3.6 60 23:42 26.12.2020
4385 Clouds 22 1023 18 10000 2.6 60 23:21 26.12.2020
4386 Clouds 23 1023 18 10000 2.6 60 22:40 26.12.2020
4387 Clouds 23 1024 18 10000 3.1 280 22:18 26.12.2020
4388 Clouds 22 1024 18 10000 3.1 280 21:52 26.12.2020
4389 Clouds 22 1025 21 9656 1.5 240 21:24 26.12.2020
4390 Clouds 21 1025 21 9656 1.5 240 20:44 26.12.2020
4391 Clouds 21 1027 28 9656 1.52 350 20:21 26.12.2020
4392 Clouds 20 1027 28 9656 1.05 337 19:30 26.12.2020
4393 Clear 19 1027 32 9656 1 340 18:54 26.12.2020
4394 Clear 18 1028 42 9656 2.1 30 18:32 26.12.2020
4395 Clear 16 1028 54 9656 0.42 253 17:46 26.12.2020
4396 Clear 16 1028 54 9656 0.74 225 17:28 26.12.2020
4397 Clear 14 1028 62 10000 1.5 60 16:38 26.12.2020
4398 Clear 11 1028 70 10000 2.1 70 15:58 26.12.2020
4399 Clear 7 1027 81 9656 3.6 60 15:20 26.12.2020
4400 Clear 7 1027 81 9656 3.6 60 14:31 26.12.2020
4401 Clear 7 1027 75 9656 2.1 60 13:57 26.12.2020
4402 Clear 7 1027 75 9656 2.1 60 13:36 26.12.2020
4403 Clear 8 1027 81 9656 0.51 254 12:57 26.12.2020
4404 Clear 8 1027 81 9656 0.48 251 12:39 26.12.2020
4405 Clear 9 1027 76 9656 0.32 271 11:59 26.12.2020
4406 Clear 9 1027 76 9656 0.32 271 11:41 26.12.2020
4407 Clear 9 1027 66 9656 1.5 40 11:20 26.12.2020
4408 Clear 10 1027 66 9656 1.5 40 10:45 26.12.2020
4409 Clear 10 1028 62 10000 2.1 120 10:24 26.12.2020
4410 Clear 10 1028 62 10000 2.1 120 09:47 26.12.2020
4411 Clear 10 1028 62 10000 2.6 50 08:55 26.12.2020
4412 Clear 12 1028 54 10000 2.6 70 08:19 26.12.2020
4413 Clear 13 1028 50 10000 0.75 9 07:21 26.12.2020
4414 Clouds 14 1028 47 10000 2.1 100 05:37 26.12.2020
4415 Clouds 17 1026 45 10000 3.1 360 02:47 26.12.2020
4416 Clouds 19 1025 39 8047 2.1 340 00:36 26.12.2020
4417 Clouds 19 1026 39 8047 2.1 250 23:49 25.12.2020
4418 Clouds 19 1026 39 8047 2.1 250 23:28 25.12.2020
4419 Smoke 20 1026 37 6437 2.1 100 22:52 25.12.2020
4420 Smoke 20 1026 37 6437 2.1 100 22:26 25.12.2020
4421 Smoke 18 1027 45 6437 2.6 50 21:43 25.12.2020
4422 Smoke 18 1029 48 6437 2.1 60 21:25 25.12.2020
4423 Smoke 18 1029 48 6437 2.1 60 20:45 25.12.2020
4424 Smoke 17 1029 48 6437 2.1 60 20:26 25.12.2020
4425 Smoke 15 1030 58 6437 2.1 60 19:43 25.12.2020
4426 Haze 14 1031 66 4828 2.1 70 18:47 25.12.2020
4427 Smoke 13 1031 66 4828 2.1 70 18:29 25.12.2020
4428 Haze 12 1032 66 4828 2.1 90 17:35 25.12.2020
4429 Haze 10 1031 75 4828 2.1 80 16:51 25.12.2020
4430 Smoke 9 1031 81 6437 3.1 50 16:24 25.12.2020
4431 Smoke 9 1031 81 6437 3.1 50 15:49 25.12.2020
4432 Smoke 8 1031 81 6437 3.1 50 15:26 25.12.2020
4433 Haze 8 1030 81 4828 3.6 70 14:32 25.12.2020
4434 Haze 8 1030 81 6437 2.6 80 13:49 25.12.2020
4435 Haze 8 1030 81 6437 2.6 80 13:26 25.12.2020
4436 Haze 8 1029 81 6437 2.1 80 12:58 25.12.2020
4437 Haze 8 1029 81 6437 2.1 80 12:27 25.12.2020
4438 Haze 8 1029 81 6437 2.1 70 11:47 25.12.2020
4439 Haze 8 1030 81 6437 2.6 120 11:24 25.12.2020
4440 Haze 8 1030 81 6437 2.6 120 10:43 25.12.2020
4441 Haze 8 1030 75 8047 3.1 100 09:49 25.12.2020
4442 Haze 9 1030 75 8047 3.1 100 09:26 25.12.2020
4443 Haze 9 1029 70 8047 5.1 280 08:37 25.12.2020
4444 Clear 12 1029 62 9656 2.6 60 06:52 25.12.2020
4445 Clear 12 1029 58 9656 2.6 60 06:21 25.12.2020
4446 Clear 19 1025 45 10000 2.1 20 02:23 25.12.2020
4447 Clear 21 1024 21 9656 2.1 330 00:32 25.12.2020
4448 Clear 23 1025 18 9656 1.5 290 23:32 24.12.2020
4449 Clear 22 1025 19 8047 1.24 39 22:56 24.12.2020
4450 Clear 22 1025 19 8047 1.36 18 22:25 24.12.2020
4451 Clear 22 1026 21 8047 3.1 320 21:52 24.12.2020
4452 Clear 21 1027 22 8047 4.6 30 20:59 24.12.2020
4453 Clear 21 1029 34 8047 3.1 310 19:54 24.12.2020
4454 Clear 18 1030 48 6437 1.5 80 18:22 24.12.2020
4455 Clear 18 1030 48 6437 1.5 80 17:39 24.12.2020
4456 Clear 16 1030 54 6437 1.5 120 17:21 24.12.2020
4457 Clear 14 1030 54 6437 1.5 120 16:25 24.12.2020
4458 Clear 12 1030 62 8047 1.17 26 15:49 24.12.2020
4459 Clear 11 1030 62 8047 0.9 5 15:26 24.12.2020
4460 Clear 10 1029 61 8047 1.5 50 14:57 24.12.2020
4461 Clear 8 1028 70 6437 3.6 70 14:38 24.12.2020
4462 Clear 9 1027 66 8047 2.1 50 14:19 24.12.2020
4463 Clear 10 1027 66 8047 2.1 50 13:39 24.12.2020
4464 Clear 9 1027 70 8047 2.1 60 13:18 24.12.2020
4465 Clear 9 1027 70 8047 2.1 60 12:40 24.12.2020
4466 Clear 10 1027 71 9656 2.1 60 12:18 24.12.2020
4467 Clear 10 1027 71 9656 2.1 60 11:38 24.12.2020
4468 Clear 11 1027 71 9656 2.1 60 11:19 24.12.2020
4469 Clear 11 1027 71 9656 2.1 60 10:43 24.12.2020
4470 Clear 12 1027 66 9656 0.76 198 10:20 24.12.2020
4471 Clear 13 1027 67 9656 0.76 198 09:50 24.12.2020
4472 Clear 14 1027 62 9656 1 186 08:50 24.12.2020
4473 Clear 15 1027 55 9656 2.1 160 07:55 24.12.2020
4474 Clear 15 1027 55 9656 2.1 160 07:37 24.12.2020
4475 Clear 15 1027 59 10000 2.6 120 06:27 24.12.2020
4476 Clear 17 1025 48 9656 3.1 110 03:50 24.12.2020
4477 Clouds 19 1024 42 9656 5.1 110 01:51 24.12.2020
4478 Clouds 21 1024 27 8047 2.1 70 01:20 24.12.2020
4479 Clouds 23 1024 27 8047 2.1 70 00:31 24.12.2020
4480 Clouds 24 1024 25 8047 2.6 10 23:59 23.12.2020
4481 Clouds 24 1024 25 8047 2.6 10 23:39 23.12.2020
4482 Clouds 24 1025 27 8047 5.7 250 23:20 23.12.2020
4483 Clouds 24 1025 27 8047 5.7 250 22:43 23.12.2020
4484 Clouds 23 1026 31 8047 3.6 300 22:23 23.12.2020
4485 Clouds 23 1026 31 8047 3.6 300 21:43 23.12.2020
4486 Clear 23 1027 31 8047 0.72 29 21:21 23.12.2020
4487 Clear 23 1027 31 8047 0.72 29 20:45 23.12.2020
4488 Clear 22 1028 33 8047 3.1 240 20:25 23.12.2020
4489 Clear 21 1028 33 8047 3.1 240 19:45 23.12.2020
4490 Clear 21 1028 33 8047 3.1 240 19:23 23.12.2020
4491 Clear 20 1029 42 6437 2.1 80 18:56 23.12.2020
4492 Clear 20 1029 42 6437 2.1 80 18:35 23.12.2020
4493 Clear 18 1030 51 6437 0.66 12 17:44 23.12.2020
4494 Clear 16 1030 54 6437 2.1 100 17:24 23.12.2020
4495 Clear 16 1030 54 6437 2.1 100 16:56 23.12.2020
4496 Clear 15 1030 54 6437 2.1 100 16:37 23.12.2020
4497 Clouds 13 1029 71 6437 2.6 70 16:18 23.12.2020
4498 Clouds 12 1029 71 6437 2.6 70 15:40 23.12.2020
4499 Clouds 12 1029 71 6437 2.6 70 15:40 23.12.2020
4500 Mist 11 1029 71 4828 1.5 70 15:22 23.12.2020
4501 Mist 10 1029 71 4828 1.5 70 14:51 23.12.2020
4502 Mist 10 1029 71 4828 1.5 70 14:25 23.12.2020
4503 Clouds 11 1028 71 9656 1 100 13:47 23.12.2020
4504 Clouds 10 1028 71 9656 2.1 50 13:21 23.12.2020
4505 Clouds 10 1028 71 9656 2.1 50 12:59 23.12.2020
4506 Clouds 10 1028 71 9656 2.1 50 12:38 23.12.2020
4507 Clouds 12 1028 62 10000 1.5 250 12:18 23.12.2020
4508 Clouds 12 1028 62 10000 1.5 250 11:45 23.12.2020
4509 Clouds 13 1028 62 10000 0.62 195 10:57 23.12.2020
4510 Clouds 13 1028 62 10000 0.62 195 10:39 23.12.2020
4511 Clouds 13 1028 58 10000 0.61 192 10:19 23.12.2020
4512 Clouds 13 1028 58 10000 0.73 179 09:26 23.12.2020
4513 Clouds 14 1028 58 10000 1.5 240 08:42 23.12.2020
4514 Clouds 15 1029 55 10000 1.5 200 07:51 23.12.2020
4515 Clouds 15 1029 55 10000 1.5 200 07:20 23.12.2020
4516 Clear 15 1029 58 10000 2.1 50 06:38 23.12.2020
4517 Clouds 16 1029 51 10000 2.6 80 05:25 23.12.2020
4518 Clear 17 1028 48 10000 3.1 90 04:28 23.12.2020
4519 Clouds 22 1025 24 10000 2.1 360 00:34 23.12.2020
4520 Clouds 23 1025 25 10000 1.21 35 23:45 22.12.2020
4521 Clouds 23 1025 25 10000 1.25 21 23:26 22.12.2020
4522 Clouds 22 1026 26 9656 2.1 40 22:43 22.12.2020
4523 Clouds 22 1026 26 9656 2.1 40 22:25 22.12.2020
4524 Clouds 22 1027 28 9656 2.1 290 21:55 22.12.2020
4525 Clouds 21 1028 35 8047 1.54 22 21:22 22.12.2020
4526 Clouds 21 1028 35 8047 1.54 22 20:57 22.12.2020
4527 Clouds 21 1028 35 8047 1.54 22 20:38 22.12.2020
4528 Clouds 21 1030 37 8047 1.5 60 20:20 22.12.2020
4529 Clouds 21 1030 37 8047 1.5 60 19:42 22.12.2020
4530 Clear 20 1031 45 9656 2.24 11 19:20 22.12.2020
4531 Clear 19 1031 45 9656 2.24 11 18:47 22.12.2020
4532 Clear 19 1031 48 9656 2.1 230 18:27 22.12.2020
4533 Clear 17 1031 55 9656 1.65 11 17:45 22.12.2020
4534 Clear 15 1031 76 10000 3.6 90 17:18 22.12.2020
4535 Clear 14 1031 76 10000 3.6 90 16:48 22.12.2020
4536 Clear 13 1030 76 10000 3.1 70 16:22 22.12.2020
4537 Clear 12 1030 76 10000 3.1 70 15:51 22.12.2020
4538 Clear 12 1030 76 10000 3.1 70 15:33 22.12.2020
4539 Clear 11 1029 76 9656 2.6 70 14:59 22.12.2020
4540 Clear 11 1029 76 9656 2.6 70 14:41 22.12.2020
4541 Clouds 11 1029 76 9656 2.1 100 14:22 22.12.2020
4542 Clouds 11 1029 76 9656 2.1 100 13:47 22.12.2020
4543 Clouds 11 1028 76 9656 0.6 14 13:19 22.12.2020
4544 Clouds 11 1028 76 9656 0.2 54 12:55 22.12.2020
4545 Clouds 11 1028 76 9656 0.2 54 12:36 22.12.2020
4546 Clouds 12 1028 66 9656 2.1 60 12:18 22.12.2020
4547 Clouds 12 1028 66 9656 2.1 60 11:40 22.12.2020
4548 Clouds 13 1028 66 9656 0.18 354 11:21 22.12.2020
4549 Clouds 13 1028 58 9656 0.18 354 10:53 22.12.2020
4550 Clouds 15 1028 59 9656 2.1 280 10:25 22.12.2020
4551 Clouds 15 1028 59 9656 2.1 280 09:57 22.12.2020
4552 Clouds 15 1028 59 9656 2.1 280 09:27 22.12.2020
4553 Clouds 15 1028 59 10000 0.18 215 08:53 22.12.2020
4554 Clouds 16 1028 59 10000 0.18 215 08:34 22.12.2020
4555 Clouds 16 1029 55 10000 2.1 260 07:56 22.12.2020
4556 Clouds 16 1029 55 10000 2.1 260 07:56 22.12.2020
4557 Clouds 16 1029 51 10000 2.1 210 07:19 22.12.2020
4558 Clouds 17 1029 48 9656 1.5 160 05:48 22.12.2020
4559 Clouds 17 1027 63 9656 1.5 180 03:46 22.12.2020
4560 Rain 19 1026 45 8047 5.1 190 01:35 22.12.2020
4561 Clouds 21 1025 26 9656 1.5 140 23:56 21.12.2020
4562 Clouds 22 1025 26 9656 1.5 140 23:37 21.12.2020
4563 Clouds 22 1025 26 8047 2.6 90 22:59 21.12.2020
4564 Clouds 22 1025 26 8047 2.6 90 22:36 21.12.2020
4565 Clouds 22 1026 33 8047 2.1 330 22:18 21.12.2020
4566 Clouds 22 1026 33 8047 2.1 330 21:41 21.12.2020
4567 Clouds 22 1026 33 8047 0.89 51 21:22 21.12.2020
4568 Clouds 20 1027 40 6437 2.1 70 20:40 21.12.2020
4569 Clear 21 1028 42 6437 1.5 110 20:19 21.12.2020
4570 Clear 20 1028 42 6437 1.5 110 19:45 21.12.2020
4571 Haze 18 1029 51 4828 2.1 80 19:20 21.12.2020
4572 Haze 18 1029 51 4828 2.1 80 18:53 21.12.2020
4573 Haze 17 1029 51 4828 2.1 80 18:34 21.12.2020
4574 Haze 16 1030 62 4828 0.85 28 17:56 21.12.2020
4575 Haze 15 1030 71 4828 2.6 60 17:37 21.12.2020
4576 Haze 13 1030 81 4828 3.6 90 17:19 21.12.2020
4577 Haze 12 1030 81 4828 3.6 90 16:38 21.12.2020
4578 Haze 11 1029 87 4828 2.6 60 16:18 21.12.2020
4579 Mist 10 1029 87 4828 2.6 60 15:40 21.12.2020
4580 Haze 9 1028 87 8047 2.6 100 14:57 21.12.2020
4581 Clouds 10 1027 81 9656 3.1 80 14:22 21.12.2020
4582 Clouds 10 1027 81 9656 3.1 80 13:45 21.12.2020
4583 Clouds 10 1027 81 9656 3.1 80 13:27 21.12.2020
4584 Clouds 11 1027 76 9656 2.6 80 12:47 21.12.2020
4585 Clouds 11 1027 76 9656 2.6 80 12:25 21.12.2020
4586 Clouds 11 1026 76 10000 1.5 50 11:59 21.12.2020
4587 Clouds 11 1026 76 10000 1.5 50 11:40 21.12.2020
4588 Clouds 11 1026 71 10000 2.1 60 11:22 21.12.2020
4589 Clouds 11 1026 71 10000 2.1 60 10:49 21.12.2020
4590 Clouds 11 1026 71 10000 2.1 60 10:30 21.12.2020
4591 Clouds 13 1027 62 10000 2.1 60 09:49 21.12.2020
4592 Clouds 13 1027 62 10000 2.1 60 09:26 21.12.2020
4593 Clouds 14 1027 62 10000 2.1 280 08:54 21.12.2020
4594 Clouds 15 1028 58 10000 4.1 290 07:56 21.12.2020
4595 Clouds 15 1028 55 10000 4.6 280 06:47 21.12.2020
4596 Clouds 17 1027 51 10000 4.1 10 04:58 21.12.2020
4597 Clouds 19 1025 45 10000 5.1 330 02:31 21.12.2020
4598 Clouds 22 1023 26 10000 0.58 168 00:34 21.12.2020
4599 Clouds 23 1023 25 10000 1.5 160 23:37 20.12.2020
4600 Clouds 23 1024 25 10000 2.1 150 23:18 20.12.2020
4601 Clouds 23 1024 25 10000 2.1 150 22:42 20.12.2020
4602 Clouds 23 1025 25 10000 1.5 240 22:22 20.12.2020
4603 Clouds 23 1025 25 10000 1.5 240 21:40 20.12.2020
4604 Clouds 22 1026 30 10000 2.6 80 21:21 20.12.2020
4605 Clouds 22 1026 30 10000 2.6 80 20:52 20.12.2020
4606 Clouds 22 1026 30 10000 2.6 80 20:26 20.12.2020
4607 Clouds 21 1026 30 10000 2.6 120 19:51 20.12.2020
4608 Clouds 19 1028 37 10000 1.21 28 19:33 20.12.2020
4609 Clouds 18 1028 36 10000 1.5 130 18:59 20.12.2020
4610 Clouds 18 1028 36 10000 1.5 130 18:40 20.12.2020
4611 Clouds 16 1029 47 10000 1.5 60 18:22 20.12.2020
4612 Clouds 16 1029 47 10000 1.5 60 17:44 20.12.2020
4613 Clouds 15 1029 54 10000 1.3 16 17:23 20.12.2020
4614 Clouds 14 1029 54 10000 1.3 16 16:45 20.12.2020
4615 Clear 14 1020 58 10000 0.89 161 16:27 20.12.2020
4616 Clouds 10 1028 66 10000 3.1 80 15:49 20.12.2020
4617 Clouds 9 1028 66 10000 3.1 80 15:25 20.12.2020
4618 Clouds 9 1028 70 10000 2.6 50 14:54 20.12.2020
4619 Clouds 9 1028 70 10000 2.6 50 14:33 20.12.2020
4620 Clouds 10 1028 66 10000 1.31 20 13:47 20.12.2020
4621 Clouds 10 1028 66 10000 1.44 14 13:28 20.12.2020
4622 Clouds 11 1027 62 10000 2.1 150 12:58 20.12.2020
4623 Clouds 11 1027 62 10000 2.1 150 12:39 20.12.2020
4624 Clouds 11 1027 54 10000 1.54 5 12:20 20.12.2020
4625 Clouds 11 1027 54 10000 1.54 5 11:43 20.12.2020
4626 Clouds 12 1027 47 10000 1.53 3 11:18 20.12.2020
4627 Clouds 12 1027 47 10000 1.53 3 10:45 20.12.2020
4628 Clouds 13 1028 47 10000 2.6 100 10:20 20.12.2020
4629 Clouds 13 1028 47 10000 2.6 100 09:46 20.12.2020
4630 Clouds 13 1028 47 10000 2.6 100 09:27 20.12.2020
4631 Clouds 13 1028 47 10000 2.6 300 08:56 20.12.2020
4632 Clouds 13 1028 47 10000 2.6 300 08:37 20.12.2020
4633 Clouds 14 1028 47 10000 4.6 280 07:25 20.12.2020
4634 Clouds 16 1028 48 10000 4.1 340 05:44 20.12.2020
4635 Clouds 20 1025 26 10000 3.1 340 01:46 20.12.2020
4636 Clouds 22 1025 27 9656 2.6 310 00:38 20.12.2020
4637 Clouds 23 1025 27 9656 2.1 300 23:20 19.12.2020
4638 Clouds 23 1025 27 9656 2.1 300 22:57 19.12.2020
4639 Clouds 23 1025 27 9656 2.1 300 22:38 19.12.2020
4640 Clouds 22 1026 30 9656 3.1 70 22:19 19.12.2020
4641 Clouds 22 1026 30 9656 3.1 70 21:42 19.12.2020
4642 Clouds 22 1026 30 9656 3.1 70 21:24 19.12.2020
4643 Clouds 21 1028 35 9656 3.1 20 20:45 19.12.2020
4644 Clear 20 1029 37 9656 2.1 10 20:21 19.12.2020
4645 Clear 20 1029 37 9656 2.1 10 19:53 19.12.2020
4646 Clear 20 1029 37 9656 2.1 10 19:34 19.12.2020
4647 Clear 19 1030 42 9656 3.1 220 18:42 19.12.2020
4648 Clear 19 1030 45 9656 3.1 220 18:24 19.12.2020
4649 Clear 18 1031 51 9656 2.1 120 17:48 19.12.2020
4650 Clear 17 1031 51 9656 2.1 120 17:48 19.12.2020
4651 Clouds 15 1030 58 10000 2.1 60 17:24 19.12.2020
4652 Clouds 14 1030 58 10000 2.1 60 16:45 19.12.2020
4653 Clouds 14 1030 58 10000 2.1 60 16:27 19.12.2020
4654 Clouds 12 1030 66 10000 2.1 50 15:59 19.12.2020
4655 Clouds 12 1030 66 10000 2.1 50 15:40 19.12.2020
4656 Clouds 10 1029 71 9656 2.6 80 14:43 19.12.2020
4657 Clouds 10 1029 66 9656 1.5 60 14:22 19.12.2020
4658 Clouds 11 1029 66 9656 1.5 60 13:42 19.12.2020
4659 Clouds 11 1028 66 9656 2.6 60 13:20 19.12.2020
4660 Clouds 11 1028 66 9656 2.6 60 12:45 19.12.2020
4661 Clouds 11 1028 66 9656 2.6 60 12:26 19.12.2020
4662 Clouds 11 1028 62 10000 1.5 70 11:58 19.12.2020
4663 Clouds 12 1028 62 10000 1.5 70 11:40 19.12.2020
4664 Clouds 12 1028 66 10000 2.1 60 10:45 19.12.2020
4665 Clouds 12 1028 66 10000 2.1 60 10:27 19.12.2020
4666 Clouds 13 1029 58 10000 1 200 09:56 19.12.2020
4667 Clouds 13 1029 58 10000 1 200 09:38 19.12.2020
4668 Clouds 14 1029 51 10000 1.5 100 08:36 19.12.2020
4669 Clouds 15 1029 51 10000 2.1 160 07:25 19.12.2020
4670 Clouds 16 1029 48 10000 3.1 140 06:54 19.12.2020
4671 Clouds 16 1029 48 10000 2.6 140 06:21 19.12.2020
4672 Clouds 16 1029 51 10000 1.5 220 05:19 19.12.2020
4673 Clouds 16 1028 51 10000 3.1 150 03:20 19.12.2020
4674 Clouds 21 1026 35 10000 5.1 150 00:41 19.12.2020
4675 Clouds 21 1026 30 10000 5.1 160 00:18 19.12.2020
4676 Clouds 21 1026 30 9656 2.1 110 23:48 18.12.2020
4677 Clouds 21 1026 30 9656 3.1 130 23:23 18.12.2020
4678 Clouds 22 1026 30 9656 3.1 130 22:46 18.12.2020
4679 Clouds 22 1027 28 9656 2.1 60 22:24 18.12.2020
4680 Clouds 22 1027 28 9656 2.1 60 21:50 18.12.2020
4681 Clouds 23 1027 28 9656 2.1 60 21:31 18.12.2020
4682 Clouds 21 1028 35 10000 3.1 100 20:43 18.12.2020
4683 Clouds 21 1029 40 9656 0.42 56 20:22 18.12.2020
4684 Clouds 20 1029 40 9656 0.42 56 19:45 18.12.2020
4685 Clouds 20 1030 40 9656 0.35 86 19:21 18.12.2020
4686 Clear 19 1030 45 9656 1.5 50 18:43 18.12.2020
4687 Clear 19 1030 45 9656 1.5 50 18:24 18.12.2020
4688 Clear 17 1031 48 9656 2.1 30 17:28 18.12.2020
4689 Clear 14 1030 58 10000 2.6 60 16:57 18.12.2020
4690 Clear 14 1030 58 10000 2.6 60 16:38 18.12.2020
4691 Clear 13 1030 58 10000 2.6 60 16:38 18.12.2020
4692 Clear 13 1030 66 10000 0.33 175 16:19 18.12.2020
4693 Clear 12 1030 66 10000 0.33 175 15:42 18.12.2020
4694 Clear 9 1029 70 10000 0.62 179 15:24 18.12.2020
4695 Clear 9 1029 70 10000 0.62 179 14:55 18.12.2020
4696 Clear 9 1028 66 10000 2.1 70 14:22 18.12.2020
4697 Clear 9 1028 66 10000 2.1 70 13:51 18.12.2020
4698 Clear 9 1028 66 10000 2.1 70 13:31 18.12.2020
4699 Clear 9 1028 71 10000 2.1 110 12:50 18.12.2020
4700 Clear 9 1028 71 10000 2.1 110 12:27 18.12.2020
4701 Clear 11 1028 62 10000 2.6 70 11:26 18.12.2020
4702 Clear 11 1028 62 10000 2.6 70 10:40 18.12.2020
4703 Clear 11 1029 62 10000 2.6 50 10:21 18.12.2020
4704 Clear 11 1029 62 10000 2.6 50 09:40 18.12.2020
4705 Clear 12 1029 54 10000 2.1 120 09:22 18.12.2020
4706 Clear 13 1029 54 10000 2.1 120 08:57 18.12.2020
4707 Clear 13 1029 54 10000 2.1 120 08:36 18.12.2020
4708 Clouds 14 1029 51 10000 2.1 220 07:47 18.12.2020
4709 Clear 14 1029 48 10000 2.6 280 07:19 18.12.2020
4710 Clear 15 1029 48 10000 2.6 280 06:58 18.12.2020
4711 Clouds 16 1029 48 10000 4.1 310 05:43 18.12.2020
4712 Clouds 17 1028 42 10000 4.6 280 04:51 18.12.2020
4713 Clouds 18 1026 42 10000 2.6 190 02:31 18.12.2020
4714 Clouds 21 1025 30 10000 3.6 210 01:41 18.12.2020
4715 Clouds 20 1025 30 10000 2.6 150 00:28 18.12.2020
4716 Clouds 22 1025 26 9656 3.1 120 23:50 17.12.2020
4717 Clouds 21 1025 28 9656 3.1 200 23:19 17.12.2020
4718 Clouds 21 1025 28 9656 3.1 200 22:47 17.12.2020
4719 Clouds 21 1025 28 9656 3.1 200 22:27 17.12.2020
4720 Clouds 21 1025 26 10000 2.1 150 21:44 17.12.2020
4721 Clouds 21 1026 26 10000 0.88 74 21:20 17.12.2020
4722 Clouds 21 1026 26 10000 0.88 74 20:45 17.12.2020
4723 Clouds 20 1028 39 9656 2.6 110 20:19 17.12.2020
4724 Clouds 19 1028 39 9656 2.6 110 19:49 17.12.2020
4725 Clear 18 1029 48 8047 2.6 90 19:25 17.12.2020
4726 Clear 18 1029 48 8047 2.6 90 18:47 17.12.2020
4727 Clear 18 1029 48 8047 2.6 90 18:27 17.12.2020
4728 Clear 18 1029 48 8047 2.6 90 18:27 17.12.2020
4729 Clear 17 1029 51 8047 2.1 40 17:58 17.12.2020
4730 Clear 16 1029 58 8047 2.1 120 17:38 17.12.2020
4731 Clear 15 1029 66 8047 2.1 70 17:20 17.12.2020
4732 Clear 14 1029 66 8047 2.1 70 16:37 17.12.2020
4733 Clear 13 1029 71 8047 2.1 80 16:19 17.12.2020
4734 Clouds 10 1028 81 9656 2.6 70 15:42 17.12.2020
4735 Clouds 10 1027 81 9656 3.1 60 15:23 17.12.2020
4736 Clouds 10 1027 81 9656 3.1 60 14:47 17.12.2020
4737 Clouds 10 1026 66 10000 1 160 14:20 17.12.2020
4738 Clouds 11 1026 66 10000 1 160 13:42 17.12.2020
4739 Clouds 11 1025 71 10000 0.56 353 13:18 17.12.2020
4740 Clouds 11 1025 71 10000 0.73 356 12:39 17.12.2020
4741 Clouds 11 1025 66 10000 1 140 12:21 17.12.2020
4742 Clouds 12 1025 66 10000 1 140 11:41 17.12.2020
4743 Clouds 12 1025 62 10000 2.1 160 11:20 17.12.2020
4744 Clouds 12 1025 62 10000 2.1 160 10:40 17.12.2020
4745 Clear 13 1025 58 10000 2.1 140 09:36 17.12.2020
4746 Clouds 14 1025 58 10000 2.6 150 08:40 17.12.2020
4747 Clouds 14 1026 58 10000 1.5 140 07:42 17.12.2020
4748 Clouds 14 1025 55 10000 2.1 100 07:20 17.12.2020
4749 Clouds 15 1025 55 10000 2.1 100 06:47 17.12.2020
4750 Clouds 15 1025 48 10000 3.1 160 06:27 17.12.2020
4751 Clouds 18 1024 45 10000 3.1 180 03:30 17.12.2020
4752 Clouds 20 1022 34 10000 4.6 190 00:27 17.12.2020
4753 Clouds 21 1022 32 10000 2.6 200 23:40 16.12.2020
4754 Clouds 21 1022 35 9656 2.6 140 23:18 16.12.2020
4755 Clouds 21 1022 35 9656 2.6 140 22:48 16.12.2020
4756 Clouds 21 1022 35 9656 2.6 140 22:28 16.12.2020
4757 Clouds 21 1022 35 9656 4.6 150 21:42 16.12.2020
4758 Clouds 22 1023 35 8047 1.5 240 21:23 16.12.2020
4759 Clouds 22 1023 35 8047 1.5 240 20:52 16.12.2020
4760 Clouds 20 1025 42 8047 3.6 80 20:20 16.12.2020
4761 Clouds 19 1025 42 8047 3.6 80 19:38 16.12.2020
4762 Clear 18 1026 45 8047 2.1 60 19:18 16.12.2020
4763 Clear 18 1026 45 8047 2.1 60 18:47 16.12.2020
4764 Clear 18 1027 48 8047 2.1 130 18:25 16.12.2020
4765 Clear 17 1027 51 8047 1.02 45 17:36 16.12.2020
4766 Clear 15 1027 51 8047 1.02 45 16:47 16.12.2020
4767 Clouds 15 1026 58 10000 1.34 60 16:29 16.12.2020
4768 Clouds 13 1026 66 8047 2.6 80 15:58 16.12.2020
4769 Clouds 12 1026 66 8047 2.6 80 15:39 16.12.2020
4770 Clouds 11 1026 66 8047 2.6 80 15:18 16.12.2020
4771 Clouds 12 1025 66 10000 1.5 70 14:44 16.12.2020
4772 Clouds 11 1025 66 10000 1.28 47 14:25 16.12.2020
4773 Clouds 11 1025 66 10000 1.28 47 13:41 16.12.2020
4774 Clear 11 1025 71 10000 1.12 48 13:20 16.12.2020
4775 Clear 11 1025 71 10000 1.12 48 12:43 16.12.2020
4776 Clear 12 1024 66 10000 0.89 49 11:51 16.12.2020
4777 Clear 12 1024 66 10000 0.59 22 11:31 16.12.2020
4778 Clear 12 1024 66 10000 0.59 22 10:56 16.12.2020
4779 Clear 12 1024 66 10000 0.59 22 10:32 16.12.2020
4780 Clouds 13 1025 62 10000 0.06 267 09:56 16.12.2020
4781 Clouds 13 1025 62 10000 0.52 193 09:29 16.12.2020
4782 Clouds 14 1025 54 10000 2.1 250 08:22 16.12.2020
4783 Clouds 14 1025 54 10000 2.1 250 07:45 16.12.2020
4784 Clouds 14 1025 59 10000 1.09 201 07:20 16.12.2020
4785 Clouds 18 1024 34 10000 2.1 210 03:35 16.12.2020
4786 Clouds 20 1022 30 10000 5.7 240 01:59 16.12.2020
4787 Clouds 24 1021 17 10000 4.1 290 23:46 15.12.2020
4788 Clouds 24 1021 23 10000 2.6 200 23:19 15.12.2020
4789 Clouds 24 1021 23 10000 2.6 200 22:41 15.12.2020
4790 Clouds 24 1023 19 10000 4.1 270 22:20 15.12.2020
4791 Clouds 23 1023 19 10000 4.1 270 21:46 15.12.2020
4792 Clear 23 1024 23 10000 0.85 270 21:23 15.12.2020
4793 Clear 23 1024 23 10000 0.85 270 20:45 15.12.2020
4794 Clear 23 1025 26 10000 1.5 270 20:27 15.12.2020
4795 Clear 23 1025 26 10000 1.5 270 19:55 15.12.2020
4796 Clear 22 1025 26 10000 1.5 270 19:33 15.12.2020
4797 Clear 20 1027 37 10000 1.5 110 18:42 15.12.2020
4798 Clear 19 1027 42 10000 1.5 140 18:22 15.12.2020
4799 Clear 19 1027 42 10000 1.5 140 17:58 15.12.2020
4800 Clear 17 1027 42 10000 1.5 140 17:40 15.12.2020
4801 Clouds 17 1027 44 10000 1 150 17:20 15.12.2020
4802 Clouds 16 1027 44 10000 1 150 16:32 15.12.2020
4803 Clouds 12 1026 66 10000 1.5 40 15:52 15.12.2020
4804 Clear 12 1018 49 10000 1.23 202 15:31 15.12.2020
4805 Clouds 10 1026 66 10000 2.1 50 14:47 15.12.2020
4806 Clear 9 1026 66 10000 1.5 80 14:21 15.12.2020
4807 Clear 9 1026 66 10000 1.5 80 13:52 15.12.2020
4808 Clear 9 1026 66 10000 1.5 80 13:32 15.12.2020
4809 Clear 10 1026 66 9656 1.2 206 12:47 15.12.2020
4810 Clear 10 1026 66 9656 1.22 209 12:22 15.12.2020
4811 Clear 11 1026 62 9656 1.5 130 11:56 15.12.2020
4812 Clear 11 1026 62 9656 1.5 130 11:26 15.12.2020
4813 Clear 12 1026 58 9656 1.5 240 10:55 15.12.2020
4814 Clear 12 1026 58 9656 1.5 240 10:32 15.12.2020
4815 Clear 13 1027 54 10000 1.79 199 09:51 15.12.2020
4816 Clear 13 1027 54 10000 1.95 197 09:32 15.12.2020
4817 Clear 13 1028 54 10000 3.6 130 08:53 15.12.2020
4818 Clear 13 1028 54 10000 3.6 130 08:26 15.12.2020
4819 Clear 14 1028 51 10000 1.5 120 07:49 15.12.2020
4820 Clear 14 1028 51 10000 1.5 120 07:25 15.12.2020
4821 Clear 15 1028 51 10000 2.6 100 06:37 15.12.2020
4822 Clouds 16 1027 48 10000 3.6 180 03:29 15.12.2020
4823 Clouds 21 1024 33 10000 5.1 190 00:34 15.12.2020
4824 Clouds 21 1024 30 10000 4.6 190 23:26 14.12.2020
4825 Clouds 21 1025 35 10000 7.2 120 22:56 14.12.2020
4826 Clouds 21 1025 35 10000 7.2 120 22:34 14.12.2020
4827 Clouds 22 1025 30 9656 3.6 160 21:46 14.12.2020
4828 Clouds 22 1027 33 8047 2.6 160 21:23 14.12.2020
4829 Clouds 22 1027 33 8047 2.6 160 20:52 14.12.2020
4830 Clouds 22 1027 33 8047 2.6 160 20:30 14.12.2020
4831 Clouds 20 1027 37 8047 0.81 129 19:54 14.12.2020
4832 Clear 20 1028 42 8047 0.73 26 19:29 14.12.2020
4833 Clear 18 1029 45 8047 1.5 330 18:51 14.12.2020
4834 Clear 18 1029 45 8047 1.5 330 18:51 14.12.2020
4835 Clear 18 1029 45 8047 1.5 330 18:31 14.12.2020
4836 Clear 17 1030 54 9656 3.1 80 17:47 14.12.2020
4837 Clear 15 1030 66 9656 2.6 50 17:24 14.12.2020
4838 Clear 14 1030 66 9656 2.6 50 16:50 14.12.2020
4839 Clouds 14 1029 66 10000 2.24 50 16:29 14.12.2020
4840 Clear 12 1029 71 9656 2.1 320 15:40 14.12.2020
4841 Clouds 11 1029 71 10000 1.79 320 15:20 14.12.2020
4842 Clouds 11 1028 71 10000 2.68 290 14:43 14.12.2020
4843 Clear 11 1029 71 10000 3.1 290 14:24 14.12.2020
4844 Clear 11 1029 71 10000 3.1 290 13:44 14.12.2020
4845 Clear 12 1029 62 10000 2.6 350 13:20 14.12.2020
4846 Clear 12 1029 62 10000 2.6 350 12:52 14.12.2020
4847 Clear 12 1029 62 10000 2.6 350 12:28 14.12.2020
4848 Clouds 13 1028 58 10000 3.6 340 11:35 14.12.2020
4849 Clouds 14 1028 51 10000 6.2 10 10:40 14.12.2020
4850 Clouds 14 1028 51 10000 2.6 350 10:21 14.12.2020
4851 Clouds 15 1028 51 10000 2.6 350 09:43 14.12.2020
4852 Clouds 14 1028 50 10000 2.42 20 08:47 14.12.2020
4853 Clouds 14 1028 50 10000 1.96 17 08:29 14.12.2020
4854 Clouds 15 1028 51 10000 2.6 40 07:44 14.12.2020
4855 Clouds 16 1028 48 10000 2.6 150 06:48 14.12.2020
4856 Clouds 16 1028 48 10000 2.6 50 05:35 14.12.2020
4857 Clouds 20 1025 35 10000 6.2 140 02:26 14.12.2020
4858 Clouds 25 1024 17 10000 3.1 250 00:56 14.12.2020
4859 Clouds 24 1024 17 10000 3.1 250 00:33 14.12.2020
4860 Clouds 25 1024 16 10000 2.1 280 23:57 13.12.2020
4861 Clouds 25 1024 16 10000 2.1 280 23:36 13.12.2020
4862 Clouds 25 1024 20 10000 3.1 240 22:48 13.12.2020
4863 Clouds 25 1025 22 10000 4.1 60 22:20 13.12.2020
4864 Clouds 24 1025 22 10000 4.1 60 21:47 13.12.2020
4865 Clouds 24 1025 22 10000 4.1 60 21:27 13.12.2020
4866 Clouds 23 1026 23 10000 2.1 320 20:38 13.12.2020
4867 Clouds 22 1027 26 10000 2.1 180 20:20 13.12.2020
4868 Clouds 22 1027 26 10000 2.1 180 19:42 13.12.2020
4869 Clouds 21 1028 32 10000 0.57 214 19:20 13.12.2020
4870 Clouds 21 1028 32 10000 0.19 176 18:43 13.12.2020
4871 Clouds 21 1028 34 10000 0.62 180 18:21 13.12.2020
4872 Clouds 19 1028 45 10000 0.62 180 17:47 13.12.2020
4873 Clouds 19 1028 45 10000 0.62 180 17:47 13.12.2020
4874 Clear 17 1028 55 10000 0.93 183 17:21 13.12.2020
4875 Clear 17 1028 55 10000 0.93 183 16:58 13.12.2020
4876 Clear 17 1028 55 10000 0.93 183 16:38 13.12.2020
4877 Clouds 15 1027 66 10000 1.05 198 16:19 13.12.2020
4878 Clouds 12 1027 66 10000 1.05 198 15:40 13.12.2020
4879 Clear 11 1026 76 10000 2.1 240 15:22 13.12.2020
4880 Clear 11 1026 76 10000 2.1 240 14:44 13.12.2020
4881 Clear 10 1025 76 10000 1.13 213 14:21 13.12.2020
4882 Clear 10 1025 76 10000 1.13 213 13:43 13.12.2020
4883 Clear 11 1025 66 10000 2.1 220 13:25 13.12.2020
4884 Clear 11 1025 66 10000 2.1 220 12:48 13.12.2020
4885 Clear 11 1025 62 10000 1.49 205 12:22 13.12.2020
4886 Clear 12 1025 62 10000 1.49 205 11:40 13.12.2020
4887 Clear 13 1025 62 10000 1.66 197 10:56 13.12.2020
4888 Clear 13 1025 62 10000 1.66 197 10:37 13.12.2020
4889 Clear 13 1025 62 10000 1.55 193 09:55 13.12.2020
4890 Clear 13 1025 62 10000 1.55 193 09:55 13.12.2020
4891 Clear 13 1025 62 10000 1.53 197 09:26 13.12.2020
4892 Clear 14 1026 58 10000 1.53 197 08:34 13.12.2020
4893 Clouds 15 1026 55 10000 1.54 201 07:47 13.12.2020
4894 Clouds 17 1025 48 10000 3.6 110 04:48 13.12.2020
4895 Clouds 19 1024 45 10000 5.7 160 02:41 13.12.2020
4896 Clouds 20 1023 42 10000 4.1 180 01:58 13.12.2020
4897 Clouds 21 1026 40 10000 1.34 110 00:50 13.12.2020
4898 Clouds 21 1026 40 10000 1.34 110 23:56 12.12.2020
4899 Clouds 21 1026 40 10000 1.34 110 23:31 12.12.2020
4900 Clouds 21 1026 40 10000 1.34 110 22:52 12.12.2020
4901 Clouds 22 1026 40 10000 1.34 110 22:19 12.12.2020
4902 Clouds 21 1026 40 10000 1.34 110 21:34 12.12.2020
4903 Clouds 21 1026 40 10000 1.34 110 20:56 12.12.2020
4904 Clouds 22 1026 40 10000 1.34 110 20:30 12.12.2020
4905 Clouds 21 1026 40 8047 1.5 110 19:58 12.12.2020
4906 Clouds 21 1026 40 8047 1.5 110 19:39 12.12.2020
4907 Clouds 21 1026 40 8047 1.5 110 19:21 12.12.2020
4908 Clouds 20 1027 48 8047 1 30 18:44 12.12.2020
4909 Clouds 19 1027 48 8047 1 30 18:26 12.12.2020
4910 Clouds 18 1028 48 6437 1 40 17:47 12.12.2020
4911 Clouds 17 1027 59 8047 1 60 16:57 12.12.2020
4912 Clouds 13 1026 71 8047 2.1 80 16:21 12.12.2020
4913 Clouds 13 1026 71 8047 2.1 80 15:45 12.12.2020
4914 Clouds 11 1026 71 8047 2.1 80 15:27 12.12.2020
4915 Clouds 11 1026 71 8047 0.61 159 14:48 12.12.2020
4916 Clear 10 1025 71 9656 0.49 179 13:56 12.12.2020
4917 Clear 10 1025 71 9656 0.49 179 13:37 12.12.2020
4918 Clear 11 1025 81 10000 3.6 60 12:59 12.12.2020
4919 Clear 11 1025 81 10000 3.6 60 12:26 12.12.2020
4920 Smoke 13 1025 76 10000 0.77 184 10:54 12.12.2020
4921 Clouds 14 1026 72 10000 1.08 186 09:49 12.12.2020
4922 Clouds 15 1026 59 10000 1.5 280 08:57 12.12.2020
4923 Clouds 20 1024 48 10000 5.1 150 02:57 12.12.2020
4924 Clouds 24 1021 25 10000 5.1 100 23:58 11.12.2020
4925 Clouds 25 1022 25 10000 5.1 140 22:39 11.12.2020
4926 Clear 23 1024 35 8047 2.1 80 20:50 11.12.2020
4927 Clear 19 1028 45 8047 0.66 78 18:27 11.12.2020
4928 Clear 15 1027 54 8047 2.1 80 16:34 11.12.2020
4929 Clear 12 1025 62 8047 0.48 179 14:18 11.12.2020
4930 Clear 13 1025 62 8047 0.3 169 13:25 11.12.2020
4931 Clouds 14 1025 51 8047 1.5 220 12:19 11.12.2020
4932 Clouds 14 1025 51 8047 1.5 220 11:51 11.12.2020
4933 Clouds 15 1026 48 8047 0.53 207 10:46 11.12.2020
4934 Clouds 15 1026 48 8047 0.86 199 09:41 11.12.2020
4935 Clouds 16 1027 45 10000 5.1 120 05:59 11.12.2020
4936 Clouds 17 1027 42 10000 4.1 100 05:18 11.12.2020
4937 Clouds 19 1025 39 10000 5.7 130 02:28 11.12.2020
4938 Clouds 22 1024 30 10000 6.2 110 00:31 11.12.2020
4939 Clouds 23 1025 25 10000 4.1 100 22:55 10.12.2020
4940 Clear 23 1025 27 10000 0.98 32 21:36 10.12.2020
4941 Clear 23 1027 27 9656 1.5 30 20:46 10.12.2020
4942 Clear 21 1028 28 9656 1.1 44 19:44 10.12.2020
4943 Clear 21 1029 28 9656 0.66 79 18:57 10.12.2020
4944 Clear 18 1030 31 9656 2.1 130 18:21 10.12.2020
4945 Clear 13 1030 43 9656 2.1 80 16:40 10.12.2020
4946 Clear 10 1029 46 10000 2.1 80 15:44 10.12.2020
4947 Clear 10 1028 46 10000 2.6 70 14:58 10.12.2020
4948 Clear 10 1028 46 10000 2.6 70 14:37 10.12.2020
4949 Clear 10 1028 40 10000 2.1 90 13:20 10.12.2020
4950 Clear 11 1027 40 10000 2.1 80 11:41 10.12.2020
4951 Clouds 14 1029 30 10000 2.6 290 08:57 10.12.2020
4952 Clouds 16 1029 29 10000 5.1 290 07:51 10.12.2020
4953 Clouds 15 1029 31 10000 3.1 270 06:42 10.12.2020
4954 Clouds 17 1028 32 10000 2.1 20 03:36 10.12.2020
4955 Clouds 18 1026 32 10000 2.1 240 02:23 10.12.2020
4956 Clouds 20 1026 30 8047 1.5 310 00:22 10.12.2020
4957 Clouds 21 1028 30 10000 1.67 22 21:58 09.12.2020
4958 Clear 20 1029 32 10000 2.1 110 20:28 09.12.2020
4959 Clear 19 1031 34 10000 1.55 18 19:21 09.12.2020
4960 Clear 16 1033 44 10000 1.68 16 17:43 09.12.2020
4961 Clear 14 1033 47 10000 1.58 12 16:44 09.12.2020
4962 Clouds 11 1032 57 9656 3.6 70 16:22 09.12.2020
4963 Clouds 11 1032 57 9656 3.6 70 15:30 09.12.2020
4964 Clouds 8 1032 61 8047 3.1 70 14:27 09.12.2020
4965 Clouds 9 1031 61 9656 1.5 70 13:58 09.12.2020
4966 Clouds 11 1031 57 10000 1.54 9 13:19 09.12.2020
4967 Clouds 10 1031 57 10000 1.54 10 12:44 09.12.2020
4968 Clouds 10 1031 57 10000 2.1 80 11:51 09.12.2020
4969 Clouds 11 1030 54 10000 2.6 80 10:48 09.12.2020
4970 Clouds 14 1031 50 10000 3.1 300 08:49 09.12.2020
4971 Clouds 14 1032 50 10000 4.6 320 07:43 09.12.2020
4972 Clouds 15 1032 44 10000 4.6 320 05:53 09.12.2020
4973 Clouds 16 1030 42 10000 4.1 10 03:29 09.12.2020
4974 Clouds 16 1029 51 9656 3.1 70 01:52 09.12.2020
4975 Clouds 19 1027 34 9656 4.6 310 23:43 08.12.2020
4976 Clouds 20 1027 32 9656 3.6 90 22:52 08.12.2020
4977 Clouds 21 1027 32 8047 1.5 320 21:22 08.12.2020
4978 Clouds 19 1030 42 8047 1.92 25 19:34 08.12.2020
4979 Clouds 19 1030 42 8047 1 120 18:59 08.12.2020
4980 Clouds 17 1031 55 8047 0.91 28 17:55 08.12.2020
4981 Clouds 11 1031 76 9656 1.5 70 15:45 08.12.2020
4982 Clear 8 1030 81 9656 1.5 70 14:26 08.12.2020
4983 Clouds 9 1029 76 10000 2.6 90 13:24 08.12.2020
4984 Clouds 9 1029 76 10000 2.6 90 12:26 08.12.2020
4985 Clouds 10 1029 71 10000 2.6 80 11:42 08.12.2020
4986 Clouds 10 1029 71 10000 2.1 80 10:45 08.12.2020
4987 Clouds 12 1029 66 10000 2.6 90 09:50 08.12.2020
4988 Clouds 12 1029 66 10000 3.1 70 08:28 08.12.2020
4989 Clouds 13 1030 62 10000 3.1 280 06:36 08.12.2020
4990 Clouds 15 1028 62 10000 4.1 40 03:29 08.12.2020
4991 Clouds 17 1026 48 8047 6.2 290 00:46 08.12.2020
4992 Clouds 18 1025 42 8047 3.1 340 23:51 07.12.2020
4993 Clouds 18 1025 42 8047 3.1 50 22:38 07.12.2020
4994 Clouds 18 1026 45 9656 2.1 350 21:51 07.12.2020
4995 Clouds 18 1028 45 9656 1.82 353 19:52 07.12.2020
4996 Clouds 16 1029 58 9656 4.1 340 18:40 07.12.2020
4997 Clouds 14 1030 66 10000 2.1 80 17:26 07.12.2020
4998 Clouds 13 1030 66 10000 2.1 80 16:53 07.12.2020
4999 Clouds 12 1029 71 10000 3.1 80 15:26 07.12.2020
5000 Clouds 12 1028 58 10000 1.5 350 14:46 07.12.2020
5001 Clouds 12 1027 58 10000 2.1 40 13:45 07.12.2020
5002 Clouds 13 1027 58 10000 2.1 360 12:38 07.12.2020
5003 Clouds 13 1027 62 10000 2.6 10 11:43 07.12.2020
5004 Clouds 13 1027 66 10000 1.5 80 11:18 07.12.2020
5005 Clouds 13 1027 66 10000 2.6 60 09:40 07.12.2020
5006 Clouds 14 1028 58 10000 3.1 330 08:21 07.12.2020
5007 Clouds 16 1027 51 10000 3.6 360 06:21 07.12.2020
5008 Clouds 16 1027 51 10000 2.1 340 04:48 07.12.2020
5009 Clouds 19 1023 40 10000 5.1 200 01:54 07.12.2020
5010 Clouds 21 1023 35 10000 1.5 100 23:50 06.12.2020
5011 Clouds 21 1023 32 10000 2.1 110 22:23 06.12.2020
5012 Clouds 22 1025 33 10000 0.35 131 20:54 06.12.2020
5013 Clouds 22 1025 33 10000 0.35 131 20:34 06.12.2020
5014 Clouds 22 1026 33 10000 0.31 126 19:53 06.12.2020
5015 Clouds 19 1027 39 10000 1 70 18:18 06.12.2020
5016 Clouds 16 1028 51 10000 0.82 166 16:47 06.12.2020
5017 Clear 9 1026 70 10000 2.1 70 14:57 06.12.2020
5018 Clear 9 1026 66 10000 2.1 80 13:42 06.12.2020
5019 Clear 10 1025 66 10000 0.37 215 12:42 06.12.2020
5020 Clear 10 1025 66 10000 0.36 254 11:57 06.12.2020
5021 Clear 10 1025 66 10000 0.41 238 11:32 06.12.2020
5022 Clear 11 1026 66 10000 0.41 238 10:45 06.12.2020
5023 Clear 12 1026 66 10000 0.77 201 09:45 06.12.2020
5024 Clear 13 1027 58 10000 0.77 191 08:22 06.12.2020
5025 Clear 14 1027 51 10000 1.26 194 05:38 06.12.2020
5026 Clouds 20 1024 35 10000 5.1 200 00:57 06.12.2020
5027 Clouds 20 1024 35 10000 5.1 200 00:37 06.12.2020
5028 Clouds 21 1024 30 10000 3.6 190 00:19 06.12.2020
5029 Clouds 22 1024 28 10000 5.1 180 22:41 05.12.2020
5030 Clouds 22 1025 27 10000 6.7 160 22:19 05.12.2020
5031 Clouds 22 1025 27 10000 6.7 160 21:47 05.12.2020
5032 Clouds 22 1025 27 10000 6.7 160 21:22 05.12.2020
5033 Clouds 22 1027 30 10000 4.1 170 19:21 05.12.2020
5034 Clouds 20 1028 37 10000 4.1 130 18:38 05.12.2020
5035 Clouds 18 1029 51 10000 1.01 163 16:51 05.12.2020
5036 Clouds 17 1029 51 10000 0.94 177 16:29 05.12.2020
5037 Clouds 13 1028 62 10000 1.5 40 15:36 05.12.2020
5038 Clear 11 1027 66 10000 2.1 250 13:53 05.12.2020
5039 Clear 11 1027 62 10000 1.41 199 11:50 05.12.2020
5040 Clouds 11 1027 62 10000 1.51 196 10:41 05.12.2020
5041 Clouds 11 1027 58 10000 1.5 270 09:38 05.12.2020
5042 Clear 14 1027 51 10000 2.6 100 07:48 05.12.2020
5043 Clear 14 1027 48 10000 2.1 110 06:20 05.12.2020
5044 Clouds 18 1025 45 10000 3.1 180 02:45 05.12.2020
5045 Clouds 22 1024 30 10000 7.2 160 23:47 04.12.2020
5046 Clouds 22 1025 28 10000 5.1 190 21:53 04.12.2020
5047 Clouds 20 1026 34 10000 4.1 160 19:42 04.12.2020
5048 Clouds 20 1027 39 10000 4.1 180 18:47 04.12.2020
5049 Clouds 18 1028 42 10000 2.57 174 17:54 04.12.2020
5050 Clouds 15 1028 54 10000 2.22 172 17:19 04.12.2020
5051 Clouds 10 1027 57 10000 3.1 70 15:34 04.12.2020
5052 Clouds 10 1026 57 10000 1.63 181 13:38 04.12.2020
5053 Clouds 10 1025 57 10000 1.53 188 13:20 04.12.2020
5054 Clouds 10 1025 57 10000 1.65 187 12:47 04.12.2020
5055 Clouds 10 1026 57 10000 1.49 194 10:38 04.12.2020
5056 Clouds 9 1051 50 10000 0.89 270 09:37 04.12.2020
5057 Clouds 14 1027 47 10000 2.6 140 06:40 04.12.2020
5058 Clear 14 1026 44 10000 3.1 130 05:20 04.12.2020
5059 Clouds 17 1024 37 10000 7.2 180 01:54 04.12.2020
5060 Clouds 21 1023 28 10000 4.1 170 22:51 03.12.2020
5061 Clouds 21 1024 28 10000 4.1 180 21:56 03.12.2020
5062 Clouds 21 1025 30 10000 4.1 180 20:47 03.12.2020
5063 Clouds 20 1026 34 10000 2.93 175 19:26 03.12.2020
5064 Clouds 18 1027 42 10000 3.09 173 18:48 03.12.2020
5065 Clouds 15 1028 58 10000 2.1 70 17:21 03.12.2020
5066 Clouds 15 1028 58 10000 2.1 70 16:45 03.12.2020
5067 Clouds 11 1027 66 10000 2.1 60 15:34 03.12.2020
5068 Clear 9 1026 70 10000 2.1 60 14:50 03.12.2020
5069 Clear 9 1026 71 10000 0.19 204 14:19 03.12.2020
5070 Clouds 10 1025 71 10000 2.1 60 12:55 03.12.2020
5071 Clouds 10 1025 76 10000 2.6 60 12:25 03.12.2020
5072 Clouds 11 1025 71 10000 2.6 60 11:22 03.12.2020
5073 Clouds 12 1026 58 10000 1.5 250 08:49 03.12.2020
5074 Clouds 14 1026 55 10000 2.6 160 04:24 03.12.2020
5075 Clouds 17 1024 45 10000 5.1 140 02:20 03.12.2020
5076 Clouds 20 1023 32 10000 4.6 250 00:41 03.12.2020
5077 Clouds 21 1023 26 10000 2 194 22:47 02.12.2020
5078 Clouds 22 1024 25 10000 3.1 220 21:56 02.12.2020
5079 Clouds 21 1025 30 10000 2.1 150 20:52 02.12.2020
5080 Clouds 21 1025 30 10000 2.1 150 20:34 02.12.2020
5081 Clouds 20 1027 34 10000 1.5 20 19:55 02.12.2020
5082 Clouds 18 1028 45 10000 1.12 178 17:53 02.12.2020
5083 Clouds 18 1028 45 10000 1.12 178 17:34 02.12.2020
5084 Clouds 17 1028 51 10000 1.17 188 16:57 02.12.2020
5085 Clouds 11 1026 66 10000 0.94 205 14:47 02.12.2020
5086 Clouds 11 1025 66 10000 2.6 140 11:34 02.12.2020
5087 Clouds 12 1025 62 10000 2.6 130 10:28 02.12.2020
5088 Clouds 14 1026 62 10000 4.1 120 08:29 02.12.2020
5089 Clouds 19 1023 45 10000 5.1 130 00:57 02.12.2020
5090 Clouds 20 1023 40 9656 7.7 120 22:21 01.12.2020
5091 Clouds 22 1025 33 9656 2.6 140 20:36 01.12.2020
5092 Clouds 20 1027 40 9656 2.1 100 19:34 01.12.2020
5093 Clouds 17 1028 48 9656 2.1 180 17:29 01.12.2020
5094 Clouds 13 1028 66 9656 1.5 60 15:40 01.12.2020
5095 Clouds 9 1027 70 9656 1.5 60 13:37 01.12.2020
5096 Clouds 11 1027 71 10000 1.5 80 11:44 01.12.2020
5097 Clouds 11 1027 71 10000 1.5 70 11:26 01.12.2020
5098 Clouds 11 1027 71 10000 1.5 70 10:37 01.12.2020
5099 Clouds 12 1029 62 9656 4.1 280 08:20 01.12.2020
5100 Clouds 13 1028 58 9656 3.6 300 06:46 01.12.2020
5101 Clouds 18 1025 52 9656 6.2 280 01:51 01.12.2020
5102 Clouds 20 1024 42 8047 0.99 355 00:52 01.12.2020
5103 Clouds 21 1025 43 6437 2.6 40 23:21 30.11.2020
5104 Clouds 21 1025 43 6437 2.6 40 22:43 30.11.2020
5105 Clouds 21 1025 43 6437 2.6 40 22:25 30.11.2020
5106 Clouds 20 1027 45 6437 1.5 230 20:47 30.11.2020
5107 Clouds 17 1029 55 6437 2.6 240 19:42 30.11.2020
5108 Clouds 17 1029 55 6437 2.6 240 19:42 30.11.2020
5109 Mist 15 1030 62 4828 3.1 80 18:23 30.11.2020
5110 Mist 16 1030 62 4828 3.1 80 17:47 30.11.2020
5111 Mist 14 1030 67 4828 3.1 60 16:54 30.11.2020
5112 Mist 13 1029 71 4828 2.1 80 15:46 30.11.2020
5113 Clouds 12 1028 71 6437 1.99 14 14:31 30.11.2020
5114 Clouds 13 1028 71 8047 2.6 290 13:42 30.11.2020
5115 Clouds 13 1028 71 9656 2.6 270 12:26 30.11.2020
5116 Clouds 13 1028 71 9656 2.6 270 11:57 30.11.2020
5117 Clouds 13 1028 71 9656 3.1 280 10:26 30.11.2020
5118 Clouds 13 1028 67 10000 2.6 270 09:43 30.11.2020
5119 Clouds 15 1028 51 10000 2.6 330 07:18 30.11.2020
5120 Clear 25 1023 15 10000 1.5 360 23:39 29.11.2020
5121 Clear 26 1024 22 10000 1.52 37 21:49 29.11.2020
5122 Clear 24 1026 17 10000 3.1 50 21:28 29.11.2020
5123 Clear 23 1027 22 9656 1.53 22 19:46 29.11.2020
5124 Clear 20 1028 31 10000 1.5 110 17:46 29.11.2020
5125 Clear 10 1025 53 10000 2.1 310 14:54 29.11.2020
5126 Clear 9 1019 42 10000 0.8 209 12:58 29.11.2020
5127 Clear 11 1025 50 9656 0.75 191 11:41 29.11.2020
5128 Clouds 11 1026 53 9656 3.6 60 09:26 29.11.2020
5129 Clear 13 1026 50 9656 0.61 180 08:37 29.11.2020
5130 Clear 16 1026 39 10000 5.1 50 04:21 29.11.2020
5131 Clear 25 1023 12 10000 2.1 90 23:19 28.11.2020
5132 Clear 25 1023 12 10000 2.1 90 22:55 28.11.2020
5133 Clear 26 1025 10 10000 1.76 15 20:27 28.11.2020
5134 Smoke 23 1027 13 9656 1.39 12 19:31 28.11.2020
5135 Clear 23 1027 17 9656 1.39 12 18:59 28.11.2020
5136 Clear 21 1028 24 9656 0.79 18 18:23 28.11.2020
5137 Clear 19 1028 29 9656 0.79 18 17:33 28.11.2020
5138 Clouds 15 1028 37 10000 2.1 80 15:56 28.11.2020
5139 Clear 8 1026 45 10000 2.6 70 13:58 28.11.2020
5140 Clear 10 1026 46 10000 0.14 246 11:29 28.11.2020
5141 Clear 15 1026 30 10000 0.06 195 09:27 28.11.2020
5142 Clear 20 1025 30 10000 3.1 50 03:48 28.11.2020
5143 Clear 21 1024 24 10000 3.1 60 02:22 28.11.2020
5144 Clear 26 1023 10 10000 1.97 347 23:23 27.11.2020
5145 Clear 26 1024 11 10000 1.97 347 22:45 27.11.2020
5146 Clear 25 1026 12 10000 2.13 2 20:41 27.11.2020
5147 Clear 25 1026 12 10000 1.99 4 20:23 27.11.2020
5148 Clear 21 1029 20 10000 2.1 80 19:19 27.11.2020
5149 Clouds 17 1029 26 10000 2.1 70 16:58 27.11.2020
5150 Clouds 8 1028 37 10000 2.1 70 14:45 27.11.2020
5151 Clouds 10 1027 46 10000 0.23 309 13:21 27.11.2020
5152 Clouds 10 1027 46 10000 0.23 309 12:47 27.11.2020
5153 Clouds 11 1027 39 10000 0.37 17 11:34 27.11.2020
5154 Clouds 12 1027 37 10000 0.51 16 10:49 27.11.2020
5155 Clouds 12 1027 35 10000 2.1 70 09:53 27.11.2020
5156 Clouds 19 1027 24 10000 3.6 20 04:32 27.11.2020
5157 Clouds 24 1012 18 10000 2.63 8 22:26 26.11.2020
5158 Clouds 24 1012 18 10000 2.63 8 21:56 26.11.2020
5159 Clouds 24 1027 22 10000 2.6 330 20:50 26.11.2020
5160 Clouds 21 1030 30 10000 1.5 12 18:37 26.11.2020
5161 Clouds 19 1030 29 10000 1.5 60 17:41 26.11.2020
5162 Clear 10 1054 66 10000 0.21 98 14:39 26.11.2020
5163 Clear 11 1054 60 10000 0.66 336 13:19 26.11.2020
5164 Clear 11 1054 60 10000 0.42 328 12:41 26.11.2020
5165 Clear 12 1054 54 10000 0.45 270 11:29 26.11.2020
5166 Clear 12 1054 54 10000 0.45 270 10:25 26.11.2020
5167 Clear 12 1055 54 10000 0.89 270 09:39 26.11.2020
5168 Clear 12 1055 54 10000 0.89 270 09:18 26.11.2020
5169 Clear 12 1055 54 10000 0.89 270 08:34 26.11.2020
5170 Clouds 21 1027 24 10000 6.2 50 02:19 26.11.2020
5171 Clear 25 1026 19 10000 2.6 240 22:31 25.11.2020
5172 Clear 24 1028 23 9656 2.6 360 20:38 25.11.2020
5173 Clear 21 1029 25 8047 2.1 320 19:27 25.11.2020
5174 Clear 20 1030 30 8047 1.5 330 18:22 25.11.2020
5175 Clear 12 1030 50 10000 1.5 90 15:55 25.11.2020
5176 Clear 12 1030 50 10000 1.5 90 15:32 25.11.2020
5177 Clear 9 1029 61 10000 0.35 323 13:47 25.11.2020
5178 Clear 9 1029 61 10000 0.33 309 13:29 25.11.2020
5179 Clear 11 1028 61 10000 2.1 80 11:27 25.11.2020
5180 Clear 13 1028 47 10000 0.08 61 09:23 25.11.2020
5181 Clear 13 1028 47 10000 0.08 61 08:51 25.11.2020
5182 Clear 14 1028 41 10000 0.39 36 08:29 25.11.2020
5183 Clear 17 1028 31 10000 3.1 40 03:55 25.11.2020
5184 Clouds 24 1025 15 10000 1.5 290 01:51 25.11.2020
5185 Clear 25 1024 15 10000 1.5 360 00:22 25.11.2020
5186 Clear 25 1024 15 9656 2.37 27 23:36 24.11.2020
5187 Clear 24 1025 16 9656 2.1 260 22:52 24.11.2020
5188 Clear 23 1026 20 9656 1.5 310 21:51 24.11.2020
5189 Clear 23 1026 20 9656 1.5 310 21:28 24.11.2020
5190 Clear 22 1029 21 10000 2.09 21 20:19 24.11.2020
5191 Clear 20 1030 32 10000 1.54 22 18:39 24.11.2020
5192 Clear 17 1030 36 10000 0.59 29 17:29 24.11.2020
5193 Clear 12 1030 50 10000 1.5 70 16:38 24.11.2020
5194 Clear 9 1030 61 10000 1.5 60 15:56 24.11.2020
5195 Clear 9 1030 61 10000 1.5 60 15:36 24.11.2020
5196 Clear 7 1029 65 10000 2.1 80 15:18 24.11.2020
5197 Clear 7 1029 65 10000 2.1 80 14:31 24.11.2020
5198 Clear 9 1028 57 10000 0.21 258 12:42 24.11.2020
5199 Clear 9 1028 57 10000 0.17 225 12:21 24.11.2020
5200 Clear 10 1028 57 10000 0.17 225 11:37 24.11.2020
5201 Clear 9 1028 66 10000 0.42 27 10:30 24.11.2020
5202 Clear 10 1028 61 10000 2.1 50 09:53 24.11.2020
5203 Clear 10 1028 61 10000 2.1 50 09:34 24.11.2020
5204 Clear 12 1029 54 10000 0.98 23 06:50 24.11.2020
5205 Clear 15 1028 38 10000 2.6 10 04:19 24.11.2020
5206 Clear 21 1026 21 10000 2.1 300 22:29 23.11.2020
5207 Clear 20 1027 25 10000 3.6 360 21:36 23.11.2020
5208 Clear 19 1028 27 10000 2.6 40 20:50 23.11.2020
5209 Clear 19 1028 27 10000 2.6 40 20:21 23.11.2020
5210 Clear 15 1031 44 10000 1.96 10 18:48 23.11.2020
5211 Clouds 12 1031 62 10000 3.6 60 17:25 23.11.2020
5212 Clouds 12 1031 62 10000 3.6 60 16:22 23.11.2020
5213 Clouds 9 1030 76 10000 2.01 10 14:47 23.11.2020
5214 Clouds 8 1029 87 10000 1.5 70 13:19 23.11.2020
5215 Clouds 8 1029 87 10000 1.5 70 12:36 23.11.2020
5216 Clouds 8 1029 75 10000 1.5 90 11:48 23.11.2020
5217 Clouds 8 1029 75 10000 3.1 70 10:50 23.11.2020
5218 Clouds 11 1030 66 10000 2.1 330 09:31 23.11.2020
5219 Clear 11 1030 62 10000 3.6 320 08:40 23.11.2020
5220 Clear 12 1030 58 10000 3.1 280 07:25 23.11.2020
5221 Clear 22 1024 19 10000 5.1 20 00:32 23.11.2020
5222 Clear 23 1024 17 10000 5.1 350 23:28 22.11.2020
5223 Clear 21 1026 22 10000 5.1 60 21:59 22.11.2020
5224 Clear 20 1027 22 10000 4.1 360 20:53 22.11.2020
5225 Clear 19 1027 34 10000 2.1 360 19:53 22.11.2020
5226 Clear 15 1030 51 10000 2.1 40 18:40 22.11.2020
5227 Mist 10 1030 87 6437 2.1 60 16:52 22.11.2020
5228 Mist 10 1030 93 4828 3.1 80 15:51 22.11.2020
5229 Fog 8 1029 87 10000 2.6 60 14:34 22.11.2020
5230 Clear 8 1028 87 10000 2.1 100 12:50 22.11.2020
5231 Clear 9 1028 81 10000 2.1 80 11:57 22.11.2020
5232 Clear 10 1029 76 10000 2.6 70 11:20 22.11.2020
5233 Clear 10 1029 76 10000 2.6 70 10:45 22.11.2020
5234 Clear 11 1029 71 10000 1.5 80 09:32 22.11.2020
5235 Clouds 18 1027 52 10000 5.1 10 01:48 22.11.2020
5236 Clouds 20 1027 42 10000 5.1 350 23:39 21.11.2020
5237 Clouds 20 1028 45 10000 3.6 350 21:57 21.11.2020
5238 Clouds 20 1028 45 10000 3.6 350 21:24 21.11.2020
5239 Clouds 19 1029 45 10000 2.1 350 20:34 21.11.2020
5240 Clouds 18 1030 52 10000 3.1 20 19:54 21.11.2020
5241 Clouds 18 1030 52 10000 3.1 20 19:27 21.11.2020
5242 Clouds 15 1032 67 10000 3.6 320 17:57 21.11.2020
5243 Clouds 15 1032 76 10000 2.6 80 16:49 21.11.2020
5244 Clouds 15 1032 76 10000 2.6 80 16:49 21.11.2020
5245 Clouds 15 1032 76 10000 2.6 80 16:26 21.11.2020
5246 Clouds 14 1031 76 8047 3.1 300 15:22 21.11.2020
5247 Clouds 13 1031 76 8047 3.1 300 14:43 21.11.2020
5248 Clouds 13 1030 76 9656 3.6 300 14:20 21.11.2020
5249 Clouds 13 1030 76 9656 3.6 300 14:20 21.11.2020
5250 Clouds 13 1030 76 10000 3.1 310 12:28 21.11.2020
5251 Clouds 13 1030 76 10000 4.1 300 11:58 21.11.2020
5252 Clouds 14 1030 71 10000 2.6 300 10:40 21.11.2020
5253 Clouds 14 1031 71 10000 3.6 300 09:58 21.11.2020
5254 Clouds 14 1031 71 10000 4.1 310 08:51 21.11.2020
5255 Clouds 15 1031 67 10000 5.1 290 06:34 21.11.2020
5256 Clouds 15 1031 59 10000 3.1 330 04:33 21.11.2020
5257 Clouds 17 1029 67 10000 4.1 280 00:45 21.11.2020
5258 Clouds 18 1028 52 10000 3.1 20 23:44 20.11.2020
5259 Clouds 19 1029 45 10000 4.1 50 22:25 20.11.2020
5260 Clouds 20 1029 45 10000 4.1 50 21:38 20.11.2020
5261 Clouds 19 1030 48 10000 3.1 320 21:20 20.11.2020
5262 Clouds 18 1031 52 9656 3.1 320 19:44 20.11.2020
5263 Clouds 17 1032 51 9656 2.3 3 18:36 20.11.2020
5264 Clouds 16 1033 55 9656 1.5 240 17:47 20.11.2020
5265 Clouds 14 1033 71 8047 1.5 110 17:23 20.11.2020
5266 Clouds 13 1033 71 8047 1.5 110 16:38 20.11.2020
5267 Clouds 11 1032 76 8047 2.1 80 15:56 20.11.2020
5268 Clouds 10 1031 81 8047 2.6 80 14:49 20.11.2020
5269 Clouds 10 1031 81 9656 2.6 60 13:43 20.11.2020
5270 Clouds 10 1030 81 10000 2.6 80 13:18 20.11.2020
5271 Clouds 10 1030 81 10000 2.6 80 12:33 20.11.2020
5272 Clouds 10 1030 81 10000 2.6 80 11:43 20.11.2020
5273 Clouds 11 1030 76 10000 2.6 70 10:45 20.11.2020
5274 Clouds 12 1031 71 10000 3.1 290 08:52 20.11.2020
5275 Clouds 12 1031 71 10000 2.6 270 08:23 20.11.2020
5276 Clear 14 1030 54 10000 3.6 290 05:20 20.11.2020
5277 Clear 17 1029 48 10000 2.6 320 03:43 20.11.2020
5278 Clear 21 1027 26 10000 1.14 346 22:35 19.11.2020
5279 Clear 20 1028 32 10000 2.1 70 21:55 19.11.2020
5280 Clear 20 1029 32 10000 1.5 240 21:19 19.11.2020
5281 Clear 18 1030 36 10000 2.1 70 20:31 19.11.2020
5282 Clear 16 1031 44 10000 3.1 20 19:45 19.11.2020
5283 Clear 16 1031 44 10000 3.1 20 19:22 19.11.2020
5284 Clouds 13 1033 58 10000 2.1 290 17:39 19.11.2020
5285 Clouds 10 1033 66 10000 2.1 130 16:48 19.11.2020
5286 Clouds 8 1033 75 10000 2.1 70 15:31 19.11.2020
5287 Clouds 6 1032 87 10000 3.1 60 14:31 19.11.2020
5288 Clouds 6 1032 87 10000 2.1 60 13:44 19.11.2020
5289 Clouds 9 1031 76 10000 4.1 290 12:57 19.11.2020
5290 Clouds 9 1031 76 10000 4.1 290 12:34 19.11.2020
5291 Clear 9 1031 76 10000 3.6 300 11:42 19.11.2020
5292 Clear 9 1031 76 10000 3.6 300 11:22 19.11.2020
5293 Clear 9 1031 76 10000 3.6 300 11:22 19.11.2020
5294 Clear 9 1032 76 10000 3.1 290 10:51 19.11.2020
5295 Clear 10 1032 71 10000 2.6 320 09:49 19.11.2020
5296 Clear 10 1032 71 10000 2.6 320 09:29 19.11.2020
5297 Clouds 11 1033 66 10000 2.6 340 08:58 19.11.2020
5298 Clouds 11 1033 71 10000 2.1 350 07:57 19.11.2020
5299 Clouds 15 1030 54 10000 4.6 310 01:50 19.11.2020
5300 Clouds 15 1030 51 10000 4.1 300 00:33 19.11.2020
5301 Clouds 15 1030 54 10000 3.1 290 23:47 18.11.2020
5302 Clouds 15 1030 54 10000 3.1 290 23:23 18.11.2020
5303 Clouds 15 1031 54 10000 3.6 340 22:29 18.11.2020
5304 Clouds 15 1031 54 10000 4.6 330 21:44 18.11.2020
5305 Clouds 15 1031 54 10000 4.6 330 21:26 18.11.2020
5306 Clouds 15 1032 54 10000 2.1 360 20:40 18.11.2020
5307 Clouds 14 1033 54 10000 4.6 30 19:44 18.11.2020
5308 Clouds 14 1033 54 10000 4.6 30 19:22 18.11.2020
5309 Clouds 14 1034 54 10000 4.6 340 18:45 18.11.2020
5310 Clouds 11 1035 62 10000 4.6 330 17:45 18.11.2020
5311 Clouds 10 1035 66 10000 4.1 320 16:54 18.11.2020
5312 Clouds 10 1034 66 10000 4.1 20 16:19 18.11.2020
5313 Clouds 10 1033 71 10000 5.1 360 14:42 18.11.2020
5314 Clouds 10 1033 76 10000 3.6 350 14:22 18.11.2020
5315 Clouds 10 1033 76 10000 3.6 350 13:26 18.11.2020
5316 Clouds 11 1033 71 10000 4.1 10 12:44 18.11.2020
5317 Clouds 11 1033 71 10000 4.6 330 11:56 18.11.2020
5318 Clouds 11 1033 76 10000 3.6 330 10:57 18.11.2020
5319 Clouds 11 1033 76 10000 3.6 330 10:30 18.11.2020
5320 Clouds 12 1034 76 10000 3.6 350 08:41 18.11.2020
5321 Clouds 11 1034 87 10000 2.6 350 06:49 18.11.2020
5322 Clouds 14 1034 58 10000 2.6 360 04:24 18.11.2020
5323 Clouds 16 1030 45 10000 7.2 20 00:20 18.11.2020
5324 Clouds 17 1030 45 10000 7.2 20 23:24 17.11.2020
5325 Clouds 18 1030 39 10000 7.2 20 22:44 17.11.2020
5326 Clouds 18 1030 39 10000 7.2 20 22:25 17.11.2020
5327 Clouds 17 1031 55 10000 4.6 30 21:46 17.11.2020
5328 Clouds 16 1032 55 10000 4.1 10 21:18 17.11.2020
5329 Clouds 16 1032 55 10000 4.1 10 20:42 17.11.2020
5330 Clouds 16 1032 55 10000 4.1 10 20:22 17.11.2020
5331 Clouds 15 1034 58 10000 5.1 330 18:37 17.11.2020
5332 Clouds 15 1034 58 10000 5.1 330 18:18 17.11.2020
5333 Clouds 14 1035 62 10000 4.1 290 17:27 17.11.2020
5334 Clouds 12 1034 66 10000 3.1 310 16:30 17.11.2020
5335 Clouds 12 1034 66 10000 3.1 20 15:51 17.11.2020
5336 Clouds 12 1034 66 10000 3.1 20 15:33 17.11.2020
5337 Clouds 12 1033 66 10000 2.1 10 14:57 17.11.2020
5338 Clouds 12 1033 66 10000 2.1 10 14:28 17.11.2020
5339 Clouds 12 1032 66 10000 2.1 10 13:41 17.11.2020
5340 Clouds 12 1032 66 10000 3.1 340 13:19 17.11.2020
5341 Clouds 12 1032 66 10000 3.1 340 12:40 17.11.2020
5342 Clouds 12 1031 66 10000 4.6 310 11:44 17.11.2020
5343 Clouds 12 1032 66 10000 4.1 20 10:56 17.11.2020
5344 Clouds 12 1032 66 10000 4.1 20 10:29 17.11.2020
5345 Clouds 12 1032 66 10000 3.1 340 09:51 17.11.2020
5346 Clouds 12 1032 66 10000 3.1 340 09:29 17.11.2020
5347 Clouds 12 1033 62 10000 5.7 360 08:23 17.11.2020
5348 Clouds 13 1033 62 10000 5.7 360 07:44 17.11.2020
5349 Clouds 13 1033 62 10000 3.6 360 06:34 17.11.2020
5350 Clouds 15 1031 51 10000 5.1 360 03:48 17.11.2020
5351 Clouds 15 1030 51 10000 6.2 10 02:53 17.11.2020
5352 Clouds 17 1029 45 10000 7.2 20 01:25 17.11.2020
5353 Clouds 17 1029 45 10000 8.2 10 00:53 17.11.2020
5354 Clouds 20 1027 35 10000 8.2 10 23:48 16.11.2020
5355 Clouds 21 1027 35 10000 8.2 10 23:29 16.11.2020
5356 Clouds 22 1027 24 10000 6.2 350 22:43 16.11.2020
5357 Clear 21 1029 21 10000 4.1 350 22:20 16.11.2020
5358 Clear 21 1029 21 10000 4.1 350 21:44 16.11.2020
5359 Clear 21 1029 21 10000 4.1 350 21:24 16.11.2020
5360 Clear 19 1030 24 10000 3.1 10 20:37 16.11.2020
5361 Clear 18 1031 27 10000 5.1 350 20:19 16.11.2020
5362 Clear 18 1031 27 10000 5.1 350 19:38 16.11.2020
5363 Clear 18 1031 29 10000 6.2 360 19:19 16.11.2020
5364 Clear 16 1033 36 10000 5.1 350 18:29 16.11.2020
5365 Clouds 15 1033 47 10000 3.1 10 17:42 16.11.2020
5366 Clouds 14 1033 62 10000 2.6 40 17:20 16.11.2020
5367 Clouds 13 1033 62 10000 2.6 40 16:52 16.11.2020
5368 Clouds 13 1033 62 10000 2.6 40 16:27 16.11.2020
5369 Clear 11 1032 71 10000 2.1 40 15:50 16.11.2020
5370 Clear 11 1032 71 10000 2.1 40 15:29 16.11.2020
5371 Clear 11 1032 71 10000 2.1 40 15:29 16.11.2020
5372 Clear 10 1031 71 10000 2.6 70 14:53 16.11.2020
5373 Clear 11 1031 66 10000 2.1 10 14:28 16.11.2020
5374 Clouds 11 1031 62 10000 3.1 40 13:30 16.11.2020
5375 Clouds 11 1030 66 10000 2.1 340 12:33 16.11.2020
5376 Clouds 12 1030 62 10000 3.1 360 11:43 16.11.2020
5377 Clouds 13 1031 62 10000 4.1 360 11:24 16.11.2020
5378 Clouds 13 1031 62 10000 4.1 360 10:46 16.11.2020
5379 Clouds 13 1031 62 10000 4.1 360 10:26 16.11.2020
5380 Clouds 14 1031 62 10000 2.6 20 09:53 16.11.2020
5381 Clouds 14 1031 62 10000 2.6 20 09:34 16.11.2020
5382 Clouds 14 1031 62 10000 5.1 30 08:48 16.11.2020
5383 Clouds 14 1031 58 10000 5.1 20 08:22 16.11.2020
5384 Clouds 15 1031 58 10000 5.1 20 07:29 16.11.2020
5385 Clouds 15 1031 58 10000 3.1 330 06:46 16.11.2020
5386 Clouds 15 1031 54 10000 2.6 340 05:48 16.11.2020
5387 Clear 14 1029 54 10000 5.7 340 03:54 16.11.2020
5388 Clear 18 1027 34 10000 8.7 20 01:45 16.11.2020
5389 Clear 23 1025 23 10000 10.3 20 00:33 16.11.2020
5390 Clear 24 1025 17 10000 9.8 40 23:32 15.11.2020
5391 Clear 24 1025 13 10000 7.2 40 22:58 15.11.2020
5392 Clear 24 1025 13 10000 7.2 40 22:25 15.11.2020
5393 Clear 24 1026 13 10000 6.2 340 21:54 15.11.2020
5394 Clear 24 1026 13 10000 6.2 340 21:35 15.11.2020
5395 Clear 24 1027 16 10000 4.6 20 20:58 15.11.2020
5396 Clear 24 1027 16 10000 4.6 20 20:38 15.11.2020
5397 Clear 24 1027 16 10000 4.6 20 20:38 15.11.2020
5398 Clear 23 1028 16 10000 7.2 350 19:57 15.11.2020
5399 Clear 23 1028 16 10000 7.2 350 19:38 15.11.2020
5400 Clear 23 1028 17 10000 7.2 20 19:19 15.11.2020
5401 Clear 21 1029 28 10000 1.5 330 18:45 15.11.2020
5402 Clear 21 1029 28 10000 1.5 330 18:25 15.11.2020
5403 Clear 19 1030 34 10000 1.5 90 17:47 15.11.2020
5404 Clear 19 1030 34 10000 1.5 90 17:26 15.11.2020
5405 Clear 18 1029 36 10000 2.7 20 16:58 15.11.2020
5406 Clear 18 1029 36 10000 2.7 20 16:38 15.11.2020
5407 Clear 16 1029 41 10000 1.96 14 16:18 15.11.2020
5408 Clear 13 1029 47 10000 1.96 14 15:42 15.11.2020
5409 Clear 13 1029 47 10000 1.45 4 15:22 15.11.2020
5410 Clear 10 1028 53 10000 2.1 70 14:50 15.11.2020
5411 Clear 10 1028 53 10000 2.1 70 14:25 15.11.2020
5412 Clear 10 1028 53 10000 2.1 70 14:25 15.11.2020
5413 Clear 10 1027 61 10000 1.5 60 13:41 15.11.2020
5414 Clear 11 1027 53 10000 2.1 60 13:18 15.11.2020
5415 Clear 11 1027 53 10000 2.1 60 12:42 15.11.2020
5416 Clear 11 1027 66 10000 1.5 80 12:19 15.11.2020
5417 Clear 11 1027 66 10000 1.5 80 11:42 15.11.2020
5418 Clear 11 1027 71 10000 1.01 22 11:18 15.11.2020
5419 Clear 13 1027 58 10000 2.1 70 10:49 15.11.2020
5420 Clear 13 1027 58 10000 2.1 70 10:30 15.11.2020
5421 Clear 15 1027 44 10000 1.5 80 09:46 15.11.2020
5422 Clear 15 1027 44 10000 1.5 80 09:23 15.11.2020
5423 Clear 15 1027 44 10000 0.9 7 08:54 15.11.2020
5424 Clear 15 1027 44 10000 0.99 9 08:31 15.11.2020
5425 Clear 16 1027 36 10000 2.1 310 07:44 15.11.2020
5426 Clouds 19 1027 32 10000 2.6 340 05:33 15.11.2020
5427 Clouds 19 1026 39 10000 2.6 30 04:51 15.11.2020
5428 Clouds 25 1023 16 9656 1.5 360 01:26 15.11.2020
5429 Clouds 25 1023 16 9656 1.64 19 00:29 15.11.2020
5430 Clear 25 1023 15 8047 4.1 60 23:41 14.11.2020
5431 Clear 26 1024 15 8047 2.6 50 22:53 14.11.2020
5432 Clear 26 1024 15 8047 2.6 50 22:33 14.11.2020
5433 Clear 26 1025 14 8047 2.1 320 21:45 14.11.2020
5434 Clear 26 1025 14 8047 2.1 320 21:23 14.11.2020
5435 Clear 26 1025 14 8047 1.94 21 20:59 14.11.2020
5436 Clear 24 1026 21 8047 1.5 290 20:30 14.11.2020
5437 Clear 23 1027 28 8047 2.6 330 19:58 14.11.2020
5438 Clear 23 1027 28 8047 2.6 330 19:36 14.11.2020
5439 Clear 22 1028 28 8047 1.5 70 18:55 14.11.2020
5440 Clear 20 1029 32 8047 1.66 24 18:36 14.11.2020
5441 Clear 19 1029 34 8047 1.5 130 18:18 14.11.2020
5442 Clear 19 1029 34 8047 1.5 130 17:41 14.11.2020
5443 Clear 16 1029 41 8047 0.67 34 17:20 14.11.2020
5444 Clear 16 1029 41 8047 0.67 34 16:44 14.11.2020
5445 Clear 16 1029 41 8047 0.32 54 16:24 14.11.2020
5446 Clear 13 1028 47 9656 2.1 80 15:52 14.11.2020
5447 Clear 13 1028 47 9656 2.1 80 15:29 14.11.2020
5448 Clear 10 1027 57 10000 2.1 60 14:49 14.11.2020
5449 Clear 10 1027 57 10000 2.1 60 14:26 14.11.2020
5450 Clear 9 1027 57 10000 2.1 80 13:49 14.11.2020
5451 Clear 9 1027 57 10000 2.1 80 13:26 14.11.2020
5452 Clear 10 1027 53 10000 0.47 208 12:48 14.11.2020
5453 Clear 10 1027 53 10000 0.67 186 12:30 14.11.2020
5454 Clear 10 1027 53 10000 0.67 186 11:46 14.11.2020
5455 Clear 10 1027 53 10000 0.71 179 11:25 14.11.2020
5456 Clear 11 1027 53 10000 2.6 60 10:49 14.11.2020
5457 Clear 11 1027 53 10000 2.6 60 10:26 14.11.2020
5458 Clear 12 1027 54 10000 0.52 181 09:51 14.11.2020
5459 Clear 12 1027 54 10000 0.31 180 09:28 14.11.2020
5460 Clear 14 1028 47 10000 0.31 180 08:59 14.11.2020
5461 Clear 14 1028 47 10000 0.31 180 08:38 14.11.2020
5462 Clear 14 1028 50 10000 2.6 60 07:51 14.11.2020
5463 Clear 14 1028 50 10000 2.6 60 07:28 14.11.2020
5464 Clear 18 1028 34 10000 0.29 313 06:35 14.11.2020
5465 Clear 19 1028 34 10000 0.38 342 05:52 14.11.2020
5466 Clear 21 1027 30 10000 3.1 120 04:22 14.11.2020
5467 Clear 24 1024 27 10000 5.7 130 01:21 14.11.2020
5468 Clear 24 1013 17 10000 0.5 11 23:49 13.11.2020
5469 Clear 25 1013 16 10000 0.9 23 23:26 13.11.2020
5470 Clear 25 1013 16 10000 0.9 23 22:55 13.11.2020
5471 Clear 25 1013 16 10000 1.2 19 22:29 13.11.2020
5472 Clear 26 1026 9 10000 2.6 120 21:59 13.11.2020
5473 Clear 26 1026 9 10000 2.6 120 21:39 13.11.2020
5474 Clear 26 1026 9 10000 2.6 120 21:20 13.11.2020
5475 Clear 25 1014 17 10000 1.35 9 20:42 13.11.2020
5476 Clear 24 1015 18 10000 1.42 16 20:22 13.11.2020
5477 Clear 24 1015 18 10000 1.42 16 19:46 13.11.2020
5478 Clear 24 1015 18 10000 1.42 16 19:46 13.11.2020
5479 Clear 22 1030 24 9656 1.43 14 19:23 13.11.2020
5480 Clear 22 1030 24 9656 1.43 14 18:56 13.11.2020
5481 Clear 22 1030 24 9656 1.33 15 18:25 13.11.2020
5482 Clear 20 1030 32 9656 1.33 15 17:43 13.11.2020
5483 Clear 20 1030 32 9656 1.33 15 17:43 13.11.2020
5484 Clear 17 1030 39 10000 1.5 70 17:19 13.11.2020
5485 Clear 17 1030 39 10000 1.5 70 16:49 13.11.2020
5486 Clear 17 1030 39 10000 1.5 70 16:24 13.11.2020
5487 Clear 11 1029 50 10000 1.5 90 15:50 13.11.2020
5488 Clear 11 1029 50 10000 1.5 90 15:27 13.11.2020
5489 Clear 11 1029 50 10000 1.5 90 14:50 13.11.2020
5490 Clear 11 1029 50 10000 1.5 90 14:25 13.11.2020
5491 Clear 11 1028 40 10000 1.5 50 13:53 13.11.2020
5492 Clear 11 1028 43 10000 0.73 25 13:27 13.11.2020
5493 Clear 11 1028 43 10000 0.65 30 12:48 13.11.2020
5494 Clear 11 1028 43 10000 0.68 18 12:25 13.11.2020
5495 Clear 12 1028 46 10000 1.5 70 11:50 13.11.2020
5496 Clear 12 1028 46 10000 1.5 70 11:32 13.11.2020
5497 Clear 13 1028 43 10000 0.56 25 10:58 13.11.2020
5498 Clear 13 1028 43 10000 0.56 25 10:39 13.11.2020
5499 Clear 13 1028 43 10000 0.63 25 10:21 13.11.2020
5500 Clear 14 1028 44 10000 2.1 100 09:43 13.11.2020
5501 Clear 14 1028 44 10000 2.1 100 09:23 13.11.2020
5502 Clear 15 1028 52 10000 3.1 60 08:52 13.11.2020
5503 Clear 16 1028 51 10000 2.6 40 08:21 13.11.2020
5504 Clear 18 1028 39 10000 2.1 320 07:45 13.11.2020
5505 Clear 18 1028 39 10000 2.1 320 07:26 13.11.2020
5506 Clear 19 1028 32 10000 1.5 340 06:49 13.11.2020
5507 Clear 20 1028 24 10000 4.1 340 05:58 13.11.2020
5508 Clear 20 1028 24 10000 4.1 340 05:30 13.11.2020
5509 Clear 24 1024 23 10000 4.6 30 01:46 13.11.2020
5510 Clear 25 1024 22 10000 2.1 320 00:53 13.11.2020
5511 Clear 25 1024 22 10000 2.1 320 00:32 13.11.2020
5512 Clear 26 1024 19 10000 1 80 23:38 12.11.2020
5513 Clear 26 1024 22 10000 3.6 40 23:19 12.11.2020
5514 Clear 26 1024 22 10000 3.6 40 23:19 12.11.2020
5515 Clear 26 1024 22 10000 3.6 40 22:50 12.11.2020
5516 Clear 26 1024 22 10000 3.6 40 22:32 12.11.2020
5517 Clear 25 1025 25 10000 2.6 310 21:56 12.11.2020
5518 Clear 25 1025 25 10000 2.6 310 21:36 12.11.2020
5519 Clear 25 1026 23 10000 3.1 80 21:18 12.11.2020
5520 Clear 25 1026 23 10000 3.1 80 20:39 12.11.2020
5521 Clear 25 1027 22 9656 3.1 80 20:21 12.11.2020
5522 Clear 23 1028 27 9656 2.6 310 19:47 12.11.2020
5523 Clear 23 1028 27 9656 2.6 310 19:29 12.11.2020
5524 Clear 23 1028 31 9656 0.8 46 18:52 12.11.2020
5525 Clear 21 1028 40 6437 0.56 92 18:24 12.11.2020
5526 Clear 21 1029 40 8047 0.56 92 17:48 12.11.2020
5527 Clear 21 1029 40 8047 0.64 119 17:29 12.11.2020
5528 Clear 19 1028 45 9656 0.64 119 16:47 12.11.2020
5529 Clear 19 1028 45 9656 0.65 135 16:27 12.11.2020
5530 Clear 16 1028 55 9656 0.65 135 15:59 12.11.2020
5531 Clear 16 1028 55 9656 0.65 135 15:41 12.11.2020
5532 Clear 14 1028 62 10000 0.57 131 15:21 12.11.2020
5533 Clear 11 1027 76 9656 1 60 14:46 12.11.2020
5534 Clear 11 1027 76 9656 1 60 14:25 12.11.2020
5535 Clear 12 1026 76 9656 2.1 90 13:55 12.11.2020
5536 Clear 12 1026 76 9656 2.1 90 13:36 12.11.2020
5537 Clear 12 1026 76 10000 2.1 70 13:18 12.11.2020
5538 Clear 12 1026 76 10000 2.1 70 12:42 12.11.2020
5539 Clear 12 1026 76 10000 2.1 70 12:19 12.11.2020
5540 Clear 12 1026 76 10000 2.1 70 11:46 12.11.2020
5541 Clear 12 1026 76 10000 2.1 70 11:27 12.11.2020
5542 Clear 13 1026 66 10000 1.5 70 10:41 12.11.2020
5543 Clear 13 1026 66 10000 1.5 70 10:23 12.11.2020
5544 Clear 14 1026 62 10000 1.5 60 09:47 12.11.2020
5545 Clear 15 1026 58 10000 0.45 76 09:23 12.11.2020
5546 Clear 15 1026 58 10000 0.45 76 08:57 12.11.2020
5547 Clear 15 1026 58 10000 0.45 76 08:39 12.11.2020
5548 Clear 15 1026 58 10000 0.45 76 08:39 12.11.2020
5549 Clear 15 1027 58 10000 0.49 55 08:19 12.11.2020
5550 Clear 17 1027 55 10000 1 70 07:42 12.11.2020
5551 Clear 18 1027 52 10000 1.5 70 07:19 12.11.2020
5552 Clear 18 1027 52 10000 1.5 70 06:49 12.11.2020
5553 Clear 18 1027 52 10000 3.6 90 05:23 12.11.2020
5554 Clear 20 1025 49 10000 5.1 100 03:21 12.11.2020
5555 Clear 22 1023 43 10000 5.7 120 01:33 12.11.2020
5556 Clear 26 1022 22 9656 2.12 52 23:59 11.11.2020
5557 Clear 26 1022 20 9656 2.28 51 23:25 11.11.2020
5558 Clear 25 1023 17 9656 2.28 51 22:58 11.11.2020
5559 Clear 25 1023 17 9656 2.28 51 22:39 11.11.2020
5560 Clear 26 1024 19 9656 2.3 49 22:20 11.11.2020
5561 Clear 26 1024 19 9656 2.3 49 21:43 11.11.2020
5562 Clear 26 1024 19 9656 1.95 49 21:25 11.11.2020
5563 Clear 25 1025 22 10000 2.6 30 20:58 11.11.2020
5564 Clear 25 1025 22 10000 2.6 30 20:40 11.11.2020
5565 Clear 25 1025 22 10000 2.6 30 20:21 11.11.2020
5566 Clear 24 1026 27 10000 1.51 52 19:48 11.11.2020
5567 Clear 24 1026 27 10000 0.98 49 19:30 11.11.2020
5568 Clear 23 1026 28 10000 0.98 49 18:53 11.11.2020
5569 Clear 21 1027 35 9656 0.98 49 18:33 11.11.2020
5570 Clear 20 1027 37 10000 2.1 110 17:42 11.11.2020
5571 Clear 20 1027 37 10000 2.1 110 17:23 11.11.2020
5572 Clear 17 1027 39 10000 1.5 70 16:54 11.11.2020
5573 Clear 17 1027 39 10000 1.5 70 16:33 11.11.2020
5574 Clear 13 1026 47 10000 1.5 90 15:50 11.11.2020
5575 Clear 13 1026 47 10000 1.5 90 15:27 11.11.2020
5576 Clear 10 1025 57 10000 2.1 60 14:56 11.11.2020
5577 Clear 10 1025 57 10000 2.1 60 14:37 11.11.2020
5578 Clear 12 1025 58 10000 2.6 80 13:57 11.11.2020
5579 Clear 12 1025 58 10000 2.6 80 13:35 11.11.2020
5580 Clear 13 1024 54 10000 0.87 204 12:50 11.11.2020
5581 Clear 14 1024 50 10000 0.89 203 12:21 11.11.2020
5582 Clear 14 1024 50 10000 0.89 203 11:50 11.11.2020
5583 Clear 14 1024 50 10000 0.7 207 11:30 11.11.2020
5584 Clear 15 1024 47 9656 1.5 260 10:43 11.11.2020
5585 Clear 15 1024 47 9656 1.5 260 10:24 11.11.2020
5586 Clear 16 1025 44 10000 0.62 203 09:49 11.11.2020
5587 Clear 16 1025 44 10000 0.56 196 09:28 11.11.2020
5588 Clear 16 1025 38 10000 0.56 196 08:51 11.11.2020
5589 Clear 16 1025 38 10000 0.39 165 08:30 11.11.2020
5590 Clear 17 1025 59 10000 1.5 360 07:58 11.11.2020
5591 Clear 17 1025 59 10000 1.5 360 07:39 11.11.2020
5592 Clear 17 1025 59 10000 1.5 50 06:30 11.11.2020
5593 Clear 19 1024 29 10000 5.1 60 04:47 11.11.2020
5594 Clear 25 1021 17 10000 2.1 10 01:33 11.11.2020
5595 Clear 26 1021 15 10000 1.5 290 00:54 11.11.2020
5596 Clear 26 1021 16 10000 3.1 360 23:57 10.11.2020
5597 Clear 26 1021 16 10000 3.1 360 23:25 10.11.2020
5598 Clear 26 1022 14 10000 2.1 290 22:57 10.11.2020
5599 Clear 26 1022 14 10000 2.1 290 22:28 10.11.2020
5600 Clear 26 1023 16 10000 2.1 20 21:56 10.11.2020
5601 Clear 26 1023 16 10000 2.1 20 21:38 10.11.2020
5602 Clear 26 1023 18 10000 2.1 20 21:19 10.11.2020
5603 Clear 24 1024 22 9656 2.05 29 20:43 10.11.2020
5604 Clear 24 1025 25 9656 2.11 24 20:23 10.11.2020
5605 Clear 24 1025 25 9656 2.11 24 19:56 10.11.2020
5606 Clear 24 1025 25 9656 2.11 24 19:37 10.11.2020
5607 Clear 23 1025 27 9656 1.5 240 19:18 10.11.2020
5608 Clear 21 1027 32 9656 1.86 18 18:41 10.11.2020
5609 Clear 21 1027 35 9656 1.59 12 18:20 10.11.2020
5610 Clear 19 1027 39 9656 1.5 60 17:44 10.11.2020
5611 Clear 19 1027 39 9656 1.5 60 17:26 10.11.2020
5612 Clear 18 1027 39 9656 1.09 14 16:58 10.11.2020
5613 Clear 16 1027 41 9656 1.09 14 16:38 10.11.2020
5614 Clear 16 1027 41 9656 0.69 7 16:20 10.11.2020
5615 Clear 14 1027 47 10000 0.69 7 15:46 10.11.2020
5616 Clear 14 1027 47 10000 0.26 323 15:25 10.11.2020
5617 Clear 9 1026 66 10000 3.1 50 14:42 10.11.2020
5618 Clear 9 1026 66 10000 3.1 50 14:23 10.11.2020
5619 Clear 10 1025 61 10000 0.36 310 13:57 10.11.2020
5620 Clear 10 1025 61 10000 0.36 310 13:36 10.11.2020
5621 Clear 10 1025 66 10000 0.59 322 13:18 10.11.2020
5622 Clear 10 1025 66 10000 0.65 314 12:44 10.11.2020
5623 Clear 10 1025 66 10000 0.56 295 12:24 10.11.2020
5624 Clear 10 1025 66 10000 2.6 60 11:40 10.11.2020
5625 Clear 11 1025 71 10000 2.1 80 11:21 10.11.2020
5626 Clear 11 1025 71 10000 2.1 80 10:46 10.11.2020
5627 Clear 11 1025 71 10000 2.1 80 10:27 10.11.2020
5628 Clear 13 1026 58 10000 1.5 40 09:55 10.11.2020
5629 Clear 13 1026 58 10000 1.5 40 09:37 10.11.2020
5630 Clear 14 1026 50 10000 1 50 09:19 10.11.2020
5631 Clear 14 1026 50 10000 1 50 08:45 10.11.2020
5632 Clear 14 1026 50 10000 1 50 08:24 10.11.2020
5633 Clear 16 1026 38 10000 0.45 352 07:42 10.11.2020
5634 Clear 16 1027 44 10000 2.1 60 07:20 10.11.2020
5635 Clear 16 1027 44 10000 2.1 60 06:39 10.11.2020
5636 Clear 18 1027 36 10000 2.1 30 05:34 10.11.2020
5637 Clear 17 1026 59 10000 4.1 60 04:36 10.11.2020
5638 Clouds 24 1023 22 10000 3.6 310 01:41 10.11.2020
5639 Clouds 25 1023 22 10000 2.59 15 00:55 10.11.2020
5640 Clouds 25 1023 20 10000 2.1 300 23:51 09.11.2020
5641 Clouds 25 1023 19 10000 2.1 300 23:23 09.11.2020
5642 Clouds 25 1024 19 10000 4.1 40 22:42 09.11.2020
5643 Clouds 25 1024 19 10000 4.1 40 22:22 09.11.2020
5644 Clouds 24 1024 22 10000 1.5 50 21:45 09.11.2020
5645 Clouds 24 1024 22 10000 1.5 50 21:45 09.11.2020
5646 Clouds 24 1024 22 10000 1.5 50 21:27 09.11.2020
5647 Clouds 23 1025 25 10000 3.1 300 20:44 09.11.2020
5648 Clouds 22 1027 28 10000 4.1 320 20:22 09.11.2020
5649 Clouds 22 1027 28 10000 4.1 320 19:49 09.11.2020
5650 Clouds 22 1027 28 10000 4.1 320 19:24 09.11.2020
5651 Clouds 22 1028 33 10000 3.1 240 18:59 09.11.2020
5652 Clouds 22 1028 33 10000 3.1 240 18:40 09.11.2020
5653 Clouds 21 1028 35 10000 2.6 240 18:19 09.11.2020
5654 Clear 16 1030 58 9656 1.5 250 17:44 09.11.2020
5655 Clouds 16 1028 48 10000 1.5 80 17:26 09.11.2020
5656 Clouds 16 1028 48 10000 1.5 80 16:44 09.11.2020
5657 Clouds 15 1028 51 10000 1.5 60 16:24 09.11.2020
5658 Clouds 12 1028 62 10000 2.1 80 15:47 09.11.2020
5659 Clouds 12 1028 62 10000 2.1 80 15:28 09.11.2020
5660 Clouds 10 1027 71 10000 2.6 60 14:51 09.11.2020
5661 Clouds 10 1027 71 10000 2.6 60 14:29 09.11.2020
5662 Clear 11 1026 62 10000 1.5 60 13:57 09.11.2020
5663 Clear 11 1026 62 10000 1.5 60 13:37 09.11.2020
5664 Clear 12 1026 58 10000 1.5 90 13:18 09.11.2020
5665 Clear 12 1026 58 10000 1.5 90 12:41 09.11.2020
5666 Clear 12 1026 58 10000 1.5 90 12:21 09.11.2020
5667 Clear 11 1026 62 10000 2.6 70 11:43 09.11.2020
5668 Clear 12 1026 62 10000 2.6 70 11:24 09.11.2020
5669 Clear 13 1026 58 10000 2.6 80 10:57 09.11.2020
5670 Clear 13 1026 58 10000 2.6 80 10:39 09.11.2020
5671 Clear 13 1026 58 10000 2.6 80 10:21 09.11.2020
5672 Clear 14 1026 54 10000 2.1 80 09:30 09.11.2020
5673 Clear 16 1027 44 10000 2.1 60 08:50 09.11.2020
5674 Clear 16 1027 44 10000 2.1 60 08:27 09.11.2020
5675 Clear 17 1027 45 10000 1.5 330 07:44 09.11.2020
5676 Clear 17 1027 45 10000 1.5 330 07:23 09.11.2020
5677 Clouds 17 1027 45 10000 1 12 06:52 09.11.2020
5678 Clouds 18 1027 52 10000 3.1 60 04:30 09.11.2020
5679 Clouds 21 1024 43 10000 5.7 110 01:57 09.11.2020
5680 Clouds 21 1024 43 10000 5.7 110 01:39 09.11.2020
5681 Clear 24 1023 22 9656 2.1 50 00:40 09.11.2020
5682 Clear 25 1023 22 10000 3.1 50 23:40 08.11.2020
5683 Clear 25 1023 20 10000 3.1 60 23:22 08.11.2020
5684 Clear 25 1023 20 10000 3.1 60 22:42 08.11.2020
5685 Clear 25 1023 20 10000 3.1 60 22:21 08.11.2020
5686 Clear 24 1024 23 10000 3.6 50 21:46 08.11.2020
5687 Clear 24 1024 23 10000 3.6 50 21:21 08.11.2020
5688 Clear 23 1025 31 10000 2.6 90 20:57 08.11.2020
5689 Clear 23 1025 31 10000 2.6 90 20:38 08.11.2020
5690 Clear 22 1026 33 10000 1.5 260 20:19 08.11.2020
5691 Clear 22 1026 33 10000 1.5 260 19:45 08.11.2020
5692 Clear 22 1026 35 10000 2.1 200 19:21 08.11.2020
5693 Clear 22 1026 35 10000 2.1 200 18:55 08.11.2020
5694 Clear 22 1026 35 10000 2.1 200 18:37 08.11.2020
5695 Clear 20 1027 45 9656 0.69 44 18:19 08.11.2020
5696 Clear 19 1027 45 9656 0.69 44 17:41 08.11.2020
5697 Clear 15 1027 51 10000 0.33 82 17:20 08.11.2020
5698 Clear 15 1027 51 10000 0.33 82 16:57 08.11.2020
5699 Clear 15 1027 51 10000 0.33 82 16:37 08.11.2020
5700 Clouds 14 1026 54 10000 1.5 70 16:18 08.11.2020
5701 Clouds 13 1026 54 10000 1.5 70 15:44 08.11.2020
5702 Clouds 13 1026 54 10000 1.5 70 15:25 08.11.2020
5703 Clouds 9 1025 70 10000 2.1 80 14:42 08.11.2020
5704 Clouds 9 1025 70 10000 2.1 80 14:23 08.11.2020
5705 Clouds 10 1025 66 10000 2.1 90 13:47 08.11.2020
5706 Clouds 10 1025 66 10000 2.1 90 13:24 08.11.2020
5707 Clear 10 1024 71 10000 2.1 70 12:47 08.11.2020
5708 Clear 10 1024 71 10000 2.1 70 12:29 08.11.2020
5709 Clear 10 1024 71 10000 2.1 80 11:58 08.11.2020
5710 Clear 12 1024 62 10000 0.18 202 11:40 08.11.2020
5711 Clear 13 1024 58 10000 1.5 70 11:21 08.11.2020
5712 Clear 13 1024 58 10000 1.5 70 10:50 08.11.2020
5713 Clear 13 1025 58 10000 1 110 10:20 08.11.2020
5714 Clear 13 1025 58 10000 1 110 09:57 08.11.2020
5715 Clear 13 1025 58 10000 1 110 09:39 08.11.2020
5716 Clear 13 1025 54 10000 2.6 80 09:18 08.11.2020
5717 Clear 14 1025 54 10000 2.6 80 08:40 08.11.2020
5718 Clear 14 1025 58 10000 2.1 90 08:20 08.11.2020
5719 Clear 15 1025 58 10000 2.1 90 07:52 08.11.2020
5720 Clear 16 1025 55 10000 1.5 10 07:28 08.11.2020
5721 Clear 16 1025 59 10000 0.6 21 06:23 08.11.2020
5722 Clouds 16 1025 59 10000 3.1 40 05:52 08.11.2020
5723 Clouds 17 1025 51 10000 4.1 70 04:50 08.11.2020
5724 Clouds 21 1022 45 10000 6.2 130 01:53 08.11.2020
5725 Clouds 22 1021 28 8047 3.6 80 01:19 08.11.2020
5726 Clouds 22 1021 28 8047 3.6 80 01:19 08.11.2020
5727 Clouds 23 1021 28 8047 3.6 80 00:27 08.11.2020
5728 Clouds 23 1022 28 9656 1.5 30 23:47 07.11.2020
5729 Clouds 23 1022 28 9656 1.5 30 23:28 07.11.2020
5730 Clear 23 1022 28 9656 2.6 190 22:44 07.11.2020
5731 Clear 23 1022 28 9656 2.6 190 22:25 07.11.2020
5732 Clear 23 1023 28 9656 1.5 100 21:54 07.11.2020
5733 Clear 23 1023 28 9656 1.5 100 21:36 07.11.2020
5734 Clouds 22 1024 33 9656 3.1 80 21:18 07.11.2020
5735 Clouds 22 1024 33 9656 3.1 80 20:40 07.11.2020
5736 Clouds 21 1025 37 8047 2.6 60 20:22 07.11.2020
5737 Clear 20 1026 48 6437 2.6 150 19:43 07.11.2020
5738 Clear 19 1026 48 6437 2.6 150 19:24 07.11.2020
5739 Haze 16 1026 63 4023 2.6 110 18:40 07.11.2020
5740 Mist 14 1027 67 2414 1.5 90 18:21 07.11.2020
5741 Mist 13 1027 76 2414 2.1 50 17:46 07.11.2020
5742 Mist 13 1027 76 2414 2.1 50 17:26 07.11.2020
5743 Mist 11 1027 87 1609 2.1 100 16:44 07.11.2020
5744 Mist 11 1027 87 1609 2.1 100 16:24 07.11.2020
5745 Mist 10 1027 93 1207 0.82 43 15:48 07.11.2020
5746 Fog 9 1026 93 805 1.5 80 15:25 07.11.2020
5747 Fog 9 1026 93 805 1.5 80 14:58 07.11.2020
5748 Fog 9 1026 93 805 1.5 80 14:40 07.11.2020
5749 Fog 9 1026 93 805 1.5 80 14:20 07.11.2020
5750 Mist 9 1026 93 3219 2.6 80 13:42 07.11.2020
5751 Mist 9 1025 93 4828 2.6 80 13:22 07.11.2020
5752 Mist 9 1025 93 4828 2.6 80 12:35 07.11.2020
5753 Clear 9 1025 93 6437 1.5 80 11:47 07.11.2020
5754 Clear 9 1025 93 6437 1.5 80 11:25 07.11.2020
5755 Clear 9 1025 93 9656 3.1 90 10:59 07.11.2020
5756 Clear 11 1025 81 10000 3.1 100 10:40 07.11.2020
5757 Clear 11 1025 81 10000 2.1 100 10:22 07.11.2020
5758 Clear 11 1025 81 10000 2.1 100 09:48 07.11.2020
5759 Clear 11 1025 81 10000 2.1 100 09:21 07.11.2020
5760 Clear 12 1025 81 10000 2.1 100 08:47 07.11.2020
5761 Clouds 13 1025 66 10000 2.6 90 08:29 07.11.2020
5762 Clouds 14 1026 62 10000 2.6 300 07:48 07.11.2020
5763 Clouds 15 1026 58 10000 3.6 290 06:54 07.11.2020
5764 Clouds 15 1026 58 10000 3.1 290 05:54 07.11.2020
5765 Clouds 18 1025 48 10000 4.6 360 04:22 07.11.2020
5766 Clouds 20 1023 42 10000 5.7 140 02:46 07.11.2020
5767 Clear 21 1022 35 6437 2.1 330 01:27 07.11.2020
5768 Clear 22 1022 33 6437 2.6 230 00:38 07.11.2020
5769 Clear 22 1022 31 6437 2.6 210 23:40 06.11.2020
5770 Clear 21 1023 35 6437 1.5 70 23:18 06.11.2020
5771 Clear 21 1023 35 6437 1.5 70 22:40 06.11.2020
5772 Clear 21 1023 35 6437 2.1 30 22:18 06.11.2020
5773 Clear 19 1024 39 6437 2.6 100 21:43 06.11.2020
5774 Clear 18 1025 42 6437 2.1 80 21:20 06.11.2020
5775 Clear 18 1025 42 6437 2.1 80 20:47 06.11.2020
5776 Clear 17 1026 45 6437 2.1 220 20:20 06.11.2020
5777 Clear 17 1026 45 6437 2.1 220 19:46 06.11.2020
5778 Clear 17 1026 45 6437 2.1 220 19:28 06.11.2020
5779 Clear 16 1026 48 6437 1.82 20 18:57 06.11.2020
5780 Clouds 14 1027 54 6437 1.5 50 18:39 06.11.2020
5781 Mist 12 1028 62 4828 2.6 20 18:19 06.11.2020
5782 Mist 12 1028 62 4828 2.6 20 18:19 06.11.2020
5783 Mist 12 1028 62 4828 2.6 20 17:47 06.11.2020
5784 Mist 12 1028 62 4828 2.6 20 17:24 06.11.2020
5785 Mist 11 1027 66 4828 1.5 100 16:45 06.11.2020
5786 Mist 11 1027 66 4828 1.5 100 16:22 06.11.2020
5787 Clouds 10 1027 71 8047 3.1 80 15:47 06.11.2020
5788 Clouds 10 1027 71 8047 3.1 80 15:26 06.11.2020
5789 Mist 9 1027 76 8047 3.1 60 14:50 06.11.2020
5790 Mist 9 1027 76 8047 3.1 60 14:23 06.11.2020
5791 Clouds 9 1027 76 8047 3.1 60 13:44 06.11.2020
5792 Clouds 8 1027 81 8047 3.1 70 13:21 06.11.2020
5793 Clouds 8 1027 81 8047 3.1 70 12:44 06.11.2020
5794 Clouds 8 1027 81 8047 3.1 70 12:23 06.11.2020
5795 Clouds 9 1027 81 9656 4.1 80 11:43 06.11.2020
5796 Clouds 10 1027 71 9656 2.6 120 11:24 06.11.2020
5797 Clouds 10 1027 71 9656 2.6 120 10:39 06.11.2020
5798 Clouds 10 1027 71 9656 1.5 330 10:19 06.11.2020
5799 Clouds 10 1027 71 9656 1.5 330 09:48 06.11.2020
5800 Clear 11 1028 71 9656 3.6 290 09:21 06.11.2020
5801 Clear 11 1028 71 9656 3.6 290 08:49 06.11.2020
5802 Clear 11 1028 71 9656 3.6 290 08:28 06.11.2020
5803 Clear 11 1028 71 10000 5.1 280 07:48 06.11.2020
5804 Clear 11 1028 71 10000 5.1 280 07:29 06.11.2020
5805 Clear 12 1028 58 10000 2.1 60 06:51 06.11.2020
5806 Clear 12 1028 58 10000 2.1 60 06:51 06.11.2020
5807 Clear 13 1028 58 10000 4.1 300 05:42 06.11.2020
5808 Clouds 18 1025 45 10000 5.1 310 03:18 06.11.2020
5809 Clear 22 1024 28 9656 5.7 290 00:48 06.11.2020
5810 Clear 23 1024 25 8047 2.1 250 00:19 06.11.2020
5811 Clear 23 1024 25 8047 2.1 250 23:29 05.11.2020
5812 Clear 23 1024 25 9656 4.1 300 22:57 05.11.2020
5813 Clear 23 1024 25 9656 4.1 300 22:37 05.11.2020
5814 Clear 20 1025 28 9656 2.6 10 22:18 05.11.2020
5815 Clear 20 1025 28 9656 2.6 10 21:42 05.11.2020
5816 Clear 20 1025 28 9656 2.6 10 21:21 05.11.2020
5817 Clear 18 1027 34 9656 1.5 360 20:45 05.11.2020
5818 Clear 18 1027 34 9656 1.5 360 20:26 05.11.2020
5819 Clear 17 1027 36 9656 2.55 352 19:58 05.11.2020
5820 Clear 15 1028 44 8047 3.6 80 19:40 05.11.2020
5821 Clear 14 1029 50 8047 2.1 260 19:20 05.11.2020
5822 Clear 14 1029 50 8047 2.1 260 18:42 05.11.2020
5823 Clear 14 1029 47 8047 2.12 11 18:23 05.11.2020
5824 Clouds 12 1030 54 8047 2.12 11 17:51 05.11.2020
5825 Clouds 12 1030 54 8047 1.8 11 17:27 05.11.2020
5826 Clouds 10 1030 66 6437 2.6 60 16:50 05.11.2020
5827 Clouds 10 1030 66 6437 2.6 60 16:29 05.11.2020
5828 Clouds 9 1030 70 8047 2.6 80 15:57 05.11.2020
5829 Clouds 9 1030 70 8047 2.6 80 15:39 05.11.2020
5830 Clouds 8 1029 70 8047 2.6 60 15:20 05.11.2020
5831 Clouds 8 1029 70 8047 2.6 60 14:44 05.11.2020
5832 Clouds 8 1029 70 8047 2.6 70 14:24 05.11.2020
5833 Clouds 8 1029 70 8047 2.6 70 13:41 05.11.2020
5834 Clouds 8 1029 70 8047 2.6 70 13:23 05.11.2020
5835 Clouds 8 1029 70 8047 2.6 70 13:23 05.11.2020
5836 Clouds 8 1029 75 8047 3.6 70 12:45 05.11.2020
5837 Clouds 8 1029 75 9656 2.1 70 12:23 05.11.2020
5838 Clouds 8 1029 75 9656 2.1 70 11:46 05.11.2020
5839 Clouds 8 1029 75 9656 2.1 70 11:25 05.11.2020
5840 Clouds 9 1029 70 10000 3.6 80 10:52 05.11.2020
5841 Clouds 9 1029 70 10000 3.6 80 10:30 05.11.2020
5842 Clouds 9 1029 76 10000 2.6 90 09:55 05.11.2020
5843 Clouds 9 1029 76 10000 2.6 90 09:37 05.11.2020
5844 Clouds 9 1029 76 10000 2.6 90 09:18 05.11.2020
5845 Clouds 9 1029 76 10000 2.6 90 08:43 05.11.2020
5846 Clouds 9 1029 76 10000 2.6 90 08:23 05.11.2020
5847 Clear 11 1030 71 10000 3.6 290 07:29 05.11.2020
5848 Clear 12 1030 62 10000 4.1 290 06:52 05.11.2020
5849 Clear 12 1030 62 10000 4.1 290 06:33 05.11.2020
5850 Clouds 17 1028 39 10000 2.6 10 03:47 05.11.2020
5851 Clear 21 1026 26 10000 4.1 310 00:59 05.11.2020
5852 Clear 23 1026 20 10000 3.6 30 00:26 05.11.2020
5853 Clear 23 1026 17 9656 3.1 270 23:43 04.11.2020
5854 Clear 23 1026 17 9656 3.1 270 23:25 04.11.2020
5855 Clear 22 1026 17 9656 3.6 20 22:45 04.11.2020
5856 Clear 22 1026 17 9656 3.6 20 22:23 04.11.2020
5857 Clear 22 1027 18 9656 2.7 357 21:48 04.11.2020
5858 Clear 20 1027 22 9656 3.6 20 21:29 04.11.2020
5859 Clear 19 1028 21 9656 5.1 20 20:56 04.11.2020
5860 Clear 19 1028 21 9656 5.1 20 20:56 04.11.2020
5861 Clear 19 1028 21 9656 5.1 20 20:37 04.11.2020
5862 Clear 18 1029 27 8047 2.1 360 20:18 04.11.2020
5863 Clear 18 1029 27 8047 2.1 360 19:42 04.11.2020
5864 Clear 18 1029 27 8047 2.1 360 19:42 04.11.2020
5865 Clear 18 1029 27 8047 2.1 360 19:24 04.11.2020
5866 Clear 16 1031 44 6437 1.5 170 18:43 04.11.2020
5867 Clear 16 1031 44 6437 1.5 170 18:24 04.11.2020
5868 Clear 14 1031 50 6437 2.6 100 17:54 04.11.2020
5869 Clear 12 1031 58 6437 1.5 120 17:36 04.11.2020
5870 Haze 9 1031 81 4828 1.5 60 17:18 04.11.2020
5871 Mist 7 1031 100 4828 2.6 90 16:37 04.11.2020
5872 Fog 4 1031 100 201 2.1 70 16:18 04.11.2020
5873 Fog 4 1031 100 201 2.1 70 15:42 04.11.2020
5874 Fog 4 1031 93 201 3.6 80 15:23 04.11.2020
5875 Mist 4 1031 100 1609 3.6 90 14:47 04.11.2020
5876 Mist 4 1031 100 1609 3.6 90 14:26 04.11.2020
5877 Mist 4 1030 93 1609 2.1 80 13:56 04.11.2020
5878 Clear 5 1030 86 10000 3.1 80 13:37 04.11.2020
5879 Clear 6 1029 87 10000 2.6 80 13:18 04.11.2020
5880 Clear 6 1029 87 10000 2.6 80 12:42 04.11.2020
5881 Clear 6 1030 87 10000 2.1 90 12:24 04.11.2020
5882 Clear 6 1030 87 10000 2.1 90 11:46 04.11.2020
5883 Clear 6 1030 87 10000 2.1 90 11:24 04.11.2020
5884 Clear 7 1030 87 10000 2.1 90 10:51 04.11.2020
5885 Clear 7 1030 87 10000 2.1 90 10:24 04.11.2020
5886 Clear 7 1030 87 10000 2.1 90 10:24 04.11.2020
5887 Clear 7 1030 87 10000 2.1 90 09:56 04.11.2020
5888 Clear 9 1030 70 10000 2.1 70 09:29 04.11.2020
5889 Clear 10 1030 71 10000 3.1 300 08:58 04.11.2020
5890 Clear 10 1030 71 10000 3.1 300 08:39 04.11.2020
5891 Clear 10 1030 66 10000 4.1 290 08:18 04.11.2020
5892 Clear 11 1030 66 10000 4.1 290 07:40 04.11.2020
5893 Clear 11 1030 66 10000 4.1 290 07:21 04.11.2020
5894 Clear 12 1030 66 10000 4.6 300 06:40 04.11.2020
5895 Clear 13 1030 62 10000 5.1 320 05:24 04.11.2020
5896 Clear 18 1028 45 10000 3.1 10 02:31 04.11.2020
5897 Clouds 20 1027 40 10000 5.1 20 01:38 04.11.2020
5898 Clouds 21 1026 37 10000 4.1 10 00:25 04.11.2020
5899 Clear 21 1026 35 10000 2.1 70 23:28 03.11.2020
5900 Clear 21 1027 35 10000 3.6 280 22:57 03.11.2020
5901 Clear 21 1027 35 10000 3.6 280 22:38 03.11.2020
5902 Clear 21 1027 37 10000 2.96 7 22:19 03.11.2020
5903 Clear 20 1028 39 10000 1.5 350 21:43 03.11.2020
5904 Clear 19 1028 39 10000 1.5 350 21:24 03.11.2020
5905 Clear 19 1028 39 10000 1.5 350 21:24 03.11.2020
5906 Clouds 16 1030 48 10000 2.1 310 20:49 03.11.2020
5907 Clouds 16 1030 48 10000 2.1 310 20:27 03.11.2020
5908 Clouds 16 1031 48 10000 2.6 280 19:55 03.11.2020
5909 Clouds 16 1031 48 10000 2.6 280 19:37 03.11.2020
5910 Clouds 15 1032 51 10000 3.1 220 19:19 03.11.2020
5911 Clouds 15 1032 51 10000 3.1 220 18:41 03.11.2020
5912 Clouds 12 1033 62 10000 4.1 280 18:19 03.11.2020
5913 Clouds 12 1033 62 10000 4.1 280 17:46 03.11.2020
5914 Clouds 12 1033 62 10000 4.1 280 17:27 03.11.2020
5915 Clouds 12 1033 62 10000 4.1 280 17:27 03.11.2020
5916 Clouds 11 1033 66 10000 2.61 4 16:51 03.11.2020
5917 Clouds 11 1033 66 10000 2.53 2 16:30 03.11.2020
5918 Clouds 10 1033 66 10000 1.5 290 15:53 03.11.2020
5919 Clouds 10 1033 66 10000 1.5 290 15:30 03.11.2020
5920 Clouds 10 1032 66 10000 2.6 20 14:57 03.11.2020
5921 Clouds 10 1032 66 10000 2.6 20 14:38 03.11.2020
5922 Clouds 10 1032 61 10000 2.6 300 14:19 03.11.2020
5923 Clouds 10 1032 61 10000 2.6 300 13:41 03.11.2020
5924 Clouds 10 1032 61 10000 2.6 290 13:21 03.11.2020
5925 Clouds 10 1032 61 10000 2.6 290 12:44 03.11.2020
5926 Clouds 10 1032 61 10000 3.1 290 12:21 03.11.2020
5927 Clouds 9 1032 61 10000 3.1 290 11:46 03.11.2020
5928 Clouds 9 1032 61 10000 3.1 290 11:24 03.11.2020
5929 Clear 9 1032 61 10000 2.6 300 10:55 03.11.2020
5930 Clear 10 1032 61 10000 2.6 300 10:37 03.11.2020
5931 Clear 10 1033 57 10000 2.6 320 10:18 03.11.2020
5932 Clear 10 1033 57 10000 2.6 320 09:44 03.11.2020
5933 Clear 10 1033 57 10000 2.6 320 09:22 03.11.2020
5934 Clouds 10 1034 57 10000 3.6 330 08:48 03.11.2020
5935 Clouds 10 1034 57 10000 3.6 330 08:29 03.11.2020
5936 Clouds 10 1034 57 10000 5.1 330 07:41 03.11.2020
5937 Clouds 10 1034 53 10000 4.1 330 07:19 03.11.2020
5938 Clear 10 1035 53 10000 5.1 350 06:21 03.11.2020
5939 Clear 11 1033 53 10000 6.7 30 03:59 03.11.2020
5940 Clear 16 1030 29 10000 3.6 360 00:44 03.11.2020
5941 Clear 18 1030 27 10000 5.1 330 00:20 03.11.2020
5942 Clear 18 1030 27 10000 5.1 330 23:42 02.11.2020
5943 Clear 17 1030 28 10000 5.1 350 22:57 02.11.2020
5944 Clear 17 1030 28 10000 5.1 350 22:39 02.11.2020
5945 Clear 17 1031 27 10000 7.2 30 22:21 02.11.2020
5946 Clear 17 1031 27 10000 7.2 30 21:39 02.11.2020
5947 Clear 17 1031 27 10000 7.2 30 21:39 02.11.2020
5948 Clear 17 1031 33 10000 6.7 40 21:20 02.11.2020
5949 Clear 15 1033 27 10000 6.7 40 20:42 02.11.2020
5950 Clear 15 1033 28 10000 6.7 40 20:20 02.11.2020
5951 Clouds 14 1034 28 10000 5.7 350 19:59 02.11.2020
5952 Clouds 14 1034 28 10000 5.7 350 19:41 02.11.2020
5953 Clouds 13 1035 43 10000 5.7 20 19:21 02.11.2020
5954 Clouds 13 1035 43 10000 5.7 20 18:41 02.11.2020
5955 Clouds 12 1035 46 10000 4.6 50 18:21 02.11.2020
5956 Clouds 12 1035 46 10000 4.6 50 17:56 02.11.2020
5957 Clouds 12 1035 46 10000 4.6 50 17:37 02.11.2020
5958 Clouds 11 1036 50 10000 5.1 40 17:18 02.11.2020
5959 Clouds 11 1036 50 10000 5.1 40 16:40 02.11.2020
5960 Clouds 11 1036 50 10000 5.1 40 16:21 02.11.2020
5961 Clouds 10 1036 53 10000 3.1 10 15:39 02.11.2020
5962 Clouds 10 1036 53 10000 3.1 10 15:21 02.11.2020
5963 Clouds 9 1035 57 10000 3.1 10 14:53 02.11.2020
5964 Clouds 9 1035 57 10000 3.1 10 14:20 02.11.2020
5965 Clouds 9 1035 61 10000 6.2 30 13:52 02.11.2020
5966 Clouds 9 1035 61 10000 6.2 30 13:23 02.11.2020
5967 Clouds 10 1035 61 10000 6.2 360 12:55 02.11.2020
5968 Clouds 10 1035 61 10000 6.2 360 12:30 02.11.2020
5969 Clouds 10 1034 66 10000 4.6 30 11:56 02.11.2020
5970 Clouds 10 1034 66 10000 4.6 30 11:37 02.11.2020
5971 Clouds 11 1034 62 10000 6.2 10 11:18 02.11.2020
5972 Clouds 11 1034 62 10000 6.2 10 10:41 02.11.2020
5973 Clouds 12 1034 62 10000 6.2 360 10:18 02.11.2020
5974 Clouds 12 1034 62 10000 6.2 360 09:48 02.11.2020
5975 Clouds 12 1035 62 10000 6.2 360 09:23 02.11.2020
5976 Clouds 12 1035 62 10000 6.2 360 08:40 02.11.2020
5977 Clouds 12 1035 62 10000 5.1 340 08:20 02.11.2020
5978 Clouds 12 1035 62 10000 5.1 340 07:49 02.11.2020
5979 Clouds 13 1035 58 10000 5.1 360 06:48 02.11.2020
5980 Clouds 13 1035 58 10000 5.1 360 06:24 02.11.2020
5981 Clouds 16 1030 55 10000 9.3 360 01:40 02.11.2020
5982 Clouds 18 1029 52 10000 10.3 10 00:44 02.11.2020
5983 Clouds 18 1029 52 10000 10.3 10 00:25 02.11.2020
5984 Clear 20 1018 45 10000 6.91 30 23:41 01.11.2020
5985 Clear 21 1017 37 10000 6.86 32 23:23 01.11.2020
5986 Clear 21 1017 37 10000 6.86 32 22:45 01.11.2020
5987 Clear 23 1017 33 10000 7.31 35 22:25 01.11.2020
5988 Clear 23 1017 33 10000 7.31 35 21:46 01.11.2020
5989 Clear 23 1018 30 10000 7.12 35 21:28 01.11.2020
5990 Clouds 24 1029 31 10000 5.7 30 20:59 01.11.2020
5991 Clouds 24 1029 31 10000 5.7 30 20:40 01.11.2020
5992 Clouds 24 1029 31 10000 5.7 30 20:20 01.11.2020
5993 Clouds 21 1031 40 10000 5.7 30 19:41 01.11.2020
5994 Clouds 21 1031 40 10000 5.7 30 19:22 01.11.2020
5995 Clear 22 1020 33 10000 4.18 19 18:42 01.11.2020
5996 Clear 22 1020 33 10000 4.18 19 18:42 01.11.2020
5997 Clear 20 1022 37 10000 3.59 18 18:20 01.11.2020
5998 Clear 20 1022 37 10000 3.59 18 18:20 01.11.2020
5999 Clear 20 1022 37 10000 3.59 18 17:57 01.11.2020
6000 Clear 17 1033 55 10000 1.5 50 17:37 01.11.2020
6001 Clear 17 1033 55 10000 1.5 50 17:19 01.11.2020
6002 Clear 17 1033 55 10000 1.5 50 16:40 01.11.2020
6003 Clear 15 1033 62 10000 1.5 70 16:19 01.11.2020
6004 Clear 16 1023 49 10000 2.7 12 15:41 01.11.2020
6005 Clouds 10 1031 76 10000 2.6 60 15:21 01.11.2020
6006 Clouds 10 1031 76 10000 2.6 60 14:57 01.11.2020
6007 Clouds 10 1031 76 10000 2.6 60 14:57 01.11.2020
6008 Clouds 10 1031 76 10000 2.6 60 14:39 01.11.2020
6009 Clear 11 1031 76 10000 2.1 70 14:18 01.11.2020
6010 Clear 11 1031 76 10000 2.1 70 13:46 01.11.2020
6011 Clear 11 1031 76 10000 2.1 70 13:28 01.11.2020
6012 Clear 11 1031 76 10000 2.6 60 12:43 01.11.2020
6013 Clear 11 1030 76 10000 2.6 70 12:22 01.11.2020
6014 Clear 11 1030 76 10000 2.6 70 11:51 01.11.2020
6015 Clear 12 1030 71 10000 2.6 70 11:19 01.11.2020
6016 Clear 12 1030 71 10000 2.6 70 10:43 01.11.2020
6017 Clear 12 1030 71 10000 2.6 70 10:24 01.11.2020
6018 Clear 13 1030 66 10000 3.1 70 09:55 01.11.2020
6019 Clear 13 1030 66 10000 3.1 70 09:35 01.11.2020
6020 Clear 14 1031 62 10000 4.1 80 08:46 01.11.2020
6021 Clouds 15 1031 58 10000 2.1 70 08:20 01.11.2020
6022 Clouds 15 1031 58 10000 2.1 70 07:39 01.11.2020
6023 Clouds 20 1029 52 10000 4.1 80 03:54 01.11.2020
6024 Clouds 22 1026 43 10000 6.7 140 01:49 01.11.2020
6025 Clouds 23 1025 40 10000 7.7 160 00:26 01.11.2020
6026 Clouds 25 1025 25 10000 2.1 50 23:25 31.10.2020
6027 Clouds 25 1026 27 10000 3.1 90 22:57 31.10.2020
6028 Clouds 25 1026 27 10000 3.1 90 22:37 31.10.2020
6029 Clouds 24 1027 29 10000 1.5 280 22:19 31.10.2020
6030 Clouds 24 1027 29 10000 1.5 280 21:43 31.10.2020
6031 Clouds 24 1028 31 10000 4.1 360 21:19 31.10.2020
6032 Clouds 24 1028 31 10000 4.1 360 20:38 31.10.2020
6033 Clouds 23 1028 35 10000 1 170 20:18 31.10.2020
6034 Clear 21 1029 40 10000 1 160 19:41 31.10.2020
6035 Clear 21 1029 40 10000 1 160 19:22 31.10.2020
6036 Clear 19 1030 39 10000 1.5 130 18:47 31.10.2020
6037 Clear 18 1030 39 10000 2.1 160 18:24 31.10.2020
6038 Clear 16 1031 51 10000 1.5 110 17:40 31.10.2020
6039 Clear 14 1031 54 10000 2.1 70 17:22 31.10.2020
6040 Clear 14 1031 54 10000 2.1 70 16:44 31.10.2020
6041 Clear 14 1031 54 10000 2.1 70 16:25 31.10.2020
6042 Clear 11 1030 71 10000 3.1 80 15:45 31.10.2020
6043 Clear 11 1030 71 10000 3.1 80 15:25 31.10.2020
6044 Clear 10 1030 71 10000 2.6 90 14:51 31.10.2020
6045 Clear 10 1030 71 10000 2.6 90 14:31 31.10.2020
6046 Clear 10 1029 71 10000 2.1 80 13:50 31.10.2020
6047 Clouds 11 1029 66 10000 2.6 80 13:27 31.10.2020
6048 Clouds 11 1029 66 10000 2.6 80 12:43 31.10.2020
6049 Clouds 12 1029 62 10000 4.1 80 12:18 31.10.2020
6050 Clouds 12 1029 62 10000 4.1 80 11:39 31.10.2020
6051 Clouds 13 1029 62 10000 2.6 80 11:20 31.10.2020
6052 Clouds 13 1029 62 10000 2.6 80 10:37 31.10.2020
6053 Clouds 14 1029 58 10000 2.6 110 09:48 31.10.2020
6054 Clouds 14 1029 58 10000 2.6 110 09:29 31.10.2020
6055 Clouds 14 1030 58 10000 2.6 90 08:52 31.10.2020
6056 Clouds 15 1030 54 10000 2.6 50 08:18 31.10.2020
6057 Clouds 15 1030 54 10000 2.6 50 07:28 31.10.2020
6058 Clouds 15 1030 58 10000 3.6 300 06:42 31.10.2020
6059 Clouds 16 1030 55 10000 4.1 300 06:20 31.10.2020
6060 Clouds 17 1027 48 10000 5.7 350 03:46 31.10.2020
6061 Clouds 21 1025 40 10000 4.6 20 01:44 31.10.2020
6062 Clouds 22 1025 35 10000 2.6 110 00:49 31.10.2020
6063 Clouds 22 1025 35 10000 3.6 80 23:53 30.10.2020
6064 Clouds 22 1025 35 10000 3.6 80 23:28 30.10.2020
6065 Clouds 23 1026 33 10000 1.5 130 22:56 30.10.2020
6066 Clouds 23 1026 33 10000 1.5 130 22:37 30.10.2020
6067 Clouds 22 1027 37 10000 1.5 100 22:18 30.10.2020
6068 Clouds 22 1027 37 10000 1.5 100 21:41 30.10.2020
6069 Clouds 21 1028 37 10000 3.6 300 21:22 30.10.2020
6070 Clouds 21 1028 37 10000 3.6 300 20:44 30.10.2020
6071 Clouds 21 1028 37 10000 3.6 300 20:25 30.10.2020
6072 Clouds 20 1028 40 10000 1.5 250 19:53 30.10.2020
6073 Clouds 18 1029 48 10000 1.5 110 19:21 30.10.2020
6074 Clouds 17 1030 48 10000 3.1 270 18:52 30.10.2020
6075 Clouds 17 1030 48 10000 3.1 270 18:34 30.10.2020
6076 Clouds 16 1030 51 10000 4.1 30 17:57 30.10.2020
6077 Clouds 16 1030 51 10000 4.1 30 17:39 30.10.2020
6078 Clouds 15 1030 58 10000 3.6 20 17:20 30.10.2020
6079 Clouds 14 1030 58 10000 3.6 20 16:49 30.10.2020
6080 Clouds 14 1030 58 10000 2.6 40 16:19 30.10.2020
6081 Clouds 14 1030 58 10000 2.6 40 15:41 30.10.2020
6082 Clouds 12 1029 66 10000 2.6 10 15:20 30.10.2020
6083 Clouds 12 1029 66 10000 2.6 10 14:45 30.10.2020
6084 Clouds 12 1029 66 10000 2.6 10 14:26 30.10.2020
6085 Clouds 12 1029 66 10000 2.6 350 13:47 30.10.2020
6086 Clouds 12 1029 66 10000 2.6 350 13:24 30.10.2020
6087 Clouds 12 1029 71 10000 2.6 10 12:58 30.10.2020
6088 Clouds 12 1028 76 10000 2.6 360 12:23 30.10.2020
6089 Clouds 12 1028 76 10000 2.6 360 11:57 30.10.2020
6090 Clouds 12 1028 76 10000 2.6 360 11:38 30.10.2020
6091 Clouds 12 1028 76 10000 2.6 300 11:18 30.10.2020
6092 Clouds 12 1028 76 10000 2.39 17 10:40 30.10.2020
6093 Clear 12 1028 76 10000 4.1 300 10:21 30.10.2020
6094 Clear 13 1028 76 10000 4.1 300 09:44 30.10.2020
6095 Clear 13 1028 76 10000 4.1 300 09:22 30.10.2020
6096 Clear 14 1029 71 10000 5.1 290 08:41 30.10.2020
6097 Clear 15 1029 71 10000 5.1 290 08:23 30.10.2020
6098 Clear 15 1029 71 10000 4.6 300 07:49 30.10.2020
6099 Clear 16 1028 59 10000 4.1 300 07:30 30.10.2020
6100 Clouds 18 1028 42 10000 4.1 360 06:35 30.10.2020
6101 Clouds 19 1027 39 10000 6.2 360 04:37 30.10.2020
6102 Clouds 21 1025 32 10000 6.2 30 02:24 30.10.2020
6103 Clouds 23 1024 31 10000 3.6 30 00:39 30.10.2020
6104 Clouds 23 1024 33 10000 5.1 20 23:48 29.10.2020
6105 Clouds 23 1024 33 10000 5.1 20 23:30 29.10.2020
6106 Clouds 23 1024 31 10000 5.1 70 22:50 29.10.2020
6107 Clouds 23 1024 31 10000 5.1 70 22:29 29.10.2020
6108 Clouds 23 1025 31 10000 4.1 340 21:56 29.10.2020
6109 Clouds 23 1025 31 10000 4.1 340 21:36 29.10.2020
6110 Clouds 23 1025 31 10000 3.1 30 21:18 29.10.2020
6111 Clouds 23 1025 31 10000 3.1 30 21:18 29.10.2020
6112 Clouds 23 1025 31 10000 3.1 30 20:40 29.10.2020
6113 Clear 24 1026 31 8047 2.6 100 20:19 29.10.2020
6114 Clear 22 1026 31 8047 2.6 100 19:42 29.10.2020
6115 Clear 22 1026 31 8047 2.6 100 19:21 29.10.2020
6116 Clear 21 1028 43 6437 1.5 40 18:48 29.10.2020
6117 Clear 21 1028 43 6437 1.5 40 18:29 29.10.2020
6118 Clear 21 1028 43 8047 2.1 40 17:55 29.10.2020
6119 Clear 21 1028 43 8047 2.1 40 17:37 29.10.2020
6120 Clear 18 1028 52 8047 1.44 29 17:18 29.10.2020
6121 Clear 18 1028 52 8047 1.44 29 17:18 29.10.2020
6122 Clear 18 1028 52 8047 1.44 29 16:43 29.10.2020
6123 Clear 14 1027 62 8047 3.1 80 16:18 29.10.2020
6124 Clear 14 1027 62 8047 3.1 80 15:41 29.10.2020
6125 Haze 13 1026 62 8047 1 70 15:22 29.10.2020
6126 Haze 13 1026 62 8047 1 70 14:59 29.10.2020
6127 Haze 13 1026 62 8047 1 70 14:59 29.10.2020
6128 Haze 13 1026 62 8047 1 70 14:59 29.10.2020
6129 Haze 13 1026 62 8047 1 70 14:40 29.10.2020
6130 Clear 13 1025 66 9656 1.5 80 14:20 29.10.2020
6131 Clear 13 1025 66 9656 1.5 80 13:45 29.10.2020
6132 Clear 13 1025 66 9656 1.5 80 13:26 29.10.2020
6133 Clouds 13 1025 62 9656 2.1 70 12:43 29.10.2020
6134 Clouds 15 1025 62 9656 1 60 12:19 29.10.2020
6135 Clouds 15 1025 62 9656 1 60 11:49 29.10.2020
6136 Clouds 15 1025 62 9656 1 60 11:27 29.10.2020
6137 Clouds 16 1025 59 9656 1 70 10:58 29.10.2020
6138 Clouds 16 1025 59 9656 1 70 10:36 29.10.2020
6139 Clouds 17 1025 51 10000 1.5 110 10:18 29.10.2020
6140 Clouds 17 1025 51 10000 1.5 110 09:46 29.10.2020
6141 Clouds 17 1025 55 10000 2.1 60 09:20 29.10.2020
6142 Clouds 17 1025 55 10000 2.1 60 08:40 29.10.2020
6143 Clouds 17 1025 52 10000 2.6 100 08:19 29.10.2020
6144 Clouds 18 1025 52 10000 2.6 100 07:48 29.10.2020
6145 Clouds 18 1025 55 10000 3.1 110 06:59 29.10.2020
6146 Clouds 18 1025 55 10000 3.1 110 06:24 29.10.2020
6147 Clouds 19 1024 48 10000 2.1 180 04:48 29.10.2020
6148 Clouds 21 1022 49 10000 4.47 130 02:18 29.10.2020
6149 Clouds 24 1020 33 10000 5.81 140 00:38 29.10.2020
6150 Clouds 24 1020 33 10000 5.81 140 00:18 29.10.2020
6151 Clouds 26 1020 26 10000 1.79 30 23:23 28.10.2020
6152 Clouds 25 1020 29 10000 2.68 30 22:59 28.10.2020
6153 Clouds 25 1020 29 10000 2.68 30 22:41 28.10.2020
6154 Clouds 25 1022 27 8047 2.1 200 22:22 28.10.2020
6155 Clouds 26 1022 27 8047 2.1 200 21:44 28.10.2020
6156 Clouds 26 1022 27 8047 2.1 200 21:25 28.10.2020
6157 Clouds 23 1023 35 8047 3.1 120 20:43 28.10.2020
6158 Clouds 23 1023 35 8047 3.1 120 20:23 28.10.2020
6159 Clouds 23 1024 35 8047 3.1 120 19:53 28.10.2020
6160 Clouds 23 1024 35 8047 3.1 120 19:31 28.10.2020
6161 Clouds 23 1024 35 8047 0.72 116 18:52 28.10.2020
6162 Clear 21 1025 46 8047 2.1 30 18:22 28.10.2020
6163 Clear 20 1026 49 9656 2.1 30 17:59 28.10.2020
6164 Clear 20 1026 49 9656 2.1 30 17:41 28.10.2020
6165 Clear 17 1025 55 10000 1.5 100 17:21 28.10.2020
6166 Clear 17 1025 55 10000 1.5 100 16:47 28.10.2020
6167 Clear 17 1025 55 10000 1.5 100 16:28 28.10.2020
6168 Clear 14 1025 62 10000 1.5 80 15:42 28.10.2020
6169 Clear 17 1016 52 10000 0.38 141 15:19 28.10.2020
6170 Clear 17 1016 52 10000 0.38 141 14:46 28.10.2020
6171 Mist 5 1026 93 4828 0.42 202 14:27 28.10.2020
6172 Clouds 13 1023 71 10000 0.65 215 12:59 28.10.2020
6173 Clear 13 1023 71 10000 0.51 243 12:36 28.10.2020
6174 Clouds 16 1014 55 10000 0.51 243 12:18 28.10.2020
6175 Clouds 15 1023 67 10000 0.51 243 11:42 28.10.2020
6176 Clouds 15 1023 67 10000 0.42 212 11:21 28.10.2020
6177 Clouds 16 1023 63 10000 0.42 212 10:53 28.10.2020
6178 Clouds 16 1023 63 10000 0.42 212 10:33 28.10.2020
6179 Clear 16 1024 63 10000 0.74 185 09:48 28.10.2020
6180 Clear 16 1024 63 10000 0.82 188 09:25 28.10.2020
6181 Clear 16 1024 67 10000 1.5 160 08:56 28.10.2020
6182 Clear 16 1024 67 10000 1.5 160 08:37 28.10.2020
6183 Clear 16 1024 63 10000 0.87 191 08:18 28.10.2020
6184 Clear 17 1024 63 10000 0.87 191 07:41 28.10.2020
6185 Clouds 17 1024 59 10000 2.1 240 07:19 28.10.2020
6186 Clouds 18 1024 59 10000 2.1 240 06:39 28.10.2020
6187 Clouds 18 1024 55 10000 3.1 130 05:48 28.10.2020
6188 Clouds 18 1024 55 10000 4.6 100 04:52 28.10.2020
6189 Clouds 18 1023 52 10000 3.1 110 04:23 28.10.2020
6190 Clouds 20 1022 49 10000 5.1 130 02:25 28.10.2020
6191 Clouds 24 1020 33 10000 5.1 130 00:39 28.10.2020
6192 Clouds 25 1020 27 10000 3.6 120 23:51 27.10.2020
6193 Clouds 25 1020 15 10000 3.1 180 23:22 27.10.2020
6194 Clouds 26 1020 15 10000 3.1 180 22:45 27.10.2020
6195 Clouds 26 1020 15 10000 3.1 180 22:25 27.10.2020
6196 Clouds 26 1021 13 10000 2.6 100 21:57 27.10.2020
6197 Clouds 26 1021 13 10000 2.6 100 21:39 27.10.2020
6198 Clouds 26 1021 12 10000 2.1 190 21:20 27.10.2020
6199 Clouds 26 1021 12 10000 2.1 190 20:54 27.10.2020
6200 Clouds 24 1022 16 10000 2.1 50 20:36 27.10.2020
6201 Clouds 24 1024 19 9656 2.6 150 20:18 27.10.2020
6202 Clouds 24 1024 19 9656 2.6 150 19:38 27.10.2020
6203 Clouds 23 1024 23 9656 2.1 150 19:20 27.10.2020
6204 Clouds 23 1024 23 9656 2.1 150 18:55 27.10.2020
6205 Clouds 22 1025 30 9656 2.1 80 18:37 27.10.2020
6206 Clouds 20 1025 32 10000 0.54 38 18:18 27.10.2020
6207 Clouds 18 1025 36 10000 1.5 100 17:40 27.10.2020
6208 Clouds 16 1025 41 10000 1.5 80 17:20 27.10.2020
6209 Clouds 16 1025 41 10000 1.5 80 16:46 27.10.2020
6210 Clouds 16 1025 41 10000 1.5 80 16:24 27.10.2020
6211 Clouds 14 1025 44 10000 1.5 100 15:43 27.10.2020
6212 Clouds 12 1024 57 10000 2.1 70 15:25 27.10.2020
6213 Clouds 10 1024 57 10000 2.1 70 14:52 27.10.2020
6214 Clouds 10 1024 57 10000 2.1 70 14:33 27.10.2020
6215 Clear 9 1023 57 10000 2.1 50 13:59 27.10.2020
6216 Clear 9 1023 57 10000 2.1 50 13:32 27.10.2020
6217 Clouds 10 1023 53 10000 1.5 70 12:54 27.10.2020
6218 Clouds 10 1023 53 10000 1.5 70 12:36 27.10.2020
6219 Clouds 11 1023 53 10000 2.6 60 12:18 27.10.2020
6220 Clouds 11 1023 53 10000 2.6 60 11:42 27.10.2020
6221 Clouds 13 1023 58 10000 0.6 200 11:21 27.10.2020
6222 Clouds 13 1023 58 10000 0.6 200 10:46 27.10.2020
6223 Clouds 13 1023 58 10000 0.66 207 10:22 27.10.2020
6224 Clouds 13 1024 58 10000 1 60 09:42 27.10.2020
6225 Clouds 13 1024 58 10000 1 60 09:23 27.10.2020
6226 Clouds 16 1024 48 10000 0.57 195 08:33 27.10.2020
6227 Clouds 17 1024 55 10000 1 180 07:58 27.10.2020
6228 Clouds 17 1024 55 10000 1 180 07:40 27.10.2020
6229 Clouds 17 1024 55 10000 1 180 07:21 27.10.2020
6230 Clouds 17 1025 48 10000 0.29 305 06:21 27.10.2020
6231 Clouds 18 1025 48 10000 0.29 305 05:47 27.10.2020
6232 Clouds 18 1025 48 10000 0.25 322 05:28 27.10.2020
6233 Clouds 19 1023 45 10000 3.6 80 03:38 27.10.2020
6234 Clouds 23 1021 29 10000 4.6 130 01:24 27.10.2020
6235 Clouds 26 1021 10 10000 1.39 21 00:44 27.10.2020
6236 Clouds 26 1021 11 10000 1.93 21 23:39 26.10.2020
6237 Clouds 26 1022 11 10000 3.1 350 23:18 26.10.2020
6238 Clouds 26 1022 11 10000 3.1 350 22:44 26.10.2020
6239 Clear 25 1023 12 10000 3.6 340 22:19 26.10.2020
6240 Clear 25 1023 12 10000 3.6 340 21:41 26.10.2020
6241 Clear 25 1024 14 10000 2.06 18 21:19 26.10.2020
6242 Clear 25 1024 14 10000 2.06 18 20:49 26.10.2020
6243 Clear 25 1024 14 10000 1.94 21 20:27 26.10.2020
6244 Clear 25 1024 14 10000 1.94 21 20:27 26.10.2020
6245 Clear 24 1024 15 10000 2.1 300 19:58 26.10.2020
6246 Clouds 23 1025 19 10000 1.5 20 19:40 26.10.2020
6247 Clouds 22 1025 19 10000 1.5 20 19:20 26.10.2020
6248 Clouds 22 1026 20 10000 1.56 25 18:42 26.10.2020
6249 Clouds 22 1026 20 10000 1.56 25 18:42 26.10.2020
6250 Clouds 21 1026 28 10000 1.21 32 18:22 26.10.2020
6251 Clouds 19 1027 34 10000 1.5 100 17:44 26.10.2020
6252 Clouds 18 1027 34 10000 1.5 100 17:24 26.10.2020
6253 Clouds 16 1027 38 10000 1.06 46 16:56 26.10.2020
6254 Clouds 14 1027 44 10000 1.5 90 16:37 26.10.2020
6255 Clouds 14 1027 44 10000 2.1 90 16:18 26.10.2020
6256 Clouds 12 1026 46 10000 2.1 60 15:39 26.10.2020
6257 Clouds 8 1025 61 10000 2.6 80 15:19 26.10.2020
6258 Clouds 8 1025 61 10000 2.6 80 14:45 26.10.2020
6259 Clouds 9 1025 57 10000 2.1 70 14:19 26.10.2020
6260 Clouds 9 1025 57 10000 2.1 70 13:42 26.10.2020
6261 Clouds 9 1025 57 10000 2.1 70 13:22 26.10.2020
6262 Clouds 9 1025 61 10000 2.1 70 12:47 26.10.2020
6263 Clouds 9 1025 61 10000 2.1 70 12:27 26.10.2020
6264 Clouds 9 1025 61 10000 2.1 70 11:55 26.10.2020
6265 Clouds 11 1025 57 10000 0.39 0 11:37 26.10.2020
6266 Clouds 11 1025 57 10000 0.39 0 11:37 26.10.2020
6267 Clouds 13 1025 47 10000 1.5 20 11:18 26.10.2020
6268 Clouds 13 1025 47 10000 1.5 20 10:42 26.10.2020
6269 Clouds 12 1025 58 10000 1.5 50 10:22 26.10.2020
6270 Clouds 12 1025 58 10000 1.5 50 09:43 26.10.2020
6271 Clouds 15 1026 36 10000 0.36 356 09:23 26.10.2020
6272 Clouds 15 1026 34 10000 0.66 3 08:29 26.10.2020
6273 Clouds 16 1026 31 10000 0.66 3 07:53 26.10.2020
6274 Clouds 16 1026 31 10000 0.66 3 07:35 26.10.2020
6275 Clear 17 1026 27 10000 2.6 80 06:38 26.10.2020
6276 Clear 18 1025 25 10000 4.1 80 04:44 26.10.2020
6277 Clear 18 1025 22 10000 2.1 60 04:18 26.10.2020
6278 Clear 24 1023 15 10000 3.1 360 01:52 26.10.2020
6279 Clear 24 1023 15 10000 3.1 360 01:23 26.10.2020
6280 Clear 25 1022 14 10000 2.1 350 00:32 26.10.2020
6281 Clear 25 1023 11 10000 2.1 360 23:41 25.10.2020
6282 Clear 25 1023 12 10000 3.1 350 23:21 25.10.2020
6283 Clear 24 1023 12 10000 3.1 350 22:41 25.10.2020
6284 Clear 23 1023 12 10000 3.1 350 22:21 25.10.2020
6285 Clear 23 1023 12 10000 3.1 350 22:21 25.10.2020
6286 Clouds 23 1025 15 10000 2.6 90 21:43 25.10.2020
6287 Clouds 23 1025 15 10000 2.6 90 21:24 25.10.2020
6288 Clouds 22 1026 17 10000 2.1 40 20:56 25.10.2020
6289 Clouds 22 1026 17 10000 2.1 40 20:37 25.10.2020
6290 Clouds 21 1027 20 10000 3.1 280 20:18 25.10.2020
6291 Clouds 21 1027 20 10000 3.1 280 19:48 25.10.2020
6292 Clouds 20 1027 22 10000 3.1 280 19:22 25.10.2020
6293 Clouds 19 1029 37 10000 2.06 17 18:55 25.10.2020
6294 Clouds 19 1029 37 10000 1.86 18 18:36 25.10.2020
6295 Clouds 18 1029 51 10000 1.5 80 18:18 25.10.2020
6296 Clouds 16 1029 51 10000 1.5 80 17:39 25.10.2020
6297 Clouds 16 1029 51 10000 1.5 80 17:21 25.10.2020
6298 Clouds 13 1029 54 10000 1.5 70 16:55 25.10.2020
6299 Clouds 13 1029 54 10000 1.5 70 16:37 25.10.2020
6300 Clouds 10 1029 57 10000 2.1 80 16:18 25.10.2020
6301 Clouds 10 1029 57 10000 2.1 80 15:41 25.10.2020
6302 Clouds 10 1029 57 10000 2.1 80 15:23 25.10.2020
6303 Clouds 7 1028 54 10000 3.1 80 14:40 25.10.2020
6304 Clear 8 1028 52 10000 3.1 80 14:21 25.10.2020
6305 Clear 8 1028 52 10000 3.1 80 13:42 25.10.2020
6306 Clear 9 1027 61 10000 2.6 80 13:20 25.10.2020
6307 Clear 9 1027 61 10000 2.6 80 12:47 25.10.2020
6308 Clear 9 1027 61 10000 2.6 80 12:26 25.10.2020
6309 Clouds 10 1027 76 10000 2.6 50 11:54 25.10.2020
6310 Clouds 10 1027 76 10000 2.6 50 11:36 25.10.2020
6311 Clouds 11 1027 76 10000 2.6 60 11:18 25.10.2020
6312 Clouds 11 1027 76 10000 2.6 60 10:43 25.10.2020
6313 Clouds 11 1027 76 10000 2.6 60 10:21 25.10.2020
6314 Clouds 12 1028 71 10000 1.5 110 09:43 25.10.2020
6315 Clouds 12 1028 71 10000 2.1 80 09:19 25.10.2020
6316 Clouds 12 1028 71 10000 2.1 80 08:44 25.10.2020
6317 Clouds 12 1028 71 10000 2.1 80 08:44 25.10.2020
6318 Clouds 12 1028 71 10000 2.1 80 08:26 25.10.2020
6319 Clouds 14 1028 66 10000 2.1 80 07:48 25.10.2020
6320 Clouds 15 1028 62 10000 3.6 340 07:25 25.10.2020
6321 Clouds 16 1028 55 10000 1.5 350 06:46 25.10.2020
6322 Clouds 16 1028 55 10000 3.1 40 05:43 25.10.2020
6323 Clouds 17 1028 48 10000 4.1 30 04:52 25.10.2020
6324 Clouds 20 1026 34 10000 7.2 50 02:58 25.10.2020
6325 Clouds 24 1025 19 10000 5.1 360 01:20 25.10.2020
6326 Clouds 24 1025 19 10000 6.7 350 00:42 25.10.2020
6327 Clear 24 1025 19 10000 6.2 330 00:18 25.10.2020
6328 Clear 24 1025 19 10000 6.2 330 23:43 24.10.2020
6329 Clear 24 1025 19 10000 6.2 330 23:24 24.10.2020
6330 Clear 24 1026 20 10000 3.6 360 22:42 24.10.2020
6331 Clear 24 1026 19 10000 3.6 360 22:23 24.10.2020
6332 Clear 23 1026 19 10000 5.7 10 21:57 24.10.2020
6333 Clear 21 1028 28 10000 3.6 360 21:38 24.10.2020
6334 Clear 20 1030 32 10000 4.1 10 21:19 24.10.2020
6335 Clear 20 1030 32 10000 4.1 10 20:45 24.10.2020
6336 Clear 20 1031 29 10000 4.6 40 20:22 24.10.2020
6337 Clear 19 1031 29 10000 4.6 40 19:45 24.10.2020
6338 Clear 19 1031 29 10000 4.6 40 19:25 24.10.2020
6339 Clear 18 1031 26 10000 5.1 10 18:55 24.10.2020
6340 Clear 16 1031 36 10000 3.48 18 18:36 24.10.2020
6341 Clouds 14 1031 28 10000 1.5 100 17:56 24.10.2020
6342 Clouds 14 1031 31 10000 1.5 100 17:27 24.10.2020
6343 Clouds 13 1031 43 10000 1.5 80 16:59 24.10.2020
6344 Clouds 10 1030 31 10000 2.1 50 16:41 24.10.2020
6345 Clouds 9 1030 49 10000 2.31 6 15:59 24.10.2020
6346 Clouds 9 1030 49 10000 2.31 6 15:38 24.10.2020
6347 Clouds 8 1029 49 10000 1.52 2 15:19 24.10.2020
6348 Clouds 8 1029 49 10000 1.36 5 14:42 24.10.2020
6349 Clouds 8 1029 49 10000 1.27 6 14:22 24.10.2020
6350 Clouds 8 1029 49 10000 1.27 6 13:44 24.10.2020
6351 Clouds 8 1029 49 10000 1.42 7 13:20 24.10.2020
6352 Clear 8 1029 49 10000 1.42 7 12:41 24.10.2020
6353 Clear 9 1029 45 10000 1.38 8 12:20 24.10.2020
6354 Clear 9 1029 45 10000 1.38 8 11:51 24.10.2020
6355 Clear 11 1028 40 10000 1.23 8 11:24 24.10.2020
6356 Clear 12 1029 40 10000 1.23 8 10:48 24.10.2020
6357 Clear 12 1029 40 10000 1.26 15 10:29 24.10.2020
6358 Clear 12 1030 40 10000 1.26 15 09:50 24.10.2020
6359 Clear 12 1030 40 10000 1.69 24 09:27 24.10.2020
6360 Clear 13 1030 37 10000 1.69 24 08:58 24.10.2020
6361 Clear 15 1030 30 10000 2.33 28 08:19 24.10.2020
6362 Clear 17 1030 27 10000 2.33 28 07:51 24.10.2020
6363 Clear 18 1030 25 10000 2.9 31 07:21 24.10.2020
6364 Clear 18 1030 25 10000 2.9 31 06:51 24.10.2020
6365 Clear 19 1029 24 10000 3.1 360 05:47 24.10.2020
6366 Clouds 23 1026 17 10000 8.2 10 02:26 24.10.2020
6367 Clear 25 1025 15 10000 6.2 10 00:57 24.10.2020
6368 Clear 25 1025 15 10000 6.2 10 00:37 24.10.2020
6369 Clear 25 1025 15 10000 6.2 10 00:37 24.10.2020
6370 Clear 25 1025 14 10000 6.2 350 00:19 24.10.2020
6371 Clear 25 1025 14 10000 6.2 350 23:43 23.10.2020
6372 Clear 25 1025 14 10000 6.2 350 23:22 23.10.2020
6373 Clear 25 1025 15 10000 8.2 350 22:42 23.10.2020
6374 Clear 25 1027 19 10000 4.1 340 22:22 23.10.2020
6375 Clear 25 1027 19 10000 4.1 340 22:22 23.10.2020
6376 Clear 24 1027 19 10000 4.1 340 21:58 23.10.2020
6377 Clear 24 1027 19 10000 4.1 340 21:39 23.10.2020
6378 Clear 24 1027 19 10000 3.6 20 21:20 23.10.2020
6379 Clear 22 1028 21 10000 5.1 10 20:39 23.10.2020
6380 Clear 21 1028 21 10000 5.1 10 20:20 23.10.2020
6381 Clear 21 1029 21 10000 1 20 19:45 23.10.2020
6382 Clear 21 1029 23 10000 1 20 19:26 23.10.2020
6383 Clear 20 1029 32 9656 3.19 29 18:48 23.10.2020
6384 Clear 19 1029 32 9656 2.08 21 18:30 23.10.2020
6385 Clear 17 1029 42 9656 2.08 21 17:47 23.10.2020
6386 Clear 17 1029 42 9656 1.62 15 17:22 23.10.2020
6387 Clear 14 1029 54 10000 2.1 90 16:55 23.10.2020
6388 Clear 12 1028 58 10000 1.5 70 16:35 23.10.2020
6389 Clear 10 1027 61 10000 2.1 90 15:58 23.10.2020
6390 Clear 10 1027 61 10000 2.1 90 15:40 23.10.2020
6391 Clear 8 1027 70 10000 2.1 60 15:20 23.10.2020
6392 Clear 8 1027 70 10000 2.1 60 15:20 23.10.2020
6393 Clear 8 1027 70 10000 2.1 60 14:48 23.10.2020
6394 Clear 8 1027 70 10000 2.1 60 14:29 23.10.2020
6395 Clear 11 1027 62 10000 1.02 16 13:43 23.10.2020
6396 Clear 11 1027 62 10000 1.27 10 13:23 23.10.2020
6397 Clear 11 1026 62 10000 1.27 10 12:51 23.10.2020
6398 Clear 11 1026 62 10000 1.36 9 12:31 23.10.2020
6399 Clear 13 1027 54 10000 1.36 9 11:51 23.10.2020
6400 Clear 13 1027 54 10000 1.33 4 11:28 23.10.2020
6401 Clear 13 1027 54 10000 3.1 60 10:55 23.10.2020
6402 Clear 13 1027 54 10000 3.1 60 10:37 23.10.2020
6403 Clear 14 1027 50 10000 2.6 50 10:19 23.10.2020
6404 Clear 15 1027 46 10000 2.1 290 09:43 23.10.2020
6405 Clear 16 1027 44 10000 2.1 310 09:23 23.10.2020
6406 Clear 17 1027 44 10000 2.1 310 08:50 23.10.2020
6407 Clear 17 1027 42 10000 2.1 310 08:26 23.10.2020
6408 Clear 18 1028 46 10000 2.1 290 07:27 23.10.2020
6409 Clear 19 1028 34 10000 1.5 360 06:49 23.10.2020
6410 Clear 19 1027 29 10000 4.1 10 06:20 23.10.2020
6411 Clouds 22 1025 19 10000 3.1 360 03:44 23.10.2020
6412 Clouds 23 1024 18 10000 4.6 20 02:27 23.10.2020
6413 Clouds 25 1023 13 10000 5.7 340 00:52 23.10.2020
6414 Clouds 25 1023 13 10000 5.7 340 00:32 23.10.2020
6415 Clouds 25 1024 15 10000 4.1 10 23:37 22.10.2020
6416 Clouds 25 1024 13 10000 5.1 310 23:19 22.10.2020
6417 Clouds 24 1024 13 10000 5.1 310 22:45 22.10.2020
6418 Clouds 24 1024 13 10000 5.1 310 22:23 22.10.2020
6419 Clouds 23 1025 27 9656 2.1 30 21:54 22.10.2020
6420 Clouds 23 1025 27 9656 2.1 30 21:32 22.10.2020
6421 Clouds 22 1026 35 8047 1.5 130 20:59 22.10.2020
6422 Clouds 22 1026 35 8047 1.5 130 20:41 22.10.2020
6423 Clouds 22 1026 35 8047 1.5 130 20:23 22.10.2020
6424 Clouds 18 1027 55 8047 1.5 160 19:43 22.10.2020
6425 Clear 17 1028 59 8047 1.71 16 19:20 22.10.2020
6426 Clear 17 1028 59 8047 1.71 16 18:44 22.10.2020
6427 Clouds 16 1028 72 8047 2.1 100 18:22 22.10.2020
6428 Clouds 15 1028 72 8047 2.1 100 17:48 22.10.2020
6429 Clouds 15 1028 72 8047 2.1 100 17:26 22.10.2020
6430 Clouds 11 1027 81 9656 2.1 60 16:59 22.10.2020
6431 Clouds 11 1027 81 9656 2.1 60 16:41 22.10.2020
6432 Clouds 11 1027 81 9656 2.1 60 16:23 22.10.2020
6433 Clouds 10 1026 81 9656 2.1 70 15:48 22.10.2020
6434 Clouds 10 1026 81 9656 2.1 70 15:26 22.10.2020
6435 Clouds 11 1026 81 9656 2.6 60 14:50 22.10.2020
6436 Clouds 11 1026 81 9656 2.6 60 14:27 22.10.2020
6437 Clouds 11 1026 81 10000 2.6 80 13:50 22.10.2020
6438 Clouds 11 1026 81 10000 2.6 80 13:24 22.10.2020
6439 Clouds 11 1026 87 10000 2.6 80 12:57 22.10.2020
6440 Clouds 11 1026 87 10000 2.6 80 12:27 22.10.2020
6441 Clouds 11 1026 87 10000 3.1 80 11:50 22.10.2020
6442 Clouds 11 1026 87 10000 3.1 80 11:21 22.10.2020
6443 Clouds 12 1026 76 10000 2.6 60 10:52 22.10.2020
6444 Clouds 12 1026 76 10000 2.6 60 10:30 22.10.2020
6445 Clouds 14 1026 62 10000 2.1 70 09:59 22.10.2020
6446 Clouds 14 1026 62 10000 2.1 70 09:41 22.10.2020
6447 Clouds 16 1026 55 10000 4.6 310 08:57 22.10.2020
6448 Clouds 16 1026 55 10000 4.6 310 08:38 22.10.2020
6449 Clouds 17 1026 51 10000 2.6 290 08:18 22.10.2020
6450 Clouds 17 1026 51 10000 2.6 290 07:43 22.10.2020
6451 Clouds 17 1026 51 10000 3.1 10 06:59 22.10.2020
6452 Clouds 17 1026 51 10000 3.1 10 06:36 22.10.2020
6453 Clouds 18 1026 52 10000 3.6 350 05:42 22.10.2020
6454 Clouds 18 1025 42 10000 6.7 40 05:20 22.10.2020
6455 Clouds 24 1022 17 10000 3.1 310 01:57 22.10.2020
6456 Clouds 25 1022 16 10000 3.6 10 00:27 22.10.2020
6457 Clouds 25 1023 16 10000 3.6 20 23:57 21.10.2020
6458 Clouds 25 1023 16 10000 3.6 20 23:35 21.10.2020
6459 Clouds 24 1024 19 10000 2.6 340 22:54 21.10.2020
6460 Clouds 24 1024 19 10000 2.6 340 22:36 21.10.2020
6461 Clouds 23 1025 19 10000 1.5 100 22:18 21.10.2020
6462 Clouds 23 1025 19 10000 1.5 100 21:42 21.10.2020
6463 Clouds 23 1025 21 10000 3.1 330 21:19 21.10.2020
6464 Clouds 22 1026 32 10000 3.6 360 20:48 21.10.2020
6465 Clouds 20 1027 45 10000 2.1 40 20:19 21.10.2020
6466 Clouds 20 1027 45 10000 2.1 40 19:57 21.10.2020
6467 Clouds 20 1027 45 10000 2.1 40 19:37 21.10.2020
6468 Clouds 20 1027 52 10000 1.5 30 19:18 21.10.2020
6469 Clouds 19 1027 52 10000 1.5 30 18:46 21.10.2020
6470 Clouds 18 1027 59 10000 1.93 18 18:21 21.10.2020
6471 Clouds 16 1027 59 10000 1.93 18 17:43 21.10.2020
6472 Clouds 15 1027 67 10000 1.5 110 17:20 21.10.2020
6473 Clouds 15 1027 67 10000 1.5 110 16:55 21.10.2020
6474 Clouds 15 1027 67 10000 1.5 110 16:36 21.10.2020
6475 Clouds 15 1027 67 10000 1.5 110 16:18 21.10.2020
6476 Clouds 14 1026 71 10000 2.1 30 15:42 21.10.2020
6477 Clouds 14 1026 71 10000 2.1 30 15:20 21.10.2020
6478 Clouds 14 1026 71 10000 2.6 300 14:44 21.10.2020
6479 Clouds 14 1026 71 10000 2.6 300 14:26 21.10.2020
6480 Clouds 15 1025 62 10000 1.5 30 13:45 21.10.2020
6481 Clouds 15 1025 62 10000 1.5 30 13:26 21.10.2020
6482 Clouds 15 1025 62 10000 2.6 360 12:48 21.10.2020
6483 Clouds 15 1025 62 10000 2.6 360 12:24 21.10.2020
6484 Clouds 15 1025 67 10000 3.1 320 11:59 21.10.2020
6485 Clouds 15 1025 67 10000 3.1 320 11:40 21.10.2020
6486 Clouds 15 1025 67 10000 3.1 320 11:40 21.10.2020
6487 Clouds 15 1025 67 10000 3.1 320 11:19 21.10.2020
6488 Clouds 15 1025 62 10000 2.6 300 10:43 21.10.2020
6489 Clouds 15 1025 62 10000 2.6 300 10:23 21.10.2020
6490 Clouds 16 1025 59 10000 2.6 290 09:52 21.10.2020
6491 Clouds 16 1025 59 10000 2.6 290 09:30 21.10.2020
6492 Clouds 16 1025 59 10000 4.1 310 08:42 21.10.2020
6493 Clouds 16 1025 59 10000 4.1 310 08:24 21.10.2020
6494 Clouds 17 1026 55 10000 3.1 360 07:58 21.10.2020
6495 Clouds 17 1026 55 10000 3.1 360 07:31 21.10.2020
6496 Clouds 18 1025 52 10000 3.1 30 06:50 21.10.2020
6497 Clouds 18 1025 52 10000 3.1 30 06:26 21.10.2020
6498 Clouds 19 1024 48 10000 6.2 30 04:46 21.10.2020
6499 Clouds 24 1021 25 10000 4.1 350 00:51 21.10.2020
6500 Clouds 24 1022 25 10000 3.1 10 23:49 20.10.2020
6501 Clouds 24 1023 25 10000 4.1 20 22:52 20.10.2020
6502 Clouds 24 1023 25 10000 4.1 20 22:27 20.10.2020
6503 Clouds 22 1024 30 10000 4.1 340 21:49 20.10.2020
6504 Clouds 21 1024 30 10000 4.1 340 21:20 20.10.2020
6505 Clouds 20 1025 42 10000 4.1 30 20:45 20.10.2020
6506 Clouds 20 1025 42 10000 4.1 30 20:26 20.10.2020
6507 Clouds 19 1026 52 8047 2.6 350 19:58 20.10.2020
6508 Clouds 19 1026 52 8047 2.6 350 19:40 20.10.2020
6509 Clouds 19 1026 52 8047 2.6 350 19:21 20.10.2020
6510 Clouds 19 1027 55 6437 2.6 350 18:47 20.10.2020
6511 Clouds 17 1027 63 6437 1.5 360 18:27 20.10.2020
6512 Clouds 15 1027 72 8047 2.6 80 17:43 20.10.2020
6513 Clouds 15 1027 72 8047 2.6 80 17:24 20.10.2020
6514 Clouds 14 1027 76 8047 3.1 50 16:48 20.10.2020
6515 Clouds 12 1027 87 8047 3.1 70 16:27 20.10.2020
6516 Clouds 12 1026 87 9656 3.1 80 15:51 20.10.2020
6517 Clouds 12 1026 87 9656 3.1 80 15:33 20.10.2020
6518 Clouds 14 1026 76 10000 3.1 70 14:59 20.10.2020
6519 Clouds 14 1026 76 10000 3.1 70 14:39 20.10.2020
6520 Clouds 14 1026 76 10000 3.1 70 14:21 20.10.2020
6521 Clouds 14 1025 76 10000 2.6 80 13:44 20.10.2020
6522 Clouds 14 1025 76 10000 2.6 80 13:23 20.10.2020
6523 Clouds 14 1025 71 10000 1.72 3 12:56 20.10.2020
6524 Clouds 14 1025 71 10000 1.72 3 12:38 20.10.2020
6525 Clouds 14 1025 71 10000 1.92 3 12:19 20.10.2020
6526 Clouds 15 1026 67 10000 2.6 290 11:37 20.10.2020
6527 Clouds 15 1026 67 10000 2.6 290 11:18 20.10.2020
6528 Clouds 15 1026 67 10000 4.1 300 10:29 20.10.2020
6529 Clouds 15 1027 62 10000 4.1 300 09:51 20.10.2020
6530 Clouds 15 1027 62 10000 4.1 300 09:21 20.10.2020
6531 Clouds 15 1027 62 10000 2.6 300 08:58 20.10.2020
6532 Clouds 15 1027 62 10000 2.6 300 08:31 20.10.2020
6533 Clear 16 1027 59 10000 2.6 20 07:51 20.10.2020
6534 Clear 16 1027 59 10000 2.6 20 07:25 20.10.2020
6535 Clouds 17 1026 55 10000 5.1 20 06:29 20.10.2020
6536 Clear 18 1026 52 10000 4.1 350 05:43 20.10.2020
6537 Clouds 20 1025 45 10000 4.6 40 03:55 20.10.2020
6538 Clouds 23 1023 31 10000 7.2 10 02:18 20.10.2020
6539 Clouds 24 1022 27 10000 5.7 30 00:58 20.10.2020
6540 Clouds 24 1022 27 10000 5.7 30 00:39 20.10.2020
6541 Clouds 24 1022 27 10000 5.7 30 00:19 20.10.2020
6542 Clouds 24 1023 29 10000 4.1 250 23:40 19.10.2020
6543 Clouds 24 1023 29 10000 4.1 250 23:19 19.10.2020
6544 Clouds 23 1024 35 8047 2.72 16 22:43 19.10.2020
6545 Clouds 23 1024 35 8047 2.6 13 22:21 19.10.2020
6546 Clouds 22 1025 37 8047 2.1 20 21:43 19.10.2020
6547 Clouds 22 1025 37 8047 2.1 20 21:21 19.10.2020
6548 Clouds 20 1027 49 8047 1.5 30 20:46 19.10.2020
6549 Clouds 20 1027 49 8047 1.5 30 20:27 19.10.2020
6550 Mist 17 1028 72 4828 2.75 17 19:48 19.10.2020
6551 Mist 17 1028 72 4828 2.43 17 19:22 19.10.2020
6552 Mist 17 1028 72 4828 2.43 17 19:22 19.10.2020
6553 Mist 16 1028 72 3219 2.6 130 18:53 19.10.2020
6554 Mist 15 1028 82 3219 2.6 90 18:33 19.10.2020
6555 Fog 12 1028 93 805 2.03 15 17:57 19.10.2020
6556 Fog 12 1028 93 805 2.03 15 17:39 19.10.2020
6557 Fog 12 1028 93 805 1.73 13 17:20 19.10.2020
6558 Fog 11 1028 93 302 2.1 80 16:42 19.10.2020
6559 Fog 11 1028 93 302 2.1 80 16:21 19.10.2020
6560 Clouds 14 1027 76 10000 2.68 80 15:40 19.10.2020
6561 Clouds 14 1027 76 10000 2.68 80 15:22 19.10.2020
6562 Clouds 14 1027 76 10000 2.68 80 14:50 19.10.2020
6563 Clouds 14 1027 76 10000 2.68 80 14:24 19.10.2020
6564 Clouds 14 1027 76 10000 2.68 80 13:49 19.10.2020
6565 Clouds 14 1027 76 10000 2.68 80 13:31 19.10.2020
6566 Clouds 14 1027 76 10000 2.68 80 12:49 19.10.2020
6567 Rain 14 1027 76 10000 2.68 80 12:31 19.10.2020
6568 Clouds 14 1027 76 10000 2.68 80 11:51 19.10.2020
6569 Rain 14 1027 76 10000 2.68 80 11:25 19.10.2020
6570 Clouds 14 1027 76 10000 3.1 80 10:56 19.10.2020
6571 Clouds 14 1027 76 10000 3.1 80 10:36 19.10.2020
6572 Clouds 14 1027 76 10000 3.1 80 10:36 19.10.2020
6573 Clouds 14 1028 82 10000 3.1 80 10:18 19.10.2020
6574 Haze 16 1028 82 9656 2.1 90 09:42 19.10.2020
6575 Clouds 16 1028 82 10000 1 160 09:19 19.10.2020
6576 Clouds 16 1028 82 10000 1 160 08:47 19.10.2020
6577 Clouds 16 1028 82 10000 1 160 08:21 19.10.2020
6578 Clouds 16 1028 77 10000 2.6 90 07:22 19.10.2020
6579 Clouds 16 1028 77 10000 2.6 90 06:51 19.10.2020
6580 Clouds 16 1028 77 10000 2.72 1 06:18 19.10.2020
6581 Clouds 15 1026 82 9656 7.2 230 03:47 19.10.2020
6582 Thunderstorm 16 1025 72 9656 4.1 160 01:59 19.10.2020
6583 Clouds 21 1023 49 10000 5.1 150 00:46 19.10.2020
6584 Clouds 25 1023 31 10000 3.1 230 00:19 19.10.2020
6585 Clouds 25 1023 31 10000 3.1 230 23:43 18.10.2020
6586 Clouds 25 1023 31 10000 3.1 230 23:21 18.10.2020
6587 Clouds 24 1024 33 10000 3.1 40 22:46 18.10.2020
6588 Clouds 23 1026 40 10000 4.1 20 22:21 18.10.2020
6589 Clouds 23 1026 40 10000 4.1 20 21:50 18.10.2020
6590 Clouds 22 1026 40 10000 4.1 20 21:30 18.10.2020
6591 Clouds 22 1027 43 10000 2.18 27 20:56 18.10.2020
6592 Clouds 22 1027 43 10000 2.18 27 20:38 18.10.2020
6593 Clear 21 1028 46 8047 1.71 24 20:19 18.10.2020
6594 Clear 21 1028 46 8047 1.56 32 19:41 18.10.2020
6595 Clear 20 1029 52 8047 1.21 31 19:19 18.10.2020
6596 Clear 19 1029 52 8047 1.21 31 18:46 18.10.2020
6597 Clear 19 1029 52 8047 1.17 27 18:24 18.10.2020
6598 Clear 15 1029 72 6437 1.17 27 17:43 18.10.2020
6599 Clear 15 1029 72 6437 1.06 30 17:24 18.10.2020
6600 Mist 12 1029 93 3219 1.5 70 16:44 18.10.2020
6601 Mist 12 1029 93 3219 1.5 70 16:26 18.10.2020
6602 Mist 11 1028 93 3219 2.6 90 15:55 18.10.2020
6603 Mist 11 1028 93 3219 2.6 90 15:37 18.10.2020
6604 Clear 11 1028 87 10000 2.1 100 15:18 18.10.2020
6605 Clear 11 1028 87 10000 2.1 100 14:43 18.10.2020
6606 Clear 11 1028 87 10000 2.1 100 14:25 18.10.2020
6607 Clear 12 1027 81 10000 2.6 100 13:45 18.10.2020
6608 Clear 12 1027 81 10000 2.6 100 13:26 18.10.2020
6609 Clear 12 1027 87 10000 1.11 26 12:57 18.10.2020
6610 Clear 12 1027 87 10000 1.11 26 12:39 18.10.2020
6611 Clear 12 1027 81 10000 2.6 50 12:19 18.10.2020
6612 Clear 12 1027 81 10000 2.6 50 11:40 18.10.2020
6613 Clear 12 1027 81 10000 2.6 50 11:22 18.10.2020
6614 Clear 13 1028 76 10000 4.1 70 10:40 18.10.2020
6615 Clouds 13 1028 71 10000 2.6 100 10:19 18.10.2020
6616 Clouds 14 1028 71 10000 2.6 100 09:47 18.10.2020
6617 Clouds 15 1029 63 10000 2.1 290 09:21 18.10.2020
6618 Clouds 16 1029 63 10000 2.1 290 08:56 18.10.2020
6619 Clouds 16 1029 63 10000 2.1 290 08:36 18.10.2020
6620 Clear 16 1029 63 10000 4.1 300 08:18 18.10.2020
6621 Clouds 18 1028 55 10000 3.6 350 05:59 18.10.2020
6622 Clouds 18 1027 55 10000 5.1 360 03:58 18.10.2020
6623 Clouds 21 1026 43 10000 4.6 20 02:54 18.10.2020
6624 Clouds 23 1025 27 10000 2.1 300 01:36 18.10.2020
6625 Clouds 24 1025 29 10000 2.6 260 00:46 18.10.2020
6626 Clouds 24 1025 29 10000 2.6 260 00:24 18.10.2020
6627 Clouds 22 1026 30 10000 1 110 23:42 17.10.2020
6628 Clouds 22 1027 33 10000 3.1 340 23:21 17.10.2020
6629 Clouds 22 1027 33 10000 3.1 340 22:57 17.10.2020
6630 Clouds 22 1027 33 10000 3.1 340 22:39 17.10.2020
6631 Clouds 22 1028 35 10000 2.1 210 22:18 17.10.2020
6632 Clouds 20 1029 40 10000 2.6 310 21:43 17.10.2020
6633 Clouds 19 1030 45 10000 2.6 320 21:21 17.10.2020
6634 Clouds 19 1030 45 10000 2.6 320 20:46 17.10.2020
6635 Clouds 19 1030 45 10000 2.6 320 20:21 17.10.2020
6636 Clouds 17 1031 51 10000 2.1 80 19:45 17.10.2020
6637 Clouds 18 1031 48 10000 1.5 40 19:23 17.10.2020
6638 Clouds 16 1031 48 10000 2.35 11 18:47 17.10.2020
6639 Clouds 16 1031 48 10000 2.51 9 18:28 17.10.2020
6640 Clouds 15 1031 51 10000 3.1 310 17:57 17.10.2020
6641 Clouds 15 1031 51 10000 3.1 310 17:38 17.10.2020
6642 Clouds 12 1031 66 10000 2.6 260 17:19 17.10.2020
6643 Clouds 12 1031 66 10000 2.6 260 16:42 17.10.2020
6644 Clouds 11 1030 71 10000 1 50 16:19 17.10.2020
6645 Clouds 11 1030 71 10000 1 50 15:43 17.10.2020
6646 Clouds 11 1030 71 10000 4.1 290 15:22 17.10.2020
6647 Clouds 11 1030 71 10000 4.1 290 14:57 17.10.2020
6648 Clouds 11 1030 71 10000 4.1 290 14:38 17.10.2020
6649 Clear 12 1030 71 10000 3.6 320 14:19 17.10.2020
6650 Clear 12 1030 71 10000 3.6 320 13:44 17.10.2020
6651 Clear 12 1030 71 10000 3.6 320 13:25 17.10.2020
6652 Clear 12 1029 66 10000 2.6 360 12:57 17.10.2020
6653 Clear 12 1029 66 10000 2.6 360 12:37 17.10.2020
6654 Clear 12 1029 71 10000 3.1 10 12:18 17.10.2020
6655 Clear 12 1029 71 10000 3.1 10 11:31 17.10.2020
6656 Clouds 13 1030 71 10000 6.2 350 10:50 17.10.2020
6657 Clouds 13 1030 71 10000 6.2 350 10:31 17.10.2020
6658 Clouds 14 1030 71 10000 5.7 30 09:50 17.10.2020
6659 Clouds 14 1030 71 10000 5.7 30 09:32 17.10.2020
6660 Clouds 14 1030 71 10000 5.1 20 08:54 17.10.2020
6661 Clouds 14 1030 71 10000 5.1 20 08:24 17.10.2020
6662 Clouds 15 1030 71 10000 5.7 30 07:44 17.10.2020
6663 Clouds 15 1030 72 10000 6.2 20 06:56 17.10.2020
6664 Clouds 16 1029 67 10000 7.7 20 05:31 17.10.2020
6665 Clouds 18 1026 52 10000 6.2 360 02:30 17.10.2020
6666 Clouds 19</